GFSGL_sfc_wetblb_003.txt.gz
Wetbulb
62.53 63.18 63.58 64.46 65.31 65.42 65.78 66.09 64.38 64.99 63.49 65.56 65.65 65.70 65.29 65.80 66.91 67.77 67.68 66.00 64.55 63.61 63.08 61.38 60.99 60.66 60.36 59.84 60.65 61.74 61.43 61.75 59.75 61.14 62.95 64.96 65.86 65.75 63.05 64.63 62.52 61.83 58.39
62.24 62.59 62.77 64.33 65.00 65.46 65.70 66.76 66.01 65.63 62.87 62.92 64.94 65.22 65.29 65.57 66.26 66.45 65.87 65.55 63.93 62.89 61.89 62.12 60.93 61.84 60.78 60.37 60.23 63.49 64.79 64.01 61.03 60.39 62.40 62.20 62.92 65.62 63.48 65.64 63.88 62.32 62.07
60.81 62.31 62.60 63.65 64.31 64.74 65.35 64.98 66.79 66.53 64.18 63.25 63.64 63.06 65.01 65.86 65.90 66.54 65.94 65.39 65.52 65.25 63.57 62.05 63.17 61.58 60.96 61.58 62.50 62.23 65.03 64.79 63.95 61.12 60.06 62.59 62.40 63.59 63.70 65.34 64.91 66.50 63.32
60.09 60.88 62.27 62.99 63.99 65.04 64.78 64.61 65.48 66.35 66.14 65.04 63.90 63.63 63.58 64.88 66.47 66.65 66.44 66.81 66.47 64.84 64.33 65.26 64.96 63.35 64.49 65.68 65.08 62.19 64.89 64.66 64.85 61.91 60.53 60.82 61.58 63.87 63.39 61.27 60.48 61.62 60.87
59.10 59.87 62.12 62.75 63.57 65.33 64.39 64.45 64.60 64.70 64.82 65.22 65.08 64.69 64.33 64.02 64.72 65.78 66.76 67.07 66.20 65.80 66.04 65.27 66.49 63.17 58.83 60.43 63.50 65.34 65.76 63.82 61.59 61.12 59.39 59.65 59.44 60.21 60.49 61.97 60.91 62.07 62.71
59.03 58.95 61.34 61.68 62.26 63.59 64.33 64.12 63.98 63.15 62.86 63.11 63.23 62.75 63.11 59.86 48.42 53.95 63.11 65.83 65.64 65.13 63.25 63.17 62.60 59.28 55.18 51.87 53.06 53.68 61.12 66.61 65.14 60.93 59.87 60.30 63.89 63.10 62.40 60.93 60.92 59.88 57.79
59.70 59.32 59.32 61.10 61.06 62.23 62.95 62.41 62.51 63.71 64.41 63.37 62.88 62.99 61.69 60.07 47.18 49.71 56.35 65.90 65.63 66.00 65.64 64.44 61.64 60.21 60.29 62.18 52.71 51.67 52.02 51.80 55.13 66.17 65.08 64.39 64.99 65.78 66.14 65.15 63.94 62.39 60.48
59.75 59.53 58.58 59.52 60.84 61.78 61.97 62.48 64.22 64.76 64.49 63.78 62.54 62.51 62.36 55.06 46.37 49.20 53.87 67.04 66.76 66.09 65.32 65.19 64.70 63.58 61.51 61.41 61.41 61.33 61.81 62.32 62.86 63.18 65.59 66.41 66.97 68.07 67.59 66.45 66.33 65.22 63.79
59.55 59.87 59.00 58.27 59.91 61.16 61.54 63.43 64.95 64.76 65.23 63.66 63.08 62.48 61.94 59.10 44.53 44.58 50.86 64.51 63.29 63.07 62.75 63.23 63.63 62.72 48.51 48.79 61.63 61.56 61.61 61.00 45.31 46.35 45.72 43.26 42.40 42.94 48.44 61.30 59.71 58.67 57.95
59.84 60.25 60.23 58.93 59.68 60.51 62.93 64.26 64.95 64.66 63.90 62.81 62.69 62.96 57.90 61.24 43.16 42.23 48.42 59.45 60.98 59.38 60.53 59.55 47.01 56.36 44.44 44.58 62.56 63.00 61.36 61.85 59.17 56.68 58.43 54.81 47.52 53.60 43.78 53.84 56.94 54.52 55.81
60.53 60.70 60.82 60.36 61.23 63.52 65.24 65.90 64.66 63.46 63.47 63.77 61.92 62.92 62.42 61.65 55.48 41.82 41.74 57.96 57.56 56.33 55.51 55.41 55.34 42.65 41.44 40.94 41.13 62.13 57.58 56.05 56.62 59.09 59.23 59.49 60.71 60.98 58.80 58.16 58.48 54.74 52.44
60.83 60.56 60.69 61.70 60.52 61.51 64.93 64.43 63.37 64.16 63.89 62.56 62.33 61.47 61.32 62.17 53.10 41.53 40.87 40.09 46.82 58.98 58.25 57.21 53.80 40.42 40.63 40.49 44.42 42.17 42.67 45.28 55.76 56.90 57.80 58.11 58.48 58.58 60.08 59.93 61.10 59.49 58.14
60.91 61.31 61.55 61.72 60.46 62.04 63.41 63.68 61.23 63.32 60.36 60.00 59.04 58.74 58.37 60.19 60.71 44.74 40.94 39.82 42.08 58.19 59.29 47.02 40.24 38.23 39.03 39.90 38.73 40.10 38.26 53.86 55.40 56.02 57.30 59.18 60.17 60.38 61.15 60.57 61.36 59.19 53.97
61.55 62.62 63.13 62.48 61.02 62.62 61.97 62.31 60.83 60.15 59.38 58.49 57.85 57.94 58.19 58.62 59.63 58.41 55.24 51.92 42.50 50.59 49.69 53.69 51.94 48.79 47.21 49.03 50.83 46.34 51.62 54.55 55.91 57.73 58.31 59.70 60.11 59.20 56.34 53.30 52.93 51.55 51.07
64.17 63.20 63.68 62.28 62.16 62.44 62.31 61.35 60.42 62.83 59.48 59.19 60.02 58.97 59.64 59.36 58.90 55.64 54.24 56.17 56.78 54.22 56.91 58.87 57.13 56.72 56.01 56.49 57.35 58.02 58.78 58.71 58.55 60.68 59.03 57.36 53.47 51.90 51.24 52.12 50.38 49.98 49.18
64.56 62.69 61.72 61.29 61.53 59.92 60.16 60.50 47.98 48.05 46.92 44.45 43.35 53.17 59.26 51.16 44.50 43.64 44.99 44.80 44.31 43.34 54.41 58.49 58.73 59.30 59.17 59.27 59.20 59.70 60.65 57.18 58.40 57.53 54.86 50.01 48.88 47.65 46.82 47.15 47.23 48.32 49.38
64.93 64.13 61.97 59.53 61.16 59.96 59.28 58.90 58.24 53.27 43.35 43.55 40.64 42.71 45.40 44.51 41.51 42.10 41.01 39.95 39.79 43.49 56.69 58.11 58.99 60.12 59.99 59.91 61.33 61.33 55.22 54.26 52.37 49.10 48.37 48.31 47.37 47.79 47.70 47.53 49.26 48.99 48.79
66.14 52.67 63.19 62.54 61.53 60.87 60.73 59.15 58.67 58.10 57.25 57.93 43.78 48.63 42.24 40.80 40.24 39.19 38.72 43.32 50.96 48.34 57.17 58.30 59.98 59.37 59.82 60.66 59.71 53.92 52.09 50.09 49.52 48.92 48.34 48.01 47.93 48.55 48.63 48.20 47.68 47.57 46.63
66.32 63.84 63.58 63.32 62.32 60.50 61.58 60.72 59.09 58.77 58.36 57.88 58.94 46.80 42.85 38.33 37.70 37.53 38.96 56.02 56.31 57.28 58.14 59.54 60.65 61.44 59.14 55.01 53.45 52.23 49.31 49.10 48.91 48.56 49.83 49.74 49.04 48.00 47.22 47.17 46.75 39.25 41.07
66.17 57.24 58.31 63.62 62.84 62.14 61.67 60.77 60.17 60.40 60.50 59.57 59.03 57.05 53.10 48.80 52.05 52.44 52.49 55.23 58.13 60.91 60.37 60.94 58.90 57.21 54.68 52.85 51.90 51.91 49.55 48.35 49.68 48.82 47.78 47.34 47.86 47.90 47.06 46.77 46.52 45.49 45.00
64.55 64.86 53.88 62.63 62.65 62.33 62.05 62.07 61.65 61.17 60.31 59.76 60.47 57.80 45.77 55.12 55.54 55.72 55.46 59.31 62.10 61.59 59.67 56.42 53.72 51.59 52.98 51.49 51.06 48.88 48.01 47.78 47.08 46.99 47.17 47.15 47.67 46.36 46.82 46.46 45.84 45.46 44.71
64.80 64.52 64.41 63.35 63.68 62.82 62.65 62.52 62.28 61.37 61.27 60.49 59.29 51.29 39.53 60.12 61.08 61.43 61.70 61.12 59.57 55.73 55.03 54.44 53.21 53.32 50.57 48.01 48.46 47.57 46.34 45.37 46.37 47.29 47.33 46.91 46.51 45.96 45.77 45.88 44.79 44.27 43.57
64.62 64.22 64.10 64.12 64.17 57.99 61.96 62.54 62.20 62.13 61.19 61.03 59.34 57.30 57.76 61.75 61.06 58.28 55.09 54.36 54.01 54.42 53.89 52.81 50.54 49.42 49.10 47.57 47.39 47.01 46.21 45.81 45.84 46.43 45.91 45.78 45.67 45.45 45.39 45.51 43.88 43.22 42.48
64.56 64.14 63.66 63.50 62.96 62.50 62.32 62.35 60.81 52.78 60.50 61.96 60.84 60.06 60.65 58.34 55.48 54.07 53.97 54.27 53.56 51.98 50.59 48.97 47.54 45.09 45.42 45.65 46.16 46.55 46.75 45.70 46.60 46.51 46.84 45.98 45.38 44.10 44.84 43.85 43.13 42.41 42.77
64.29 64.28 64.02 63.67 62.56 61.76 62.45 62.00 62.06 61.68 61.27 59.37 58.89 57.31 56.81 56.01 55.44 54.34 52.23 50.32 47.81 45.82 43.91 44.09 44.78 45.16 45.38 45.71 44.67 43.05 35.35 33.22 40.28 34.34 45.75 46.27 45.09 44.80 44.05 42.56 41.58 42.26 41.69
63.46 63.76 63.43 63.52 62.53 61.93 62.11 61.82 61.66 60.83 58.53 58.90 57.81 56.50 55.56 53.80 51.96 49.13 47.97 46.15 44.94 43.32 42.75 44.14 44.97 45.12 45.00 44.37 41.94 33.84 32.76 32.75 37.19 32.55 42.30 45.66 43.92 43.20 41.09 39.73 40.03 39.68 39.12

GFSGL_sfc_wetblb_006.txt.gz
Wetbulb
64.67 65.18 66.37 66.10 66.27 65.28 64.75 64.70 61.87 63.46 64.50 64.17 63.83 64.84 64.63 64.75 64.24 65.30 64.37 64.06 63.18 62.78 62.31 60.83 60.88 61.56 61.57 61.54 62.04 61.52 60.95 60.57 58.20 60.40 61.66 63.51 63.37 63.33 61.22 62.87 61.99 58.26 56.67
63.83 64.03 65.42 66.18 65.78 65.38 64.67 65.04 62.64 63.32 64.69 64.80 64.86 64.55 64.46 65.21 65.61 64.13 63.60 63.16 62.58 61.79 61.68 60.54 60.18 61.29 60.63 60.83 61.41 60.84 60.86 61.10 59.84 58.35 59.85 61.65 61.15 61.85 60.16 60.79 60.61 59.67 56.36
62.21 62.67 65.02 65.55 64.96 65.73 64.81 64.78 63.16 62.47 63.84 64.88 64.69 64.68 64.49 64.77 64.41 64.13 64.56 63.73 62.82 62.02 61.53 60.44 60.14 60.47 60.09 60.47 60.19 60.62 61.46 62.94 60.66 59.33 59.07 59.69 59.59 59.68 58.25 60.34 61.68 61.42 60.18
61.14 62.27 63.74 65.48 64.86 65.72 65.48 65.48 64.75 64.34 63.10 63.18 64.31 64.69 64.21 64.31 64.73 65.05 64.68 63.71 63.30 62.81 62.03 61.60 60.88 60.82 60.55 60.95 60.97 60.77 61.81 61.58 60.04 59.16 58.98 58.21 58.34 60.64 59.34 59.25 57.98 59.28 57.90
60.25 61.71 63.07 65.21 66.60 65.81 65.18 65.36 64.76 64.58 64.56 64.02 64.58 64.76 64.17 64.80 64.85 64.21 64.59 63.51 63.06 62.68 62.48 62.71 61.68 61.12 60.21 60.89 62.05 60.91 61.42 60.75 60.21 58.03 56.71 57.21 57.56 57.64 57.50 58.79 57.60 57.92 58.14
60.14 60.43 62.13 62.79 64.46 65.37 65.46 64.81 64.16 63.93 64.29 63.76 61.25 61.78 61.14 58.16 50.10 56.26 62.31 63.55 62.88 62.60 62.38 61.71 59.77 56.77 55.40 53.73 55.92 56.28 59.61 58.94 57.73 57.22 56.88 55.97 56.32 58.22 58.39 57.71 57.85 56.59 55.01
59.67 59.75 61.13 61.77 62.25 64.05 64.06 64.23 63.54 64.33 65.14 62.43 61.71 61.20 59.77 56.02 48.41 50.64 56.23 62.74 61.71 62.10 61.33 59.89 59.95 59.80 58.92 57.37 51.56 51.99 52.03 52.26 56.40 62.69 58.62 59.18 59.68 59.71 59.73 58.98 57.82 57.65 57.36
59.18 58.62 59.98 60.34 61.07 62.59 62.77 63.54 64.16 64.49 64.24 63.41 61.68 60.95 58.27 51.89 48.50 49.23 56.98 64.12 63.84 62.95 62.75 61.02 58.70 60.88 59.38 60.56 60.50 59.84 59.82 59.99 60.41 61.82 61.54 61.55 59.46 58.21 61.83 61.55 61.03 60.49 60.34
58.85 58.86 58.54 59.85 60.77 61.31 62.09 63.24 64.69 65.17 64.46 63.73 62.74 61.56 57.89 55.62 46.82 46.83 57.79 62.52 62.94 61.87 61.78 61.54 62.60 59.56 48.52 48.89 59.86 58.78 58.90 56.18 47.38 46.20 44.79 43.66 42.94 43.17 46.41 56.75 56.51 55.33 54.06
59.01 59.68 58.84 58.95 61.17 61.37 63.23 63.95 64.78 65.73 64.65 63.26 62.91 63.05 57.54 56.80 43.58 44.13 50.02 61.28 60.63 59.82 59.29 53.92 48.38 55.91 44.91 46.41 59.32 59.11 57.82 57.84 53.86 51.01 52.78 49.26 45.93 49.65 44.73 51.56 52.11 49.13 48.44
60.30 60.68 60.19 59.84 61.44 62.74 64.64 64.46 64.88 64.44 63.76 64.00 62.63 63.34 62.32 58.77 51.43 43.32 42.60 56.06 58.88 56.87 56.41 56.13 50.75 43.93 42.44 42.59 46.79 57.77 52.81 51.70 52.84 56.16 55.89 57.48 57.95 57.59 54.16 52.99 53.67 51.31 49.27
60.80 60.49 60.62 61.66 59.92 62.67 63.78 63.47 63.66 63.49 64.44 62.43 62.91 61.73 62.46 60.68 51.95 42.35 40.86 43.05 43.91 57.32 54.43 54.74 49.38 40.99 41.46 41.90 45.53 42.15 43.43 49.33 53.53 53.92 54.73 55.64 56.56 55.98 54.87 56.45 56.78 55.77 54.55
61.00 61.05 61.49 61.14 60.73 62.41 62.73 62.59 61.87 62.78 61.52 59.67 60.20 59.23 59.26 60.69 55.31 44.89 40.67 41.20 45.43 54.73 53.49 50.06 40.99 40.52 41.63 41.12 39.73 42.34 42.69 51.38 52.66 53.11 54.42 57.11 56.65 55.35 53.03 53.77 53.47 51.55 51.14
61.64 61.98 61.79 60.13 59.95 61.61 62.36 62.53 60.58 59.97 59.62 59.43 58.51 57.89 58.32 58.69 59.02 54.57 50.77 46.27 43.51 51.17 45.82 45.04 43.34 44.60 45.48 48.28 45.35 42.15 47.85 51.31 52.51 54.57 55.51 53.62 52.96 51.72 50.16 49.49 48.60 48.60 47.05
62.27 61.98 61.76 61.10 59.60 61.19 61.53 61.81 60.95 61.34 58.70 59.36 58.72 58.53 58.12 57.24 58.13 53.47 51.87 53.53 55.79 55.25 57.26 53.99 53.84 53.39 51.80 52.41 53.76 55.04 54.90 53.77 53.47 55.88 52.72 50.65 48.83 48.12 48.15 48.99 46.98 46.12 45.50
62.05 61.79 61.49 61.13 59.67 60.90 60.39 60.86 46.42 49.23 47.07 44.11 44.51 54.38 59.23 53.22 45.17 45.08 44.77 45.21 45.50 44.74 53.12 56.12 55.52 55.26 54.70 55.01 55.34 55.52 57.57 55.14 54.26 51.20 48.48 47.33 46.88 46.42 45.18 46.25 47.35 46.40 45.43
62.59 61.98 61.05 59.52 60.47 59.35 59.67 59.85 57.97 50.95 42.44 42.06 44.24 44.61 46.93 49.45 43.83 43.33 43.32 43.09 41.92 42.94 53.42 54.58 57.16 57.53 57.92 58.34 57.86 56.12 50.59 50.57 49.72 48.13 47.73 46.55 45.75 45.73 45.55 45.77 46.00 44.82 43.94
63.83 53.02 61.51 60.40 61.61 59.88 59.68 59.44 60.17 58.04 56.23 54.82 44.57 47.84 41.17 39.88 40.52 40.66 39.87 43.39 48.05 47.69 54.42 55.59 56.61 58.34 58.45 54.35 52.13 49.58 48.55 48.58 47.95 47.11 46.44 46.49 46.95 47.09 45.25 44.42 44.26 43.66 43.16
63.26 62.67 62.19 61.79 61.16 59.85 60.06 59.57 58.89 59.30 57.88 57.52 52.95 47.40 40.02 37.97 38.07 38.38 41.07 54.40 53.19 52.92 52.97 54.98 57.69 56.52 53.05 52.00 49.31 49.11 48.95 47.87 47.75 46.19 46.71 46.61 46.18 45.16 44.58 44.56 43.81 38.46 39.02
64.00 55.55 57.48 62.11 61.15 61.05 60.56 59.98 58.75 57.84 58.70 57.50 56.98 53.85 50.17 48.03 50.81 50.76 51.69 54.98 55.44 55.20 55.16 57.36 55.24 53.28 51.13 49.12 49.71 48.98 47.67 47.70 47.36 46.51 45.55 46.09 46.49 45.68 44.42 43.89 43.01 42.29 41.67
64.36 62.90 54.15 61.69 61.58 61.01 60.87 60.38 60.01 59.38 58.24 58.35 57.24 54.86 45.05 52.77 52.26 52.22 51.71 53.01 54.25 55.37 59.21 56.38 52.69 51.23 51.40 50.95 48.18 47.52 46.35 44.34 44.00 44.54 45.96 46.18 45.57 43.82 43.93 44.20 42.41 41.48 40.81
65.03 64.49 62.00 61.61 62.03 60.79 61.12 60.78 61.12 60.23 59.85 58.83 57.94 52.60 39.76 53.79 53.93 53.21 53.67 53.46 56.76 57.46 54.75 52.47 51.97 51.41 50.81 48.59 47.76 45.25 44.28 44.13 45.14 45.66 45.21 44.72 45.05 43.35 43.12 42.51 41.76 40.81 40.28
64.67 64.86 63.81 62.48 62.52 54.91 59.61 60.80 60.53 61.31 60.81 60.58 56.62 50.19 49.82 52.68 54.01 54.93 54.17 54.17 54.06 53.34 53.94 52.13 49.49 48.45 47.68 46.54 46.37 45.11 44.34 44.33 44.75 44.86 43.93 43.59 43.43 41.90 42.41 40.80 40.69 39.29 38.69
64.76 64.55 64.27 64.10 62.35 61.98 62.19 61.04 61.60 53.86 61.26 58.11 54.70 52.86 52.13 57.10 54.92 52.17 52.11 52.92 52.80 51.94 50.32 48.51 46.58 45.35 44.68 44.86 44.88 43.85 42.49 43.01 44.74 44.67 44.67 43.58 42.95 41.58 42.28 40.08 38.79 39.05 37.22
63.59 65.44 64.67 64.96 63.04 61.47 61.86 61.78 63.27 60.69 60.23 58.56 56.23 55.24 56.13 52.58 52.60 52.96 52.45 52.14 49.44 46.57 45.22 44.91 44.58 44.47 44.19 43.11 41.35 39.65 34.60 33.92 39.20 36.41 44.49 44.35 42.72 41.58 39.16 37.13 37.62 36.89 35.22
63.69 63.15 63.34 64.15 63.60 62.47 62.36 62.07 61.60 62.29 60.11 58.21 57.84 54.97 53.53 52.77 52.62 51.08 47.42 45.18 44.88 44.35 43.91 43.94 44.22 43.38 42.48 41.12 39.64 34.05 32.81 32.48 33.92 32.60 40.94 43.08 41.26 38.14 36.74 36.62 36.55 34.32 33.91

GFSGL_sfc_wetblb_009.txt.gz
Wetbulb
57.75 57.83 61.22 61.20 61.12 61.66 61.36 59.95 60.18 60.03 62.06 61.26 61.92 61.99 61.86 62.45 61.84 61.62 61.80 60.99 60.70 60.63 61.07 60.41 60.14 61.60 61.33 60.98 61.48 61.57 60.68 60.23 57.70 59.15 61.12 62.41 62.51 62.13 61.48 61.54 61.30 59.31 58.24
57.65 57.76 60.31 60.96 61.29 61.29 62.09 60.70 60.18 60.56 61.20 61.85 62.30 62.28 62.57 61.65 61.58 61.49 61.48 61.50 60.22 59.32 59.91 59.79 60.62 61.20 60.97 60.95 61.08 60.44 60.70 60.83 59.74 57.86 60.22 61.14 60.64 60.66 60.25 59.93 59.88 60.14 56.93
57.92 56.78 59.79 59.81 60.88 60.50 61.09 59.99 61.34 60.59 60.81 61.59 62.43 61.85 62.55 62.31 61.69 61.68 61.62 60.79 59.88 59.86 59.73 60.32 60.52 60.41 60.35 60.67 60.53 60.54 60.53 61.95 59.96 58.94 58.11 58.92 58.19 58.32 57.08 57.87 58.19 55.79 57.19
57.03 56.12 59.01 59.14 59.57 60.13 60.97 61.28 61.51 61.38 60.56 60.64 61.85 62.67 62.92 63.03 62.43 62.77 62.63 61.67 61.39 60.81 60.22 60.31 60.39 60.71 60.24 60.41 60.61 60.36 60.65 59.66 59.12 58.57 57.31 56.35 55.58 55.93 54.26 54.50 55.96 57.04 55.76
57.22 56.04 58.64 59.47 59.32 59.77 61.01 61.07 61.46 62.00 61.67 61.53 60.97 62.77 63.32 63.25 63.68 62.42 62.43 61.94 61.35 60.73 61.03 61.05 61.28 60.98 59.84 60.21 60.96 59.97 59.44 59.12 57.88 56.94 55.32 54.53 53.99 54.93 52.92 54.99 55.22 55.37 55.23
57.23 56.30 58.56 58.52 60.73 59.86 59.13 60.24 60.46 60.58 61.76 58.83 57.93 58.09 58.20 59.88 53.72 55.66 60.89 62.12 61.51 61.29 60.68 60.77 60.47 59.21 58.06 56.60 56.37 56.82 58.25 58.10 55.22 54.93 53.97 53.71 53.84 54.95 54.97 55.86 55.02 53.30 52.72
57.24 57.91 58.09 57.87 61.43 59.33 58.75 58.27 57.57 58.80 57.35 57.23 56.78 55.91 55.40 53.80 51.27 53.49 56.64 62.60 62.04 60.93 59.39 59.46 60.29 60.80 57.39 58.24 51.82 51.65 52.37 53.05 55.71 55.44 53.65 53.87 53.03 55.58 55.46 53.77 53.65 54.08 53.62
55.49 57.65 57.64 57.63 59.54 59.10 58.31 57.30 57.16 57.75 56.63 55.32 55.18 53.50 50.72 48.74 48.70 51.02 53.95 61.16 60.02 59.47 58.67 58.50 57.81 56.79 56.40 54.55 55.02 55.80 56.24 57.09 56.36 59.86 56.89 55.89 56.05 56.25 57.18 57.55 56.05 54.97 54.87
54.31 55.63 57.42 56.74 57.50 58.16 57.76 56.52 57.30 56.91 56.84 55.24 53.95 52.32 50.91 47.90 47.98 51.04 58.05 58.81 58.58 58.50 58.15 56.10 57.45 55.61 49.80 50.72 56.48 55.39 54.70 50.95 46.25 45.68 45.69 43.33 42.65 46.19 51.53 54.14 52.38 49.40 47.17
54.20 55.11 57.03 56.60 57.01 56.43 58.03 57.58 58.01 57.78 57.53 57.55 55.31 52.19 50.68 48.57 43.62 46.74 55.24 58.14 55.20 53.62 51.47 53.48 51.16 51.07 45.25 49.93 55.05 54.08 52.85 52.11 50.42 48.72 49.00 45.06 43.26 45.02 46.18 47.97 49.21 44.59 44.14
55.23 55.63 55.19 55.96 56.89 56.54 58.90 59.25 58.34 58.82 57.48 56.68 56.32 53.80 52.10 48.64 45.08 42.51 47.06 55.74 55.10 53.37 51.93 49.69 49.75 43.05 45.07 47.12 51.63 54.63 52.59 51.48 49.90 50.60 52.18 52.22 53.01 52.73 49.48 50.28 48.89 47.47 46.12
55.58 55.94 54.63 55.01 58.85 60.04 59.21 59.13 58.73 58.05 57.05 56.70 55.52 54.70 54.93 50.28 45.97 41.40 41.77 45.29 45.95 52.22 51.41 49.74 44.73 40.95 42.74 42.27 43.15 41.13 44.25 47.09 48.83 49.02 49.99 51.55 50.92 51.30 52.06 50.76 48.66 48.17 49.23
55.02 54.38 54.83 56.11 56.40 59.62 58.87 58.20 57.25 56.62 57.30 55.13 56.15 54.03 55.09 53.64 47.07 41.16 40.27 44.89 45.68 51.41 50.23 48.23 40.72 40.34 41.38 40.67 39.96 42.13 44.40 46.71 47.42 49.35 50.31 48.71 47.84 47.17 47.21 47.57 47.80 49.00 48.34
54.80 54.78 55.93 54.81 55.91 59.17 59.67 59.06 57.59 55.75 55.03 54.13 54.48 53.53 53.70 53.89 49.02 41.49 42.07 45.03 43.40 43.61 44.19 42.48 41.41 41.36 42.00 41.42 39.21 39.35 43.01 46.31 48.37 50.26 47.50 46.82 46.24 45.47 44.82 47.03 44.00 45.09 46.02
55.69 56.69 55.69 54.95 57.01 57.55 58.81 58.62 57.65 56.55 55.37 54.67 53.26 53.77 52.35 54.22 53.37 45.89 43.70 46.08 47.80 47.12 43.90 42.25 41.04 38.49 39.68 43.26 46.69 44.68 45.60 47.71 49.27 46.65 45.00 44.27 44.40 44.12 45.16 45.41 45.83 45.02 42.86
56.50 57.03 55.82 54.86 56.38 57.45 56.74 55.89 44.31 47.27 46.94 47.33 47.71 52.18 54.06 51.24 45.76 43.00 42.74 43.82 44.04 44.13 48.75 48.01 47.05 46.04 44.40 45.47 47.05 49.10 50.85 49.46 45.37 46.28 44.14 43.53 43.70 43.26 43.34 44.23 43.15 40.63 38.67
57.32 57.34 56.73 54.81 56.62 56.35 56.55 56.58 54.00 46.53 41.94 41.52 43.26 44.35 47.51 46.96 43.80 42.23 41.92 42.35 42.21 42.95 48.84 49.79 49.75 49.84 49.83 49.69 51.34 48.45 45.61 45.23 45.32 45.09 44.27 46.20 45.19 44.74 44.20 42.34 41.43 40.90 40.48
57.50 50.10 57.59 56.94 55.77 56.63 56.50 56.44 56.33 52.97 49.08 48.29 42.79 42.80 42.13 41.73 42.19 41.73 40.21 41.42 43.72 44.55 47.16 48.12 49.19 51.48 52.72 49.61 47.87 46.18 45.68 44.98 45.13 46.46 46.00 45.55 45.31 43.69 41.94 40.77 40.73 39.70 39.37
59.80 57.34 57.74 57.63 57.15 55.13 56.22 56.21 54.86 55.11 52.98 51.85 45.86 41.59 37.82 37.86 38.73 38.88 40.70 49.55 48.39 48.13 47.99 48.38 50.15 51.48 48.65 47.17 46.55 45.93 45.69 45.62 44.70 45.92 43.74 44.10 44.06 42.60 41.98 40.74 39.40 35.58 36.22
59.93 53.09 54.51 57.27 56.05 56.52 55.82 55.65 55.43 53.05 53.89 53.07 50.05 47.85 41.58 41.63 42.54 43.35 46.82 49.65 49.43 49.52 49.51 49.30 49.56 47.91 47.11 47.07 46.50 45.11 43.47 43.08 44.07 44.35 44.44 44.14 43.48 42.22 40.24 39.45 38.78 38.08 37.52
60.39 57.20 51.15 57.46 57.02 56.98 56.90 55.65 55.31 54.82 52.79 53.63 52.57 48.30 40.07 48.14 47.21 47.82 49.10 50.49 50.66 49.02 50.54 50.20 47.88 47.05 47.52 46.31 44.67 44.58 44.51 43.90 44.01 43.94 44.14 43.01 41.27 39.71 40.00 39.34 39.31 38.90 37.54
60.80 59.75 57.64 58.09 57.52 57.11 56.35 56.99 56.21 55.20 54.63 53.12 53.65 50.44 38.04 50.21 49.81 49.46 50.33 51.16 49.55 53.33 51.12 49.64 48.93 48.53 46.49 45.77 44.92 43.31 43.00 43.63 43.57 43.83 42.83 40.99 41.27 40.28 40.56 39.59 38.76 37.12 35.72
59.97 60.13 58.50 58.44 58.02 52.01 53.19 55.77 55.62 56.26 55.96 55.60 54.68 51.35 46.81 50.86 50.59 49.98 48.96 50.45 52.05 51.20 50.33 49.83 48.10 45.93 46.37 45.09 44.60 44.58 43.84 43.67 44.06 43.49 42.10 41.75 40.26 39.98 40.44 36.58 36.15 35.11 35.00
59.12 60.09 59.29 58.75 57.87 56.40 57.27 56.73 55.94 50.09 54.85 54.36 52.90 50.73 50.29 50.28 49.84 50.06 51.25 51.31 50.80 50.41 50.20 49.01 47.29 45.43 43.67 43.26 43.75 44.01 44.11 44.09 44.01 43.32 42.76 41.69 40.32 37.76 36.43 35.30 34.88 34.80 29.76
57.96 58.74 58.50 58.91 58.59 57.70 57.08 56.88 57.08 56.66 53.58 51.62 49.45 48.53 50.21 50.22 50.40 50.93 50.97 50.59 49.60 47.00 45.42 44.33 44.24 43.13 42.10 41.42 40.78 40.05 35.67 35.73 40.59 38.13 42.53 40.70 38.12 36.43 34.77 33.46 32.59 29.11 28.21
57.26 58.03 57.40 58.15 58.10 58.05 57.05 56.02 56.38 54.62 53.40 51.28 50.35 50.70 50.80 50.38 50.15 50.23 48.89 44.87 44.19 43.86 43.16 43.21 42.71 41.43 40.78 40.26 38.53 34.21 33.65 33.96 35.06 34.90 40.49 38.19 35.33 33.08 32.70 31.69 31.82 29.29 28.62

GFSGL_sfc_wetblb_012.txt.gz
Wetbulb
57.03 57.36 60.34 59.55 60.25 59.79 58.28 58.46 58.71 58.68 59.46 60.34 60.34 60.47 60.41 60.59 60.76 60.44 59.20 60.14 60.48 60.58 60.99 60.88 60.00 60.07 60.07 60.57 60.84 60.98 60.07 60.18 57.89 59.87 61.64 62.93 62.50 61.33 61.69 60.54 60.72 59.75 58.18
56.08 57.64 59.00 59.80 59.95 59.86 58.85 58.44 59.13 59.10 60.21 60.61 61.06 60.87 61.05 60.33 60.23 60.35 60.25 60.20 59.80 59.51 59.78 60.76 60.58 60.88 60.20 60.66 61.12 60.64 60.25 60.34 59.73 58.18 60.71 61.34 61.41 61.00 60.61 59.69 60.32 60.16 57.56
56.13 57.22 58.92 59.13 59.25 59.44 58.00 58.62 59.49 59.58 60.30 61.33 61.34 60.61 61.05 60.68 59.97 60.01 59.81 59.45 59.28 59.55 59.88 60.51 60.57 60.73 60.28 60.46 60.42 60.28 60.64 61.08 60.07 59.44 58.82 59.67 59.30 59.54 57.61 57.92 57.38 55.85 57.21
55.32 57.79 57.46 58.53 58.91 59.58 59.11 59.02 59.55 60.20 60.82 60.66 61.00 61.90 61.64 60.84 61.25 60.76 59.98 59.12 58.98 59.68 60.22 61.01 60.98 60.88 60.05 60.07 59.99 60.11 60.43 59.76 59.60 58.86 58.52 57.39 56.87 55.98 55.81 55.65 54.54 56.01 55.55
54.99 57.49 57.33 57.36 58.57 59.90 59.80 60.58 60.12 59.95 60.37 61.26 62.18 62.16 61.48 61.40 62.18 61.55 61.11 60.52 59.82 59.78 60.40 60.85 60.86 60.51 59.11 59.55 60.85 60.14 59.66 58.88 58.84 57.29 55.43 54.99 54.09 53.50 51.70 52.63 53.50 53.94 54.74
54.77 57.00 58.20 57.65 58.73 59.06 59.36 59.37 60.27 59.92 57.64 59.15 60.41 60.64 60.45 61.05 51.82 54.51 59.56 60.82 60.62 60.18 59.88 60.43 60.20 58.68 57.47 55.80 56.97 56.87 58.19 57.53 55.95 55.49 53.93 54.00 52.76 53.08 53.07 52.04 52.82 52.75 52.38
55.07 57.05 57.87 58.83 58.84 58.43 58.95 58.85 58.34 56.26 55.59 55.05 56.47 57.89 57.81 57.78 50.37 51.82 54.72 61.34 61.00 60.32 60.16 60.39 61.13 61.56 59.20 60.31 54.40 53.49 53.74 53.08 54.68 55.47 53.80 53.47 53.12 54.16 54.10 52.61 52.45 52.71 52.23
55.42 56.72 56.44 58.27 57.92 56.92 56.50 56.57 56.68 54.84 54.37 52.96 53.16 53.66 55.57 55.85 49.82 50.73 52.90 61.26 60.43 60.24 60.01 60.10 60.70 60.17 59.86 57.90 56.18 54.96 54.86 55.55 55.74 56.63 54.69 54.43 54.75 55.17 55.67 55.17 54.06 52.86 52.93
55.75 55.92 55.89 57.99 57.45 56.63 55.09 55.65 55.42 54.11 52.97 52.43 51.69 51.27 52.59 52.64 47.45 48.55 55.77 58.92 59.07 58.11 58.72 58.53 58.02 57.08 50.75 47.76 54.98 53.61 49.72 47.65 46.81 47.33 49.56 48.39 47.14 47.28 52.11 54.84 51.53 49.96 46.28
55.65 56.38 55.84 57.37 56.88 56.19 54.93 55.47 55.43 54.14 53.38 52.83 51.48 50.96 48.50 48.01 46.30 48.96 54.91 57.82 55.75 54.65 55.00 56.03 50.58 53.57 44.59 45.72 54.22 53.21 51.02 48.85 46.53 45.76 44.32 42.91 44.09 45.17 45.98 48.31 48.10 43.86 42.59
56.00 56.70 55.46 55.68 55.87 56.38 55.43 55.59 55.69 55.44 54.04 51.97 51.18 49.92 48.98 46.96 44.39 46.20 49.32 55.40 54.79 51.90 52.43 52.83 49.11 42.53 44.66 45.09 48.12 52.32 50.50 50.03 46.70 49.33 49.60 50.50 51.25 49.22 48.73 48.35 47.09 47.31 45.38
54.73 55.40 55.20 54.91 57.26 57.70 56.43 55.59 56.26 55.20 54.33 53.04 51.32 49.46 48.92 46.78 43.56 42.83 46.46 48.15 49.20 52.35 51.60 51.20 46.63 42.25 42.49 43.53 46.67 41.49 42.81 46.29 48.56 50.35 50.22 48.49 50.14 49.10 47.36 46.46 46.78 47.59 47.95
53.63 53.38 53.58 55.03 56.11 57.78 57.15 55.89 55.69 55.36 54.28 54.08 53.15 51.23 51.88 48.29 43.18 41.05 41.63 42.97 45.60 50.54 50.75 47.03 41.04 40.14 39.57 39.99 39.93 41.02 43.61 47.36 50.87 48.54 47.54 46.51 45.77 46.82 45.62 45.41 45.76 47.10 47.80
52.97 52.38 52.35 54.71 54.85 57.55 58.51 57.85 57.03 55.57 55.15 54.33 54.27 52.41 52.95 51.12 43.77 39.65 44.20 45.06 44.52 47.29 45.19 41.95 41.24 40.93 40.65 40.23 40.10 42.62 45.84 48.82 49.83 47.80 45.16 44.73 44.26 43.55 43.60 43.71 42.87 44.72 44.51
52.79 52.82 52.52 54.33 56.20 57.07 58.02 58.11 57.66 57.17 56.62 55.48 55.15 54.51 53.29 52.11 49.69 41.86 42.30 45.10 44.50 44.53 41.04 39.14 37.77 37.97 39.11 40.39 39.73 40.71 45.55 49.82 46.97 44.40 43.15 42.70 42.46 42.26 42.30 43.09 42.78 42.75 40.43
53.57 53.65 53.21 53.33 55.90 57.10 56.69 53.86 42.56 49.34 46.57 47.48 46.60 51.39 53.02 50.61 44.51 40.33 39.47 41.51 40.69 39.72 41.66 39.98 38.51 37.52 38.61 41.94 44.96 45.55 47.46 45.90 44.31 44.18 42.84 41.93 42.28 42.58 42.15 41.21 42.37 39.35 37.52
55.44 54.56 53.43 52.84 55.29 55.64 55.90 55.71 53.37 47.08 42.81 44.14 44.27 45.06 46.10 48.37 42.63 40.90 39.21 39.69 39.00 41.88 44.32 43.67 42.95 42.00 40.93 43.05 45.92 47.42 45.38 45.26 44.22 44.03 42.90 41.68 42.54 41.74 40.47 40.47 41.68 39.33 37.39
56.13 49.49 53.88 53.90 55.20 55.64 56.06 56.01 55.86 53.77 52.19 49.64 41.42 42.45 41.14 41.66 42.36 40.83 38.60 40.37 43.37 44.41 47.24 47.74 47.68 47.43 47.31 47.35 46.78 45.78 45.51 43.12 42.87 42.89 42.77 42.70 41.07 42.76 41.92 40.68 38.92 36.87 36.35
56.19 55.58 55.50 54.41 55.59 54.73 55.93 55.71 55.60 54.58 54.27 50.39 44.87 40.93 37.60 37.58 38.29 38.25 38.39 47.91 47.47 49.95 48.37 47.96 48.17 49.82 49.21 48.41 46.51 46.20 45.11 44.58 43.91 43.43 42.76 42.83 44.04 42.47 39.72 40.04 37.04 34.21 34.63
57.62 51.23 52.92 55.23 54.46 54.93 55.27 55.07 54.54 54.29 52.78 52.33 49.61 49.25 40.23 41.38 42.84 42.24 43.53 47.98 46.72 49.07 50.46 50.36 48.23 48.25 47.24 46.68 45.80 45.04 44.19 43.04 43.53 42.96 43.21 43.89 43.17 41.19 40.48 39.27 37.05 36.27 35.69
58.30 53.88 48.79 55.97 54.59 55.03 55.19 54.62 54.80 54.41 53.66 52.41 52.31 50.00 39.98 46.72 46.41 45.88 45.98 47.23 47.50 47.35 47.77 49.43 49.27 46.97 47.36 46.60 45.68 45.24 44.60 44.05 43.32 43.43 44.16 43.17 42.17 40.92 39.35 38.27 37.51 36.93 34.96
58.79 56.68 55.11 56.03 56.14 55.34 54.59 55.16 54.87 54.29 54.03 53.60 53.04 50.26 36.96 48.09 49.03 47.31 47.87 49.96 50.14 49.03 49.46 49.67 48.56 48.30 47.61 46.99 46.11 45.15 44.32 42.92 43.63 43.57 42.78 42.01 41.91 40.99 39.35 38.64 37.10 34.55 34.28
58.97 57.57 56.46 56.64 56.08 49.98 51.73 54.74 54.30 54.42 53.83 52.75 53.27 51.26 43.90 47.18 50.19 49.14 49.04 49.69 48.63 48.90 49.43 49.30 48.92 48.32 48.22 47.37 46.68 45.92 44.08 43.36 44.49 43.98 42.11 41.67 41.37 40.47 39.44 35.90 34.47 33.97 31.72
58.92 58.36 56.81 57.17 56.21 54.37 54.47 54.86 54.66 48.90 53.77 53.39 51.87 52.10 49.24 48.86 50.07 49.54 48.96 48.69 50.98 49.76 50.12 49.78 49.32 47.79 45.91 44.26 43.28 43.96 43.97 45.41 45.03 43.95 43.07 41.65 40.29 37.75 36.16 35.04 33.72 31.52 28.62
57.98 57.76 57.02 56.34 55.94 54.78 54.98 54.91 54.47 54.04 53.03 53.26 51.92 50.87 51.82 51.02 50.26 49.33 48.71 49.83 49.25 48.18 48.17 48.40 47.20 45.51 44.00 43.68 43.40 41.72 36.25 35.77 42.42 39.26 42.20 40.40 38.09 36.46 35.41 33.73 31.74 29.56 28.43
56.29 57.51 56.61 55.74 55.33 55.36 55.44 54.62 55.73 55.84 54.54 52.20 50.18 48.68 48.90 49.42 48.21 48.52 48.30 48.41 47.49 45.32 44.34 43.94 43.71 42.66 42.52 42.30 41.09 36.58 35.30 35.41 37.44 35.89 39.44 37.80 35.83 34.81 33.59 31.72 30.74 29.27 28.07

GFSGL_sfc_wetblb_015.txt.gz
Wetbulb
55.80 56.08 58.39 58.22 58.80 57.87 57.38 57.48 57.69 57.82 58.66 58.68 58.72 58.52 58.52 59.03 59.17 59.60 59.35 60.37 60.21 60.53 60.01 60.08 59.79 60.40 59.69 59.87 60.35 60.55 60.31 60.01 57.82 59.84 61.74 62.59 62.18 62.54 62.25 60.64 60.67 60.14 59.87
56.02 57.08 58.34 58.52 58.52 57.15 57.32 57.74 57.95 58.31 58.80 59.28 59.68 59.62 59.39 58.91 58.34 59.17 59.60 60.01 59.94 59.81 59.83 60.15 60.05 60.41 60.17 60.55 60.57 60.09 60.43 60.81 59.80 58.34 60.64 61.06 60.97 61.00 60.37 59.42 60.91 61.86 58.10
56.04 57.50 57.87 57.97 57.71 56.63 57.20 57.84 58.51 59.07 58.98 59.72 59.86 59.40 59.26 58.99 58.91 59.65 59.35 59.41 59.64 59.97 60.69 60.20 60.34 60.52 60.23 60.67 60.77 60.39 60.71 60.90 60.74 59.83 59.09 59.70 60.40 60.00 58.85 59.24 58.78 57.25 57.69
55.39 57.74 57.01 57.31 57.93 57.17 57.71 58.13 58.91 59.61 59.01 58.88 59.42 60.00 59.82 59.76 59.47 59.12 58.68 58.59 59.16 60.20 60.70 60.75 60.86 60.60 60.32 60.30 60.15 59.89 60.29 60.07 59.99 59.69 59.19 56.96 58.33 57.40 57.04 56.10 54.90 54.80 54.84
56.54 56.75 56.70 57.05 58.48 58.74 58.13 58.51 59.10 59.22 59.42 60.09 60.19 59.76 59.74 59.84 60.13 59.10 59.07 58.94 59.18 59.65 60.64 60.94 60.88 59.72 58.74 59.08 60.14 59.85 59.86 59.57 59.17 57.60 56.23 55.87 55.51 54.75 53.98 53.34 53.28 52.75 54.17
56.26 56.54 56.90 57.04 58.62 58.30 57.96 58.39 58.55 56.97 59.03 61.06 59.82 60.95 60.45 61.08 49.04 53.58 58.32 59.79 60.15 59.96 59.71 59.85 59.49 57.94 56.50 54.44 55.21 55.81 58.48 58.76 57.46 56.44 55.07 54.93 52.36 53.16 51.40 51.91 52.33 51.44 51.08
55.76 57.23 57.14 57.55 57.94 58.38 58.14 57.86 56.27 54.59 55.82 58.30 59.27 59.76 59.35 58.29 48.68 49.95 53.94 60.37 60.13 60.07 60.01 60.17 60.97 60.28 59.49 60.05 53.37 53.92 54.89 52.41 54.55 56.04 54.71 54.55 53.38 53.61 53.48 51.41 51.12 51.82 51.55
54.48 56.99 57.21 58.41 57.59 57.67 57.46 56.43 54.14 53.03 53.54 54.84 56.63 57.38 58.43 56.30 48.32 48.50 52.67 60.55 60.03 59.91 60.31 60.87 60.15 60.05 59.31 59.47 58.78 57.77 55.55 55.85 55.13 56.66 55.65 55.28 54.46 54.32 54.65 54.91 53.84 52.55 50.88
54.66 55.85 56.18 58.28 55.91 55.66 55.99 55.10 53.01 52.43 51.61 52.41 53.47 55.64 56.56 55.43 45.78 46.87 56.27 59.83 59.11 59.01 59.78 59.83 60.45 59.17 49.77 49.88 57.00 53.38 50.29 50.09 46.34 47.84 44.86 43.53 44.00 48.93 52.43 54.83 52.34 50.67 45.95
54.90 55.71 55.63 57.57 56.07 54.71 54.71 54.23 52.52 51.79 51.71 51.63 52.22 54.06 52.49 54.61 44.87 46.69 54.69 58.16 56.44 57.12 57.90 56.71 52.30 56.18 45.06 45.47 54.35 50.37 49.53 47.90 48.13 46.25 44.68 45.61 46.18 45.17 46.83 50.36 49.24 43.73 42.07
56.10 55.58 54.76 56.59 56.03 54.91 54.63 54.08 52.76 52.34 51.12 50.24 49.90 49.36 50.96 52.57 51.39 45.78 49.59 57.04 56.28 55.22 55.56 54.26 52.77 46.44 43.93 43.23 47.85 51.20 50.09 47.46 45.95 49.05 49.23 48.40 47.75 47.78 47.28 46.53 46.38 46.77 44.99
55.68 55.07 53.96 55.02 57.51 55.78 54.49 54.39 53.43 52.09 50.50 49.28 48.51 47.60 47.17 46.63 45.94 44.91 45.37 49.63 50.03 54.24 54.00 52.99 49.10 42.02 42.27 42.66 47.01 44.66 41.50 46.11 49.29 49.16 49.32 47.59 47.32 45.34 44.34 45.89 46.24 46.19 46.23
54.49 54.01 52.38 53.83 55.00 55.66 54.20 53.91 53.60 52.31 51.10 50.07 48.76 47.97 48.23 45.80 43.12 42.43 43.40 43.70 45.41 51.28 52.24 49.09 40.93 40.28 40.49 42.13 41.53 41.34 43.34 49.42 48.77 48.14 47.25 45.43 44.82 44.15 44.18 45.17 44.58 43.32 42.50
52.82 52.81 52.30 53.26 52.53 55.12 55.82 55.30 55.11 53.57 52.16 52.51 51.27 49.26 49.08 46.95 43.22 40.95 45.55 46.37 45.67 47.28 44.31 42.63 41.56 41.08 41.21 42.45 42.76 44.06 48.09 49.36 49.10 47.78 44.82 43.38 42.98 42.83 42.51 42.31 42.83 40.80 39.63
52.12 51.71 51.82 53.34 53.52 55.03 55.59 55.25 55.53 55.63 54.83 54.46 53.89 52.96 51.07 49.82 47.00 41.78 43.20 45.42 47.70 45.71 41.05 39.76 39.56 39.86 38.94 39.00 39.50 43.82 47.79 47.32 46.46 43.72 42.60 41.69 41.58 41.56 41.37 41.43 40.25 39.26 37.50
51.57 50.88 50.92 52.96 53.28 55.03 55.43 53.03 43.21 46.57 45.91 45.34 46.69 51.50 53.15 49.07 43.67 39.92 39.13 40.10 39.76 39.06 40.77 39.02 38.31 39.55 39.67 39.42 39.45 42.97 46.46 45.38 44.33 43.10 41.41 40.97 41.00 41.40 40.78 39.26 39.13 37.76 37.05
52.80 52.02 51.28 51.55 53.83 54.84 55.03 54.99 53.57 49.23 43.60 42.77 42.42 44.46 45.95 48.98 41.96 40.23 38.60 38.16 37.28 39.15 42.86 40.22 40.96 39.64 40.98 42.06 43.04 44.75 45.60 44.36 42.59 42.96 42.06 40.57 40.81 40.37 40.41 39.24 39.49 39.59 36.39
53.79 47.16 52.28 52.41 53.76 55.05 55.32 55.43 55.53 54.24 53.44 51.68 42.75 44.03 41.60 41.34 41.38 40.34 37.15 39.75 39.09 40.29 42.70 42.47 41.10 40.35 39.58 41.97 44.70 45.59 43.53 41.82 42.07 41.20 40.85 40.82 40.84 40.69 40.04 40.13 39.47 37.41 36.39
54.46 53.17 53.50 52.84 53.88 53.62 55.18 55.13 54.88 54.25 54.01 51.53 45.17 40.89 38.17 38.60 38.96 37.61 38.51 46.90 45.05 43.32 44.22 44.53 43.96 43.68 42.72 42.64 44.96 45.85 44.94 44.09 43.19 41.90 41.55 40.93 41.04 40.79 40.20 39.69 38.99 34.43 33.49
55.33 49.60 50.56 53.03 53.04 53.57 54.12 54.02 54.01 53.58 52.71 52.57 50.09 51.33 40.43 41.03 43.24 41.59 41.05 45.44 46.19 47.24 47.31 47.70 47.00 47.32 47.27 46.49 45.74 46.32 43.97 41.95 42.37 42.94 41.89 41.68 41.42 41.50 40.48 39.46 38.49 37.46 36.06
55.99 52.45 46.91 52.81 53.23 53.96 53.93 53.87 54.06 53.88 52.98 52.02 52.20 50.15 40.14 47.31 48.00 45.27 43.93 45.60 47.83 46.84 47.39 49.26 47.61 48.35 48.14 47.04 46.26 45.20 44.70 44.26 44.04 43.01 42.78 42.19 41.46 40.45 38.98 39.04 38.28 37.23 35.76
56.69 54.04 53.67 53.70 53.41 53.88 53.67 54.15 53.87 53.81 53.62 52.80 52.12 48.75 37.16 47.52 49.68 48.08 47.47 47.56 49.13 48.93 48.17 47.59 47.99 48.43 48.59 47.45 46.53 46.19 45.85 44.92 43.73 43.22 42.56 41.87 41.37 40.54 39.90 38.87 36.90 35.63 35.17
56.77 54.43 54.57 55.01 54.08 48.10 50.10 53.66 53.58 53.62 53.54 53.20 52.64 49.47 42.69 46.63 49.96 49.18 49.07 49.60 49.65 49.28 47.05 47.93 48.00 47.30 47.89 47.70 47.90 47.70 46.75 45.43 44.53 44.28 42.78 41.87 41.16 40.38 39.56 36.81 36.10 34.76 32.63
57.08 55.71 54.87 55.05 54.46 53.09 52.61 53.06 53.40 48.09 53.23 52.71 52.52 51.94 48.88 47.97 48.29 49.68 49.02 47.88 48.38 48.47 48.52 48.69 48.99 48.69 48.15 47.91 47.50 47.40 46.50 45.80 45.21 44.48 43.84 42.42 40.79 38.97 37.74 36.29 34.78 32.61 31.20
56.95 56.08 55.46 54.79 54.34 53.27 53.13 53.46 53.24 52.97 52.46 52.75 51.48 51.95 51.55 49.94 48.50 48.72 46.92 46.67 47.55 48.04 47.83 47.83 48.31 47.74 46.53 45.28 44.83 44.55 38.69 37.54 43.43 41.11 43.91 42.65 40.24 38.14 36.73 34.04 32.43 31.25 30.61
56.74 56.54 56.03 55.73 55.05 54.05 53.89 53.13 53.66 53.75 52.92 52.64 52.17 51.15 51.00 51.03 50.25 48.15 46.55 46.62 46.51 46.01 45.69 45.13 45.88 45.40 44.01 42.98 42.42 37.51 36.50 36.96 38.96 37.79 41.85 40.52 38.63 36.58 34.96 32.83 31.97 30.58 29.56

GFSGL_sfc_wetblb_018.txt.gz
Wetbulb
56.42 56.72 58.62 59.41 59.10 58.37 58.77 59.30 59.22 59.59 59.81 59.56 59.52 59.56 59.79 59.41 59.96 60.07 60.67 61.04 60.59 60.62 61.32 61.17 60.61 60.86 60.57 61.47 60.51 61.88 61.13 60.18 58.04 60.10 61.49 62.44 62.46 62.24 62.10 61.56 61.89 61.24 61.04
56.40 57.41 59.07 59.21 58.54 57.82 58.95 59.21 59.53 59.70 60.07 60.09 60.17 59.89 60.16 59.62 59.87 60.02 59.97 60.56 60.27 60.01 60.48 60.63 60.34 60.98 60.96 61.40 61.09 60.51 60.61 61.24 60.01 58.62 60.45 60.83 61.49 61.56 60.83 60.15 61.01 62.20 60.56
56.31 58.14 58.50 58.72 57.83 57.76 58.71 59.49 59.96 59.97 60.16 60.33 60.28 59.99 59.90 60.04 60.02 60.35 60.72 60.44 60.75 60.96 60.90 60.75 60.62 61.13 60.35 61.28 61.58 60.83 60.97 61.17 61.04 59.74 59.43 61.09 60.58 60.33 59.27 59.51 60.45 58.63 58.68
57.31 57.87 57.80 58.44 58.01 58.08 58.92 59.61 60.02 60.41 60.01 60.13 60.32 60.30 60.15 59.52 59.56 59.93 60.20 60.05 60.73 60.85 61.03 61.18 61.33 61.45 61.11 61.14 60.75 60.91 60.87 60.39 60.31 59.49 59.00 58.91 58.54 59.01 58.92 57.90 56.78 57.95 58.67
57.61 57.37 57.43 58.24 58.89 58.88 59.33 59.83 59.87 60.27 60.34 60.49 60.38 60.36 60.45 59.56 58.70 58.78 59.45 59.90 60.63 60.44 61.06 61.05 61.13 60.41 58.98 59.34 61.29 60.87 60.93 60.01 59.71 58.64 57.50 57.68 56.45 56.94 56.82 56.58 57.57 56.68 57.46
57.15 56.91 57.69 58.90 59.38 58.60 59.03 59.12 58.68 60.41 60.94 60.97 60.36 60.40 60.44 59.28 49.87 52.90 57.68 59.95 61.01 60.93 60.03 59.99 59.58 57.82 56.27 54.14 54.71 54.88 58.36 59.18 58.16 57.78 56.63 56.09 55.93 56.14 55.72 56.88 56.22 56.22 55.86
56.85 57.21 57.53 59.01 59.04 58.63 59.11 58.10 56.84 58.04 60.02 59.85 60.37 60.75 59.69 57.80 47.51 49.14 52.77 60.37 60.73 60.39 60.03 59.85 60.55 59.16 58.73 59.29 53.16 53.38 53.54 53.49 55.43 57.63 56.67 57.08 56.24 57.23 56.69 55.35 55.74 56.55 55.80
56.38 57.37 57.27 58.53 58.80 58.25 58.17 56.81 55.28 55.66 57.84 58.19 58.68 59.71 58.98 55.81 47.15 47.69 52.04 60.68 60.59 60.55 61.08 60.98 60.93 61.06 59.47 59.64 60.09 58.29 57.64 57.98 58.17 58.85 59.60 59.36 60.23 58.33 58.89 58.55 56.93 53.84 52.54
55.83 57.06 57.65 58.51 58.18 57.76 57.06 55.71 54.77 54.73 55.30 56.07 57.60 59.34 58.30 54.77 46.06 47.51 56.41 60.17 59.60 59.89 60.91 60.91 60.65 60.08 48.04 50.57 57.97 55.73 55.05 53.01 47.05 45.77 46.32 46.59 46.54 48.48 53.72 57.85 55.80 55.42 51.94
55.31 57.24 57.70 57.97 58.01 57.31 56.84 56.05 54.59 54.41 54.49 56.02 56.98 58.31 54.44 56.07 44.97 47.33 55.75 59.49 58.92 59.56 59.47 58.70 51.86 56.73 45.52 48.42 57.46 55.39 55.15 52.53 50.73 50.39 52.21 49.82 50.22 49.83 48.75 57.08 56.56 52.42 48.59
55.91 56.71 56.92 57.31 56.87 56.55 55.83 55.38 54.20 53.55 53.28 54.10 53.83 54.89 57.29 56.23 52.26 45.33 49.50 59.57 59.14 58.60 58.32 57.47 58.68 46.97 44.79 45.39 48.56 55.36 54.32 51.34 47.91 51.27 50.84 50.67 51.00 50.84 50.31 50.50 51.47 52.25 50.17
55.88 56.04 55.99 56.54 57.34 56.22 56.10 54.41 54.02 52.85 52.29 51.68 51.38 50.69 50.90 53.59 48.85 44.43 47.33 50.60 52.33 58.68 58.31 57.52 54.90 44.01 43.83 43.50 49.30 44.17 41.83 47.34 52.67 51.52 50.78 50.54 49.84 48.74 48.21 48.47 49.08 48.50 48.66
55.11 54.75 54.76 56.39 56.69 55.88 55.83 54.14 53.30 52.75 52.32 51.10 51.66 51.70 50.69 48.73 48.95 45.10 43.69 44.89 47.45 56.56 57.74 52.73 42.65 41.71 41.23 43.65 44.00 40.58 44.49 52.72 52.85 51.94 50.82 49.86 48.89 47.57 47.17 46.26 46.07 45.53 44.29
54.33 53.68 53.34 55.55 55.05 55.22 56.13 55.75 54.36 52.66 52.16 52.27 51.62 51.81 51.07 49.61 48.39 49.26 51.07 50.11 45.69 49.03 45.80 45.74 43.61 43.55 43.51 45.52 46.16 46.26 52.43 53.01 53.16 52.85 50.97 48.59 47.25 46.76 46.14 46.31 43.77 43.11 42.00
54.26 53.70 53.08 54.85 55.61 55.36 55.68 55.78 56.17 55.68 53.39 53.13 52.91 52.51 51.80 51.05 49.89 45.57 48.77 51.89 52.50 48.01 45.47 45.95 46.16 46.18 47.11 46.43 48.11 49.54 51.55 51.24 51.22 49.39 48.29 46.81 46.38 45.69 45.22 45.88 44.89 44.19 41.68
53.01 53.06 52.96 53.45 54.43 56.07 55.29 53.57 42.50 47.53 46.38 44.45 45.12 51.38 53.79 47.57 42.84 39.83 39.66 41.32 40.12 39.21 47.21 47.62 46.74 46.54 47.00 46.51 47.37 49.06 51.19 49.52 50.80 49.49 48.24 47.46 46.55 45.84 45.07 44.88 44.40 42.43 40.21
53.07 52.43 52.68 52.59 53.94 54.60 55.65 55.35 54.03 50.41 43.97 43.00 42.94 43.20 45.55 48.43 41.36 39.59 37.87 37.68 37.92 40.98 50.38 47.35 48.79 47.65 47.94 46.62 47.35 49.19 50.57 50.63 49.03 48.72 48.14 47.12 46.31 45.91 44.14 43.83 42.50 41.56 39.71
53.61 46.60 52.13 53.41 54.16 54.87 55.64 56.07 56.39 55.30 54.57 54.68 44.57 46.13 42.43 42.16 41.35 39.38 36.81 39.23 42.77 43.14 47.73 47.92 47.86 48.19 48.19 47.13 46.50 47.95 49.81 48.36 47.99 47.17 46.39 46.03 46.00 45.01 43.86 43.12 42.03 40.69 39.29
53.50 51.97 52.95 53.30 54.05 54.00 55.79 55.94 55.89 56.04 55.87 55.40 49.31 43.49 42.07 39.83 39.32 37.27 37.96 49.89 47.47 46.22 46.98 47.61 48.37 47.66 47.09 47.97 48.24 47.98 48.79 48.33 47.54 46.61 45.90 45.43 45.36 45.05 43.80 43.07 41.88 37.04 37.26
54.28 47.89 50.04 53.14 53.33 54.31 55.16 55.33 55.26 55.21 55.05 55.26 53.60 54.77 44.26 44.25 47.31 45.94 44.28 47.82 49.69 49.55 48.15 48.40 48.76 47.96 46.77 46.44 47.49 48.87 48.17 46.10 46.04 45.92 45.44 45.16 44.87 44.89 43.27 42.49 41.67 39.03 37.81
55.13 51.88 46.95 53.28 53.47 54.39 54.70 54.93 54.98 55.10 54.75 54.60 54.43 52.98 41.82 51.16 52.51 50.75 48.61 47.95 50.27 51.19 50.38 49.20 49.32 49.67 48.68 47.29 47.15 48.46 48.48 47.78 47.40 46.49 44.99 44.90 44.04 43.14 43.81 42.15 40.51 39.07 38.42
55.81 53.57 53.21 53.66 54.10 54.13 54.58 54.93 55.01 54.93 54.95 54.52 54.71 51.79 37.55 51.14 53.95 52.61 51.53 50.57 50.85 52.14 52.14 51.75 50.55 50.62 51.01 49.78 48.18 47.72 48.05 47.46 46.42 46.28 45.32 44.32 43.76 42.59 40.99 39.18 38.77 37.95 37.23
56.02 54.55 54.28 54.56 54.37 49.09 51.53 54.77 54.96 54.99 54.98 55.06 55.02 53.19 46.21 50.22 53.34 53.18 52.47 51.92 51.53 51.84 52.16 50.73 50.97 51.41 52.24 52.25 51.21 49.72 47.36 46.60 47.26 47.29 45.37 44.43 42.44 40.57 39.65 37.74 37.33 37.18 37.17
56.38 55.33 54.84 55.08 54.17 53.52 53.89 54.33 54.57 49.13 54.94 54.81 54.62 54.00 51.72 51.31 51.84 53.24 53.38 52.92 52.16 52.41 52.65 51.03 50.97 51.16 51.31 51.48 51.32 51.36 51.79 50.76 48.63 47.41 46.21 43.79 41.85 39.59 39.32 38.77 37.72 36.66 35.98
56.33 55.51 55.50 55.02 54.60 53.43 53.87 54.26 54.35 54.56 53.79 54.27 54.17 54.19 54.25 53.00 52.43 52.22 53.18 52.67 52.20 52.03 51.37 51.20 51.29 51.17 51.22 50.84 50.45 49.92 43.11 37.90 45.53 42.56 45.11 43.28 41.13 39.99 38.86 37.69 36.23 34.76 33.30
56.40 56.26 55.51 55.45 55.19 54.91 54.38 53.45 53.77 54.29 54.10 54.01 53.98 53.90 54.11 54.52 54.01 52.91 51.74 50.61 50.50 50.58 50.72 50.77 50.64 50.32 49.83 49.34 48.02 40.02 37.07 37.61 40.20 40.47 43.89 42.69 40.93 39.78 38.84 36.89 35.79 34.35 32.95

GFSGL_sfc_wetblb_021.txt.gz
Wetbulb
63.37 64.00 64.44 64.77 63.80 63.98 64.73 65.13 64.59 64.98 64.46 64.06 64.00 64.32 64.56 62.47 62.80 63.11 63.39 62.69 61.84 62.42 63.22 62.62 62.82 63.83 63.68 63.85 64.65 63.98 62.49 60.83 58.44 59.96 61.80 62.18 62.30 62.17 62.46 62.27 62.70 61.65 60.29
63.32 63.21 64.42 64.13 63.40 63.84 64.24 64.25 64.81 64.96 64.94 64.05 63.85 63.92 61.59 61.13 61.98 62.06 61.62 61.85 62.35 60.95 61.79 61.91 62.36 63.26 62.86 61.86 62.14 63.69 62.48 62.94 60.72 58.42 60.35 61.12 61.11 61.93 61.51 61.33 61.95 62.24 61.92
62.60 63.72 64.46 63.83 62.86 63.44 64.46 64.73 64.94 64.88 64.65 64.27 63.87 63.40 61.28 61.20 62.10 62.45 62.01 61.71 62.19 62.45 62.18 62.29 62.53 62.86 62.19 61.41 61.63 62.98 63.26 62.82 61.38 59.94 59.53 60.87 60.51 60.90 60.01 60.83 61.03 60.85 60.06
62.52 63.84 63.92 63.76 63.17 63.91 64.76 64.97 65.27 65.00 64.48 64.16 64.27 63.35 61.10 61.36 61.54 61.56 61.91 62.28 62.27 62.26 63.28 64.35 64.03 62.71 63.52 63.68 61.95 62.73 62.21 61.01 61.09 59.86 59.69 58.97 59.19 59.83 59.90 58.28 58.06 60.50 59.14
62.34 63.21 63.59 63.93 63.73 64.08 64.56 64.50 64.89 65.03 64.56 64.39 64.24 63.64 60.86 60.70 60.65 61.45 61.75 62.27 62.38 62.35 62.82 62.61 63.54 62.54 59.64 60.58 62.88 62.45 61.63 60.60 59.81 59.35 58.64 57.86 57.74 58.59 57.92 58.81 58.96 59.28 60.86
62.61 62.68 63.40 63.88 63.26 63.82 64.41 64.24 64.59 64.44 64.23 64.08 63.82 63.66 61.55 59.86 49.91 53.45 58.75 61.51 62.21 62.47 61.23 62.19 61.25 58.34 55.80 53.86 54.42 55.75 60.07 60.31 59.14 58.80 58.22 57.36 58.24 58.14 57.82 59.12 59.23 58.92 57.46
61.99 62.48 62.91 63.25 62.81 63.78 63.54 63.44 64.30 64.46 64.69 64.15 63.27 63.56 60.73 59.52 48.68 50.31 53.88 62.37 62.71 62.18 62.16 62.19 60.46 61.13 61.63 61.12 53.08 53.64 53.32 52.65 55.66 60.33 58.44 58.71 58.53 59.17 61.44 60.56 60.90 60.65 59.68
61.54 61.95 63.15 62.85 62.77 63.29 62.79 61.98 63.44 64.61 64.10 61.90 61.66 61.54 60.79 58.14 46.51 48.32 52.43 62.99 62.50 63.04 63.10 62.38 61.28 63.59 60.31 62.12 60.75 60.48 61.80 59.71 59.89 60.65 60.75 60.67 63.79 64.00 63.93 62.95 62.02 58.78 59.05
60.89 61.85 62.40 63.23 62.46 62.83 61.77 61.29 62.12 62.94 63.25 60.96 61.17 60.40 58.04 54.09 45.78 47.41 56.62 61.54 61.25 62.45 62.75 62.83 63.19 63.66 48.10 50.96 59.16 58.49 58.24 56.74 48.49 46.30 47.55 48.38 47.77 50.02 56.53 61.12 59.13 59.30 56.99
60.85 61.73 62.42 63.31 62.96 62.26 62.46 61.37 61.93 63.13 62.85 63.59 61.63 60.62 54.97 57.20 45.06 47.59 56.46 60.42 59.78 59.99 61.99 61.99 51.74 56.36 45.60 50.55 62.54 62.26 60.57 59.27 58.89 59.64 59.27 54.78 56.39 53.12 52.55 64.45 61.99 59.91 57.50
61.72 62.38 62.76 63.52 63.97 63.72 63.64 62.09 62.27 62.42 63.03 63.08 62.55 61.93 61.24 59.11 53.05 46.14 50.49 61.90 61.49 60.15 60.82 60.45 59.73 45.60 45.42 47.77 50.45 63.49 60.22 59.10 54.68 60.09 59.51 59.37 59.87 59.72 59.39 60.10 62.06 59.57 56.64
61.61 61.87 62.51 63.66 63.26 63.19 63.22 61.64 61.78 62.60 62.23 61.46 61.42 61.53 62.33 61.60 50.92 45.69 46.51 53.19 55.21 61.85 61.48 62.90 59.99 44.15 43.60 45.53 50.88 41.34 43.96 51.64 59.27 57.14 57.09 56.48 56.31 55.50 55.45 55.76 56.33 57.25 58.29
61.09 61.43 62.06 63.47 62.65 62.58 62.46 60.96 60.37 61.49 61.45 60.93 60.78 60.09 60.52 61.45 61.44 44.84 45.24 46.32 50.36 62.01 63.46 56.21 45.16 42.91 42.38 47.14 41.24 41.87 46.72 59.77 59.09 57.77 56.44 55.68 56.06 55.03 53.97 52.60 52.46 51.87 51.08
60.88 61.15 61.79 62.20 61.87 62.13 62.40 61.44 60.24 60.09 60.00 59.86 60.29 59.57 59.42 59.23 60.88 61.82 59.64 58.42 47.75 56.39 49.42 54.03 49.57 49.45 45.73 52.62 51.52 49.83 59.03 59.80 58.93 58.28 57.50 55.94 54.53 53.86 52.97 53.03 51.49 50.28 48.23
61.02 60.86 60.93 61.40 61.40 61.47 62.16 61.25 60.57 61.51 58.96 59.65 60.25 60.94 60.13 59.51 59.58 56.01 57.42 61.07 62.31 56.85 55.49 56.57 57.75 58.50 59.02 59.12 59.57 58.80 58.93 57.77 58.08 58.47 56.15 54.11 53.49 53.42 52.03 52.10 50.97 50.66 48.96
60.39 60.11 59.95 60.32 60.94 61.67 61.40 59.88 43.42 48.33 46.64 44.60 47.13 55.99 60.19 50.52 42.07 42.08 43.59 43.45 41.54 41.89 57.21 58.22 57.64 57.76 58.06 58.29 58.25 57.56 57.89 54.70 57.83 57.21 56.10 54.68 53.09 52.75 51.87 51.97 52.07 50.98 47.93
61.38 61.23 59.82 58.28 60.19 60.49 60.86 60.48 59.36 53.35 44.29 43.17 43.40 43.53 45.80 49.57 40.58 39.10 39.83 39.18 38.72 42.85 59.28 59.24 58.88 58.08 57.79 58.01 58.52 58.78 58.34 58.55 58.89 57.45 56.51 55.45 54.46 53.77 50.67 51.43 50.70 49.37 46.78
62.23 51.06 60.24 59.91 59.57 60.01 60.43 60.62 60.50 59.91 59.46 59.47 45.31 48.85 41.97 42.72 40.33 38.17 37.79 42.10 49.35 48.88 58.93 59.01 58.99 59.72 59.17 58.15 57.94 57.94 58.68 58.28 57.18 56.95 56.32 55.55 54.55 53.26 51.88 51.32 49.88 48.36 46.31
61.18 59.31 60.81 60.36 60.06 58.31 60.34 60.54 60.40 60.19 59.98 60.27 60.93 47.60 46.48 39.99 38.83 36.81 38.14 56.99 55.72 54.80 55.37 56.19 58.01 58.83 58.28 58.55 58.46 57.71 57.89 57.60 56.47 56.24 55.81 54.94 54.18 53.41 52.55 51.86 50.19 40.31 40.81
60.51 52.14 55.34 60.12 59.47 59.17 59.46 59.57 59.54 59.61 59.90 60.07 60.09 59.85 58.68 50.71 55.61 54.82 51.69 55.67 59.13 58.36 57.49 56.22 55.64 56.41 57.25 57.31 57.48 57.24 56.46 55.10 55.48 55.61 55.39 54.80 54.46 53.38 52.47 50.77 48.24 42.36 40.09
59.67 57.80 50.60 59.24 59.27 59.16 59.38 59.13 59.56 59.71 59.34 59.48 59.96 59.04 47.19 58.29 59.69 59.92 58.70 58.05 59.00 59.94 59.62 58.79 57.95 56.80 55.75 55.78 55.77 55.73 55.96 55.66 55.08 54.62 54.23 53.91 53.37 51.78 51.54 50.36 46.38 43.78 41.84
60.20 58.86 57.30 58.64 59.29 59.25 59.73 59.69 59.70 59.68 59.67 59.56 60.05 58.70 39.12 56.76 60.09 60.16 60.12 59.66 59.76 60.62 61.13 60.51 59.49 59.35 58.27 55.83 54.83 54.91 55.13 55.22 55.05 54.59 53.94 53.21 51.91 50.72 49.66 47.48 44.88 42.72 39.67
59.78 58.92 57.82 58.79 59.51 53.35 57.93 59.92 59.66 59.55 59.73 60.06 60.19 59.88 54.65 56.98 59.26 60.24 60.30 60.56 60.24 59.93 60.32 60.41 60.24 60.05 59.49 58.84 57.86 56.05 55.03 55.10 55.30 55.00 53.05 52.00 51.61 50.32 48.24 45.69 41.12 41.77 39.49
60.30 59.47 58.72 58.70 58.96 58.86 58.90 59.25 60.00 53.21 59.44 59.90 60.25 60.07 59.75 57.86 58.64 59.98 60.63 60.78 60.21 59.99 60.07 59.88 59.50 59.75 59.93 59.46 59.01 58.34 57.40 56.98 56.02 54.39 53.30 51.81 50.28 43.99 45.86 44.96 43.70 40.18 38.22
60.19 59.81 59.28 59.63 59.43 58.61 59.34 59.36 60.12 60.04 59.31 59.77 59.92 60.19 60.67 60.00 59.16 59.51 60.31 60.57 60.52 59.93 59.43 59.50 59.37 59.06 58.85 58.94 58.67 58.48 51.90 38.63 52.28 46.70 52.70 50.97 46.45 46.04 45.13 41.13 39.62 38.44 36.50
59.90 59.50 59.50 59.88 60.03 59.28 58.90 59.16 59.85 59.79 59.93 59.76 59.98 60.46 60.63 60.66 60.22 59.83 59.81 59.79 59.50 59.43 59.47 59.37 59.18 59.10 58.48 58.18 57.88 50.10 37.80 37.88 45.24 41.73 50.37 47.91 45.23 42.76 42.60 39.79 38.66 37.06 36.03

GFSGL_sfc_wetblb_024.txt.gz
Wetbulb
65.75 66.45 66.79 67.03 66.41 66.73 66.12 65.69 65.68 65.86 65.74 65.59 65.46 65.79 65.24 65.91 67.10 66.49 65.67 65.18 64.02 65.16 65.19 64.73 64.71 65.64 65.01 64.90 66.50 64.68 62.39 62.00 58.68 59.85 61.27 61.68 60.74 61.50 62.30 62.81 62.90 62.03 61.67
65.55 65.77 66.38 66.47 66.33 66.59 65.66 66.39 66.47 65.97 65.69 65.42 65.28 65.11 64.89 65.72 66.32 64.17 64.31 64.64 63.58 62.98 63.80 64.02 64.49 64.74 64.68 64.57 65.13 64.74 63.76 62.15 60.02 57.95 60.16 60.57 60.94 61.68 61.78 61.14 61.26 61.53 61.36
64.75 65.16 66.68 65.92 66.53 65.76 65.75 66.13 65.77 65.59 65.58 65.44 65.39 65.23 63.74 65.01 64.19 64.02 63.88 63.33 63.42 64.25 63.59 63.11 64.19 64.87 62.02 62.26 63.27 65.30 63.96 62.18 62.20 59.91 58.80 60.62 60.73 61.20 60.36 61.00 60.80 60.75 60.40
63.85 65.19 66.04 65.60 65.65 65.95 66.36 66.28 65.47 65.85 65.27 65.16 65.17 64.42 63.41 63.08 63.17 62.97 63.38 63.49 63.34 65.08 64.10 64.65 64.19 63.54 61.48 62.03 63.20 63.46 63.68 62.61 61.09 60.30 59.12 58.94 59.52 60.14 60.07 58.07 57.87 59.07 59.11
63.52 64.62 65.67 66.04 66.20 66.31 66.04 66.14 66.18 66.15 65.88 65.43 64.72 63.76 63.39 63.05 62.60 63.10 63.10 63.21 62.72 64.19 65.53 64.67 64.81 62.44 60.15 61.36 63.78 64.63 62.85 60.61 60.32 59.05 58.13 58.24 57.92 57.87 57.55 59.19 59.04 59.41 60.63
63.33 64.22 65.26 65.80 65.67 65.68 65.85 65.90 65.97 65.56 65.74 65.61 65.47 64.60 63.64 62.14 51.27 54.05 59.62 63.77 63.78 64.05 64.64 64.90 64.18 61.29 58.06 53.87 55.25 56.33 60.20 60.62 59.37 58.63 58.01 57.19 58.30 58.35 58.79 57.93 59.86 59.40 57.46
63.07 64.01 65.05 65.36 65.03 65.17 65.63 65.47 65.70 65.68 66.16 65.18 64.57 64.42 62.52 62.96 49.90 50.91 53.32 64.58 64.37 64.43 64.64 62.67 62.17 63.61 61.86 60.80 53.32 53.31 53.19 52.95 56.95 60.37 58.83 59.11 58.03 58.86 58.52 60.20 61.11 61.17 60.06
62.57 63.38 65.07 64.77 65.06 65.28 65.69 65.74 65.88 66.33 65.40 64.35 62.81 63.74 63.18 61.49 48.69 48.89 52.68 64.12 64.54 65.47 64.07 65.68 64.68 64.18 60.96 62.50 61.90 59.81 58.20 59.18 60.81 61.46 60.87 60.91 61.32 62.42 63.19 64.43 64.26 63.87 62.23
61.99 62.81 64.80 64.96 64.96 64.94 64.55 65.97 66.37 65.43 61.26 62.43 62.79 62.26 62.52 60.53 46.17 48.35 55.69 64.27 64.71 64.71 65.48 64.64 64.60 64.39 49.14 51.64 60.81 58.12 57.11 54.16 49.63 50.53 51.96 52.70 50.53 52.63 58.95 63.23 60.62 59.94 58.74
62.10 62.56 65.08 65.14 65.00 64.30 64.34 65.79 66.69 66.68 65.17 63.93 62.54 60.22 55.00 57.67 45.09 47.08 57.50 62.17 61.85 62.45 63.95 64.09 50.97 57.25 46.70 50.49 61.48 62.20 58.23 57.05 57.64 59.98 58.89 53.70 57.21 56.49 53.49 66.22 63.45 60.87 60.53
63.04 63.03 64.56 65.77 65.12 65.54 64.79 66.17 66.73 66.19 65.83 64.49 62.99 63.12 62.81 59.91 54.29 47.08 51.61 61.68 62.24 61.28 62.21 62.22 57.96 44.71 45.83 49.19 53.66 64.19 59.79 60.49 57.75 63.16 62.72 62.83 62.26 62.57 64.00 66.18 66.27 64.20 59.99
63.22 62.93 63.47 65.64 65.37 65.63 65.28 65.53 66.27 66.28 65.26 64.50 64.05 63.76 62.13 63.05 54.15 47.97 46.36 53.17 56.56 62.15 61.48 62.35 58.44 43.42 44.84 47.37 54.09 44.98 46.90 54.56 62.48 61.59 61.62 61.61 61.74 61.93 61.95 62.18 62.74 62.26 61.98
62.84 63.05 63.34 65.01 65.12 65.83 65.22 64.02 64.82 65.83 64.90 64.37 64.08 63.59 63.24 64.26 63.48 46.38 45.63 48.17 50.41 63.88 64.80 56.71 44.46 42.73 44.39 45.69 42.57 44.66 45.54 63.02 62.51 61.65 61.09 61.31 61.19 60.55 60.47 59.63 59.47 58.13 57.34
62.55 63.11 63.41 63.62 64.68 64.85 64.51 63.69 62.95 63.93 63.95 62.91 62.72 63.42 63.89 64.15 63.75 63.99 63.05 62.51 51.56 60.02 52.34 59.47 56.02 52.34 44.46 52.50 52.96 53.92 64.00 64.09 63.12 61.73 59.94 59.94 59.35 58.42 58.23 58.52 56.71 55.86 53.54
62.93 63.11 63.19 63.29 63.92 64.50 64.21 63.22 62.17 63.87 61.16 62.57 62.36 62.09 63.33 63.59 63.96 59.30 60.47 64.28 64.96 60.35 61.43 62.10 62.60 63.34 62.92 62.66 61.46 61.84 62.72 62.34 61.77 61.77 60.27 58.78 58.58 58.48 57.80 58.21 57.17 55.18 53.00
62.75 63.01 62.83 62.19 62.99 63.60 64.16 63.44 43.54 48.59 48.76 46.93 48.49 55.94 61.49 51.08 47.13 47.06 48.25 45.69 44.40 46.60 61.76 62.56 62.25 62.34 61.96 62.14 62.22 62.04 62.58 59.09 61.91 61.55 60.22 58.97 58.09 57.67 56.90 56.80 56.73 56.56 54.30
64.21 64.25 62.81 59.87 62.01 61.85 62.90 63.47 61.94 55.29 46.44 44.08 44.52 45.41 45.72 49.08 43.95 43.09 41.89 40.30 40.61 45.93 63.06 61.37 60.34 60.65 61.24 61.47 61.67 61.75 61.73 62.30 62.57 61.01 60.20 59.21 58.64 58.10 55.43 56.27 56.42 56.10 53.75
64.65 52.35 63.27 62.00 61.84 61.56 61.77 62.76 63.22 62.25 60.55 60.24 45.97 49.86 43.41 41.15 39.56 39.99 39.42 44.64 55.48 53.25 60.66 60.35 60.15 60.42 59.39 59.30 60.28 60.82 61.33 61.83 61.47 61.02 60.25 59.88 59.11 58.08 56.28 56.27 55.87 54.69 53.07
64.19 62.88 63.04 62.66 62.23 60.00 62.00 61.79 61.57 61.57 61.57 61.26 61.71 48.52 45.86 39.78 38.16 37.72 39.71 60.90 60.17 59.92 60.56 60.77 61.63 61.49 61.36 60.85 60.43 60.32 60.90 61.02 60.94 60.84 60.45 60.10 59.69 58.73 57.04 56.75 55.90 44.96 46.96
64.83 55.14 57.57 62.80 61.89 61.41 61.55 61.24 60.86 60.87 60.86 60.75 60.89 61.37 60.90 52.22 56.96 56.09 54.32 58.25 59.84 59.22 59.06 58.93 59.75 60.93 61.45 61.49 61.20 61.11 60.63 60.21 60.75 60.69 60.54 60.39 59.90 59.25 57.77 56.79 56.19 53.03 50.83
64.85 63.75 54.92 62.67 62.22 61.59 60.98 61.16 61.08 60.60 60.56 60.72 60.93 60.28 48.64 60.43 60.47 60.45 60.34 60.65 61.40 61.46 61.36 60.73 59.78 59.00 59.40 60.42 60.91 60.29 60.04 60.22 60.59 60.41 60.38 60.36 60.04 58.46 58.26 57.51 56.42 53.45 51.07
64.80 64.24 62.09 62.31 62.69 61.93 61.19 60.95 61.37 61.15 60.89 60.86 61.25 59.69 40.32 61.34 60.66 60.59 61.16 61.26 61.54 62.45 62.86 62.58 61.64 60.78 59.93 59.01 58.77 59.33 59.35 59.25 59.57 59.89 59.72 59.91 59.42 58.55 57.71 56.93 55.39 51.95 48.94
64.48 64.12 62.39 62.63 62.91 56.19 61.00 61.55 60.95 61.19 61.18 61.38 61.52 61.29 59.80 61.50 61.31 60.95 61.23 62.23 62.64 62.40 62.65 62.59 62.49 62.07 61.85 61.21 60.94 59.15 58.01 58.39 59.45 60.12 59.15 58.68 58.14 57.49 56.85 55.59 54.15 51.03 46.63
64.23 63.84 63.06 62.41 62.47 62.66 62.36 61.87 61.94 54.28 60.89 61.16 61.44 61.38 61.67 62.04 62.20 62.09 62.45 63.14 63.55 63.57 63.53 62.89 62.47 62.12 62.22 62.20 61.88 61.65 60.72 60.01 59.49 59.23 59.87 58.81 57.79 54.04 55.79 53.63 52.70 49.09 45.60
64.02 63.63 63.36 62.83 62.50 62.27 62.61 62.60 62.78 62.67 61.98 61.85 61.62 61.79 61.95 62.25 62.55 62.44 62.91 63.05 63.49 63.84 63.71 63.67 63.34 62.89 62.62 62.45 62.39 62.40 56.03 40.30 56.79 52.32 60.14 59.26 57.74 56.84 54.97 53.13 50.82 48.09 41.01
63.33 63.66 63.44 63.24 62.89 62.67 62.36 62.43 62.54 63.09 63.04 63.09 62.93 63.19 63.07 62.80 62.93 62.86 62.94 63.34 63.29 63.54 63.91 63.84 63.61 63.43 63.01 62.69 62.52 54.81 39.70 38.65 49.91 38.87 58.28 58.47 56.92 55.24 53.24 50.99 45.87 42.78 43.04

GFSGL_sfc_wetblb_027.txt.gz
Wetbulb
66.11 66.48 67.34 67.32 66.78 67.04 66.98 66.57 66.29 65.95 66.15 65.16 65.88 65.77 65.75 65.86 66.59 66.71 66.01 64.49 64.67 63.44 64.05 63.17 65.10 63.61 66.02 64.81 65.42 64.77 63.40 63.78 59.42 60.03 61.42 61.78 61.17 60.73 60.87 61.75 62.31 61.40 60.05
65.83 65.96 67.07 66.53 66.48 66.93 66.10 66.13 66.52 65.90 65.60 65.17 65.23 65.58 65.20 65.44 66.29 65.23 64.79 65.17 64.27 63.67 64.35 63.64 64.14 65.10 65.81 66.02 64.64 64.05 62.65 63.24 59.86 57.81 59.22 59.56 59.91 60.86 60.41 60.72 61.01 62.00 60.59
65.39 65.26 66.55 65.88 66.51 65.73 65.70 66.64 66.57 65.66 65.16 65.00 65.40 65.13 64.83 65.18 64.27 64.91 64.22 63.96 63.72 64.60 64.58 64.39 64.45 65.04 64.21 63.59 64.21 64.24 63.18 61.82 60.93 58.47 58.13 59.92 60.26 60.48 59.32 59.65 59.45 59.37 59.72
64.63 65.50 65.78 65.90 66.34 65.89 66.43 66.34 66.09 65.60 64.95 64.96 65.49 65.06 64.90 63.99 63.77 63.75 63.81 63.98 64.51 65.36 64.46 65.44 64.37 61.59 61.68 63.37 62.48 62.63 61.93 61.00 60.12 58.93 58.47 58.57 59.05 59.62 59.13 57.13 55.92 57.35 57.60
63.89 65.58 65.51 66.22 66.14 66.29 65.77 66.04 66.03 65.93 65.29 65.35 65.53 65.27 63.77 63.51 62.73 63.55 64.02 64.38 65.23 65.02 65.32 64.67 65.03 61.47 59.96 60.36 63.91 62.99 62.02 60.76 59.35 58.41 57.79 57.77 57.59 57.21 56.21 55.55 55.55 57.50 58.22
64.18 64.79 65.39 65.01 65.43 65.06 65.94 65.74 66.10 65.68 65.20 65.12 65.01 65.02 63.59 63.75 51.56 54.70 59.94 63.71 65.37 64.85 64.59 64.30 64.45 60.00 57.31 54.09 55.74 56.51 60.26 59.95 58.80 58.14 57.79 56.77 57.37 57.89 57.63 56.93 56.89 56.32 55.41
64.11 65.01 64.77 65.45 64.76 64.65 65.31 65.35 65.39 65.59 66.31 65.25 65.11 64.73 64.39 63.16 51.14 52.49 54.12 64.91 65.44 65.20 65.04 64.74 63.93 63.10 61.94 62.45 54.14 53.81 53.43 53.24 56.57 59.80 58.22 58.21 57.47 58.48 59.02 59.33 59.63 59.74 59.14
63.85 64.74 64.98 64.90 65.16 64.70 65.22 65.18 66.15 67.23 66.30 65.81 65.00 65.34 64.13 60.97 51.07 50.76 52.81 65.99 65.15 65.48 65.28 65.01 64.74 63.54 61.99 63.08 60.94 59.79 60.23 60.65 60.54 61.16 60.31 59.62 59.35 58.85 60.88 61.85 62.51 62.70 62.10
63.10 64.68 65.17 64.56 64.52 64.74 65.02 65.63 66.67 64.15 63.87 63.91 64.64 64.20 64.10 61.57 47.86 47.68 54.46 65.39 64.14 65.20 64.42 64.25 64.58 63.36 49.37 51.03 59.57 57.17 57.21 57.81 52.68 51.31 51.47 50.40 49.50 51.15 57.07 63.33 62.04 59.58 57.10
63.08 64.74 65.81 65.54 65.16 65.33 65.98 66.00 67.26 66.88 64.52 63.46 63.83 62.46 56.23 62.66 45.51 46.60 55.03 64.94 63.68 62.91 64.31 61.98 51.93 56.13 48.73 50.74 59.52 59.10 57.53 58.29 59.37 59.76 58.80 54.56 55.09 56.71 51.97 65.63 63.86 59.73 59.05
63.75 64.94 65.96 66.46 66.14 66.04 66.78 67.43 67.23 66.50 65.25 63.83 63.50 62.95 62.75 60.41 56.51 46.05 50.56 64.82 64.30 64.15 62.10 62.08 60.13 46.71 49.05 52.59 54.72 59.90 57.71 59.82 57.43 61.96 62.25 61.93 62.80 63.44 63.70 65.39 65.37 62.53 61.84
63.79 64.09 65.67 66.48 65.85 65.63 66.49 66.61 66.40 66.48 65.06 64.36 63.78 62.99 63.14 62.76 54.31 47.86 47.14 53.89 56.80 64.77 62.49 61.84 56.96 44.05 46.07 48.78 54.75 47.34 48.57 56.71 64.03 62.92 62.37 61.86 61.29 61.69 64.15 65.44 63.91 64.30 64.17
63.75 63.79 65.33 66.13 65.84 66.29 65.28 66.17 65.39 65.73 63.64 63.98 63.77 63.06 62.69 63.50 62.50 48.34 47.14 47.68 51.78 64.46 63.89 53.82 44.50 43.19 44.16 49.61 46.64 47.61 48.47 63.74 63.22 62.08 60.43 60.48 62.18 64.21 64.13 62.61 61.53 61.40 62.23
63.49 63.83 64.66 65.35 65.11 66.05 65.38 65.15 65.08 65.12 63.76 63.87 62.82 63.72 63.70 63.06 63.16 63.06 62.83 61.94 50.30 57.58 51.60 55.67 55.15 51.41 48.09 53.77 55.27 55.50 63.12 63.37 62.70 62.50 62.65 63.25 62.55 60.99 60.31 60.72 58.13 57.13 56.02
63.57 63.97 64.00 65.09 65.03 65.24 65.24 63.29 63.79 66.09 61.98 63.15 63.41 64.76 63.47 63.00 62.70 59.11 60.01 64.00 64.58 60.54 61.68 63.08 62.66 62.90 60.74 60.63 61.17 62.24 63.73 63.53 62.99 63.02 62.18 60.89 59.68 59.63 59.27 59.70 58.76 57.37 55.28
64.04 63.16 63.32 63.77 64.71 64.33 63.60 62.92 43.12 47.30 46.77 45.95 46.21 55.60 62.69 53.58 47.27 47.13 47.05 45.79 46.09 48.50 62.35 62.48 62.21 62.38 61.70 61.37 61.45 61.93 62.78 60.32 63.02 62.34 61.35 60.11 58.88 58.66 58.61 58.86 58.74 57.20 55.48
65.06 64.87 62.91 60.75 63.61 64.52 63.79 62.87 60.89 56.15 47.01 47.49 44.17 45.27 49.26 51.81 46.09 44.42 43.08 43.15 44.19 49.09 62.76 62.26 62.87 62.78 62.57 61.77 61.76 61.84 61.59 62.21 64.23 62.40 61.40 60.11 59.59 59.13 56.81 57.50 57.27 57.04 56.77
65.95 52.48 63.98 62.32 62.72 62.78 64.42 64.50 64.11 61.66 60.44 59.83 48.33 50.04 44.83 44.00 43.84 42.52 41.63 47.60 59.10 55.76 63.20 62.95 62.15 62.74 62.64 62.27 62.01 61.83 62.31 63.21 62.54 62.09 61.49 60.65 60.26 58.95 57.85 57.13 56.92 56.83 56.55
65.36 63.59 63.93 63.02 62.55 60.70 62.80 63.81 64.52 63.95 62.48 61.13 60.54 50.29 44.11 39.19 39.56 39.87 42.20 61.07 60.09 60.38 61.47 61.03 61.70 61.30 60.67 60.88 62.51 62.43 63.20 62.91 63.07 62.98 62.35 61.65 61.34 59.92 58.94 57.81 57.49 46.22 50.07
65.73 56.00 58.63 63.45 62.13 62.02 61.92 61.82 62.41 62.82 63.18 62.16 60.98 60.08 58.03 52.03 56.54 57.97 58.23 60.92 60.60 60.43 60.11 59.68 61.27 62.03 62.34 61.50 61.18 61.17 61.02 61.84 62.84 63.00 62.64 62.32 62.03 61.36 59.97 59.26 58.08 56.75 55.33
64.95 64.63 55.72 63.20 62.90 61.95 61.29 61.47 61.44 61.12 60.98 61.41 61.84 61.16 50.90 58.82 58.71 58.60 58.66 59.94 60.72 61.06 60.93 61.12 60.82 61.25 62.27 62.96 62.73 62.11 61.71 61.65 62.28 62.55 62.41 62.15 62.21 61.13 61.33 60.78 59.75 58.50 56.75
66.16 65.77 64.02 63.08 63.25 62.05 61.48 61.48 61.56 61.07 60.94 60.99 61.45 59.37 42.40 61.49 60.06 60.01 60.82 61.15 61.24 61.75 61.76 62.99 61.45 61.08 60.84 61.04 62.09 62.67 61.47 61.32 62.22 62.60 62.04 62.06 62.20 62.06 61.37 60.38 59.04 58.69 56.97
65.80 65.70 64.98 64.29 64.22 56.60 61.10 61.36 61.15 61.46 61.08 61.01 61.41 61.05 59.32 62.30 61.68 61.87 62.11 63.12 63.86 63.87 64.49 64.47 63.35 62.54 62.73 62.85 62.51 62.02 61.16 61.56 62.57 62.81 62.27 62.05 61.68 61.75 61.34 60.46 59.07 58.34 56.54
65.91 65.73 65.48 64.81 64.27 63.36 63.39 63.10 62.35 54.37 61.07 61.31 61.95 61.79 62.07 62.75 62.96 62.75 63.11 63.37 64.15 64.51 64.54 64.21 63.97 63.27 64.03 64.71 63.71 62.87 62.06 61.88 62.54 62.54 62.63 62.00 61.46 58.37 60.60 59.52 58.80 58.08 56.26
65.43 66.31 66.48 66.00 64.50 64.09 64.03 64.10 64.20 62.42 62.05 61.93 62.90 62.55 61.93 63.49 63.27 63.87 63.96 63.76 64.14 64.37 64.61 65.03 64.84 63.90 63.66 63.42 63.61 63.32 57.18 40.09 57.21 51.43 61.10 62.10 61.47 61.36 59.74 58.63 57.91 56.97 52.28
64.25 65.17 65.96 66.19 65.60 65.14 64.91 65.12 65.07 64.64 63.49 63.77 63.55 63.84 63.65 63.05 63.19 64.46 64.89 64.73 64.30 64.27 64.90 65.41 65.46 65.14 64.36 63.92 63.56 55.76 40.97 38.94 49.86 40.02 59.85 61.82 60.68 60.13 59.24 58.33 56.98 54.06 47.22

GFSGL_sfc_wetblb_030.txt.gz
Wetbulb
66.58 67.73 67.15 67.22 65.72 67.49 66.51 67.17 67.09 67.06 66.18 64.98 65.22 66.02 65.40 65.05 65.01 64.49 65.00 63.58 62.47 62.30 62.44 61.59 61.84 61.95 62.41 62.94 62.57 61.90 61.24 60.78 57.81 58.78 59.92 60.87 60.72 60.13 60.72 61.66 62.06 61.34 60.08
65.95 66.27 67.04 65.41 65.49 66.44 66.48 66.67 66.80 65.46 65.24 65.26 64.67 65.10 64.53 64.82 65.81 64.70 63.86 64.47 63.67 62.68 62.02 61.70 61.51 63.15 61.84 62.70 62.17 61.52 61.07 61.01 59.05 56.93 58.28 58.86 59.40 60.53 60.45 59.76 60.12 61.56 60.51
65.35 66.08 65.22 65.47 66.32 66.41 66.59 66.55 66.24 65.63 64.51 64.12 64.23 63.92 64.26 64.82 64.33 64.26 64.05 63.59 63.58 63.26 62.30 62.17 61.71 62.07 61.88 61.74 61.99 61.52 61.14 60.69 59.71 58.27 57.43 58.78 59.40 59.78 59.22 59.35 59.14 58.74 59.17
64.86 65.54 65.68 66.30 65.47 66.25 66.73 66.53 67.04 64.43 63.93 63.55 64.60 64.44 64.62 63.87 63.72 63.93 63.75 63.86 63.94 63.52 63.05 63.73 61.84 60.73 61.23 61.58 61.80 61.12 60.94 59.46 58.89 58.17 57.47 57.49 57.97 58.29 57.93 56.43 55.81 57.67 56.77
64.89 64.95 65.80 65.36 66.11 66.09 66.09 66.16 66.82 63.90 64.00 63.65 64.60 64.21 63.88 63.00 62.50 63.95 63.89 63.59 64.00 63.47 63.30 63.69 61.41 60.19 58.36 60.79 61.50 61.00 60.03 59.11 58.07 57.87 57.11 56.83 56.15 55.89 54.30 54.68 54.70 55.03 54.61
65.21 64.96 65.60 64.88 64.97 65.74 65.57 66.25 66.55 65.82 65.17 64.58 64.41 63.39 63.34 61.62 50.96 53.06 58.77 63.85 64.25 63.46 62.96 61.62 60.59 58.37 55.95 55.10 56.41 57.05 59.00 58.94 57.94 57.63 57.05 55.87 55.51 54.40 54.29 54.54 54.50 53.47 51.09
64.74 64.80 64.78 64.85 64.57 64.86 65.22 65.22 65.09 65.30 65.08 64.09 63.78 63.81 61.99 60.94 50.46 50.53 52.74 64.67 63.79 63.84 63.17 63.14 62.56 61.24 60.13 59.02 52.95 53.40 53.50 53.09 56.14 58.97 57.09 56.65 54.99 54.88 56.31 55.83 55.30 54.72 53.02
64.08 64.36 64.63 64.31 64.33 65.07 63.67 65.29 65.54 65.57 64.82 64.73 64.24 62.99 61.82 59.61 51.49 46.24 49.14 64.51 63.87 64.05 63.74 63.72 62.41 62.48 60.28 60.64 60.14 59.60 59.38 59.73 59.58 60.04 59.36 58.53 57.60 57.49 58.04 56.30 58.20 58.34 56.61
63.17 64.35 64.34 64.76 64.54 64.70 64.48 65.35 66.23 65.35 64.26 62.89 63.83 63.10 61.25 59.90 46.24 46.44 56.51 63.91 63.62 63.44 63.85 63.72 62.63 59.43 49.64 51.13 59.21 58.39 58.17 57.63 52.54 51.15 50.71 49.86 49.70 51.41 56.89 59.34 58.78 56.29 54.79
63.11 64.61 65.16 65.20 64.45 65.13 65.13 65.57 66.21 65.85 64.12 63.94 62.48 62.52 57.33 60.30 47.16 47.16 54.10 63.20 62.04 61.00 61.74 60.06 52.61 55.99 48.07 50.42 59.31 58.66 57.35 57.83 58.45 57.93 55.99 52.68 52.44 53.23 51.68 59.99 59.89 55.80 54.58
64.05 65.43 65.58 65.57 65.34 65.99 66.03 66.08 66.04 65.25 63.65 62.16 61.77 61.34 62.69 60.67 57.55 47.52 47.52 63.39 62.86 61.35 60.50 59.27 55.97 46.80 49.11 49.59 53.74 59.49 57.80 59.35 55.97 59.27 59.36 58.27 57.57 59.03 60.44 61.24 61.89 59.01 56.66
64.07 64.86 65.98 66.40 65.14 66.62 66.29 66.15 66.15 64.97 63.63 62.60 61.75 60.92 61.79 61.85 53.94 49.15 48.25 53.15 56.53 61.83 60.17 60.40 52.98 45.36 48.25 50.04 54.86 46.60 48.25 55.07 60.83 60.21 59.78 58.97 58.83 60.26 61.37 61.49 61.12 60.49 61.47
63.63 65.19 65.68 65.89 65.18 65.96 66.09 65.31 65.08 65.30 63.42 62.55 62.39 61.66 61.54 61.40 60.02 48.61 48.25 48.79 51.90 61.08 61.70 51.07 43.30 45.04 45.19 47.81 46.44 47.16 49.08 61.00 60.46 60.00 59.33 59.94 60.84 60.96 61.48 59.28 59.03 58.97 58.51
63.79 65.08 65.51 65.07 64.79 65.05 65.55 65.81 64.88 64.28 63.82 63.39 62.43 61.66 61.57 61.14 60.92 61.00 60.32 58.53 52.91 54.88 50.86 53.34 51.29 51.50 51.80 53.58 52.97 53.07 62.30 61.82 60.73 60.43 59.48 58.86 60.06 60.67 59.50 58.76 55.46 55.02 52.75
64.05 64.38 65.17 65.36 65.12 65.11 64.83 63.63 65.08 58.46 59.95 63.92 63.65 63.39 61.81 60.89 61.25 57.71 59.03 62.03 60.99 57.44 58.43 58.99 59.22 58.17 58.45 58.13 59.51 59.98 60.77 61.63 60.95 60.01 59.06 59.29 59.06 58.86 58.22 58.11 55.67 54.04 51.57
63.74 63.72 64.08 64.37 64.72 64.43 62.25 60.26 42.83 45.80 44.54 43.61 46.46 60.16 63.12 54.28 48.77 48.59 49.43 49.55 47.77 48.02 59.96 60.21 60.46 58.95 58.07 58.18 58.40 59.00 60.67 58.09 60.30 61.10 60.52 59.14 58.01 57.93 57.29 56.98 56.35 54.11 52.15
63.46 63.80 63.40 62.28 63.72 63.73 63.27 61.71 59.75 52.31 43.95 44.38 44.42 48.60 52.76 52.27 46.29 44.89 45.14 44.48 45.89 47.91 61.53 61.07 60.47 60.54 59.52 59.84 59.77 59.84 60.19 60.69 62.11 60.12 59.10 57.99 57.51 57.01 52.54 56.00 55.82 54.90 53.21
64.17 53.57 63.82 63.07 64.08 64.49 63.04 62.85 61.40 60.31 58.95 58.08 47.97 51.14 46.43 44.55 44.11 43.37 42.55 48.26 56.30 54.15 62.04 61.50 61.37 61.81 61.31 60.13 60.29 59.87 60.42 60.48 60.14 60.63 59.60 58.70 57.68 57.01 55.30 55.11 54.77 53.61 53.17
63.70 63.34 63.34 62.70 63.74 61.84 64.63 63.96 63.07 61.26 60.36 59.83 55.42 50.38 43.14 41.40 40.84 41.66 44.00 61.92 60.79 60.63 60.89 61.96 62.77 62.30 62.05 61.84 60.96 60.93 60.60 60.74 59.88 59.45 59.72 58.93 57.94 56.95 55.81 55.32 54.87 45.79 48.03
64.55 55.85 57.97 63.21 62.08 62.33 62.47 63.39 63.53 62.92 61.19 59.84 58.45 57.40 54.22 51.32 56.53 57.47 57.41 61.48 61.85 61.97 62.15 61.70 61.92 61.35 60.55 60.20 60.61 61.24 60.62 58.51 59.84 60.33 59.95 59.68 58.87 58.01 56.75 56.23 55.48 54.03 52.09
64.64 63.45 54.30 62.61 62.13 62.12 61.47 61.75 62.26 63.16 62.99 61.63 60.22 57.87 47.12 57.65 58.41 59.03 59.08 59.70 59.55 59.59 59.43 59.32 58.95 58.98 61.30 60.66 59.49 58.83 58.49 59.34 60.31 60.55 60.65 60.08 59.50 58.46 58.02 56.98 56.26 55.49 53.93
64.33 64.16 62.93 62.16 63.30 62.02 61.54 61.60 61.54 61.57 61.76 62.61 62.18 56.84 41.73 57.17 58.38 58.69 59.52 59.25 60.10 60.49 61.45 61.27 60.37 59.99 60.08 60.72 60.95 60.58 59.55 58.21 58.74 59.21 59.70 60.17 59.75 59.06 58.27 57.76 57.05 55.48 53.85
65.05 64.62 63.91 62.90 62.64 56.71 59.16 61.29 61.40 61.32 60.98 61.01 61.43 58.18 55.05 57.24 58.21 58.24 58.42 58.89 59.77 60.21 60.78 60.49 59.90 60.65 60.32 60.20 60.59 60.96 60.69 60.40 60.38 60.35 59.31 59.25 59.20 58.84 58.64 57.07 56.70 55.61 54.12
65.53 65.84 65.30 63.42 62.61 62.92 62.51 61.27 61.05 53.92 60.98 60.95 60.99 59.43 58.12 59.22 60.09 59.32 59.60 60.19 60.46 60.33 60.14 59.99 59.65 60.22 61.48 61.99 61.38 60.42 60.25 60.76 61.37 60.87 60.77 59.69 58.97 53.87 57.98 57.46 56.98 55.65 53.03
65.95 65.48 65.84 64.91 63.48 62.20 63.04 61.99 61.58 61.22 60.98 61.08 60.96 61.28 59.70 60.72 61.37 61.72 61.88 61.23 61.21 61.48 61.85 61.76 62.02 61.88 61.55 61.64 62.20 61.73 54.67 40.37 55.72 52.06 59.70 59.67 59.07 58.49 57.89 56.87 55.79 54.02 45.41
64.68 66.21 65.45 66.44 65.08 63.95 62.62 63.45 62.22 61.78 61.58 61.06 61.77 61.91 62.03 61.45 61.71 62.18 62.06 61.83 61.51 61.46 61.66 62.41 62.50 62.33 62.25 61.88 61.54 54.30 41.32 37.99 45.35 40.95 56.91 56.86 57.31 57.88 57.79 55.74 54.94 47.90 44.26

GFSGL_sfc_wetblb_033.txt.gz
Wetbulb
61.50 61.37 62.42 62.57 62.89 62.29 62.04 61.92 61.09 61.01 61.34 61.75 62.92 62.52 61.82 61.93 62.33 60.79 60.08 61.62 60.92 60.19 60.75 59.45 59.49 59.51 60.00 59.96 60.81 58.25 57.87 57.45 56.83 58.42 60.21 60.41 59.46 60.30 60.54 61.09 61.52 61.23 60.07
62.04 62.17 62.31 63.42 62.64 61.85 61.65 61.77 60.33 61.87 60.61 61.35 62.30 62.56 62.63 62.33 61.21 60.58 60.41 61.03 61.29 60.61 59.57 60.00 59.07 62.28 60.52 60.09 60.08 59.42 58.86 59.35 58.03 56.99 58.96 58.42 58.21 59.58 60.24 60.08 60.28 60.87 59.98
62.33 62.63 62.93 61.82 61.79 61.23 61.72 61.54 61.01 60.72 61.12 62.23 62.10 62.46 62.39 62.06 60.83 61.04 61.60 61.05 61.70 61.60 61.37 60.97 60.61 61.36 59.78 60.04 60.39 60.04 60.18 59.94 59.24 58.13 57.39 58.94 59.32 59.82 59.24 59.58 59.24 58.70 59.05
63.80 61.63 62.13 61.09 61.70 61.46 61.90 61.65 61.87 62.44 61.21 62.11 62.06 62.24 61.65 60.80 61.20 60.94 60.87 61.03 61.43 62.11 62.16 61.54 60.86 60.46 60.23 60.49 60.28 60.03 59.91 59.26 58.68 57.63 57.65 57.71 57.91 58.39 58.21 56.53 55.87 57.39 55.54
62.10 62.07 61.41 61.40 62.18 62.16 61.85 61.45 61.95 62.28 61.85 63.20 61.29 60.66 60.46 61.03 60.46 59.96 62.33 61.93 61.61 61.35 61.24 61.15 60.65 59.85 59.80 60.15 60.78 60.18 59.33 58.35 57.51 56.89 56.07 56.03 55.89 56.19 55.15 55.87 53.66 53.86 52.99
62.05 63.20 62.04 61.83 62.58 61.79 61.62 61.26 61.39 62.48 62.92 61.89 60.56 60.07 58.48 58.76 50.44 52.42 57.45 61.31 62.36 61.13 59.39 59.82 59.82 58.44 57.11 55.68 55.97 56.63 58.56 58.04 57.07 56.43 55.79 54.97 54.83 54.52 55.67 54.67 53.40 52.00 49.32
62.31 63.83 62.39 62.61 61.74 61.67 62.10 61.44 60.58 60.27 60.66 60.55 59.51 59.30 57.19 55.47 47.06 47.06 50.69 62.59 62.40 60.96 59.70 59.86 60.27 59.17 58.88 57.51 52.73 53.01 53.11 52.70 55.61 57.69 56.03 54.73 53.89 55.09 55.26 54.00 53.12 52.44 50.47
62.20 63.13 62.18 63.22 61.74 61.94 61.78 60.98 59.87 59.77 59.79 60.15 59.39 58.01 56.95 53.39 46.32 45.79 49.44 61.41 60.81 62.00 60.63 59.82 60.58 60.55 58.86 59.76 59.37 58.96 58.95 58.88 58.59 58.94 57.58 56.52 56.06 56.76 55.98 55.05 54.49 52.40 52.35
61.56 62.06 62.76 62.94 61.03 60.98 60.97 61.22 60.81 61.23 59.65 59.95 59.46 57.13 55.87 53.14 46.52 45.81 56.03 60.81 60.44 60.59 61.10 60.02 60.58 59.17 49.58 51.16 59.38 58.19 57.83 56.85 51.37 50.36 50.16 49.05 48.30 49.50 54.61 57.98 53.58 51.51 50.51
61.35 63.13 62.56 62.29 61.30 61.27 61.16 60.84 60.36 59.84 59.59 60.97 59.83 57.65 54.22 54.65 47.62 45.81 53.06 60.06 58.80 59.52 58.91 57.72 51.41 55.27 47.44 49.98 59.09 58.42 56.95 57.05 57.53 56.63 54.63 51.43 52.07 51.01 51.76 57.56 55.19 52.56 51.98
61.57 63.59 62.25 61.59 62.33 62.06 61.30 61.93 60.86 59.70 60.80 59.05 59.07 58.19 57.75 55.61 53.83 45.99 50.53 60.49 59.20 59.05 58.34 56.41 53.79 47.26 46.90 48.35 52.95 58.79 57.02 57.87 54.78 57.49 56.71 56.12 55.91 56.45 57.05 57.91 56.17 55.45 53.24
62.61 62.63 62.02 62.23 64.27 63.31 61.91 61.58 61.26 59.35 58.85 58.53 59.33 57.71 58.40 57.27 51.07 47.62 49.80 54.82 54.90 58.87 58.13 56.27 51.67 45.99 46.36 47.26 54.21 44.91 46.54 54.03 58.69 58.23 56.22 55.24 53.70 55.21 57.15 59.18 59.26 57.03 56.55
61.13 61.36 62.42 62.61 63.33 62.86 61.95 61.15 60.90 59.87 59.52 58.58 58.06 57.25 56.95 56.79 54.62 47.26 48.89 49.98 52.57 57.86 58.33 52.57 44.58 44.91 45.09 47.06 46.36 47.62 51.94 59.64 59.07 57.80 56.37 55.31 55.61 57.67 58.39 56.23 56.01 56.50 55.51
61.47 61.36 61.33 61.65 61.68 62.65 62.98 62.25 61.21 60.41 59.50 59.73 59.41 58.64 57.71 56.53 56.01 56.81 56.37 52.97 49.38 51.27 47.93 48.78 50.19 50.44 50.09 52.41 52.45 54.12 60.22 59.90 58.41 57.80 57.73 57.15 57.45 57.43 54.95 54.46 52.98 51.82 50.31
61.86 61.19 61.22 60.99 60.31 60.35 58.82 58.13 61.20 60.11 60.49 60.42 59.86 59.63 58.43 57.55 58.31 55.30 56.29 57.90 57.16 53.85 53.72 53.99 54.17 54.48 55.35 56.73 57.77 56.83 58.91 58.55 58.05 57.91 56.31 56.43 57.03 57.91 56.21 54.00 51.94 50.59 48.55
61.01 61.18 60.77 61.28 60.76 59.88 53.57 51.37 43.59 43.90 43.29 49.81 51.87 58.13 59.35 53.42 47.43 47.91 48.98 47.26 45.99 47.08 56.33 55.81 54.47 55.39 56.31 57.21 57.21 57.05 56.93 57.32 58.93 57.34 55.71 57.07 57.16 57.16 55.47 54.00 52.24 49.89 48.08
60.49 60.84 60.42 60.28 61.47 58.96 56.54 53.71 51.29 50.84 43.78 45.09 48.99 49.13 49.57 50.18 46.49 46.27 46.16 45.22 45.09 47.81 56.87 56.59 55.67 55.76 56.16 56.90 57.96 57.78 57.45 57.65 59.56 58.55 57.67 57.09 56.42 56.42 52.74 54.69 52.75 50.96 49.52
59.88 52.15 60.39 60.28 60.58 60.35 58.54 56.63 54.38 53.05 52.73 53.58 46.92 48.57 45.96 45.76 45.43 44.06 42.86 46.54 51.40 51.31 57.12 57.07 56.72 56.42 56.07 56.34 56.20 56.10 56.35 57.16 57.47 57.36 56.98 56.57 55.78 55.77 52.37 53.44 53.15 50.98 49.60
60.09 60.00 60.19 58.73 60.80 58.85 59.16 58.00 56.75 55.46 54.31 53.22 51.19 47.44 41.74 41.71 43.62 42.78 43.51 58.95 57.22 56.76 57.22 57.42 58.17 58.68 57.78 57.39 57.47 57.18 56.57 56.66 57.17 56.25 55.59 55.85 54.89 53.34 52.33 52.79 52.96 44.70 45.76
60.30 53.85 54.53 59.42 58.18 59.68 59.46 58.50 57.54 56.69 55.74 53.75 54.25 54.10 48.18 47.28 51.26 51.06 52.09 58.97 58.78 58.73 58.75 58.13 57.78 58.36 58.95 58.65 58.24 57.66 56.68 54.27 56.65 55.76 56.01 56.43 55.91 55.04 53.96 52.98 52.89 51.93 49.00
60.48 55.73 51.96 57.85 57.94 59.67 57.75 59.90 58.89 58.01 56.78 54.85 55.03 54.97 45.70 55.52 55.67 56.02 55.77 57.54 59.20 59.38 59.43 59.33 58.91 58.85 56.23 57.57 58.27 58.31 57.90 57.83 57.21 57.71 56.88 56.42 56.73 55.53 54.83 53.46 53.20 52.18 49.89
61.25 59.91 58.01 58.70 57.71 56.91 58.09 56.55 58.82 58.48 58.43 56.89 55.79 53.68 40.83 57.43 57.59 57.49 57.67 57.96 59.09 57.99 56.40 58.57 58.59 57.01 55.00 55.64 56.74 55.64 55.91 56.57 57.18 57.87 58.09 57.80 57.16 56.62 55.54 54.52 52.53 51.27 49.96
61.63 60.51 59.17 59.14 58.78 52.08 52.87 57.72 56.55 57.63 57.94 59.29 58.09 55.55 50.46 56.53 56.82 57.12 57.64 58.21 58.49 58.55 58.23 56.61 55.43 56.53 56.59 55.01 56.21 57.73 56.71 55.84 55.42 56.26 57.04 57.91 57.69 57.03 55.75 54.25 54.40 52.58 50.09
59.95 60.92 60.15 59.64 59.19 58.73 56.10 56.64 57.23 50.75 56.56 56.67 59.10 56.60 53.58 54.03 55.41 56.28 57.12 57.59 57.55 57.57 57.88 57.60 57.88 57.37 55.83 54.92 56.00 56.85 58.13 57.55 57.14 56.45 56.52 56.24 56.36 51.65 56.80 55.50 53.23 53.06 51.12
59.79 59.73 60.42 59.84 59.49 57.93 58.46 56.34 56.64 56.36 56.47 56.96 56.24 55.27 55.46 55.46 55.28 55.80 55.91 56.23 56.47 56.98 57.51 58.06 58.17 57.60 55.42 55.28 56.38 56.64 51.77 41.32 55.53 50.82 57.26 56.40 55.82 54.81 55.95 55.23 52.98 50.53 41.44
60.70 60.76 59.63 60.42 60.19 59.80 58.81 58.16 57.30 57.06 56.78 57.43 57.00 56.14 55.87 56.15 56.54 57.08 57.30 56.68 56.66 57.09 57.26 57.44 57.21 56.77 56.99 56.84 56.77 51.47 42.36 40.18 43.66 41.23 56.32 56.94 55.91 55.54 55.46 54.34 52.68 46.98 41.94

GFSGL_sfc_wetblb_036.txt.gz
Wetbulb
60.01 60.23 60.12 60.78 61.39 61.01 60.20 60.43 60.52 60.03 59.96 60.69 61.63 61.36 60.80 60.91 60.70 59.55 59.09 59.92 57.43 58.28 59.57 59.48 58.92 58.80 59.36 57.87 57.23 56.91 57.31 57.63 56.49 58.40 60.35 61.13 60.16 60.26 59.92 60.01 59.57 57.84 57.95
59.65 61.02 60.66 61.18 60.87 60.40 60.53 60.34 59.41 59.66 60.07 61.11 62.07 61.53 61.65 61.24 59.60 59.80 59.71 60.66 60.65 59.33 59.43 58.36 58.24 61.09 59.11 59.00 57.75 56.35 55.93 57.47 58.46 57.03 58.23 58.98 58.81 59.39 58.64 58.54 59.69 60.64 60.36
60.79 60.82 61.00 61.68 59.82 59.88 60.35 59.98 58.68 59.64 59.24 60.05 60.97 61.34 61.34 60.73 60.13 60.33 61.02 60.64 60.91 60.51 60.07 59.85 59.73 59.98 59.70 60.00 59.45 58.75 58.97 58.95 59.15 57.71 56.63 58.58 58.72 58.83 59.04 59.07 58.41 58.25 58.85
61.46 60.77 61.11 59.74 60.00 60.15 60.49 59.74 59.54 60.30 60.10 61.33 61.11 61.22 60.54 60.02 60.07 59.81 60.41 60.35 61.28 61.06 61.25 61.05 60.74 60.11 59.70 59.94 59.92 59.58 59.45 59.16 58.87 57.19 57.05 57.27 58.25 58.55 57.95 56.19 55.68 56.63 54.04
61.72 61.44 59.32 59.75 60.32 60.67 60.48 60.42 60.54 62.28 62.09 61.96 60.02 59.20 59.17 59.37 58.50 58.75 60.58 60.25 61.33 61.17 60.70 60.86 60.58 60.04 59.22 59.35 60.11 59.56 59.19 58.29 57.93 57.05 56.57 56.61 56.21 55.66 55.10 55.45 53.40 52.87 51.56
61.54 61.96 60.54 60.47 60.86 60.46 60.31 60.09 62.00 61.71 61.96 60.90 59.09 58.87 57.38 57.56 48.85 50.21 56.19 60.90 60.80 59.69 58.72 59.32 59.36 58.25 56.85 55.66 56.00 56.27 58.26 58.25 57.47 56.79 55.97 55.18 55.75 55.36 55.08 54.32 52.96 51.77 49.05
61.79 62.37 60.92 60.97 60.92 60.64 60.69 60.11 60.16 60.22 59.55 58.12 57.67 57.19 55.41 54.33 45.72 46.11 50.85 60.76 59.23 58.09 58.44 60.27 60.09 58.95 58.15 57.77 52.20 52.67 52.52 52.63 55.81 57.73 56.03 55.55 55.03 55.51 55.39 54.18 54.05 52.32 49.59
61.82 62.30 60.96 60.92 60.62 60.82 60.07 59.04 58.40 58.57 58.19 57.87 56.55 55.89 54.57 54.26 45.37 46.13 51.93 60.47 59.38 59.88 59.04 60.70 59.72 59.09 57.99 58.64 58.62 57.88 57.92 57.77 57.77 58.56 57.28 57.32 57.19 56.87 56.25 55.31 52.67 50.27 49.19
62.02 62.26 61.15 60.98 60.30 60.49 60.02 58.30 57.98 58.07 57.55 57.37 56.21 55.27 54.47 53.60 45.04 47.22 55.44 59.62 59.68 59.90 60.50 60.75 60.22 58.88 49.00 50.10 58.43 57.17 56.89 54.94 49.97 48.69 48.43 48.00 47.24 48.33 53.06 53.64 51.25 49.64 47.33
60.76 61.67 61.55 60.89 60.56 59.95 59.35 58.74 58.30 58.20 59.98 59.35 55.91 54.75 52.69 54.06 45.21 47.04 54.96 59.96 59.29 58.40 58.31 57.27 51.55 55.31 46.68 49.30 58.16 57.53 56.01 55.72 55.41 54.64 54.44 51.22 51.78 51.48 51.09 54.25 52.66 49.84 48.45
61.50 61.95 60.71 60.52 60.14 60.26 59.34 58.94 57.99 58.29 58.74 58.55 57.21 54.90 54.81 53.88 52.47 46.68 49.94 59.51 58.69 58.11 57.33 56.57 55.00 46.13 45.77 47.02 51.78 57.93 55.83 56.29 53.07 55.77 56.07 55.84 55.60 53.78 55.38 53.49 52.49 52.69 50.16
61.57 61.18 60.40 60.69 62.12 61.30 59.98 58.79 58.61 58.21 58.89 57.29 55.92 54.94 55.40 55.02 48.67 46.31 48.67 51.55 53.45 57.99 56.43 56.51 51.97 44.68 45.23 46.13 51.06 45.04 47.22 53.09 56.49 55.37 55.53 55.19 53.90 53.94 55.30 55.63 54.20 53.92 53.62
60.49 60.23 60.59 61.60 61.60 61.11 59.91 58.73 57.75 56.83 56.73 56.69 56.83 56.51 55.50 55.48 55.30 45.95 47.58 46.86 50.43 56.87 57.36 51.97 43.78 43.41 43.78 45.55 45.23 47.22 50.11 57.76 56.07 54.42 53.99 52.51 52.80 54.85 57.69 56.15 54.93 54.52 52.90
60.10 60.34 61.06 61.16 60.31 60.15 60.76 60.00 58.81 57.67 56.83 57.55 57.41 57.71 57.05 54.96 55.82 56.83 54.97 52.59 48.27 50.93 48.50 50.02 49.41 49.94 50.10 52.35 52.82 54.89 59.15 58.61 56.70 54.92 54.05 53.66 54.72 54.94 54.22 53.43 52.36 51.54 50.84
60.49 60.44 60.68 61.05 60.51 59.95 58.13 58.15 60.13 59.26 58.31 58.45 58.65 58.67 56.35 55.93 56.23 53.76 54.33 56.01 55.83 51.90 51.34 55.07 55.58 55.95 55.43 56.73 58.06 58.87 58.23 57.57 56.85 56.09 55.85 55.26 55.26 55.28 53.94 52.46 51.60 49.71 49.54
59.89 60.32 60.42 60.79 60.38 59.55 55.29 52.11 43.52 45.99 43.64 45.89 50.83 56.05 57.94 51.76 44.86 44.32 45.77 45.59 43.23 44.68 53.69 53.84 54.98 56.17 56.43 56.82 57.56 58.54 57.49 55.78 57.47 57.13 55.52 55.70 56.05 55.95 54.66 52.75 50.95 49.87 48.60
60.18 60.02 59.43 59.15 59.53 55.21 53.86 54.32 52.87 49.51 42.71 42.23 45.77 47.04 49.53 48.65 44.86 43.41 43.59 41.60 41.42 46.86 54.39 53.90 54.66 55.61 56.11 56.57 57.14 57.87 57.70 57.89 57.21 57.11 55.59 55.83 56.31 56.59 51.69 55.23 52.55 50.15 48.85
60.36 52.62 59.93 60.03 59.54 56.62 53.82 52.81 52.64 52.78 55.27 54.95 45.48 45.88 44.27 43.96 44.32 42.69 41.24 44.59 52.09 51.57 55.41 55.23 54.85 55.75 56.45 56.79 56.97 56.65 56.13 56.45 56.77 56.53 55.57 56.27 56.48 56.65 54.83 55.73 55.17 53.21 50.44
60.38 59.57 60.53 60.79 60.06 57.55 56.00 53.44 52.62 52.68 55.93 55.54 50.84 46.84 41.14 39.97 40.13 40.51 41.78 56.83 55.43 55.39 55.09 55.95 55.71 55.41 55.96 56.26 56.38 56.13 56.44 56.24 56.75 56.87 56.40 56.62 56.36 55.77 55.03 55.26 54.50 45.47 46.13
60.20 54.44 55.73 59.52 58.91 58.81 57.56 55.61 53.55 52.70 52.62 54.77 55.75 56.06 47.38 47.96 50.78 50.28 49.77 56.65 56.50 56.46 56.69 56.89 56.43 56.55 55.75 56.11 56.35 56.66 56.77 54.52 55.31 56.26 56.75 57.09 56.68 55.82 55.45 54.20 53.08 51.65 49.21
59.77 56.85 51.00 59.12 58.97 59.06 58.99 57.26 56.10 54.67 53.85 53.21 55.36 53.02 44.48 55.97 55.81 55.67 53.96 55.79 57.70 57.89 57.46 57.65 57.57 57.05 58.03 56.84 56.31 56.32 56.04 55.75 55.62 56.14 56.50 56.46 56.45 55.39 55.27 54.23 53.06 52.24 51.88
59.47 58.68 57.82 58.60 58.69 58.98 58.71 58.73 57.49 56.32 55.49 54.38 53.96 51.95 39.23 56.54 56.99 56.96 56.76 56.82 58.55 59.25 59.65 59.00 58.70 58.31 58.12 57.30 58.35 57.63 56.84 56.19 55.73 55.86 56.17 56.17 56.35 55.57 55.28 54.36 52.99 51.98 50.87
58.60 58.41 58.37 58.82 57.61 51.56 53.60 57.34 58.40 57.74 56.63 56.06 55.19 54.29 49.59 54.67 56.87 56.98 57.63 58.09 58.30 58.83 58.38 58.18 59.48 59.15 58.43 57.52 57.07 57.54 57.44 57.72 57.92 57.50 56.48 56.15 55.60 55.89 55.18 53.93 53.59 52.33 50.13
58.01 58.38 57.74 57.63 57.68 54.99 56.04 56.38 56.81 51.12 57.81 57.22 55.91 55.18 52.67 54.47 57.24 57.41 57.75 58.09 58.17 58.62 59.46 59.39 57.96 57.89 58.79 57.06 55.18 55.89 56.97 57.01 56.97 57.54 57.76 57.59 57.07 53.65 55.96 55.38 54.78 53.92 52.51
59.97 58.10 57.88 56.76 56.61 55.02 55.16 54.21 55.26 55.65 56.12 58.16 57.70 56.33 54.11 54.61 56.19 57.45 57.33 57.64 57.84 58.01 57.96 58.45 59.07 59.11 56.44 55.92 56.08 54.86 50.61 41.47 52.06 49.27 55.14 56.35 56.29 56.28 56.04 56.09 55.31 53.02 45.67
58.61 60.94 58.37 57.52 57.21 57.35 56.70 55.82 55.34 55.52 55.69 56.55 56.88 58.14 55.79 55.11 54.96 56.08 56.37 56.14 56.61 56.91 56.95 57.25 57.17 56.80 56.78 56.40 55.93 51.14 41.85 40.13 44.07 40.06 53.86 54.78 54.39 54.48 55.25 55.06 54.62 53.33 48.76

GFSGL_sfc_wetblb_039.txt.gz
Wetbulb
59.79 59.68 59.61 59.73 59.98 59.41 58.89 59.37 59.27 58.68 59.36 59.41 59.88 60.11 59.93 59.47 59.32 58.56 58.80 58.87 58.19 57.59 59.35 58.86 57.48 57.78 57.44 58.11 55.94 56.60 56.18 56.14 56.22 58.60 60.58 60.70 60.28 60.21 60.21 60.33 60.80 60.00 59.38
59.56 59.30 59.43 59.89 59.49 58.99 58.87 59.30 59.58 59.19 58.91 60.02 60.94 60.78 60.82 60.65 59.02 58.61 58.79 60.11 58.99 58.74 58.47 58.97 57.67 59.27 57.70 57.92 56.52 55.70 56.00 57.16 57.33 56.56 58.67 58.57 57.64 58.05 57.58 57.06 58.20 58.75 57.79
59.63 59.20 58.87 59.16 58.91 58.94 58.97 58.88 58.72 58.57 58.79 59.41 60.51 60.43 60.66 60.18 59.35 59.45 59.71 60.01 60.09 60.08 58.70 59.10 59.35 59.61 58.73 58.95 56.68 56.10 57.12 58.76 58.65 57.50 56.92 57.93 57.14 57.20 56.80 56.84 56.88 57.14 57.76
59.98 59.36 59.07 58.71 58.79 58.77 59.13 58.42 58.30 58.95 58.48 59.42 59.64 60.70 59.85 59.00 59.31 59.19 59.94 59.42 60.49 60.45 60.67 60.27 59.97 60.01 59.99 59.19 58.70 58.36 58.40 58.70 57.84 57.52 56.72 56.26 57.28 57.88 57.52 55.86 54.65 54.65 52.88
60.09 59.30 59.05 58.85 59.36 59.45 59.27 58.57 58.78 60.23 59.81 61.16 59.73 58.77 58.16 57.95 57.30 58.03 59.40 60.22 60.60 60.35 60.41 60.38 60.57 59.99 59.09 58.94 59.78 59.10 58.91 57.80 56.96 56.54 56.02 56.44 55.96 55.59 54.84 54.49 52.41 52.10 51.27
59.96 59.11 58.99 59.45 59.94 59.28 59.26 59.11 59.49 60.67 61.16 60.53 58.16 57.79 56.26 56.77 45.79 48.72 55.82 60.64 60.68 59.67 58.87 59.29 59.19 57.74 56.14 54.61 55.74 55.76 58.35 57.84 57.00 56.88 56.52 54.75 55.46 54.97 54.28 53.39 52.37 51.79 48.61
60.09 60.37 59.83 59.93 60.13 59.30 59.54 59.13 59.46 60.71 59.39 57.00 56.64 56.34 54.98 54.00 44.72 46.01 51.82 59.37 57.78 57.91 59.96 60.12 59.87 59.03 58.23 57.96 52.85 53.02 53.14 53.19 55.96 58.19 56.06 55.94 54.86 55.00 54.49 53.48 52.97 51.69 49.66
60.22 60.71 60.12 60.16 59.84 59.69 58.99 57.71 57.26 56.76 56.38 56.02 55.36 54.86 54.64 53.13 45.08 46.39 51.64 58.16 58.25 58.87 60.21 60.07 59.29 58.83 57.74 58.08 58.28 57.54 57.56 57.85 57.84 58.65 58.04 57.13 56.65 56.64 56.28 55.35 52.34 49.49 49.28
60.38 60.56 60.21 60.00 59.62 59.23 57.97 56.92 56.72 56.66 55.88 55.06 55.00 54.06 54.62 54.33 44.74 46.75 55.57 58.47 59.96 59.82 60.30 60.25 59.50 58.21 48.18 49.65 57.14 54.96 53.97 53.24 50.08 49.58 49.84 47.80 46.93 48.13 51.87 53.17 50.80 49.96 47.15
60.48 60.36 60.43 60.06 59.88 59.17 57.74 56.82 56.66 56.94 57.00 56.22 54.47 53.96 52.14 55.15 44.94 46.57 55.59 59.84 58.49 58.01 57.95 57.34 51.44 54.68 46.39 48.72 57.22 55.50 53.73 54.03 54.60 54.17 53.15 50.42 51.35 49.67 49.71 54.58 52.57 49.81 47.70
60.46 60.23 59.75 59.75 59.39 58.89 57.78 57.14 56.84 57.54 57.68 56.22 54.16 53.41 54.08 54.45 52.52 46.02 50.92 59.54 58.41 57.86 57.24 56.74 54.05 44.92 45.48 46.39 51.35 56.74 54.01 55.19 52.97 55.68 55.11 54.97 54.73 54.83 54.48 52.94 52.22 51.15 47.75
60.35 59.93 59.11 59.02 60.68 59.39 58.10 56.60 57.08 56.90 56.26 55.56 54.97 54.45 54.06 55.90 47.84 45.84 46.57 50.19 51.62 57.95 57.16 56.66 50.40 43.29 44.39 45.66 50.62 44.94 46.01 52.25 56.33 55.48 54.79 54.16 54.43 54.77 52.90 51.44 51.22 51.28 51.77
59.42 58.67 59.08 59.72 60.08 59.32 57.82 56.40 56.24 57.06 57.84 57.00 55.35 56.00 55.56 56.04 55.96 45.30 44.21 44.57 49.11 55.90 57.43 48.67 42.92 43.30 44.21 45.99 44.57 45.12 48.85 56.23 55.89 55.09 54.64 53.75 54.11 53.71 54.53 52.28 51.30 51.27 50.56
58.47 58.72 59.63 59.44 58.35 58.69 58.93 57.68 57.00 55.67 56.24 57.57 55.88 55.70 54.03 55.54 56.86 56.16 53.70 52.19 48.11 51.10 48.72 49.89 49.52 50.44 49.81 50.75 50.67 52.88 56.59 55.74 55.21 54.55 53.86 52.22 53.04 53.61 53.93 53.73 52.11 51.59 50.78
59.07 59.37 59.85 59.13 58.70 57.93 58.27 56.78 57.66 57.02 56.38 57.36 57.43 57.77 56.38 55.82 56.90 52.58 52.76 55.29 54.39 51.35 52.77 55.86 56.58 56.18 55.14 55.84 57.39 57.60 57.10 56.04 54.63 53.68 54.26 54.05 53.75 54.11 53.39 52.10 50.93 49.44 49.27
58.68 59.33 59.69 59.36 58.41 57.95 55.82 52.39 43.19 46.97 48.74 49.11 49.47 53.99 56.42 50.53 43.49 44.57 43.49 41.85 42.22 44.94 55.06 55.64 55.54 55.98 56.22 56.86 57.30 57.38 56.28 53.72 55.18 55.32 54.68 54.98 54.78 54.17 53.35 51.35 50.42 50.06 49.41
59.31 59.14 59.27 58.61 58.92 56.66 55.33 55.64 54.24 49.15 42.43 42.55 42.94 44.94 48.56 46.73 42.22 42.40 40.95 40.77 41.49 46.93 53.37 55.20 55.84 56.38 56.54 57.32 57.39 57.38 57.16 55.54 55.56 55.74 55.24 54.84 54.56 54.15 52.46 53.02 51.51 50.29 48.91
59.42 51.64 59.62 59.67 59.25 56.62 55.74 55.80 56.04 53.63 53.27 51.80 43.81 45.46 42.22 41.13 40.59 40.22 39.50 43.81 50.89 50.26 53.57 54.53 55.74 56.01 56.43 56.70 57.20 57.80 57.80 56.08 56.44 56.28 56.00 55.74 55.46 55.20 53.20 53.29 53.02 51.65 49.54
59.10 58.53 59.78 59.61 59.14 56.22 55.23 53.88 53.91 53.31 55.11 53.82 49.74 45.79 40.17 39.12 38.94 38.58 41.13 54.99 54.34 53.98 53.41 54.11 55.16 56.57 56.73 57.01 57.32 57.75 57.06 56.78 56.72 56.00 55.30 55.08 55.14 55.10 54.26 54.18 54.11 44.21 46.44
58.75 52.86 55.46 59.13 57.14 55.91 53.68 52.73 51.86 51.93 54.50 54.54 54.66 53.47 48.21 48.72 51.49 51.54 51.66 54.13 54.78 54.44 54.68 55.36 54.66 55.54 56.32 56.86 56.90 57.12 56.50 53.59 54.98 55.76 56.04 55.98 55.74 55.72 55.36 54.58 54.23 53.51 50.90
59.05 55.65 50.78 58.96 57.91 58.00 55.89 53.76 53.13 51.88 52.64 54.44 56.02 52.41 42.76 55.31 55.10 54.84 55.08 54.45 56.14 55.90 55.70 56.08 55.74 55.06 55.15 55.82 56.10 56.22 56.20 55.96 55.86 55.68 55.86 55.66 55.64 55.52 55.46 55.38 54.54 53.90 53.83
58.64 57.75 56.05 58.65 58.65 58.35 57.52 56.70 54.36 53.58 53.09 53.11 53.45 50.99 37.14 54.12 55.88 55.76 55.80 56.14 57.33 57.74 57.48 56.99 56.91 57.27 56.87 55.77 55.92 55.26 55.21 54.77 54.20 54.52 55.20 55.55 55.62 55.73 55.85 55.08 54.48 53.50 52.45
58.50 57.90 57.36 58.01 58.36 52.41 53.46 57.20 56.42 55.01 54.29 53.80 53.37 52.20 47.78 53.32 56.06 56.21 56.60 57.06 57.21 58.07 58.28 57.87 57.66 57.59 57.87 57.86 57.97 56.83 55.90 55.83 56.45 56.07 54.92 55.12 55.23 55.39 55.22 54.59 54.25 53.36 51.99
57.87 58.07 57.33 57.43 56.25 55.59 56.37 56.87 57.01 50.31 55.44 55.16 54.19 53.49 51.76 53.42 56.50 56.90 57.15 57.54 57.53 57.77 58.55 58.54 58.98 58.73 58.38 57.95 58.16 58.32 59.01 59.03 58.43 57.66 56.07 55.46 55.20 52.60 54.99 54.90 54.70 54.07 53.26
58.68 58.10 57.20 55.82 55.30 54.24 54.37 55.23 55.79 56.37 56.51 56.51 55.72 54.75 53.50 53.78 54.55 56.99 57.32 57.56 57.69 57.81 57.80 58.57 58.95 58.77 58.14 58.02 58.14 57.25 53.27 43.02 53.72 51.07 57.62 56.81 56.20 55.47 55.40 54.83 54.68 53.83 52.39
56.44 58.84 58.92 57.67 56.44 55.16 54.24 54.46 54.26 54.60 55.35 56.70 56.93 55.99 55.19 54.05 54.70 55.50 56.97 57.48 57.44 57.53 58.00 58.19 58.54 58.66 58.92 58.67 57.97 53.09 43.34 40.99 44.74 40.84 53.95 55.05 54.73 55.10 55.28 55.04 54.21 53.92 52.64

GFSGL_sfc_wetblb_042.txt.gz
Wetbulb
60.18 60.20 60.21 59.97 60.31 60.14 60.10 60.14 60.20 59.82 60.02 60.31 60.64 60.80 61.00 61.24 61.05 60.72 60.45 60.42 60.63 59.41 60.16 59.63 59.43 59.73 59.83 59.07 59.20 59.36 59.18 59.43 56.55 59.59 60.48 61.12 60.65 59.87 60.27 61.13 61.23 60.53 59.20
60.43 60.16 59.77 59.94 59.69 59.34 59.72 60.14 59.90 60.01 60.54 60.70 61.78 61.63 61.43 61.45 61.40 60.73 60.24 60.81 59.94 58.77 58.83 59.23 58.93 60.21 59.29 58.46 58.62 58.83 59.29 60.48 59.48 57.10 58.58 58.08 57.94 58.62 59.19 59.12 59.57 60.60 59.03
60.12 59.49 59.35 59.49 59.36 59.22 59.69 60.23 60.13 59.91 60.30 61.43 61.83 61.45 61.67 61.38 60.63 60.54 60.54 60.75 60.29 59.95 59.09 58.77 59.27 60.29 59.02 58.60 58.54 59.10 60.02 60.54 60.46 58.29 56.86 57.34 56.98 57.36 56.49 56.84 56.96 58.22 58.37
59.55 59.32 59.28 59.41 59.57 59.65 59.83 59.43 59.75 59.99 60.19 60.52 61.33 61.74 61.01 60.58 60.63 60.95 61.07 60.85 60.63 60.32 60.19 60.70 60.76 60.69 59.96 58.86 58.91 59.40 59.91 59.38 59.03 57.16 55.95 55.99 55.93 56.64 56.28 54.61 53.98 55.13 53.82
59.68 59.31 59.38 59.41 59.66 59.97 59.61 59.25 59.87 60.22 60.15 61.06 60.71 60.04 59.77 59.47 57.44 59.36 60.98 60.60 60.31 60.43 60.52 60.78 60.64 60.66 59.05 58.97 59.71 59.86 59.54 58.66 57.44 56.11 55.83 55.59 55.27 55.09 53.81 54.12 51.76 52.18 51.53
59.69 59.58 59.46 59.66 59.80 59.98 59.61 59.24 60.12 60.50 60.74 60.97 59.39 58.93 58.30 55.54 45.97 48.20 56.35 62.09 61.45 59.96 58.83 59.53 59.61 57.68 56.25 54.31 55.38 56.02 58.44 58.31 57.04 56.40 56.03 54.59 55.03 54.37 54.28 53.38 52.22 51.54 48.67
59.81 59.87 59.76 60.36 60.11 59.80 59.89 59.86 60.09 59.99 59.50 58.84 58.40 58.14 57.03 55.78 45.16 46.26 52.06 60.54 60.53 60.22 59.79 59.67 59.97 58.78 58.30 58.15 53.24 53.27 53.09 52.80 56.19 58.49 56.18 56.07 54.75 54.90 54.96 54.19 53.98 52.66 50.35
60.01 60.25 60.27 60.53 60.01 60.01 59.62 59.55 58.74 58.77 58.47 57.98 57.33 57.03 56.91 54.24 45.72 47.71 50.25 59.74 60.20 60.67 60.88 60.17 59.39 59.09 58.20 58.12 58.79 58.48 58.58 58.90 58.91 59.84 59.49 57.97 57.19 56.57 56.17 54.86 51.24 49.71 49.85
60.03 60.23 60.49 60.48 59.96 59.72 58.82 58.45 58.02 57.80 57.58 57.21 56.89 56.61 57.23 56.90 46.08 47.17 55.05 60.82 60.06 59.97 60.56 59.97 59.54 58.14 48.06 49.34 57.06 55.81 55.85 54.95 50.80 50.83 50.79 48.22 46.80 47.69 51.70 54.08 51.82 51.05 49.44
60.31 60.37 60.61 60.60 60.28 59.38 58.57 58.07 58.13 58.33 58.01 57.53 56.18 56.53 52.85 57.86 46.26 47.35 56.21 59.99 59.12 58.28 58.20 57.04 50.97 53.86 46.08 47.89 56.52 55.83 54.19 54.47 54.29 53.67 52.30 49.43 50.91 49.86 50.47 55.46 53.83 51.07 51.22
60.93 60.61 60.34 60.42 60.38 59.73 58.44 58.83 58.40 58.58 57.49 56.38 55.60 55.82 56.80 55.73 53.56 46.26 50.79 60.39 59.47 58.20 57.56 56.09 52.40 45.35 44.99 46.26 50.54 56.15 54.05 55.25 52.70 55.38 54.95 54.31 54.51 55.26 54.82 54.88 56.97 54.78 52.19
60.80 60.12 59.87 59.93 60.84 59.66 58.92 58.21 58.52 58.32 56.96 55.70 55.11 55.15 55.64 57.02 48.62 45.54 47.17 50.43 52.24 58.47 57.26 54.91 48.72 44.09 44.63 45.54 50.53 44.63 46.26 52.18 56.07 55.32 54.62 54.07 54.34 54.64 54.06 55.00 55.10 54.98 56.08
59.96 59.41 59.55 59.93 60.10 59.42 58.48 57.62 57.48 58.06 57.27 55.74 56.20 55.18 55.80 57.14 56.05 45.35 43.54 45.35 48.62 56.92 57.39 49.54 43.00 42.82 43.72 45.30 43.72 44.81 48.99 56.60 55.71 55.01 54.49 54.83 55.34 56.39 54.65 53.91 54.43 54.87 55.07
59.24 58.97 59.41 59.48 59.05 59.40 58.88 58.38 57.85 58.30 58.41 57.14 55.77 55.08 55.36 56.98 58.02 55.83 54.33 53.02 47.62 49.93 47.62 49.41 49.58 49.45 48.76 49.21 50.27 53.64 58.01 57.95 56.96 55.85 55.57 55.32 55.48 56.51 54.59 54.72 53.86 54.28 54.15
59.30 59.54 59.70 59.04 59.18 58.91 57.79 57.03 58.61 58.42 57.60 57.96 57.47 57.59 56.43 55.72 57.85 52.89 53.53 56.61 56.22 51.44 53.14 55.91 55.83 55.11 53.92 54.74 56.45 56.94 56.69 56.89 56.16 55.87 55.59 55.43 56.54 57.32 56.56 55.94 55.18 54.21 54.51
58.96 59.67 59.62 59.44 59.30 59.07 56.87 55.44 41.64 45.68 46.08 47.17 48.07 54.70 57.89 49.29 44.27 44.27 43.36 42.27 43.36 45.90 56.01 56.13 55.67 55.37 55.40 55.86 55.94 56.29 56.56 54.25 56.00 56.29 56.51 56.23 56.06 56.94 56.75 55.55 55.49 56.20 55.81
59.26 59.63 59.54 58.27 59.40 58.29 57.51 57.29 56.61 50.30 41.35 42.64 43.00 43.90 47.53 46.61 40.64 41.37 40.46 40.64 39.92 49.00 56.68 56.35 55.97 56.46 56.84 57.58 57.82 57.33 56.65 56.93 57.43 57.01 56.87 56.78 56.67 56.86 54.17 56.68 56.27 55.50 55.53
59.72 51.06 60.12 60.13 59.76 58.64 58.40 58.21 58.24 57.05 57.16 55.75 44.33 45.34 41.37 39.92 39.73 39.37 39.73 44.72 53.77 53.01 56.86 56.51 56.61 57.07 57.71 57.95 58.32 58.18 57.65 57.57 57.57 57.34 57.38 57.40 57.27 56.81 55.60 56.76 57.28 57.08 56.51
59.06 59.40 60.62 60.43 59.78 57.52 58.44 58.09 58.06 57.48 56.97 55.23 52.71 46.32 39.77 38.07 38.27 38.63 41.37 57.02 55.86 55.79 55.92 56.68 57.61 57.55 57.72 58.29 58.44 58.69 59.01 57.63 57.63 57.67 57.38 57.43 57.83 57.76 57.44 57.75 57.65 45.81 49.42
59.53 52.79 55.63 60.14 58.30 57.71 57.25 57.31 56.80 56.28 56.43 55.64 56.15 54.82 48.23 49.39 52.52 50.29 51.63 56.19 56.58 56.84 56.82 56.79 57.06 57.86 58.17 58.26 58.44 58.21 57.84 56.02 57.49 58.53 58.48 58.41 58.37 58.12 57.85 57.67 57.58 57.17 55.02
59.34 57.08 50.36 59.39 58.99 58.39 57.53 57.07 56.91 55.53 56.04 56.81 57.73 53.45 43.36 56.46 56.08 56.13 54.70 55.46 57.07 57.54 57.33 57.54 57.23 57.88 58.34 57.91 57.47 57.13 57.14 57.36 57.75 58.63 59.01 58.66 58.61 57.96 58.51 58.76 58.68 58.31 58.05
59.18 58.66 58.49 59.47 59.43 58.86 58.01 57.85 56.20 55.70 55.24 56.66 57.47 51.59 37.38 55.64 57.35 57.42 57.20 57.17 58.04 58.79 58.87 58.63 58.39 58.23 58.10 58.53 58.79 58.84 58.47 58.47 58.77 58.79 58.84 59.25 58.97 58.97 59.02 58.50 58.53 58.36 57.95
59.52 58.44 58.70 59.54 59.60 52.25 55.88 57.72 56.69 55.96 55.72 55.89 56.60 54.25 48.69 54.41 57.66 57.85 57.88 58.57 58.88 59.44 59.74 59.40 59.09 59.04 59.64 59.00 59.45 59.56 58.94 58.98 59.66 59.85 59.08 58.96 58.77 58.72 58.83 58.48 58.40 58.13 57.70
59.64 59.21 58.23 58.55 58.79 58.20 58.31 58.50 57.97 50.65 56.46 56.26 55.77 55.95 54.76 55.64 57.72 58.50 59.00 59.08 58.95 59.46 60.15 60.20 60.11 59.91 59.98 60.35 60.43 59.81 60.07 60.54 60.65 60.20 59.83 59.21 58.81 55.92 58.39 58.54 58.37 57.91 57.72
59.58 59.05 58.80 57.83 56.82 57.41 57.89 58.41 58.59 57.96 57.15 57.61 56.98 56.25 55.81 55.87 56.64 58.62 59.75 59.83 59.56 59.49 59.62 60.33 60.67 60.95 60.52 60.37 60.53 60.73 56.01 43.44 56.14 52.49 59.74 59.47 58.80 58.31 57.79 57.13 57.33 57.10 56.62
52.21 52.79 53.85 56.20 57.13 56.54 56.04 55.83 55.64 56.54 57.12 57.77 57.85 57.57 57.16 56.08 56.43 56.91 58.16 59.38 59.45 59.68 59.98 60.15 60.43 60.86 61.11 61.15 60.93 54.68 45.11 42.50 48.06 42.80 59.13 60.74 59.19 59.29 59.13 58.34 58.13 57.15 56.88

GFSGL_sfc_wetblb_045.txt.gz
Wetbulb
66.17 66.26 66.22 66.29 66.63 67.04 66.94 66.84 67.01 67.05 66.84 66.19 65.76 65.38 65.45 65.84 66.47 66.25 65.65 65.08 64.62 62.93 61.42 63.61 63.67 64.03 63.29 63.81 61.49 63.11 62.54 63.65 57.83 60.89 61.80 62.49 61.52 61.59 62.33 63.38 62.50 60.96 60.04
66.14 66.06 66.17 66.43 66.63 66.61 66.44 66.55 66.41 65.59 65.66 65.37 65.25 65.16 65.40 65.67 65.98 65.48 65.00 64.76 63.79 60.36 60.30 59.89 60.49 62.89 63.92 62.29 61.44 63.43 62.36 64.33 61.66 57.35 58.84 59.13 59.32 60.27 60.37 59.74 59.48 59.96 59.57
65.80 65.73 65.79 65.71 66.11 66.04 65.89 65.75 65.47 65.40 65.23 65.50 65.60 65.44 64.94 65.28 65.02 65.28 64.71 64.07 63.29 61.85 60.37 60.64 60.35 62.07 62.65 60.77 62.65 61.98 63.01 64.48 62.44 58.07 57.64 58.36 58.24 58.24 58.34 58.52 57.98 58.02 58.45
65.19 65.18 65.14 65.40 65.52 65.64 65.80 65.42 65.28 65.36 65.42 65.73 65.82 65.49 65.05 64.70 64.94 65.23 64.81 64.09 62.76 61.42 61.31 60.75 60.68 61.84 61.50 59.60 61.37 62.99 63.67 63.37 60.42 57.94 56.73 56.59 56.39 57.11 57.69 55.49 54.64 55.45 54.12
64.29 64.27 64.90 65.59 65.57 65.48 65.44 65.09 65.26 65.33 65.18 65.58 65.59 65.18 64.78 64.42 62.47 64.64 64.54 62.96 61.77 60.88 61.28 61.48 61.89 62.46 60.02 61.67 63.25 63.00 63.53 60.70 58.07 56.79 55.93 55.87 55.27 55.37 53.60 54.46 52.88 52.96 52.66
63.98 64.08 64.76 64.99 64.85 65.18 64.83 64.89 64.89 64.52 65.12 65.36 64.73 64.09 63.59 61.18 46.53 48.48 57.55 64.78 63.66 61.47 59.77 60.84 60.60 58.99 57.97 54.86 56.13 56.59 62.15 60.89 59.23 58.03 56.33 55.07 55.81 54.97 54.46 53.48 52.61 51.86 48.79
64.06 64.13 64.23 64.68 64.23 64.54 64.40 64.26 64.54 65.30 65.71 64.47 64.02 63.48 62.68 62.57 46.38 46.76 52.20 63.99 62.67 61.70 60.71 60.05 60.34 59.06 58.88 59.78 53.63 53.44 53.63 52.90 57.88 60.08 57.86 56.60 55.65 56.12 55.91 54.36 54.36 53.93 51.64
64.01 63.97 64.20 64.25 63.96 64.21 63.73 63.97 65.05 65.42 64.46 64.03 63.46 63.07 63.08 59.85 46.76 47.85 50.75 63.87 62.65 63.03 61.83 60.78 59.62 59.92 59.07 59.15 60.03 60.43 61.00 61.09 60.98 61.54 60.87 59.75 58.75 59.34 59.23 58.54 56.32 52.01 51.91
63.51 63.56 64.06 64.33 64.00 63.85 63.47 64.22 65.08 64.04 63.76 63.43 63.49 62.63 63.20 60.20 46.58 46.94 56.37 62.57 62.07 61.84 61.69 60.54 60.30 58.36 49.10 49.66 59.62 59.44 59.14 57.63 51.30 49.92 50.57 48.22 46.87 48.15 52.39 55.49 53.70 54.10 51.20
63.94 64.05 64.51 64.62 64.26 63.97 64.31 64.01 64.75 64.77 63.63 62.88 62.47 62.93 54.73 59.98 46.22 48.03 56.97 61.24 60.23 59.42 59.27 58.04 51.66 55.01 45.13 48.39 58.64 58.81 56.27 55.49 55.57 55.25 54.16 50.67 51.18 50.27 50.69 57.15 55.36 52.04 53.34
65.04 64.95 64.67 65.03 65.00 64.95 64.47 64.42 64.23 63.57 62.84 62.59 61.70 62.45 59.66 58.05 55.59 46.40 50.02 62.11 60.74 59.51 57.61 56.49 52.29 44.95 45.13 46.58 51.24 59.08 56.05 57.16 53.42 56.09 55.15 54.59 54.99 56.31 56.11 56.81 56.55 54.99 57.06
64.98 64.58 64.37 65.14 64.40 64.06 64.13 64.21 64.15 63.34 61.15 61.30 61.21 59.71 59.04 59.12 48.92 46.54 46.94 50.80 53.74 59.52 57.25 55.00 50.03 43.50 44.04 45.31 51.43 44.95 46.22 52.20 56.46 55.00 54.27 54.25 55.04 55.29 55.56 57.26 58.01 60.08 61.11
64.70 64.27 64.42 64.96 64.91 64.54 63.98 63.54 62.95 63.02 61.98 59.40 59.47 59.60 58.31 59.10 56.35 44.17 44.59 46.04 49.28 57.94 56.39 50.09 42.94 42.41 42.95 44.84 43.84 44.95 48.90 56.20 55.36 54.47 54.41 55.32 56.67 58.30 58.70 58.21 58.43 59.99 58.79
64.32 64.17 64.44 64.62 64.19 64.50 64.21 63.57 62.40 61.85 61.20 59.85 59.70 57.88 57.84 58.94 58.74 58.37 56.33 55.41 47.79 50.25 47.79 49.15 48.75 48.88 48.82 49.02 50.88 53.71 57.25 58.18 56.87 56.52 56.63 56.78 58.54 58.03 57.45 58.08 55.60 55.50 57.04
64.49 64.30 64.35 64.43 64.63 63.93 63.71 62.98 63.21 63.53 60.89 59.47 61.42 60.54 58.52 58.29 58.99 55.14 55.61 58.37 58.28 52.38 53.31 55.81 55.69 54.84 54.14 55.56 57.05 57.74 57.94 58.19 58.20 58.36 57.07 57.95 57.54 56.87 57.38 58.63 58.72 58.01 56.91
63.92 64.04 64.05 63.99 64.19 63.19 61.22 59.23 42.19 47.05 45.86 47.12 48.25 56.23 60.58 50.32 44.59 44.59 43.50 43.14 43.86 45.13 56.29 55.83 55.45 55.34 55.10 56.05 56.52 56.91 58.12 56.44 58.72 60.27 60.22 59.56 59.17 59.04 58.87 58.70 58.61 58.07 57.29
64.31 64.65 64.01 62.60 64.14 63.19 62.48 62.24 60.91 52.61 41.47 41.11 42.23 42.77 45.64 48.21 41.50 40.78 41.32 41.87 41.69 49.46 57.03 56.07 56.47 57.07 56.33 56.96 57.24 58.76 58.63 60.72 61.58 61.49 61.32 61.18 60.92 60.74 58.11 58.67 58.39 57.99 57.59
65.15 52.97 64.65 64.69 64.67 64.16 63.53 63.30 63.25 62.19 61.46 60.38 43.89 46.21 40.88 39.87 39.68 39.68 40.96 46.47 56.23 55.01 58.28 57.18 57.19 58.72 59.57 57.81 58.21 59.95 61.19 61.28 61.00 61.30 61.59 61.40 61.04 60.53 59.30 59.36 59.70 59.63 59.75
64.29 64.06 64.83 65.20 65.13 62.55 64.09 63.56 63.41 63.16 62.73 62.24 54.81 46.13 40.54 37.83 38.39 39.51 42.59 60.18 57.66 58.21 58.02 58.18 58.70 59.22 60.18 61.44 61.34 61.05 61.44 61.50 61.35 61.55 61.83 61.59 61.34 60.39 59.72 60.75 60.85 48.29 52.43
64.03 54.49 58.72 64.88 64.49 64.16 63.93 63.20 62.99 62.94 62.91 61.32 60.12 58.69 49.78 49.59 52.40 51.18 56.80 60.75 60.75 61.30 61.04 60.50 59.78 59.90 60.07 60.52 60.83 61.02 60.66 59.24 59.85 61.74 61.77 61.82 61.58 60.80 59.89 60.10 60.48 60.51 60.26
63.42 63.22 52.38 64.72 64.45 64.31 64.15 63.61 63.12 62.78 62.86 62.10 63.23 58.43 44.93 60.67 59.72 57.49 57.69 60.54 61.74 61.91 61.89 62.22 62.11 62.43 62.20 61.44 60.25 59.42 59.50 60.56 59.91 61.58 62.45 62.20 62.18 61.15 61.74 62.05 62.02 62.02 61.71
63.09 63.01 63.22 63.95 64.49 64.09 64.31 64.34 63.90 62.90 62.83 62.50 63.12 56.33 39.15 61.04 62.22 61.24 60.83 60.79 62.76 63.65 63.43 62.77 62.29 62.43 62.45 62.01 62.06 61.28 60.90 60.47 60.24 60.36 62.62 62.71 62.58 62.26 62.43 62.22 62.12 62.19 61.96
63.21 62.62 62.59 63.56 64.10 55.64 62.58 64.28 63.94 63.61 62.74 62.69 62.89 59.94 54.10 60.38 63.14 62.88 62.89 63.00 63.19 63.88 64.42 64.02 63.62 63.36 63.67 63.64 63.66 63.31 62.19 62.33 62.93 63.25 63.28 63.21 63.11 62.90 63.04 62.34 62.04 61.89 61.71
63.14 62.98 62.41 62.91 63.01 63.14 63.58 63.80 63.86 54.79 62.62 62.94 62.43 62.32 61.07 61.83 63.27 63.93 64.20 64.27 64.04 64.12 64.59 64.51 64.46 64.29 64.43 64.04 63.85 63.92 63.90 64.06 64.48 64.36 64.14 63.51 63.28 60.55 62.67 62.49 62.15 61.81 61.18
60.92 61.32 61.88 61.91 61.68 62.55 62.97 63.56 64.17 64.00 63.10 63.33 63.45 63.17 63.41 62.69 62.53 63.16 64.08 64.62 64.36 64.22 64.17 64.46 64.72 64.72 64.67 64.80 64.72 64.47 57.39 41.48 58.68 54.35 63.85 63.56 63.09 62.88 62.28 61.54 61.22 61.33 61.68
51.98 53.41 55.95 57.62 58.71 59.12 59.33 59.85 60.06 60.72 60.90 61.42 61.84 62.33 62.44 62.15 61.95 61.68 61.86 62.49 62.90 63.29 63.62 63.98 64.25 64.25 64.44 64.65 64.51 55.22 42.54 39.77 50.13 41.20 61.17 63.43 62.77 62.69 62.48 62.38 62.23 62.09 62.07

GFSGL_sfc_wetblb_048.txt.gz
Wetbulb
71.02 71.05 70.79 70.14 70.03 70.07 69.65 70.11 70.29 70.48 69.97 69.08 68.54 68.19 67.52 67.35 67.30 67.03 66.75 66.26 66.11 66.13 64.55 62.21 65.20 65.99 66.65 66.22 67.25 66.26 64.44 64.25 59.77 62.71 63.75 63.63 63.80 63.87 64.91 66.26 66.44 63.83 61.41
70.49 69.94 69.25 69.54 69.74 69.78 69.40 69.68 69.86 69.05 68.66 67.92 67.32 66.78 66.56 66.20 67.20 66.76 66.26 65.67 65.75 65.13 62.08 61.66 62.77 65.13 64.61 66.27 63.72 62.22 65.88 66.99 62.35 60.08 60.37 59.77 60.47 62.07 62.12 61.61 61.47 61.99 61.87
68.91 68.77 68.89 68.84 69.13 68.95 69.04 68.88 68.29 67.51 67.16 66.97 66.58 66.26 66.07 66.32 66.68 66.93 66.23 65.77 65.49 65.06 61.97 61.00 61.68 63.05 64.12 64.34 61.76 65.74 66.19 66.34 63.30 60.09 57.92 58.94 58.77 59.31 58.10 58.69 58.85 59.63 59.73
68.17 68.16 67.92 68.14 67.98 67.98 68.11 67.68 67.33 67.20 66.67 66.67 66.95 66.53 66.72 66.51 66.48 66.34 65.86 65.44 63.66 62.33 61.37 60.56 61.00 61.25 63.87 63.06 65.47 64.53 65.51 64.53 62.65 60.03 57.94 57.06 57.60 58.50 57.48 55.74 55.51 57.44 57.00
67.03 66.68 66.21 66.99 67.74 67.86 67.52 67.25 67.43 66.95 66.68 66.92 66.86 66.76 66.75 66.48 65.92 65.93 65.73 65.59 64.71 60.97 61.48 61.19 62.01 61.76 60.16 61.31 63.13 65.37 65.42 63.13 60.78 57.27 56.30 56.24 55.65 55.67 54.32 55.27 53.99 54.19 54.13
65.23 64.97 66.30 66.92 67.24 67.44 67.27 67.22 66.64 66.48 66.95 66.95 66.35 66.31 65.95 65.14 48.29 49.64 57.52 66.07 64.19 61.42 60.37 61.92 62.50 60.13 60.14 56.08 56.98 57.89 62.77 62.63 61.03 57.97 56.68 55.14 55.56 55.34 54.75 53.69 53.03 53.03 50.37
64.41 65.49 66.34 66.64 66.53 66.74 66.61 66.31 65.84 66.53 67.23 66.47 66.55 65.94 65.34 65.26 48.05 48.54 51.31 65.93 64.76 61.81 60.90 61.10 60.68 62.07 60.93 63.97 54.76 55.23 54.73 53.65 58.58 62.97 58.16 57.12 55.22 56.96 57.40 55.85 56.02 55.28 52.68
64.52 65.47 66.04 66.01 65.74 66.10 66.10 65.94 66.17 66.52 66.39 66.57 66.20 65.59 65.54 63.00 48.00 47.81 51.62 65.45 64.76 63.76 61.69 61.39 60.24 60.89 61.10 62.77 63.92 63.50 63.63 64.20 64.02 63.82 60.51 59.94 59.09 60.40 60.28 59.18 57.71 55.52 54.19
64.75 65.42 65.69 65.73 65.59 65.31 65.22 65.65 66.46 66.12 66.38 66.42 66.05 65.35 64.93 62.95 46.73 47.27 54.13 64.98 64.35 63.43 61.90 60.70 60.56 60.49 50.00 50.66 62.58 62.14 62.33 61.77 51.10 50.21 51.81 49.20 49.24 49.55 54.86 58.09 53.09 53.46 52.56
64.95 65.35 66.05 65.51 65.81 65.04 65.81 65.86 66.46 66.62 66.40 65.85 65.12 64.65 57.39 62.53 46.17 47.63 57.32 63.63 63.50 61.73 60.38 58.85 52.17 56.30 45.64 48.72 62.45 61.09 59.17 57.77 58.16 57.58 55.36 52.37 54.79 51.81 50.63 59.61 59.59 55.82 54.71
65.90 65.98 66.03 65.70 66.34 66.63 66.59 66.41 66.28 65.50 65.83 65.35 64.59 63.20 62.53 62.05 58.30 46.55 49.99 64.06 62.78 60.01 59.57 56.48 55.05 44.90 44.91 46.91 53.43 62.01 58.89 59.72 56.42 58.59 57.40 56.68 57.47 57.39 58.71 60.04 60.10 57.64 58.71
66.31 65.85 66.00 67.17 66.50 66.44 66.56 66.02 65.89 66.09 65.61 64.67 63.64 61.78 61.23 61.43 50.02 48.18 47.45 50.89 54.87 60.59 59.03 55.36 51.69 43.28 44.01 45.28 53.21 45.80 46.53 53.67 58.03 57.05 56.41 54.56 56.45 56.67 56.61 56.78 57.26 59.65 63.29
65.85 65.44 66.28 66.80 66.53 66.61 66.05 65.45 64.72 65.20 64.77 64.13 62.93 62.27 59.86 60.56 61.26 45.37 44.91 46.91 50.46 60.43 58.12 48.68 42.16 41.83 42.74 44.90 44.35 45.46 49.17 58.92 57.72 56.12 55.93 56.72 56.76 58.07 58.51 57.33 59.37 63.37 62.54
65.76 66.00 66.45 66.26 65.73 66.47 65.91 65.64 64.66 64.90 64.18 62.68 62.35 62.04 61.64 60.45 61.86 61.92 59.57 57.47 48.65 51.13 48.48 52.01 49.04 48.76 48.14 47.94 49.59 53.41 60.41 59.16 57.67 56.14 56.26 57.54 58.26 59.16 58.58 60.17 59.13 61.51 61.10
66.10 66.06 66.05 66.32 66.44 65.78 65.83 63.86 64.80 66.27 63.16 63.89 63.52 63.06 62.38 61.45 60.78 56.52 56.94 60.77 59.72 52.40 53.82 56.47 55.90 54.93 54.00 54.76 56.42 57.13 57.89 57.54 56.64 58.14 57.61 57.21 58.06 58.93 58.33 60.09 61.58 59.98 57.99
65.65 65.80 65.50 65.48 65.92 65.56 64.63 63.72 42.58 44.96 46.09 46.89 45.82 55.20 61.96 50.75 44.73 45.10 44.01 43.83 44.37 45.10 56.48 56.99 55.62 55.42 55.46 56.24 56.47 56.62 57.20 56.13 58.08 58.63 59.24 59.27 59.07 59.64 59.68 60.10 60.95 59.62 58.29
65.56 65.83 65.28 63.24 64.77 64.65 64.36 63.95 62.37 55.01 41.96 41.40 43.81 42.74 45.24 47.42 42.36 41.47 41.47 42.19 42.38 48.79 57.58 57.55 57.47 56.56 56.74 56.70 57.09 57.38 57.00 58.71 60.95 61.01 60.31 60.64 60.65 60.33 58.30 60.29 60.92 60.52 59.54
66.27 53.81 65.56 65.09 64.57 64.29 64.64 64.82 64.87 63.27 62.15 61.41 45.08 47.13 41.40 40.89 40.38 40.74 41.83 46.78 55.01 55.05 57.54 59.33 59.64 59.67 58.51 57.82 59.11 59.90 60.64 61.29 61.72 61.58 61.56 62.03 61.28 60.51 60.37 61.18 60.34 59.62 59.08
65.86 65.55 65.33 65.53 65.42 62.61 64.14 64.48 63.60 64.59 63.91 62.70 56.49 48.19 42.59 37.93 38.54 40.56 43.28 59.95 58.19 57.81 58.07 58.08 61.50 60.90 61.12 61.01 61.57 61.72 62.02 61.82 61.60 62.02 62.16 62.49 61.87 62.17 62.26 61.89 61.11 48.26 51.91
65.35 55.15 58.30 65.56 65.81 65.15 63.57 63.54 64.00 64.53 64.56 64.08 61.88 60.37 54.28 50.80 54.12 54.99 59.62 61.02 60.83 60.19 59.80 59.61 60.45 62.50 62.14 63.01 63.09 61.82 62.00 61.15 62.13 62.32 62.35 62.39 62.88 63.54 62.56 61.84 61.89 61.46 61.11
64.47 65.51 51.85 65.28 65.37 65.11 64.34 62.71 63.72 63.86 64.14 63.82 64.29 60.59 47.43 62.46 60.44 60.83 62.06 61.94 62.56 62.19 61.43 61.38 62.03 62.94 63.61 62.26 62.04 61.39 61.43 61.71 63.55 63.41 63.76 63.86 64.14 63.04 63.27 62.72 62.45 62.46 62.14
64.21 64.74 64.75 64.60 64.93 64.67 64.84 64.61 63.55 63.01 63.45 63.54 64.70 58.06 39.29 61.94 63.94 63.13 63.31 64.16 64.75 65.03 65.38 65.13 64.56 64.38 64.31 64.12 64.02 63.74 63.27 63.62 64.10 63.70 64.20 64.27 63.98 63.62 63.31 62.83 62.96 63.14 63.22
64.35 64.37 64.08 64.03 64.57 56.72 64.68 65.32 64.50 63.57 63.12 63.37 64.39 62.14 60.26 63.68 64.33 64.32 64.50 65.19 65.46 66.01 66.25 65.66 65.29 64.97 65.42 65.48 65.91 65.72 64.68 64.26 64.77 65.07 64.26 64.44 64.55 64.22 64.13 63.46 63.33 63.12 63.21
65.23 64.83 64.30 64.49 64.72 65.02 65.06 65.27 65.45 56.49 63.05 63.54 63.86 63.78 63.68 64.44 65.24 65.26 65.75 65.99 65.96 66.13 66.41 66.40 66.42 65.93 65.95 65.96 66.17 66.03 65.91 66.06 66.32 66.04 65.79 65.12 64.99 62.70 64.71 64.40 64.18 63.96 63.63
65.27 65.25 64.86 64.84 64.59 65.14 65.00 65.75 65.93 65.59 65.06 64.65 64.49 65.05 65.17 65.46 66.08 67.10 67.59 67.85 67.59 67.19 66.70 67.16 67.19 66.59 66.25 66.13 66.29 66.14 57.58 43.65 59.93 48.33 65.56 65.67 64.93 64.81 64.43 64.11 63.77 63.52 63.28
56.03 56.93 57.51 59.18 62.26 63.53 63.62 63.01 62.23 63.64 64.44 64.75 64.87 64.75 64.35 64.35 64.11 64.50 64.93 65.32 66.96 67.21 67.03 67.62 66.95 64.80 63.27 54.76 48.48 38.81 36.24 39.05 51.57 39.49 62.12 64.29 64.02 63.97 63.94 63.42 63.11 62.35 62.11

GFSGL_sfc_wetblb_051.txt.gz
Wetbulb
72.51 72.84 73.15 72.95 72.46 72.40 71.97 70.92 70.96 71.33 70.50 69.38 69.52 68.60 68.47 68.54 68.21 68.09 68.00 66.91 65.63 66.65 66.46 65.06 65.50 66.33 67.13 67.37 68.02 67.72 63.59 63.87 61.80 63.62 65.04 66.01 65.93 66.75 67.33 67.95 67.21 65.12 61.98
72.03 72.08 71.88 71.87 71.18 70.87 70.56 70.53 70.60 69.78 69.27 68.62 68.57 68.37 67.43 67.16 67.47 66.34 65.94 66.29 65.65 64.72 65.43 63.95 63.25 64.94 65.53 66.80 68.09 66.40 66.81 67.23 63.66 61.37 61.78 60.67 61.71 62.72 63.70 63.22 63.72 63.75 62.42
71.19 70.85 70.19 69.88 69.74 70.25 69.77 69.77 69.42 68.66 68.29 68.13 67.58 66.70 66.30 66.46 66.66 66.73 66.00 65.88 65.52 65.11 65.09 63.35 61.61 63.12 62.98 65.93 66.91 64.68 66.80 66.54 66.26 61.56 58.66 59.50 59.54 60.27 58.99 60.05 60.57 60.61 60.57
69.73 69.33 69.16 69.28 69.28 69.19 69.20 68.82 68.13 67.95 67.36 67.19 67.04 66.73 66.15 66.16 66.66 66.44 66.09 65.88 66.03 64.11 62.63 62.36 61.67 62.12 63.60 64.35 64.81 65.99 66.25 64.36 63.43 59.64 58.22 57.52 57.70 58.25 58.84 56.88 56.32 58.29 57.26
68.58 68.41 68.33 68.63 68.64 68.13 67.51 67.65 67.61 67.54 67.25 66.92 66.22 66.90 66.48 66.44 63.69 66.35 66.39 66.16 65.57 63.90 62.27 60.98 62.25 61.52 60.08 60.23 66.95 66.32 65.77 63.75 61.45 58.65 57.32 56.36 55.37 56.12 55.24 56.34 54.53 54.85 55.85
67.67 66.93 67.13 66.88 66.70 66.88 67.13 67.19 67.53 66.99 66.67 67.44 66.11 65.88 66.48 64.52 48.91 51.44 59.45 66.25 65.55 63.50 60.99 61.04 62.21 59.97 59.85 56.04 55.42 56.54 63.40 63.99 60.00 58.38 56.76 55.12 55.74 55.44 55.96 55.40 54.26 53.55 50.46
66.00 65.86 65.86 66.39 66.00 66.69 66.43 66.07 66.39 66.89 67.98 66.17 66.25 66.34 65.94 64.37 49.80 50.23 52.41 66.63 64.61 63.09 61.83 62.01 61.89 63.56 61.70 63.88 55.90 55.26 55.29 54.83 58.73 61.83 58.29 56.68 55.30 56.76 56.47 56.29 58.64 57.93 54.36
65.43 65.29 65.97 66.54 65.74 65.60 65.74 65.83 66.82 67.91 67.32 67.50 66.61 66.10 65.77 61.91 49.51 48.60 50.23 65.12 65.00 63.79 61.64 61.80 61.27 62.96 63.35 64.16 64.52 64.78 64.31 64.14 63.61 62.91 61.41 59.10 59.69 59.19 59.05 58.87 57.93 55.32 54.77
64.62 65.21 65.80 66.36 65.43 64.98 64.91 65.49 67.80 67.81 66.87 66.87 66.38 65.67 65.38 64.47 48.96 48.78 54.97 65.16 64.60 63.10 61.93 61.49 61.27 62.22 51.95 49.69 64.23 62.82 61.36 60.58 52.04 52.30 53.04 49.84 48.38 49.95 55.39 58.37 54.70 53.44 51.69
64.88 65.45 66.27 66.40 65.11 65.41 65.80 66.82 67.05 66.95 66.72 66.48 65.39 66.09 59.08 64.40 48.22 48.42 55.21 64.43 63.00 62.53 61.46 59.87 52.41 57.90 47.15 47.88 63.14 62.61 60.53 58.64 58.30 57.63 54.75 51.98 53.75 51.59 50.85 59.62 55.75 53.46 53.59
65.65 66.00 66.60 66.11 66.18 66.02 66.73 67.79 66.58 66.09 66.38 65.90 64.75 64.24 64.93 63.10 60.62 48.60 48.24 62.96 63.33 60.58 59.17 57.64 56.04 45.34 44.61 48.78 53.70 64.01 59.81 59.52 55.78 59.33 58.05 57.61 56.94 56.90 58.41 58.12 58.38 56.92 55.20
65.83 65.25 66.34 66.58 65.21 65.09 66.79 66.65 66.47 66.92 66.02 65.02 63.82 61.83 63.34 64.23 50.72 48.65 48.58 51.35 56.58 62.18 59.92 57.88 53.17 43.53 44.25 46.97 55.11 46.43 48.22 54.04 59.73 58.03 57.13 56.04 55.81 56.47 58.04 57.25 59.25 58.38 61.68
65.15 65.48 65.59 65.86 65.67 65.43 66.00 65.92 65.45 66.66 65.77 63.00 62.98 62.41 61.84 62.93 62.60 46.68 45.88 47.51 48.18 59.60 58.83 48.29 42.04 41.71 43.34 46.59 44.79 46.59 49.42 60.14 59.33 56.89 56.30 56.61 56.91 57.84 59.63 56.59 56.97 59.61 63.69
63.93 65.74 65.32 65.61 64.26 65.31 64.63 65.37 66.47 65.92 65.36 64.52 62.93 62.43 62.23 62.31 62.39 62.34 60.14 58.72 49.84 52.88 49.05 52.17 48.27 48.04 47.51 50.94 52.56 53.14 60.36 60.22 58.94 58.21 57.40 57.54 58.32 57.48 56.86 56.17 56.06 60.25 61.25
64.27 64.53 65.56 64.25 65.81 64.97 63.06 63.80 65.81 65.61 62.52 65.42 65.27 62.54 62.39 61.37 60.64 56.87 58.66 61.35 59.24 54.20 55.33 56.84 55.66 54.21 53.06 54.17 57.70 58.69 60.31 59.68 59.05 59.21 59.09 58.00 58.47 57.98 57.51 57.98 58.45 60.60 60.22
64.98 63.98 65.09 64.05 65.34 63.63 64.32 63.50 43.41 44.72 42.98 43.16 44.60 56.41 59.17 50.27 43.89 44.07 44.25 44.61 44.61 45.34 57.46 56.98 55.30 54.83 54.46 55.68 56.46 57.45 58.96 56.92 59.09 58.86 58.90 58.58 58.37 58.24 59.02 59.73 60.14 60.85 60.01
65.23 65.72 63.96 62.16 65.45 64.26 63.98 63.99 62.05 54.88 42.77 41.70 42.62 42.98 48.70 45.54 42.44 41.89 42.26 42.80 42.26 48.63 58.33 58.01 55.91 56.02 56.55 56.49 56.81 57.25 56.86 58.39 59.52 58.96 60.11 60.08 60.46 60.48 58.37 60.25 60.16 59.90 58.99
66.07 54.38 64.31 64.44 64.16 63.94 63.98 64.68 64.00 61.82 61.25 61.32 45.69 46.85 41.89 41.71 40.81 40.81 42.08 46.75 55.42 55.50 60.08 59.03 57.33 57.18 57.18 57.31 57.67 57.09 58.13 58.67 58.75 60.67 60.86 60.59 61.20 60.32 59.90 59.96 60.64 60.79 60.29
65.47 64.45 65.02 64.43 63.81 62.67 64.15 65.10 64.25 63.68 63.40 61.64 59.16 50.41 42.75 38.94 39.72 41.53 44.61 58.18 58.14 58.58 61.37 60.56 60.20 59.21 58.53 58.84 59.50 60.25 60.39 61.12 61.13 61.96 62.17 62.09 61.86 60.39 60.31 61.37 61.61 48.71 52.35
65.33 55.52 57.50 64.98 63.92 63.33 64.75 63.01 63.50 64.22 64.03 62.77 61.02 60.60 54.46 52.19 56.23 57.15 59.58 59.69 59.48 59.01 59.49 61.44 62.03 62.27 61.00 61.31 61.84 61.52 61.50 60.68 62.33 62.13 62.64 62.69 62.64 62.45 61.97 62.08 61.86 60.69 59.86
64.65 64.26 51.58 65.31 63.64 63.51 63.37 63.17 62.65 62.65 63.18 63.41 63.24 60.19 48.02 61.14 60.37 60.46 60.50 61.44 61.19 60.70 61.68 60.77 62.93 63.37 63.61 62.40 62.23 61.54 61.69 62.27 62.42 62.25 62.94 63.85 63.90 62.78 63.29 63.22 62.25 61.78 61.47
64.37 63.68 64.87 64.66 64.18 63.90 63.16 63.46 64.09 63.35 63.08 63.02 63.16 57.91 42.68 62.54 63.05 62.91 62.46 62.51 63.43 64.01 64.72 64.39 63.94 64.10 63.90 63.80 64.06 63.86 63.30 63.29 63.07 63.05 63.65 63.38 63.24 64.11 64.08 63.24 62.34 61.84 61.70
64.42 63.77 63.76 64.57 64.21 56.69 63.13 63.51 62.94 63.16 64.17 64.24 63.02 61.42 60.94 62.64 63.32 63.57 63.92 64.34 64.09 63.82 64.02 63.94 62.58 63.53 64.17 64.92 65.27 65.00 64.22 63.96 64.54 64.80 64.31 64.27 64.30 63.69 63.22 62.63 62.21 62.08 62.14
64.45 63.86 62.98 63.75 63.98 63.94 64.12 63.88 63.51 56.44 62.38 64.02 63.26 63.20 63.68 64.54 64.04 64.63 64.77 65.69 65.79 64.16 64.35 64.71 65.67 65.18 65.77 65.94 66.19 66.18 65.16 64.88 65.07 64.63 65.68 64.98 64.37 62.39 64.19 64.17 63.82 63.59 63.87
63.76 63.96 63.54 64.18 63.71 63.59 63.89 63.68 62.06 63.72 63.16 63.38 63.82 63.45 63.71 64.01 65.12 65.29 66.39 65.30 65.04 65.80 64.98 63.18 61.50 61.33 53.42 51.07 49.46 47.45 38.76 35.65 53.87 44.10 64.38 65.62 65.50 64.83 63.37 62.70 62.79 64.07 63.80
62.08 62.17 62.22 62.50 61.77 61.05 61.81 58.38 56.02 59.89 61.00 58.81 60.89 58.47 59.02 58.81 59.81 60.50 61.25 61.51 59.60 55.14 55.27 52.77 50.41 51.26 49.90 45.63 41.51 35.12 33.99 34.34 40.88 34.91 56.27 63.96 64.04 63.83 64.01 63.51 63.20 62.86 62.70

GFSGL_sfc_wetblb_054.txt.gz
Wetbulb
72.23 72.54 73.00 72.86 73.99 73.73 72.95 72.26 71.40 71.90 71.28 70.75 70.01 69.13 68.81 69.04 68.53 67.29 66.79 66.05 65.49 65.45 65.09 63.99 64.26 65.01 64.33 64.62 64.67 63.14 62.52 61.40 58.72 60.48 62.61 63.58 63.15 63.25 64.72 63.73 64.80 62.52 61.14
72.44 72.27 72.97 71.06 70.91 72.19 70.96 70.95 70.59 70.34 69.81 69.15 68.67 68.00 67.74 67.52 66.68 66.42 65.94 65.26 64.67 64.21 64.37 63.56 62.54 64.44 63.75 63.38 63.80 62.25 62.56 62.58 60.72 58.82 60.10 60.26 60.90 62.21 63.09 62.72 63.07 62.92 62.20
71.44 69.65 69.34 69.27 70.08 70.30 70.12 70.30 70.01 69.42 69.28 68.11 68.14 67.12 66.58 66.54 65.50 65.88 65.76 65.14 64.88 64.74 64.23 63.09 61.76 62.28 61.46 61.83 62.79 62.18 62.52 63.00 62.12 59.04 57.65 59.16 59.06 60.10 59.44 60.34 60.54 60.90 61.04
69.20 68.50 68.61 69.29 69.55 69.58 69.62 69.38 69.15 68.49 68.33 68.14 67.77 66.66 65.75 65.37 65.76 65.45 65.04 65.30 65.14 64.82 63.40 61.77 60.98 61.08 61.25 61.51 62.41 62.98 62.32 61.37 60.63 57.79 57.16 57.11 57.19 58.53 58.67 57.00 56.24 58.39 57.69
67.30 67.16 68.54 69.32 69.22 69.00 68.59 68.59 67.97 68.33 67.63 66.84 66.66 65.25 65.52 63.80 63.57 65.79 66.19 64.89 64.44 62.88 62.56 61.65 60.67 60.52 59.67 58.86 62.00 62.98 61.72 61.42 58.44 56.96 56.30 55.96 55.68 56.10 55.44 56.08 54.44 54.92 55.38
66.24 67.08 68.64 68.24 67.89 67.53 67.48 67.61 67.98 67.32 67.59 65.38 65.56 65.40 62.24 60.95 49.13 52.05 60.13 65.15 64.86 62.94 61.50 60.62 61.49 59.36 58.85 54.79 56.62 56.94 60.94 60.25 57.80 56.32 56.18 55.12 55.42 55.34 55.68 55.00 54.32 53.64 51.25
67.00 67.26 66.90 66.68 65.86 66.51 66.76 66.66 66.48 65.84 67.13 65.99 65.60 65.17 63.70 59.14 48.41 50.98 53.88 65.39 64.53 63.14 61.55 60.33 60.91 62.69 60.25 61.12 54.15 54.82 55.44 55.19 57.54 58.70 56.62 56.56 55.10 55.96 56.02 55.31 55.57 54.34 52.68
65.84 65.38 65.51 65.57 65.41 65.63 65.69 65.07 66.78 66.26 66.82 66.09 65.77 65.07 63.82 58.19 50.08 50.62 51.16 65.57 64.23 63.35 61.84 61.28 60.91 62.18 62.28 62.15 62.15 61.75 61.44 60.20 59.96 60.55 58.70 57.89 57.82 57.76 58.06 57.67 56.51 54.17 54.79
64.47 64.74 65.43 65.84 65.03 64.73 64.71 65.42 66.33 66.20 65.59 65.62 66.01 65.39 64.06 60.27 48.44 49.17 56.16 64.52 63.47 62.24 61.83 60.63 60.84 61.46 50.73 50.26 62.20 61.31 59.30 56.96 52.34 52.52 51.95 49.32 48.40 49.99 53.57 56.18 54.05 53.45 51.92
64.56 64.78 66.30 66.42 65.40 64.78 65.67 66.69 66.54 66.22 66.13 66.18 65.35 65.26 58.30 60.53 47.36 47.54 55.74 63.38 62.28 61.28 61.00 59.16 50.98 56.40 46.63 47.90 62.26 61.04 57.58 56.98 57.11 56.34 54.93 50.64 52.47 51.67 50.98 57.17 55.88 53.34 52.52
65.23 65.59 66.22 66.31 66.10 66.12 66.70 66.48 65.65 65.38 65.72 65.05 64.00 63.75 63.82 62.08 54.98 48.41 48.44 63.54 62.25 60.49 59.16 57.41 56.14 44.64 47.18 47.72 54.75 60.78 57.53 58.17 54.93 57.99 57.30 56.46 56.53 57.40 56.99 57.09 57.06 55.72 53.86
65.41 65.98 65.95 65.96 64.86 65.96 66.07 65.96 65.87 65.39 64.35 63.97 62.61 61.90 63.58 61.85 52.65 47.28 47.54 50.94 57.08 60.40 59.30 57.67 52.52 42.82 45.00 47.36 53.24 46.27 48.33 54.30 58.58 57.28 56.52 55.65 55.82 56.62 56.64 57.62 57.18 57.28 58.22
65.93 65.49 65.69 65.99 65.61 65.95 65.48 65.59 64.48 64.86 64.17 63.05 61.31 60.66 60.86 61.44 58.54 45.67 46.41 48.63 50.32 59.57 58.35 49.98 42.44 42.64 44.46 47.16 45.36 46.94 50.85 58.29 57.27 55.98 54.97 55.27 56.23 57.55 56.62 56.54 57.02 57.78 59.45
65.55 64.56 65.70 65.67 64.11 65.12 65.48 65.11 65.41 64.61 63.81 63.34 62.94 61.15 60.47 61.46 61.00 59.72 56.86 54.44 48.31 49.12 47.88 49.65 47.99 48.26 49.15 50.14 51.62 53.82 59.62 58.19 56.99 56.39 55.90 56.14 56.98 56.95 55.42 56.35 54.72 57.99 58.20
65.31 64.20 64.42 63.13 64.22 61.66 58.99 57.82 64.96 58.27 60.92 64.37 64.50 62.16 61.22 60.30 59.77 57.32 58.23 59.71 57.93 51.93 53.38 55.45 55.02 54.20 55.22 56.84 56.86 58.30 58.54 58.64 56.93 56.86 56.69 55.84 56.19 56.30 55.99 55.84 55.53 56.46 57.74
63.62 64.23 62.99 63.42 63.33 62.40 62.66 58.58 42.23 42.98 42.26 45.00 45.98 57.27 54.72 51.06 44.58 45.48 45.15 45.16 45.18 44.64 55.82 54.95 54.00 54.00 54.26 56.20 56.60 57.70 57.67 56.35 57.58 58.12 57.65 57.07 56.05 56.07 55.23 56.08 56.40 56.58 57.31
63.39 63.32 64.11 61.49 63.67 63.15 63.37 62.41 58.78 52.12 42.63 40.98 41.37 46.59 48.61 44.20 41.92 42.46 43.19 43.55 42.64 46.05 57.00 55.41 54.73 54.99 55.65 56.46 57.17 57.39 57.27 58.41 58.57 57.83 57.72 57.91 57.62 57.71 54.65 56.78 56.63 57.31 58.15
64.20 55.05 63.15 64.92 62.97 63.95 62.27 61.86 61.57 60.18 59.47 57.77 44.56 45.05 40.94 40.99 40.63 41.37 41.92 46.53 55.73 55.57 58.46 56.39 55.86 56.23 56.31 56.46 57.14 57.48 58.19 58.38 58.42 58.92 58.38 58.67 58.58 58.41 57.71 58.11 58.38 58.09 57.79
62.92 64.14 64.83 65.08 64.29 62.66 64.13 62.97 62.37 62.46 61.56 58.52 54.93 48.06 41.89 39.18 40.47 41.56 43.37 58.04 58.30 59.18 59.56 57.99 57.14 57.00 57.56 57.32 57.96 58.20 58.85 58.85 58.79 59.80 59.80 59.54 59.82 59.52 58.85 58.95 58.46 48.01 51.52
65.24 55.24 54.79 63.30 63.28 64.35 63.66 62.30 63.37 63.09 62.07 60.08 59.21 56.06 51.67 52.16 54.44 55.42 58.45 59.07 59.37 59.45 59.50 59.78 58.90 58.75 58.42 58.86 59.09 58.73 59.54 58.03 59.43 60.83 60.66 60.28 60.27 59.73 59.07 58.71 59.10 58.64 56.79
64.07 62.78 50.84 61.79 62.94 64.01 64.04 62.34 63.84 63.31 62.46 61.60 60.51 56.19 46.43 58.71 57.67 58.88 59.75 60.04 60.18 59.80 60.79 61.41 60.89 60.82 60.23 60.39 60.92 60.62 61.00 60.75 60.77 61.35 61.02 61.20 61.04 59.92 59.68 60.08 60.13 60.42 59.25
62.24 62.96 62.98 62.06 62.81 64.17 63.19 62.97 63.24 63.82 63.31 62.53 60.08 53.66 42.28 58.36 60.53 60.69 61.47 61.70 62.76 62.48 62.83 62.23 62.08 61.85 62.19 61.79 61.59 61.53 61.33 61.33 61.48 61.66 61.30 61.44 61.68 60.57 60.83 61.09 61.16 60.33 59.24
62.39 62.76 63.37 60.66 63.59 53.90 61.91 62.82 63.08 62.15 63.21 61.88 60.44 58.61 57.53 60.10 61.48 61.25 61.03 61.81 62.22 62.45 63.30 62.47 62.45 62.36 63.43 63.62 63.05 62.17 61.81 61.65 62.12 62.27 61.77 61.86 62.08 61.84 61.95 61.33 61.08 60.87 59.20
62.17 62.45 62.91 60.65 62.56 62.24 63.05 62.30 63.32 56.71 62.58 61.72 61.27 60.99 61.44 62.44 63.26 63.44 62.19 62.08 62.05 59.77 58.61 58.30 51.09 49.59 50.43 49.94 49.21 48.60 45.69 44.40 52.76 62.10 62.80 61.72 61.37 57.62 61.07 61.00 60.38 59.58 59.51
62.85 63.20 63.69 60.55 61.30 60.72 60.05 62.20 61.81 63.44 62.14 62.38 63.01 63.08 61.39 58.60 58.55 57.59 56.07 55.38 53.89 50.61 48.50 48.95 49.22 45.99 43.85 41.88 42.00 40.75 35.58 33.44 42.81 39.45 58.30 61.79 62.00 62.07 61.56 61.30 60.99 61.09 61.02
60.83 62.54 60.94 58.86 59.16 57.95 55.57 55.56 57.50 58.67 57.02 55.77 57.33 57.16 56.31 56.26 54.56 53.96 53.42 52.32 52.00 48.53 45.49 43.55 43.43 42.55 41.38 39.30 36.96 33.91 34.29 35.27 41.46 35.87 54.81 61.99 61.69 60.84 59.26 60.16 60.84 60.86 60.73

GFSGL_sfc_wetblb_057.txt.gz
Wetbulb
65.66 67.85 68.55 69.55 70.22 70.77 69.22 69.02 68.19 68.51 67.84 68.64 68.21 66.74 65.91 65.20 65.11 63.34 62.73 62.80 62.18 61.20 61.26 61.20 61.20 61.59 61.11 60.40 60.89 59.96 58.64 57.38 55.04 57.63 60.21 61.42 60.89 62.17 62.84 62.77 63.17 61.81 60.76
68.80 68.47 68.98 69.42 69.72 69.29 68.52 69.13 69.87 68.66 68.83 67.66 66.55 65.97 65.80 65.43 63.72 62.95 62.40 63.02 61.57 60.76 60.97 60.51 60.87 62.70 60.09 60.52 60.47 60.16 59.41 58.38 57.65 57.93 58.75 59.86 60.53 62.13 62.95 62.37 62.23 62.37 61.87
69.11 68.79 68.36 68.33 68.22 67.15 66.23 66.45 68.43 68.13 66.35 66.31 65.56 64.82 64.83 65.00 64.28 64.48 62.17 62.48 61.87 61.71 61.63 60.60 60.07 59.95 59.67 60.63 61.18 60.91 59.34 60.15 58.51 57.95 57.09 58.53 59.14 60.53 59.90 60.67 60.83 60.51 61.23
67.67 67.03 66.76 66.74 67.51 67.21 66.42 65.83 64.54 64.81 64.16 64.80 65.91 65.91 65.73 64.68 63.55 62.58 63.26 62.61 62.49 61.65 61.25 60.29 59.07 59.84 59.72 59.93 60.90 60.97 60.27 59.41 57.33 56.58 57.43 56.56 57.47 58.60 59.02 57.85 56.91 58.33 57.79
67.28 66.73 66.71 67.30 67.12 65.83 64.49 64.41 63.60 63.64 63.02 62.99 63.00 62.63 63.49 63.97 63.65 63.64 63.64 61.86 60.95 59.75 59.42 59.37 58.84 59.80 59.10 58.77 61.28 60.64 60.01 57.53 56.87 56.79 56.20 55.96 56.18 56.72 56.24 56.02 54.96 55.56 55.28
66.96 66.51 66.63 66.76 65.54 64.88 63.37 62.67 62.98 62.55 62.15 61.96 61.95 61.41 59.81 59.63 49.38 54.15 60.16 61.62 60.89 59.33 58.11 57.86 59.35 59.17 58.29 54.13 56.84 57.21 59.55 58.10 56.54 56.38 56.24 55.76 55.92 55.30 55.82 55.52 55.00 54.88 51.69
66.56 66.66 65.86 65.23 64.02 62.98 63.04 62.69 61.41 61.83 62.68 62.17 62.34 59.98 56.75 54.91 48.32 50.86 54.67 61.50 60.57 59.59 58.29 57.97 59.83 61.56 59.00 58.78 53.69 55.03 55.34 54.58 56.14 57.31 56.42 56.58 55.40 56.14 56.07 55.42 55.59 53.73 52.68
65.93 65.33 64.15 63.72 63.14 62.54 61.72 61.37 62.85 63.28 62.50 62.29 62.53 60.55 56.79 53.77 48.51 51.77 52.92 61.30 60.25 59.76 58.86 58.66 59.74 59.83 57.75 59.25 58.73 58.94 58.49 57.88 57.45 58.88 58.06 57.11 57.21 57.23 57.44 57.18 54.87 54.34 55.25
63.67 62.68 63.06 63.48 62.55 61.82 61.12 62.34 62.33 62.44 60.51 60.55 61.92 58.92 56.12 54.80 48.32 50.50 54.07 60.95 60.10 58.87 59.13 59.24 59.67 59.34 49.41 49.23 59.94 57.73 56.12 55.22 51.66 51.84 50.98 48.97 48.00 49.74 53.83 55.80 54.24 53.71 52.31
62.04 62.58 63.92 63.38 62.55 62.78 61.78 61.86 61.02 60.92 60.69 62.09 62.21 60.39 54.75 54.70 46.15 47.96 54.31 60.88 58.91 58.21 57.83 57.81 47.04 54.18 46.15 48.51 58.96 57.46 56.30 56.12 55.81 54.73 53.14 49.99 51.73 51.23 50.70 56.56 55.42 53.54 52.30
62.70 63.48 64.13 63.83 61.96 62.00 62.16 61.31 60.90 61.27 61.52 61.36 60.60 59.73 58.59 54.80 52.10 46.82 50.86 61.59 59.63 58.81 58.13 56.76 53.69 45.06 45.61 46.51 51.93 57.84 56.20 56.73 53.48 56.24 56.20 56.01 55.49 56.54 56.66 56.73 56.19 54.92 53.11
63.84 63.80 63.41 62.66 64.04 63.27 61.85 60.98 61.18 61.20 60.71 58.75 59.67 60.26 60.02 56.16 49.56 45.97 45.61 53.91 54.94 58.46 57.67 56.58 50.61 43.43 43.97 46.69 52.11 44.88 47.06 53.02 57.37 56.44 55.57 55.29 55.65 55.46 56.24 56.60 56.13 55.17 57.56
62.77 62.22 62.24 62.02 63.25 62.48 61.44 60.86 60.84 60.99 60.25 58.07 59.14 60.29 58.67 55.26 52.72 44.30 43.58 47.24 51.65 56.62 56.99 50.46 42.89 42.89 43.97 46.86 44.52 45.97 50.26 57.46 56.69 55.71 54.94 55.17 55.92 56.18 56.98 56.54 56.41 56.90 57.04
61.97 61.49 61.86 61.77 61.91 61.95 62.35 61.86 60.89 60.53 60.05 58.38 57.94 58.68 59.58 58.04 54.91 52.06 52.45 51.77 47.53 49.02 47.65 50.19 47.94 48.14 48.69 50.82 51.81 54.69 58.16 57.53 56.35 55.65 55.47 55.98 56.62 56.00 55.59 55.73 54.78 55.83 55.96
62.20 62.21 61.39 60.76 60.10 54.66 51.31 51.76 58.77 55.70 56.40 60.06 59.58 58.70 58.66 58.57 57.25 53.98 54.18 55.20 54.87 50.74 52.55 55.66 55.54 55.70 55.28 56.00 56.99 57.85 56.96 56.84 56.30 56.02 55.59 55.59 55.77 54.85 54.92 54.17 54.17 55.22 56.15
61.34 61.10 61.43 60.49 58.76 58.09 55.98 53.32 41.58 41.17 42.89 47.24 50.32 56.68 55.07 50.10 46.24 46.06 44.88 43.61 44.16 44.52 54.90 54.82 54.25 55.48 55.92 56.08 56.81 56.48 56.97 54.74 56.27 56.46 55.84 55.81 55.62 55.34 54.32 54.56 55.22 54.62 54.55
61.32 60.60 61.15 60.34 61.25 59.99 58.11 56.08 54.40 49.48 42.27 41.58 41.44 44.38 47.63 44.48 42.52 42.89 43.25 43.43 42.16 48.11 54.97 54.52 54.36 55.06 56.00 56.68 57.26 56.74 56.50 56.94 57.52 56.71 56.38 55.77 55.44 55.43 51.80 54.80 54.72 54.95 54.14
61.73 54.49 61.33 61.55 61.40 60.85 60.31 57.81 56.96 56.40 54.84 52.38 42.90 41.92 40.32 41.07 41.62 41.62 41.80 46.10 52.94 51.78 55.63 55.11 55.01 55.81 56.40 56.68 56.90 57.04 57.09 57.23 57.27 57.01 56.75 56.95 55.59 55.73 54.36 55.10 55.25 54.89 54.16
61.61 61.07 61.12 62.17 62.30 59.41 60.65 59.18 58.51 58.10 54.99 52.41 50.59 46.10 40.35 39.24 39.99 41.07 43.43 56.62 55.00 54.74 54.20 56.06 56.36 56.40 56.92 57.09 57.35 57.82 57.52 57.57 57.51 57.74 57.57 55.92 57.12 55.47 55.11 56.17 55.27 47.36 49.67
61.44 54.68 57.49 61.64 59.72 60.88 60.71 59.13 58.91 57.50 55.15 54.87 54.52 51.29 49.24 50.96 53.73 54.31 56.24 57.33 55.61 58.01 56.05 55.49 56.75 57.12 56.95 57.21 57.16 57.47 55.98 54.78 56.58 57.91 57.45 57.28 57.39 56.68 56.04 55.97 56.09 55.54 53.72
59.76 57.60 50.60 61.63 60.77 60.76 61.12 60.19 59.94 58.34 57.10 56.61 54.52 52.09 44.52 55.59 55.18 56.62 57.66 57.75 58.31 57.84 58.91 56.86 56.32 56.17 57.77 57.79 57.73 57.15 56.28 56.66 56.44 57.54 58.46 57.77 57.52 56.72 56.62 56.47 56.00 56.21 57.15
60.26 60.42 61.02 61.51 61.13 61.26 60.91 62.20 60.61 59.64 58.55 56.55 54.91 50.64 38.72 56.29 56.04 56.34 57.28 58.58 59.37 59.01 59.24 59.97 59.32 59.13 58.53 58.74 59.10 58.77 58.96 59.14 59.43 59.97 59.93 60.14 59.91 59.56 58.47 56.84 56.31 56.51 57.14
60.15 59.85 60.26 59.29 61.91 52.99 60.46 60.86 60.97 59.92 58.81 56.60 55.69 55.21 51.10 54.83 58.12 58.66 59.69 60.12 60.50 60.43 57.37 54.70 56.76 55.19 53.75 53.70 53.74 55.60 59.43 59.27 59.81 60.10 59.67 59.88 60.27 59.30 58.82 57.28 57.48 57.45 57.63
58.15 59.78 59.88 59.48 60.16 60.69 60.55 61.10 60.78 53.82 58.13 57.29 56.66 55.95 56.10 57.38 57.35 58.20 52.75 51.18 50.70 49.67 48.61 46.79 45.77 44.44 46.47 45.73 45.63 45.51 44.28 44.70 50.00 55.10 60.64 60.18 60.05 56.56 60.50 60.46 60.18 60.13 59.80
59.84 59.28 59.16 58.55 57.95 57.32 59.56 59.20 59.78 59.77 59.58 59.72 58.55 58.11 56.01 54.68 51.88 50.06 48.58 46.78 45.23 44.10 42.71 42.49 43.54 41.45 40.06 39.30 40.75 41.68 37.81 35.58 44.54 39.49 59.55 58.53 54.98 56.97 57.68 58.04 58.66 58.16 56.55
55.56 55.20 55.42 55.22 54.38 54.52 56.80 54.86 55.04 57.02 55.95 54.70 53.64 51.67 51.57 49.12 47.21 47.07 45.81 42.60 40.72 39.79 38.73 38.71 38.09 37.56 37.44 37.28 36.09 33.77 33.79 35.49 41.33 40.01 50.02 50.64 48.20 48.52 49.67 49.96 49.95 50.57 48.82

GFSGL_sfc_wetblb_060.txt.gz
Wetbulb
62.56 63.32 64.86 65.24 66.56 68.29 67.86 67.16 67.12 67.41 67.07 67.12 67.10 66.80 66.89 66.07 64.88 63.23 62.24 61.84 61.67 60.36 60.32 59.82 59.65 59.85 60.16 59.92 59.90 58.36 57.92 56.23 53.25 58.28 59.39 59.16 60.71 62.20 62.81 62.34 62.36 61.66 60.07
63.33 65.13 66.40 67.16 68.22 68.33 67.38 67.05 67.21 66.62 67.27 67.50 67.41 67.10 66.40 65.83 63.62 62.30 61.61 62.16 61.39 59.96 59.66 59.36 59.75 61.59 59.85 59.61 59.46 59.29 57.69 57.01 56.11 56.91 58.97 59.35 59.93 62.06 62.24 61.26 61.62 62.20 61.12
65.84 66.36 66.49 67.12 68.38 68.38 67.63 67.63 67.09 67.43 67.07 66.81 66.46 65.80 65.38 64.56 62.94 61.78 61.97 61.83 60.90 60.37 59.87 59.09 59.29 60.03 57.95 58.99 59.83 60.40 59.76 58.70 57.25 58.15 57.24 58.71 59.45 61.14 60.25 60.25 60.09 60.07 60.39
67.09 66.78 66.67 66.37 66.66 66.91 67.75 67.95 67.52 66.85 66.10 65.35 65.13 64.96 64.80 63.79 62.91 63.15 62.19 61.01 60.84 60.44 60.25 59.49 59.14 58.62 58.87 59.66 59.78 60.38 59.59 57.34 57.18 58.13 57.66 56.71 57.78 58.89 59.67 58.38 56.69 58.08 57.58
66.58 65.83 65.09 65.66 65.71 65.64 64.82 65.07 65.35 66.42 66.02 65.58 63.63 63.32 63.68 64.11 62.93 62.08 61.56 60.95 60.09 59.13 59.06 58.83 58.24 58.93 59.09 58.84 60.73 60.14 59.75 57.78 56.92 56.59 55.93 56.15 56.35 57.40 57.10 56.53 55.15 55.69 55.79
65.66 65.06 65.62 65.18 65.62 65.29 64.32 62.53 62.47 62.19 62.12 61.40 60.83 60.85 60.53 60.45 52.25 55.26 60.25 60.21 59.69 58.64 57.32 57.11 57.75 58.08 57.84 54.44 55.89 56.61 58.59 57.86 56.87 56.54 56.17 56.31 56.59 55.37 56.39 56.27 55.47 55.83 53.09
65.07 65.65 65.27 64.98 64.84 64.10 62.81 62.14 60.51 59.90 59.72 58.99 58.35 58.81 58.48 55.74 47.55 49.91 53.35 60.28 58.82 57.96 57.12 56.53 57.90 60.72 58.17 58.70 53.45 53.17 54.06 53.06 55.60 57.43 56.19 56.67 55.93 56.39 56.65 55.95 56.57 54.41 52.81
64.93 64.91 65.12 64.42 63.24 62.75 61.41 60.33 60.01 59.83 59.98 59.23 58.63 57.55 55.34 52.71 48.09 49.91 53.71 59.70 58.34 58.20 57.55 57.13 57.57 59.25 59.14 58.61 58.94 58.70 58.03 57.25 56.91 57.69 57.25 55.49 57.07 57.46 57.73 56.81 55.10 54.79 55.61
64.12 64.09 64.00 63.45 62.02 60.73 60.08 59.91 60.32 61.63 62.00 61.06 58.90 55.92 54.12 53.66 47.55 49.18 55.99 58.78 58.12 57.58 57.72 58.24 58.47 58.88 47.55 48.09 58.71 57.10 56.49 55.65 50.68 50.94 50.59 48.91 47.55 49.32 53.62 55.77 54.72 54.35 52.72
63.51 63.48 63.03 62.45 61.26 60.24 60.11 60.35 61.74 61.68 61.46 60.28 57.84 56.11 53.92 54.71 45.74 46.10 53.89 58.92 57.24 58.20 57.60 56.09 48.07 55.35 45.01 46.46 57.03 57.24 56.05 54.93 54.91 54.23 52.86 49.78 51.52 50.56 50.09 56.90 56.14 54.50 52.38
63.51 62.82 62.28 61.89 60.75 60.70 60.45 61.52 59.96 61.27 60.98 59.80 57.72 55.91 55.51 55.11 50.75 44.29 48.82 59.48 58.90 57.39 57.64 56.35 54.18 44.47 44.10 44.83 51.16 58.11 55.25 55.23 52.92 55.48 55.77 55.71 55.36 55.70 56.08 56.27 54.98 55.67 52.91
62.68 62.21 61.51 60.71 61.85 61.58 60.55 59.93 60.53 60.52 59.42 58.34 58.26 57.82 54.90 54.39 47.17 44.65 46.64 51.90 53.80 57.40 57.20 56.49 52.89 43.56 43.20 44.83 50.81 43.56 45.74 51.91 56.59 55.81 55.25 54.73 55.39 55.63 55.91 56.23 55.70 55.83 57.14
62.39 61.44 60.95 61.62 61.53 61.00 60.34 59.84 59.91 59.86 58.90 59.00 58.51 57.92 56.17 54.82 52.39 43.34 43.74 45.55 49.72 55.75 57.30 50.61 42.46 42.11 43.92 45.72 43.38 45.01 48.98 56.66 56.09 55.14 54.81 55.07 55.84 56.15 56.45 55.84 55.60 56.63 57.23
61.17 60.84 61.37 60.85 60.01 60.43 60.98 60.86 60.16 58.94 57.92 58.42 58.74 58.25 57.14 54.80 53.72 53.94 52.98 51.34 47.49 50.64 47.98 49.63 48.94 48.46 48.46 49.05 50.80 54.35 57.31 57.09 56.23 55.40 55.15 55.83 55.86 55.80 55.34 55.06 54.25 54.28 54.91
61.65 60.88 60.58 60.19 58.54 54.07 50.50 53.94 59.96 57.24 57.30 58.24 57.16 58.45 56.88 55.61 53.56 50.59 51.77 55.09 54.75 51.55 52.74 55.55 56.07 55.61 55.17 55.99 57.04 57.02 56.83 56.39 55.72 55.66 55.62 55.51 54.90 55.04 54.66 53.25 53.47 55.26 54.38
60.87 60.76 59.69 58.31 56.51 55.17 54.40 50.43 40.38 41.65 43.20 44.65 49.36 55.46 54.97 49.59 44.10 43.02 42.84 43.02 42.65 44.47 55.29 55.59 55.15 55.63 55.77 56.37 55.97 55.67 56.01 54.35 55.86 55.88 55.80 55.74 55.14 54.61 54.18 53.43 54.23 54.87 54.62
60.87 59.58 58.80 57.93 57.45 56.57 56.61 55.09 51.80 45.63 40.59 41.91 46.64 45.92 48.67 45.92 42.47 41.93 41.39 41.39 41.20 47.73 55.39 54.93 55.27 55.91 56.03 56.81 56.15 55.84 55.04 55.70 56.70 56.11 55.69 55.65 55.54 55.18 52.50 53.65 53.84 54.26 53.45
61.43 54.65 59.54 59.62 58.79 57.63 56.59 55.41 54.91 54.89 53.46 51.78 42.70 42.93 40.64 41.20 40.48 41.02 41.20 45.88 53.62 52.20 55.45 54.89 55.03 56.27 56.65 56.88 56.43 56.19 56.21 56.39 56.15 56.29 55.93 55.75 55.42 54.37 52.71 53.84 53.98 53.90 53.77
59.87 60.25 61.27 60.10 59.48 57.49 57.21 56.47 55.93 54.61 53.27 49.92 49.31 45.02 40.10 39.00 39.39 40.84 43.02 55.78 55.37 52.67 55.21 55.52 56.23 56.67 57.16 56.63 57.19 57.38 57.13 56.74 56.48 56.35 56.28 56.52 55.51 53.90 53.40 54.74 54.06 46.57 48.48
60.28 54.36 56.68 60.18 59.19 58.90 57.84 57.21 55.79 54.06 54.26 55.02 54.24 50.77 47.93 50.19 53.42 54.49 55.35 56.53 55.83 55.16 55.82 55.82 56.31 56.97 57.45 57.25 57.32 57.13 56.77 55.60 56.71 57.29 56.93 56.75 56.69 55.16 53.90 55.17 54.72 54.59 53.90
59.86 57.56 49.67 59.62 60.15 59.58 58.23 57.71 56.27 54.99 55.12 55.08 53.98 51.57 43.56 55.26 54.73 55.56 55.61 56.63 55.75 55.49 54.69 55.30 56.80 56.68 57.34 57.66 57.25 57.20 56.53 54.83 56.67 57.46 57.94 55.93 55.81 56.00 55.74 55.48 55.85 55.80 54.92
60.67 60.89 59.42 59.92 59.99 60.00 59.21 58.51 56.98 56.27 55.80 54.04 53.17 50.91 36.67 54.21 54.69 55.89 57.25 57.50 58.88 59.00 58.59 57.14 56.80 57.20 57.43 57.59 57.77 56.82 56.21 56.37 56.29 57.27 58.01 58.51 57.86 57.27 56.83 55.80 55.34 54.92 54.68
58.57 59.65 60.76 59.58 59.96 52.53 58.98 59.28 57.94 57.00 55.52 54.59 53.78 51.99 51.15 54.25 56.49 57.64 58.30 58.09 53.35 50.60 51.11 54.05 53.71 51.68 50.98 51.43 52.53 56.05 58.32 58.27 59.63 59.87 59.34 59.19 59.53 59.13 57.51 56.21 56.18 55.36 55.14
59.46 60.09 58.57 59.71 58.84 60.90 59.71 59.41 57.09 50.94 55.40 55.38 54.78 54.36 54.65 56.54 53.90 49.95 49.08 48.64 47.28 46.01 45.31 44.73 44.49 43.80 44.85 44.65 45.70 45.66 44.86 45.70 49.38 54.45 57.03 59.21 59.31 56.53 58.84 59.36 58.83 58.67 57.49
58.15 58.19 58.65 59.28 59.33 60.07 58.27 57.85 57.23 56.69 56.56 56.38 56.13 54.12 51.14 49.63 47.95 46.12 44.67 43.51 41.53 39.92 40.53 41.34 41.28 40.42 39.93 40.30 40.73 40.57 36.68 37.03 47.96 46.46 54.10 54.43 54.71 54.16 53.81 53.79 51.99 51.77 51.27
53.10 53.73 53.31 55.70 58.37 58.37 57.88 57.22 56.88 56.71 55.63 54.91 50.74 48.76 47.90 45.11 43.17 41.35 41.10 40.22 39.40 39.33 38.79 38.98 38.27 38.92 38.54 37.74 35.51 34.34 34.62 35.55 41.32 39.66 49.74 50.26 49.72 48.68 48.98 48.03 47.69 47.02 46.23

GFSGL_sfc_wetblb_063.txt.gz
Wetbulb
55.19 56.59 58.71 61.16 61.81 63.31 64.76 65.74 66.25 66.35 66.68 66.69 66.64 65.94 65.96 65.36 65.43 64.76 63.03 62.41 61.38 59.93 59.31 59.21 58.82 58.16 57.53 57.95 57.99 57.09 56.17 54.81 52.22 57.81 58.66 59.80 61.01 61.72 62.04 62.09 62.35 61.45 59.28
55.49 57.80 59.36 61.92 63.84 65.16 65.53 65.76 66.21 66.41 66.93 66.67 66.44 66.03 66.26 66.02 64.68 63.54 63.28 62.76 60.74 59.18 59.27 58.63 58.64 59.61 58.33 58.35 57.89 57.11 56.61 55.89 55.01 56.01 58.18 58.88 60.24 61.88 61.13 60.91 61.54 61.97 60.59
60.69 61.15 63.04 63.81 65.14 65.71 65.85 65.75 66.25 66.03 66.37 66.75 66.55 66.15 65.66 65.42 64.11 63.58 62.77 61.27 60.41 59.83 59.42 58.50 58.26 58.61 57.59 57.57 57.51 57.63 57.45 57.87 56.19 56.01 56.87 58.86 59.87 61.15 59.52 59.73 59.32 59.14 60.23
63.15 63.22 64.29 65.45 66.19 66.21 65.96 65.91 66.05 66.77 66.37 66.01 66.26 66.40 65.99 65.11 63.92 61.67 61.29 60.57 60.08 59.65 59.21 58.77 58.48 58.73 57.74 57.33 58.31 59.83 58.84 57.65 57.35 57.21 57.63 57.21 58.21 59.43 59.52 58.04 55.96 57.57 57.21
64.20 64.29 64.67 65.60 66.27 67.27 67.04 66.61 66.64 66.96 65.82 65.77 65.44 65.61 64.82 63.37 62.77 61.29 60.74 59.85 59.05 58.63 58.64 58.66 58.04 58.53 58.31 57.82 58.97 59.46 58.26 57.84 57.57 57.25 56.29 56.31 56.53 57.59 57.33 56.53 55.10 55.85 56.33
64.34 63.99 64.65 65.03 65.89 66.93 67.31 66.57 65.63 65.25 64.68 64.64 63.85 63.13 62.11 62.60 52.15 53.64 58.40 59.23 58.78 58.13 57.55 57.03 56.97 57.36 56.89 54.07 55.34 56.23 58.07 57.85 56.89 56.38 54.32 55.59 56.29 55.76 56.81 56.43 55.83 55.53 53.99
64.22 64.84 64.73 64.64 64.13 63.99 63.68 64.39 64.66 63.16 63.61 62.69 60.34 60.35 58.90 57.13 48.36 50.67 54.02 60.72 58.65 57.49 56.67 56.01 56.45 58.69 57.05 58.18 53.11 52.98 53.47 52.87 56.07 58.14 56.01 57.05 56.43 56.79 57.17 56.15 55.97 53.60 53.41
63.01 64.27 64.29 64.00 63.11 63.23 62.53 62.16 60.92 61.91 60.59 58.63 57.35 57.29 56.35 52.99 46.46 47.18 50.44 58.63 57.53 57.11 56.51 56.01 56.17 57.37 57.29 57.73 57.84 58.56 58.32 57.93 57.50 57.88 57.81 56.75 55.71 57.81 58.25 57.82 54.92 54.79 55.35
60.00 63.84 63.92 63.39 62.24 61.95 60.90 59.36 59.05 58.90 57.61 56.43 56.37 55.37 54.81 52.89 46.09 46.46 55.36 57.65 56.99 56.43 56.59 56.45 57.17 57.77 50.26 48.45 58.80 57.75 56.93 55.38 50.59 50.53 51.06 49.36 47.91 49.07 53.44 56.75 54.97 54.45 52.69
57.03 63.65 63.80 63.21 62.15 61.25 60.13 59.64 59.38 59.70 57.97 57.43 55.73 55.71 50.89 52.64 45.19 46.82 54.94 57.65 57.51 57.86 57.39 55.72 48.45 55.06 44.46 45.55 57.95 57.41 55.44 54.62 54.58 53.39 52.59 49.25 50.53 50.48 50.02 56.90 55.85 54.68 52.54
61.57 64.25 63.04 62.55 61.63 61.09 59.59 60.12 59.99 59.85 58.23 56.93 55.27 55.43 55.81 54.40 49.80 45.19 48.81 57.86 58.81 58.05 57.45 56.33 54.35 44.46 43.37 43.74 50.08 57.49 55.69 55.43 52.65 55.39 55.05 55.31 54.71 54.45 54.78 55.77 55.57 55.58 53.14
63.65 62.53 61.81 60.79 61.34 60.59 59.65 59.95 61.28 60.03 58.13 55.97 55.79 55.46 55.91 54.58 47.34 45.01 45.19 50.44 52.76 57.62 57.31 56.13 52.69 43.19 42.29 43.37 50.26 42.83 44.46 51.50 56.23 55.53 54.93 54.46 54.56 55.26 55.02 55.73 54.86 55.65 55.99
61.31 60.55 59.71 60.04 59.83 59.87 59.69 59.63 59.18 58.81 58.42 57.69 57.39 56.05 55.02 54.82 51.65 43.56 44.28 44.83 48.45 56.05 56.15 50.43 43.56 41.18 41.56 43.90 42.81 44.10 48.07 56.33 55.97 55.02 54.42 54.70 55.61 55.83 55.95 54.97 53.86 55.10 55.24
59.75 59.52 59.99 59.27 58.88 59.45 60.07 59.80 59.10 58.52 58.79 58.21 57.19 56.21 55.17 54.00 54.08 54.06 52.04 51.35 47.31 50.26 47.27 49.07 47.44 47.53 47.91 47.63 50.10 53.26 56.84 56.29 55.79 55.33 54.96 55.04 55.85 55.41 55.01 54.96 53.95 54.76 54.13
59.98 59.91 59.36 59.07 58.75 55.75 51.30 54.96 59.01 57.39 57.93 58.70 58.25 56.85 55.33 53.53 53.64 51.34 52.93 55.85 55.16 51.60 52.15 55.10 55.10 53.84 53.58 55.04 56.43 56.39 56.19 56.09 55.61 55.67 55.47 54.78 54.86 55.03 54.04 54.44 54.36 54.34 54.12
59.96 59.54 58.78 57.31 56.73 54.95 54.29 50.64 40.61 41.26 44.10 45.73 48.27 54.04 53.99 47.40 42.29 42.83 45.01 43.01 42.65 44.64 55.22 55.40 54.78 55.22 55.15 55.59 55.61 55.50 55.65 54.08 55.41 55.77 55.55 55.17 54.45 54.45 53.95 53.70 54.52 54.40 53.66
60.16 58.81 57.61 55.99 56.81 56.57 56.11 55.73 52.64 45.77 40.93 40.61 42.65 43.19 46.82 43.90 41.20 40.84 41.02 39.93 41.38 47.73 55.63 55.52 55.22 55.75 55.99 56.07 55.77 55.63 54.80 55.49 55.99 55.69 55.55 55.47 54.99 54.72 53.24 53.63 54.15 54.69 54.28
60.43 51.59 58.33 57.83 57.43 57.80 56.81 56.19 55.15 54.99 55.21 52.89 41.82 43.16 40.44 40.47 40.11 39.57 40.84 46.08 53.41 52.92 55.85 55.59 55.81 56.39 56.63 56.09 55.81 55.39 55.33 55.77 55.89 55.63 55.43 55.53 55.28 54.23 53.86 53.97 53.38 53.84 53.95
58.77 58.88 58.98 58.24 57.31 55.02 55.44 54.96 54.83 55.23 54.29 51.10 48.32 43.40 39.57 38.81 39.39 40.11 42.29 55.49 54.62 54.76 55.26 55.46 56.37 56.69 56.75 56.75 56.63 56.57 56.25 55.77 55.79 55.91 55.67 55.65 55.43 54.49 53.97 54.59 53.98 45.88 48.61
59.59 50.78 54.87 58.04 56.73 56.41 55.93 54.72 54.50 53.68 53.21 54.07 54.41 49.89 46.43 49.44 51.83 53.13 54.48 55.83 53.04 54.16 55.49 55.79 56.55 57.25 57.35 57.16 57.19 57.07 56.21 54.84 55.65 55.95 55.87 56.14 55.69 55.24 54.13 54.21 54.53 54.29 53.59
57.89 57.25 48.16 58.76 57.70 57.17 56.55 54.86 54.98 55.10 54.76 54.92 53.03 50.27 42.11 55.32 54.07 54.78 55.06 54.40 56.23 55.55 55.79 55.87 55.85 57.23 57.71 57.32 57.17 56.99 56.39 56.43 56.63 56.87 56.75 56.47 56.31 55.67 54.60 54.96 55.08 54.94 55.04
59.04 58.07 59.19 59.20 58.48 57.86 57.07 55.55 55.79 55.59 55.06 54.04 53.05 46.73 39.75 54.33 55.69 56.17 55.83 57.67 58.44 57.11 57.00 56.62 56.88 57.28 57.67 57.60 57.37 57.00 56.88 54.57 54.57 56.27 56.87 57.29 56.21 55.79 55.75 55.45 55.47 55.24 55.36
59.80 58.58 58.67 58.98 58.79 50.74 56.25 56.25 55.85 55.39 54.37 53.54 53.20 51.39 53.69 54.97 56.64 57.35 55.57 52.19 50.94 50.01 50.85 54.24 53.67 51.74 51.44 51.26 51.77 55.22 56.71 56.65 57.72 57.84 57.70 57.84 57.99 58.03 57.37 56.29 55.87 55.01 54.25
58.63 59.29 58.58 58.50 58.54 58.43 57.31 56.41 55.06 49.87 53.86 54.07 52.99 53.48 54.93 54.00 51.33 49.64 48.56 47.09 45.73 45.27 44.92 44.15 44.10 45.14 46.19 46.13 45.96 45.87 46.45 48.59 51.61 54.36 56.46 59.05 58.89 55.70 58.29 57.91 57.21 57.14 56.91
59.12 58.95 58.42 58.65 58.61 58.29 56.43 55.85 54.93 55.03 54.86 53.98 53.56 50.87 49.74 47.35 45.96 44.90 43.51 42.55 42.05 40.83 40.60 41.27 41.51 41.14 41.46 41.58 41.86 41.88 36.26 34.49 47.15 43.92 53.75 54.91 53.49 53.04 51.98 50.74 50.49 49.39 48.45
55.04 56.03 58.01 58.76 58.35 57.88 56.52 55.53 54.97 55.29 54.20 51.33 47.91 45.25 44.90 42.74 42.14 41.74 41.42 39.71 38.85 38.62 38.55 38.38 37.97 37.56 37.29 37.56 36.57 34.59 35.00 34.94 40.49 39.00 49.70 49.61 48.80 48.10 47.80 46.24 45.40 44.86 43.88

GFSGL_sfc_wetblb_069.txt.gz
Wetbulb
61.91 64.36 64.25 62.42 64.30 67.07 68.24 68.51 68.80 69.92 70.21 69.73 70.80 71.29 71.37 71.81 72.43 72.05 71.91 71.14 69.51 66.43 65.59 66.14 68.20 68.19 66.94 66.36 65.99 65.63 64.65 64.26 61.77 63.01 63.06 64.24 64.56 64.37 63.79 64.72 63.88 64.83 64.68
58.87 61.49 64.41 62.98 63.44 66.80 67.55 67.58 68.57 69.59 69.92 69.75 70.62 70.95 71.35 71.88 71.91 71.44 70.70 70.12 68.17 64.90 65.56 67.84 67.50 66.42 67.10 66.78 65.87 65.85 65.09 64.89 63.39 62.50 61.81 62.61 63.00 64.32 64.19 63.80 63.24 64.21 64.44
57.07 59.10 61.15 63.87 63.35 65.96 66.92 67.76 68.78 69.31 69.60 70.09 70.43 70.62 71.07 71.43 71.36 71.19 70.62 68.91 67.19 66.24 66.53 68.04 67.38 66.79 66.24 65.84 65.75 65.29 65.28 64.89 64.29 63.20 61.79 62.72 62.15 63.48 62.01 62.26 61.30 63.20 64.16
55.31 54.91 58.31 64.36 63.22 65.88 67.30 68.94 69.48 69.21 69.37 70.07 70.44 70.77 71.17 71.25 70.78 70.57 69.82 67.36 65.81 65.25 66.67 67.99 67.19 66.42 66.29 66.24 65.75 66.08 65.73 64.38 63.87 62.93 62.29 61.10 60.89 61.77 62.62 58.87 58.74 61.10 61.20
52.79 53.46 57.45 65.92 62.73 64.78 66.95 68.26 68.97 69.31 69.63 70.03 70.26 70.81 71.38 70.65 69.62 70.05 67.70 65.72 65.54 65.36 67.27 66.86 67.10 65.11 61.67 63.77 65.67 65.89 65.63 64.02 62.96 62.15 60.62 59.93 59.50 58.72 59.96 60.71 59.97 59.58 60.23
53.04 53.22 56.91 66.31 62.94 65.29 67.16 68.16 68.87 68.82 69.23 69.91 70.14 70.29 70.28 68.99 53.57 56.05 63.53 65.92 66.28 66.60 66.07 66.24 66.40 60.26 59.50 54.80 55.94 57.78 62.65 64.71 62.12 61.69 59.57 60.28 60.03 59.45 59.98 61.42 59.30 58.31 57.69
51.90 53.55 57.98 65.96 64.91 65.56 67.32 67.75 67.21 67.38 68.00 68.82 70.15 69.82 69.95 69.43 51.28 52.39 56.11 66.71 67.05 66.93 66.87 66.39 65.17 64.64 62.33 63.64 54.32 52.91 54.71 54.08 57.84 63.05 59.92 61.45 61.26 59.20 59.85 59.06 58.55 60.28 58.76
51.28 53.75 59.45 65.12 65.51 66.37 66.98 66.10 66.74 67.21 67.32 68.15 68.94 70.19 69.29 66.38 49.25 49.74 53.21 67.39 67.05 66.78 66.97 66.65 66.04 65.54 64.74 64.05 63.56 63.12 63.71 63.33 61.44 62.17 61.21 63.37 62.54 60.32 62.66 60.74 62.10 60.82 59.70
51.53 56.29 59.29 64.26 64.63 64.56 64.52 66.20 66.98 66.36 66.85 67.50 68.68 66.54 64.63 57.66 46.50 47.26 57.59 66.78 65.81 65.54 65.67 65.85 65.73 65.19 51.30 48.71 62.96 61.02 60.64 60.80 50.67 51.25 52.24 52.29 50.72 51.68 58.01 60.73 56.73 57.15 57.62
54.77 59.08 59.99 62.77 64.80 65.08 66.60 66.59 65.89 66.14 66.01 66.25 62.81 66.73 58.69 60.64 43.96 46.72 58.03 65.53 64.81 64.22 64.42 63.52 49.94 59.40 44.72 45.09 63.09 60.78 59.01 57.87 56.79 56.43 56.13 53.24 53.07 54.22 50.87 62.24 58.90 57.42 57.90
54.99 60.09 61.07 63.65 64.66 65.39 64.84 64.45 64.75 64.23 64.40 61.93 59.64 60.18 61.70 60.75 52.80 45.81 49.44 65.24 64.24 62.57 61.28 60.10 60.66 46.72 43.82 43.46 49.91 61.63 58.07 57.59 55.43 57.77 56.97 57.71 59.46 58.96 59.36 61.82 63.36 62.02 59.66
57.62 59.20 62.86 65.19 64.49 63.65 62.94 63.13 63.17 63.25 61.47 59.62 59.93 59.02 58.43 57.75 50.66 45.89 47.44 54.11 56.29 62.86 61.53 60.84 58.37 43.44 42.01 42.91 50.71 45.09 45.09 52.74 58.17 57.86 56.89 56.49 57.12 57.93 59.19 60.35 61.76 62.52 62.49
59.45 59.51 62.85 63.68 62.86 62.78 61.51 61.01 61.29 61.02 59.83 60.22 60.53 58.37 56.96 57.62 56.28 44.65 44.91 46.54 50.14 62.40 62.41 54.53 43.57 41.46 41.82 45.81 43.08 43.46 47.03 58.60 58.00 57.53 56.11 56.31 57.89 59.62 60.23 59.82 62.19 62.07 61.53
58.07 58.81 62.52 61.37 61.30 62.04 61.72 62.20 61.42 61.32 61.52 61.10 59.54 58.06 57.50 57.79 58.03 56.74 55.22 53.88 48.52 54.84 48.67 52.11 49.64 48.84 47.81 49.90 49.48 52.77 60.60 60.95 59.84 58.14 58.09 58.87 58.75 57.38 57.21 59.41 59.56 59.47 58.70
57.91 60.19 60.18 60.43 60.78 57.75 57.86 62.74 64.23 65.03 61.28 61.20 60.91 60.55 58.52 58.11 58.73 54.22 55.29 59.66 61.06 54.33 53.16 54.40 55.53 55.07 54.10 55.93 57.66 59.64 60.49 59.02 58.72 58.67 58.35 57.67 56.93 56.88 56.50 57.09 58.18 59.61 58.78
57.52 59.63 59.07 57.45 57.27 58.17 57.28 53.39 41.36 45.48 45.63 45.99 49.52 57.40 60.00 50.61 44.18 44.36 44.00 43.82 43.27 44.54 56.74 55.73 54.86 55.17 55.21 56.39 57.42 57.88 59.20 56.63 58.51 58.20 57.70 56.90 56.03 55.63 55.75 56.94 58.37 59.01 57.30
58.43 59.28 58.88 56.69 57.95 59.06 58.93 57.74 53.35 47.01 41.00 40.90 42.37 44.18 46.54 46.30 42.01 41.82 41.64 41.46 42.01 47.97 57.65 55.87 55.25 55.91 56.33 57.17 57.65 58.85 58.66 59.02 58.57 57.77 57.42 57.29 56.93 56.34 54.92 56.52 57.32 56.44 57.20
60.66 51.21 58.82 60.23 60.77 61.14 61.23 59.42 58.57 57.52 56.15 54.44 42.28 45.21 41.56 42.19 41.46 40.56 40.56 44.60 53.32 53.92 58.13 56.61 55.73 57.13 57.53 57.50 57.85 59.07 59.70 58.66 58.01 57.80 57.79 58.31 58.72 56.20 55.47 56.21 58.24 57.29 58.28
59.01 59.99 61.66 61.56 61.87 60.23 60.62 60.14 59.96 59.00 57.40 53.51 50.37 44.57 41.16 39.27 39.47 40.01 42.91 57.70 56.94 56.99 56.71 57.35 57.40 57.93 58.65 59.50 59.73 58.11 57.93 57.61 57.52 57.94 57.85 57.84 57.53 57.22 57.31 56.09 55.60 46.67 50.36
60.01 51.26 56.94 61.39 59.19 59.55 59.65 59.36 58.82 57.90 57.13 57.54 57.35 50.73 49.11 51.69 54.38 56.72 58.37 58.41 58.17 57.50 56.75 57.49 58.46 58.96 59.16 58.72 58.15 58.10 58.49 57.80 57.70 57.86 57.68 57.49 57.43 57.07 56.68 56.42 56.51 55.87 55.40
60.12 59.24 50.27 60.55 59.03 58.71 58.74 58.37 58.52 58.23 58.11 57.94 54.50 50.35 43.27 57.18 56.31 57.47 58.05 57.09 56.79 57.49 56.75 57.91 58.85 60.68 59.69 61.31 60.03 59.71 58.43 58.25 58.13 58.23 57.77 57.41 57.58 57.28 58.02 58.44 57.77 57.47 56.89
61.71 61.87 62.63 61.98 59.52 58.39 57.98 58.20 57.97 57.83 56.32 54.56 51.74 46.85 38.38 57.81 58.81 58.75 58.11 58.26 59.39 59.73 59.05 58.20 58.73 60.10 61.35 60.84 59.47 58.78 58.37 58.25 58.42 58.49 58.21 58.51 58.73 58.47 57.98 57.45 57.09 56.63 56.94
63.44 63.04 61.32 58.80 58.92 52.22 57.49 58.57 57.49 56.29 54.84 54.01 53.81 54.55 57.00 58.22 57.78 53.51 50.86 50.52 52.08 51.96 52.59 54.36 54.81 53.47 54.15 56.41 60.37 60.16 59.19 58.80 59.27 59.93 59.38 58.99 58.61 58.38 58.31 57.59 58.30 57.19 57.22
63.58 62.72 59.68 58.06 58.11 57.71 58.09 57.35 56.06 50.26 55.02 55.31 55.67 56.99 56.87 52.82 49.68 47.86 45.37 45.57 45.29 46.25 45.16 45.32 45.32 46.23 47.44 50.24 52.16 52.18 56.35 55.85 61.20 60.98 60.53 59.94 59.46 56.77 60.00 59.36 58.50 58.61 58.37
63.36 62.71 60.87 57.65 57.32 56.80 55.78 55.63 55.52 55.27 55.31 54.37 53.06 50.95 49.13 46.89 44.44 43.17 42.42 41.56 42.20 41.72 41.73 42.55 42.02 41.83 43.33 45.18 46.53 46.92 37.75 35.84 52.50 46.97 58.05 57.09 54.14 52.87 52.71 51.97 50.92 49.58 49.30
63.31 62.28 59.19 58.14 56.93 56.15 56.08 55.57 55.36 53.34 51.94 50.37 48.46 45.95 44.75 43.51 41.36 40.62 40.05 39.81 38.50 37.60 37.27 38.88 38.97 38.68 38.43 38.11 38.42 34.75 34.57 35.52 41.10 38.79 50.80 48.89 47.66 45.98 45.35 44.21 43.78 43.72 43.57

GFSGL_sfc_wetblb_072.txt.gz
Wetbulb
60.78 62.30 62.85 63.66 65.56 67.73 68.05 68.21 70.23 72.18 71.14 71.18 72.55 72.95 73.14 72.64 73.38 73.88 74.85 73.96 73.23 73.16 72.93 71.42 71.03 71.89 70.53 69.65 68.93 68.59 67.06 66.33 63.15 65.64 68.01 66.53 65.95 65.47 66.04 66.39 67.58 67.90 66.91
59.74 60.50 61.60 63.11 63.59 65.16 67.91 68.18 69.49 70.32 70.58 70.85 71.88 72.22 72.19 72.27 73.52 73.66 73.63 73.52 72.75 71.96 70.88 70.85 69.60 70.18 70.49 70.34 68.55 68.73 67.43 67.56 65.01 64.19 65.37 63.68 64.62 66.63 66.35 65.49 64.87 66.48 67.67
58.13 58.91 60.40 61.56 61.64 63.16 67.04 68.61 69.02 69.33 69.93 70.82 71.49 71.77 71.42 71.93 73.18 73.76 73.60 72.95 72.72 72.17 71.04 70.28 70.13 70.17 69.66 68.87 68.62 67.60 67.10 66.72 66.59 64.73 64.01 63.98 65.99 66.30 65.09 64.02 63.91 65.14 65.33
56.85 57.75 58.77 60.32 60.92 61.67 66.86 68.68 68.50 69.03 69.46 70.48 71.91 71.85 71.74 72.15 72.94 73.28 73.11 72.23 72.37 71.58 71.18 70.53 70.79 69.86 69.22 68.78 68.10 67.60 67.33 66.63 66.07 64.79 64.13 62.61 63.95 65.06 64.70 62.05 61.02 63.17 62.81
55.61 56.02 57.62 59.83 60.84 61.09 65.70 68.16 67.67 69.18 70.08 71.34 71.67 71.58 71.98 72.25 72.27 72.87 72.28 72.07 71.98 70.56 70.38 69.73 70.26 67.74 63.71 65.49 67.22 67.74 68.34 66.11 64.58 63.69 62.46 62.61 62.63 61.73 62.93 62.61 59.69 60.99 62.15
53.68 54.23 57.34 59.51 59.25 60.06 65.14 67.23 68.13 69.52 71.53 72.10 71.71 71.04 71.81 71.34 55.42 57.89 68.14 71.97 70.74 69.77 68.43 68.58 69.24 63.01 62.33 57.86 58.17 57.30 63.03 67.32 65.92 63.78 64.39 62.98 62.42 62.03 64.19 62.32 61.65 59.86 59.17
52.25 54.15 56.51 57.74 57.47 59.44 64.32 65.92 68.13 71.75 73.25 72.89 72.52 71.44 72.18 72.19 53.24 54.13 57.56 71.33 70.49 69.78 68.63 68.43 67.75 66.79 64.31 66.69 55.70 53.66 55.28 55.11 56.91 66.23 64.72 64.36 62.92 63.71 62.30 63.25 61.92 61.17 60.57
52.30 53.89 56.50 56.59 56.74 58.78 65.03 66.38 70.60 72.29 73.07 72.86 72.75 72.37 72.21 70.11 50.89 51.98 55.15 70.73 69.38 68.97 69.23 68.77 68.23 67.51 66.85 66.80 66.47 65.46 65.54 65.47 64.92 65.03 65.70 64.40 64.43 66.20 63.49 63.53 62.46 62.26 62.07
51.26 54.40 55.71 55.96 56.69 58.64 65.11 68.64 71.35 71.21 71.55 72.26 71.84 71.74 71.38 65.76 49.26 50.53 60.81 69.24 68.01 67.89 67.97 68.32 68.12 67.54 54.43 51.06 65.53 63.79 64.90 63.91 53.08 49.81 50.56 50.89 49.75 52.64 58.06 62.12 59.73 58.58 58.39
52.49 53.92 53.73 54.49 57.31 58.77 65.71 68.14 69.57 68.99 69.46 70.51 70.99 71.80 64.87 66.90 46.71 50.27 60.17 66.48 66.71 66.20 67.59 67.66 51.97 61.33 46.90 47.09 65.18 63.63 61.40 62.04 61.06 61.36 61.83 56.08 54.46 56.93 51.00 64.31 59.89 57.48 57.62
51.48 53.38 54.71 54.79 59.06 63.29 65.81 66.68 66.74 67.78 68.36 68.37 68.29 68.86 68.04 64.67 54.40 48.44 49.24 66.56 65.71 65.64 65.76 65.66 65.69 46.51 44.37 44.91 47.54 64.08 61.62 61.11 55.63 59.17 59.23 60.64 61.35 61.18 61.44 62.78 60.90 59.59 58.06
52.50 53.03 55.00 57.88 62.54 64.87 67.37 67.50 67.46 66.66 64.79 64.76 63.74 64.84 64.00 62.82 52.95 49.24 47.09 53.20 58.03 66.26 65.41 65.39 62.72 44.50 43.64 44.19 51.43 45.60 46.00 53.63 60.39 59.38 57.30 57.10 57.74 58.62 60.18 62.07 64.87 64.67 63.33
53.93 56.80 59.21 62.31 65.42 64.64 65.27 64.47 64.42 64.88 63.72 63.11 63.87 60.27 61.05 63.23 62.31 45.86 45.27 48.28 51.81 64.84 65.93 56.60 44.75 42.12 41.93 45.62 43.99 43.82 46.51 59.66 59.17 57.28 56.88 57.08 58.85 59.48 60.39 61.05 62.76 62.43 62.70
54.31 56.29 61.56 62.79 63.65 63.54 63.77 63.58 63.12 63.80 64.39 65.04 62.09 60.89 63.01 63.01 62.16 62.40 61.92 61.31 51.31 58.99 52.15 56.81 53.40 51.88 49.26 54.39 51.97 51.63 60.45 60.94 59.80 60.41 59.69 58.33 59.83 60.10 59.35 60.29 60.56 60.88 60.07
55.04 59.20 59.30 62.49 62.43 60.67 59.18 61.37 63.04 65.39 62.74 62.43 63.42 64.61 63.69 63.59 63.14 58.58 59.65 63.81 64.52 58.88 58.89 58.92 58.08 56.95 56.69 57.31 57.54 60.23 61.29 61.31 60.32 60.87 60.53 59.89 58.86 59.52 60.02 62.13 61.50 61.42 59.86
54.60 58.49 59.68 57.68 56.84 57.84 57.44 54.65 43.81 49.53 47.81 47.32 51.35 60.27 63.81 52.31 46.18 46.36 44.19 43.64 44.73 45.82 60.36 59.44 57.99 56.77 56.41 57.21 59.30 60.25 60.80 58.47 60.67 60.74 59.74 59.54 58.09 57.44 57.97 58.23 58.66 60.17 58.51
56.88 58.41 57.72 57.34 59.14 59.51 60.09 58.48 55.80 51.17 42.37 41.22 42.92 46.40 48.89 48.37 43.82 42.92 42.01 42.01 43.28 46.55 61.36 59.14 57.87 57.21 56.89 59.91 59.46 59.80 60.12 60.47 61.57 61.00 59.53 58.70 57.63 57.15 56.26 58.75 60.05 60.80 60.65
56.05 50.89 59.14 59.83 60.53 61.10 60.47 60.64 61.31 60.93 58.68 55.93 44.37 48.57 41.87 41.47 40.92 40.92 41.65 46.40 55.74 56.78 60.71 58.40 57.39 57.61 58.16 60.27 60.06 61.49 60.92 60.48 60.39 59.32 59.33 58.90 58.50 57.21 57.40 57.39 59.23 58.11 56.79
57.69 59.35 59.98 61.02 61.50 60.74 63.79 63.50 63.52 62.70 61.09 56.38 52.77 46.78 42.40 39.84 40.38 41.47 44.00 60.39 58.88 59.18 59.35 58.56 57.88 58.50 59.09 59.39 60.99 61.67 61.50 60.98 59.53 58.99 59.13 59.53 59.24 57.66 56.96 57.60 58.17 47.75 51.38
58.88 52.87 56.05 62.72 62.96 63.11 62.63 61.86 61.40 60.85 60.33 60.65 59.07 52.58 52.13 53.45 56.26 56.61 59.07 58.84 59.39 58.74 58.25 58.84 58.68 59.37 61.39 61.68 61.06 60.42 60.33 58.20 59.58 59.68 59.46 59.67 58.77 58.28 58.27 57.63 58.28 56.81 57.49
60.53 61.03 53.12 62.64 62.99 61.97 61.82 61.29 61.79 61.89 61.40 60.78 58.98 56.72 46.89 60.84 59.33 58.30 58.31 59.26 59.41 58.32 58.17 59.06 60.23 61.83 61.96 61.15 60.56 59.61 59.92 60.54 60.59 60.10 60.31 59.98 59.32 57.85 58.65 58.80 57.80 58.38 58.56
61.57 62.40 63.16 63.12 62.77 61.80 62.01 63.07 62.40 61.57 61.41 58.99 56.06 55.79 39.11 60.49 60.24 59.68 59.07 58.77 59.51 60.44 60.27 59.97 60.34 61.35 62.16 62.22 61.18 61.18 61.03 60.68 59.96 60.19 59.79 59.64 59.35 59.40 59.37 58.95 58.69 58.84 59.21
62.66 61.60 62.41 62.54 63.27 55.19 61.09 62.23 61.34 61.12 60.29 57.01 56.58 54.95 59.91 59.53 59.48 56.29 54.88 55.79 54.67 54.13 54.18 55.98 56.94 58.18 62.29 63.01 62.81 62.27 60.96 60.86 60.66 60.55 60.03 59.57 59.88 60.38 60.43 58.35 58.03 57.88 58.43
63.80 63.54 62.72 62.32 62.36 61.36 59.97 59.52 59.50 54.64 58.76 56.69 56.45 57.62 57.10 56.97 51.03 48.14 49.13 48.48 49.06 47.96 47.92 46.82 48.17 49.71 51.32 58.06 59.76 58.44 59.52 59.65 61.50 61.14 61.07 60.49 59.84 56.99 59.01 58.11 58.08 57.86 57.25
64.42 63.59 63.07 61.12 59.14 58.63 57.92 58.01 57.18 56.82 56.52 56.04 54.38 52.62 52.10 50.58 46.34 43.30 44.23 44.23 46.26 43.59 43.73 44.22 45.03 46.09 47.58 50.76 53.67 52.06 40.34 37.12 57.05 48.83 60.36 54.67 52.72 52.13 52.34 51.20 49.21 49.24 49.86
64.45 62.63 59.39 59.18 58.43 58.21 57.00 56.22 55.12 54.14 51.92 50.58 51.10 50.50 48.18 45.38 44.10 41.62 40.48 42.76 44.07 42.60 40.83 40.90 41.74 42.50 44.05 41.59 39.54 35.12 34.58 36.03 44.92 39.13 51.27 50.66 48.41 46.57 45.69 45.15 44.86 44.50 44.21

GFSGL_sfc_wetblb_075.txt.gz
Wetbulb
59.92 61.64 61.73 62.29 63.45 64.68 66.38 67.90 69.59 71.41 71.32 70.80 71.27 73.69 74.56 76.52 77.28 76.47 75.57 73.51 72.78 73.99 74.59 74.34 73.77 75.07 71.41 70.63 69.19 69.56 67.06 66.70 63.98 67.78 67.44 68.78 67.84 66.85 67.36 67.55 67.68 68.30 67.07
58.75 58.93 60.58 61.85 61.91 64.22 64.59 65.70 68.39 69.45 70.91 71.35 71.03 70.56 72.79 74.02 75.68 74.63 73.77 72.38 73.37 73.63 73.59 72.51 72.97 71.64 72.98 73.64 70.27 71.74 68.45 71.89 65.94 68.15 67.45 66.15 65.89 67.38 67.12 66.58 65.84 66.53 68.13
56.47 57.32 58.77 61.63 61.61 63.58 64.76 65.26 66.07 68.15 69.86 70.08 70.57 70.86 72.14 73.55 74.58 74.74 73.53 73.32 74.42 74.11 73.00 73.04 72.52 72.44 72.60 72.03 70.78 69.29 67.80 68.07 67.40 65.22 65.96 67.80 65.69 67.22 65.54 66.14 66.20 65.98 66.52
55.24 54.96 56.37 59.53 61.04 62.21 63.56 64.64 65.66 66.27 69.75 69.39 70.95 70.71 72.27 73.63 73.98 73.78 73.46 74.12 74.59 73.83 74.39 73.05 71.64 71.75 71.51 70.99 70.43 69.76 69.56 68.12 67.31 67.45 66.41 65.63 64.71 66.85 65.34 63.57 61.62 64.94 64.14
54.60 54.22 54.87 58.41 59.06 60.49 62.70 63.95 64.80 66.14 70.33 69.12 69.91 71.24 72.74 73.47 72.94 73.73 74.16 74.56 74.75 74.06 73.81 72.00 72.65 70.24 65.38 67.82 68.24 69.68 69.42 66.98 65.74 65.96 64.95 65.83 63.66 63.06 63.04 64.12 62.07 63.03 63.05
54.01 53.19 54.52 55.75 56.62 59.35 62.05 64.11 63.81 65.42 70.19 69.45 69.59 70.61 72.13 72.69 59.67 59.73 69.97 74.42 74.20 72.99 72.15 71.62 71.18 64.86 63.10 59.79 58.29 57.49 63.58 68.04 66.51 66.96 65.65 63.43 64.86 64.72 66.32 64.02 61.97 60.23 59.17
53.31 53.32 53.88 54.79 55.10 58.05 60.46 62.07 63.56 65.65 69.92 69.99 70.89 72.06 73.02 74.14 53.51 54.51 58.95 74.67 73.48 72.79 71.32 71.38 69.68 68.74 65.45 67.61 56.79 55.49 55.96 56.12 58.34 67.48 65.82 65.35 62.07 65.64 65.25 64.32 64.45 61.26 63.53
53.17 52.89 53.11 52.04 53.73 56.99 59.58 61.39 64.22 65.84 68.91 69.97 71.75 73.80 73.99 72.98 52.16 53.24 57.06 74.15 73.15 71.58 71.90 70.83 70.05 68.78 67.46 66.58 66.42 65.62 65.85 66.18 65.26 65.31 67.14 67.16 67.24 67.35 65.78 66.10 65.86 64.39 64.14
51.51 51.47 50.03 49.93 51.10 56.09 59.00 61.77 63.82 66.38 68.26 70.16 71.84 72.63 72.76 68.86 50.55 52.82 62.81 72.38 70.87 70.51 70.10 69.89 69.37 68.55 55.99 52.91 66.65 65.77 65.43 63.79 52.85 50.52 50.15 50.35 50.39 51.12 57.88 64.15 63.42 62.27 59.82
51.16 50.68 50.55 51.58 53.31 56.53 58.71 60.10 63.14 65.48 68.30 70.90 71.63 72.27 66.79 69.05 48.56 52.43 63.29 70.05 69.23 68.49 69.25 67.19 52.20 63.41 48.58 50.21 66.48 65.65 62.97 64.21 63.93 62.81 62.55 57.82 55.58 54.80 53.04 64.63 62.78 61.51 60.64
50.64 50.52 51.25 53.12 54.75 58.15 59.63 58.42 62.51 63.97 68.74 70.20 70.57 71.55 72.01 68.00 61.48 51.99 50.60 69.84 68.07 66.83 66.28 66.53 66.12 47.26 45.68 46.40 49.52 65.95 63.06 63.28 59.11 62.77 62.24 61.79 62.48 61.73 61.59 63.07 63.84 61.38 58.38
52.84 53.48 54.09 55.94 57.17 58.57 57.66 57.04 59.06 63.51 66.37 68.99 68.92 68.81 69.67 68.12 56.84 47.22 48.20 54.77 59.06 66.90 64.77 65.41 59.57 44.74 43.69 44.95 52.10 45.82 47.31 55.32 60.89 60.00 59.62 59.84 59.35 61.00 61.78 63.82 63.40 62.74 62.69
53.77 54.20 53.94 55.18 55.44 55.36 55.76 55.74 58.73 64.48 64.79 65.48 65.95 64.55 63.99 66.07 62.67 47.13 47.69 48.54 51.07 65.70 65.72 52.98 44.99 43.32 43.49 48.10 44.57 44.59 48.13 61.39 60.14 59.17 58.48 57.80 58.14 59.97 60.83 62.09 63.65 62.45 62.36
52.57 53.81 53.48 52.68 54.28 57.74 56.24 58.06 63.48 64.00 63.83 64.39 64.24 62.48 63.06 64.28 63.20 64.72 61.27 60.20 53.77 58.23 52.94 58.92 54.50 53.18 51.84 55.34 54.71 53.40 61.89 61.44 59.69 60.53 59.71 60.73 60.19 59.75 59.51 61.59 60.91 61.71 60.64
52.83 53.19 53.48 54.90 54.04 54.38 56.90 62.71 64.85 65.12 64.43 66.81 66.91 65.58 64.29 63.07 63.99 59.96 61.50 64.99 65.44 60.26 60.76 60.95 59.75 59.84 59.63 59.33 60.03 60.25 60.96 61.09 60.92 60.79 61.18 59.69 59.10 58.60 59.47 61.38 60.96 61.87 60.15
53.11 54.81 55.56 58.06 58.47 58.94 57.36 52.73 43.47 46.04 47.13 49.27 53.98 61.89 64.55 54.42 47.64 46.22 43.49 45.03 47.35 49.06 61.31 61.11 58.81 58.93 59.33 58.96 59.61 61.30 61.29 58.51 60.73 60.84 60.24 59.45 59.44 58.52 60.35 60.72 60.89 60.43 59.53
56.53 54.77 55.74 58.02 59.04 59.30 58.93 57.34 54.52 50.37 44.95 44.05 46.95 48.72 51.01 49.43 43.32 42.23 43.14 44.05 44.41 48.47 61.58 60.09 58.24 58.43 59.55 60.54 61.00 61.69 60.35 61.59 61.57 60.75 59.87 59.81 60.23 59.78 58.28 59.12 59.00 59.09 60.37
55.89 49.74 55.23 60.20 60.16 59.97 60.45 61.28 62.48 61.06 59.33 57.57 44.36 47.80 43.09 42.78 41.87 41.15 42.78 49.27 57.47 56.65 61.71 59.89 59.33 58.89 59.81 59.84 61.29 61.50 60.57 61.35 61.28 60.99 60.61 60.48 59.63 58.47 57.55 58.41 60.14 59.72 60.19
56.68 56.95 59.94 61.11 61.67 60.19 62.46 63.15 62.75 62.55 59.83 55.41 52.69 46.54 42.59 40.06 40.78 42.23 45.79 61.85 60.28 60.89 60.84 59.88 59.91 60.25 60.05 60.75 62.26 61.13 61.24 60.79 60.36 60.48 59.98 59.59 59.22 58.39 58.00 58.60 59.05 47.79 51.52
57.92 50.73 54.41 61.90 62.79 63.29 61.66 62.89 62.80 61.21 60.58 59.85 56.55 51.89 50.27 52.54 54.98 57.02 59.80 60.77 60.55 61.12 61.17 59.69 59.41 59.15 59.18 62.55 61.91 61.87 61.37 60.78 60.61 60.11 60.02 60.17 60.53 59.63 58.22 58.36 59.12 58.06 58.85
58.71 59.10 49.41 62.75 63.02 62.51 62.72 62.94 62.54 62.62 61.35 59.84 57.08 54.97 46.22 59.14 58.09 59.50 60.35 59.47 60.93 60.67 61.24 60.85 60.15 60.76 61.70 62.92 62.31 61.06 61.75 60.91 60.75 60.89 60.56 60.32 60.03 58.71 58.88 59.95 58.22 58.70 58.63
59.62 60.21 61.98 62.67 62.99 63.36 63.87 63.59 63.12 61.90 60.80 59.38 59.99 57.22 40.24 61.06 59.92 59.38 59.61 61.61 62.06 61.07 61.14 61.51 61.97 62.09 62.86 62.77 62.14 61.51 60.75 61.02 61.14 61.03 60.55 60.58 60.02 59.23 59.01 58.88 58.34 57.73 57.61
61.68 61.81 62.11 63.20 63.23 55.75 62.38 63.28 62.31 59.99 59.95 59.67 59.94 59.88 61.05 60.99 59.59 57.69 56.56 57.71 57.36 56.49 56.85 59.65 59.36 62.40 63.63 63.62 63.87 62.86 61.47 61.71 61.56 62.07 60.90 60.58 60.12 60.35 60.77 60.28 59.20 58.41 58.41
62.70 62.95 62.69 63.35 63.24 62.80 62.69 61.19 60.19 54.86 60.64 60.68 60.57 59.08 56.97 57.21 55.50 53.56 52.86 50.81 49.84 48.28 48.37 49.97 51.23 52.58 61.67 62.31 62.85 62.17 58.87 61.84 63.03 62.37 62.08 61.43 60.65 59.00 60.65 59.67 57.99 56.24 57.39
62.46 62.60 61.72 62.19 61.68 61.07 60.89 60.35 60.25 59.92 59.19 57.79 57.64 55.73 53.81 49.85 48.24 47.88 48.56 47.31 46.20 45.38 44.79 46.03 48.26 49.27 51.22 58.04 57.64 56.70 40.49 37.52 55.48 49.69 59.24 57.72 55.28 55.86 52.44 50.09 49.13 49.02 49.92
64.28 62.91 62.32 60.85 59.76 59.46 59.01 58.49 57.24 56.40 54.80 53.76 54.28 53.85 50.09 44.22 43.22 43.40 45.34 43.94 42.12 41.68 40.94 41.53 43.49 43.69 42.60 44.02 40.76 35.57 34.94 37.36 48.05 40.36 51.87 50.57 48.47 47.02 46.44 45.28 45.10 44.11 44.69

GFSGL_sfc_wetblb_078.txt.gz
Wetbulb
62.29 62.41 62.15 62.33 63.61 64.31 64.53 64.98 65.63 67.05 67.09 68.38 68.13 67.82 66.70 68.74 73.59 73.14 72.72 73.00 72.55 72.90 72.16 71.10 70.75 72.04 71.53 70.37 69.67 69.17 66.71 66.26 62.78 63.76 66.12 67.44 65.78 65.02 65.35 64.99 65.15 65.15 63.90
60.06 59.85 61.37 62.63 62.06 62.67 63.22 63.93 64.82 64.71 65.75 66.46 67.48 68.65 68.24 67.10 70.66 72.82 72.75 73.48 72.59 72.00 71.27 70.66 71.22 72.43 71.83 70.54 69.26 67.98 66.48 66.90 64.00 62.10 64.83 64.58 64.53 65.22 64.82 63.80 64.22 64.87 65.13
57.27 57.09 57.87 60.42 61.27 60.37 61.88 62.88 63.58 64.03 63.96 64.98 66.18 67.78 68.19 68.62 67.26 71.59 73.31 73.87 72.35 71.49 70.95 71.48 71.77 71.63 70.55 69.29 69.43 68.33 67.18 66.76 66.40 63.91 63.63 64.86 64.15 64.66 64.17 63.94 63.90 63.60 65.04
56.86 56.32 57.38 57.85 58.01 58.49 59.49 60.77 61.34 62.02 63.33 64.15 64.62 66.40 67.74 68.49 69.23 70.12 72.23 73.10 71.81 71.22 72.08 72.31 71.76 71.33 70.32 70.08 68.77 67.47 66.64 65.43 65.16 63.58 63.54 63.44 62.89 64.35 63.79 61.58 60.12 62.61 62.89
56.41 55.87 56.23 56.71 56.55 56.14 56.23 57.74 59.08 60.35 61.76 63.14 64.16 64.72 67.93 67.50 69.46 69.61 71.47 72.21 71.21 71.21 72.35 72.28 71.71 69.61 66.54 68.11 68.73 67.32 66.26 65.41 64.17 63.38 62.27 62.09 61.77 61.71 61.12 61.79 60.45 61.35 62.09
56.62 55.66 56.22 55.78 55.00 54.67 55.15 56.08 57.50 58.15 60.47 62.18 63.05 64.08 66.69 67.79 59.93 58.31 68.01 71.73 71.28 71.43 71.58 71.46 70.68 64.48 63.06 59.38 57.58 59.14 64.55 65.99 64.29 63.26 62.56 61.27 61.34 61.56 62.42 61.48 60.93 59.06 57.70
56.77 56.39 55.87 55.18 54.41 54.17 54.98 55.28 54.90 56.32 59.49 60.88 62.21 64.11 66.30 66.79 56.27 52.65 58.23 71.67 71.69 71.57 71.43 70.46 69.43 68.40 63.30 62.09 56.84 57.62 55.98 57.79 60.24 64.62 62.82 62.03 61.41 62.98 62.06 61.05 60.95 59.07 58.17
55.60 55.32 54.94 54.40 53.30 53.57 53.93 52.74 52.49 55.41 58.40 59.90 61.51 63.88 66.42 67.42 55.74 49.59 55.39 71.29 71.31 71.20 71.23 70.49 68.93 67.32 66.55 66.15 64.58 64.30 63.83 62.63 62.00 63.38 64.73 64.02 64.31 64.48 63.40 62.86 62.37 61.45 61.22
53.59 54.45 54.55 53.84 52.52 52.51 51.93 51.15 51.40 52.65 56.95 59.40 61.79 63.56 66.02 67.53 50.89 49.30 58.76 70.43 69.69 70.54 70.73 70.38 69.29 67.40 55.65 54.70 65.21 63.66 63.75 60.39 51.34 51.08 50.18 49.67 50.03 49.13 55.52 62.16 60.74 59.50 58.40
53.20 53.44 53.38 53.02 52.49 51.73 51.43 51.03 52.14 55.15 57.24 60.13 61.71 64.12 63.76 67.52 47.44 49.68 63.54 70.13 69.24 69.24 69.42 68.44 57.36 65.25 49.18 50.76 65.54 64.37 62.83 62.20 60.79 60.76 59.89 56.12 55.84 55.19 52.57 61.68 61.41 59.53 57.95
53.25 52.87 51.91 52.26 52.09 51.68 50.69 50.84 51.54 54.73 57.36 58.94 60.66 63.41 66.21 67.00 57.94 49.40 56.29 69.83 69.21 68.20 67.42 65.59 62.48 48.89 48.27 47.32 54.62 65.15 62.59 62.93 58.92 61.78 61.61 61.31 61.45 60.35 61.23 62.11 62.20 60.87 58.80
51.61 51.18 51.58 51.51 51.08 51.75 51.31 52.08 53.95 56.49 57.34 57.62 58.98 62.01 66.21 66.55 56.50 49.80 51.81 60.27 60.88 67.24 66.06 65.75 56.18 44.96 44.78 45.68 54.58 45.32 48.04 56.71 61.76 61.17 60.22 59.74 60.22 59.91 60.64 61.76 60.91 61.40 61.60
50.02 49.57 50.62 51.66 52.21 53.11 53.40 54.14 55.07 56.61 56.63 56.64 57.74 61.94 64.77 65.56 57.95 50.76 48.49 51.33 54.38 65.34 65.11 55.01 43.82 43.15 43.87 46.54 44.23 45.14 49.05 60.91 59.93 58.57 57.51 57.99 58.31 59.11 60.07 60.54 61.60 61.58 61.18
48.99 49.51 50.34 50.41 52.14 54.21 54.67 55.12 55.55 55.51 55.76 56.14 57.76 62.52 64.17 62.37 60.08 59.60 56.79 55.36 50.50 52.12 50.20 53.59 53.13 52.49 51.97 51.24 52.65 53.07 61.31 61.14 59.51 58.73 58.42 58.82 59.33 58.45 58.07 59.39 59.31 59.90 59.64
48.88 49.28 50.33 51.25 52.33 52.96 54.19 54.42 55.60 57.18 55.41 58.73 61.96 63.60 63.13 62.54 62.55 58.30 60.09 63.01 62.96 57.91 57.16 58.86 59.44 59.67 58.41 58.93 59.16 59.64 61.12 60.41 59.47 60.24 59.47 58.56 58.54 58.27 57.85 58.71 59.07 59.50 58.45
49.44 49.93 50.62 51.88 53.02 53.46 53.84 55.11 43.51 47.21 48.74 48.89 52.39 60.85 63.49 54.97 49.05 48.15 46.99 47.23 47.80 49.96 60.06 59.34 58.52 58.49 58.13 58.57 58.61 58.92 60.09 58.15 60.79 60.05 59.80 58.72 57.94 57.82 57.61 58.63 59.58 58.80 58.25
49.79 50.55 51.63 52.67 55.27 55.43 54.01 53.92 51.69 47.44 44.16 43.66 47.50 48.95 49.82 46.01 43.51 44.21 45.82 46.44 46.81 51.36 60.81 58.68 57.55 57.72 58.55 58.45 59.25 60.07 59.90 59.86 60.70 60.03 59.17 58.57 58.61 57.72 55.37 58.81 59.20 58.95 58.46
53.01 48.82 55.18 57.84 57.82 56.47 56.12 59.38 60.99 60.25 57.02 54.31 45.02 47.91 43.15 42.24 42.78 44.23 44.40 49.32 57.36 57.32 60.79 58.92 57.87 57.80 59.63 59.63 60.88 60.92 60.62 60.69 60.35 59.46 59.15 58.98 59.10 58.40 57.50 57.60 58.05 57.60 57.36
55.34 56.05 56.78 59.30 60.82 59.50 60.94 60.53 60.31 58.30 53.88 50.84 50.34 46.00 42.11 41.51 42.42 43.67 47.40 60.49 59.61 60.80 59.95 59.50 58.90 59.44 60.29 60.69 61.36 60.77 60.63 60.42 59.98 59.63 59.08 58.88 58.65 57.55 57.29 57.30 57.25 45.14 51.52
56.07 49.89 51.07 60.22 60.46 61.36 61.08 59.82 58.94 58.47 57.59 56.70 55.09 52.17 53.19 55.36 58.49 59.29 61.45 60.84 60.69 60.53 59.49 59.09 58.91 60.01 60.88 61.55 61.53 59.62 58.67 58.99 58.91 58.76 59.51 59.01 58.80 58.11 57.37 57.21 57.88 57.86 57.40
57.63 59.40 46.77 62.04 61.19 61.66 61.44 60.71 60.72 59.83 57.44 55.88 55.06 55.45 46.21 59.27 59.58 60.05 60.31 60.21 60.64 60.63 60.10 58.68 59.27 60.06 61.37 61.76 61.53 61.05 59.97 59.74 59.70 59.52 59.48 59.27 59.23 57.91 58.04 58.10 57.22 57.20 57.95
56.93 59.73 61.06 61.57 61.49 60.79 61.37 61.60 60.94 59.48 57.63 56.65 56.72 51.74 41.33 60.41 60.11 58.76 58.84 59.35 60.60 60.99 61.36 61.19 60.85 60.93 61.28 62.16 61.54 60.99 60.18 59.55 59.91 59.26 59.02 58.93 59.03 58.51 57.98 58.15 57.46 57.57 56.76
57.09 60.76 60.01 59.91 60.31 53.98 60.23 61.53 59.54 59.79 59.16 58.77 58.86 58.23 58.78 58.83 57.25 56.24 55.23 55.19 55.53 55.71 59.21 59.59 61.62 62.13 62.57 61.18 61.35 61.58 60.77 59.97 60.33 60.81 59.78 58.81 58.58 58.53 58.89 58.11 57.74 57.62 56.78
57.21 60.87 60.14 60.38 61.41 61.70 61.43 60.54 59.41 54.31 59.59 59.80 58.92 58.07 57.07 54.67 52.40 50.78 50.05 49.05 48.37 48.91 50.88 51.86 50.72 53.91 58.56 58.90 57.98 57.72 56.80 59.55 61.37 61.57 61.10 59.95 59.35 57.64 57.32 55.05 53.65 52.77 53.88
62.03 61.06 62.25 61.66 61.40 60.92 59.59 59.02 59.64 59.36 58.20 57.14 55.50 54.48 52.88 50.26 48.12 46.39 45.68 45.14 44.11 43.88 45.04 46.58 46.37 47.06 47.34 48.64 50.01 51.19 40.38 40.79 52.77 46.95 55.15 53.06 51.91 51.11 49.48 48.57 48.24 47.99 48.36
61.95 62.63 62.23 61.79 61.23 60.73 59.27 58.26 57.59 57.16 55.49 53.75 51.44 49.48 47.65 46.23 45.75 43.22 42.55 41.51 40.17 39.62 40.68 41.18 40.77 41.71 42.01 41.31 40.04 36.05 36.47 38.33 43.88 40.87 50.02 48.94 47.22 46.00 45.35 44.51 44.43 43.94 43.78

GFSGL_sfc_wetblb_081.txt.gz
Wetbulb
55.57 55.02 54.24 54.41 55.92 58.03 58.46 59.72 61.10 61.79 63.70 63.87 64.69 65.01 65.33 64.87 64.31 66.88 69.87 69.78 69.19 69.00 69.85 70.05 70.46 71.45 69.81 68.35 67.92 66.42 64.39 62.53 59.90 61.85 63.20 63.00 62.45 62.38 62.65 63.13 63.64 62.58 61.99
54.85 53.87 53.92 55.11 55.49 54.81 55.59 57.37 59.16 59.59 61.31 62.46 63.15 63.56 64.04 64.57 65.09 63.26 65.73 70.96 70.35 69.48 69.90 70.01 70.56 71.07 69.91 68.77 67.94 65.86 63.80 62.65 61.04 59.83 61.44 61.82 61.65 61.94 61.97 61.22 62.18 63.67 62.69
52.80 51.81 50.03 51.05 52.56 51.30 53.30 55.05 57.27 58.74 58.80 59.51 61.31 61.41 62.48 63.66 65.09 65.82 64.22 67.78 70.49 70.81 70.99 70.41 70.53 69.35 68.99 69.48 66.39 64.77 63.60 64.09 61.94 60.54 60.23 61.15 60.42 61.72 60.67 60.95 61.21 60.86 63.61
52.09 50.59 49.66 49.74 50.21 51.08 51.91 52.09 53.26 54.65 56.03 57.51 58.50 60.03 62.00 62.68 62.96 65.16 66.59 64.89 68.82 71.10 71.41 70.60 69.47 69.60 69.30 69.18 66.55 64.37 63.50 62.46 61.96 60.76 60.02 59.66 59.62 60.60 60.55 58.91 58.05 59.29 59.06
51.36 50.31 50.20 51.23 51.86 51.63 51.38 51.79 53.07 53.17 53.94 56.15 56.53 57.35 59.29 61.41 63.06 63.48 65.46 66.22 66.30 68.63 69.81 70.33 69.97 69.47 66.58 67.25 67.11 64.21 62.79 61.19 60.80 59.10 58.75 58.25 58.29 58.75 59.03 58.55 57.41 57.56 58.38
51.18 50.54 51.33 51.73 51.36 50.70 50.62 51.23 51.57 52.21 52.84 54.36 54.86 55.20 56.92 60.10 55.69 54.15 57.40 64.90 66.94 69.02 69.33 69.42 70.47 64.76 63.86 60.43 60.75 61.92 63.26 61.82 60.18 59.33 58.01 56.90 57.44 58.30 58.87 58.47 57.21 56.64 57.37
52.48 52.95 52.97 52.37 52.35 51.40 51.44 51.06 50.68 50.53 50.86 50.83 52.68 54.42 55.42 58.29 52.82 51.97 53.93 60.67 66.17 68.61 69.58 69.27 69.29 69.37 63.29 63.52 56.96 56.32 57.73 58.09 60.58 60.92 59.09 58.64 58.18 59.37 59.44 57.99 57.66 56.48 56.44
51.40 52.41 52.76 52.34 51.77 51.12 49.85 49.10 48.90 48.43 48.00 49.16 50.44 52.04 53.88 58.03 51.83 50.73 52.29 60.31 63.63 68.58 68.88 68.79 67.38 63.04 62.75 61.84 62.01 61.77 60.63 60.36 60.13 62.80 61.27 60.58 60.53 60.98 60.53 59.85 58.86 57.50 58.81
51.20 50.82 51.94 52.45 50.40 49.32 48.22 47.42 47.48 47.07 47.41 48.43 49.49 50.00 51.57 55.91 51.06 50.03 53.09 61.61 62.82 66.68 68.21 68.39 66.22 64.49 53.69 55.33 62.16 61.17 59.09 57.15 51.21 49.82 51.07 50.20 48.75 49.47 55.54 59.74 57.93 57.77 57.37
49.87 50.57 51.72 52.12 50.13 48.10 47.51 47.39 47.44 47.27 48.56 49.62 50.35 52.65 53.29 56.63 53.17 50.14 53.23 61.46 63.07 66.21 67.08 65.67 57.23 62.96 50.38 51.81 62.33 61.27 58.35 56.48 56.62 56.10 55.38 53.38 53.12 53.22 50.67 59.58 59.09 58.41 56.88
49.40 49.69 50.90 49.23 48.34 48.63 48.62 48.22 48.26 48.20 48.76 48.60 49.47 52.09 55.65 57.11 58.61 50.99 50.60 59.60 64.40 65.42 66.33 64.63 63.11 50.56 48.71 48.93 56.08 61.75 59.58 58.31 55.64 57.81 57.23 57.21 56.92 56.70 58.39 59.53 59.63 59.53 58.41
48.61 48.87 48.84 48.01 48.92 49.53 48.09 49.07 49.21 49.51 49.12 49.07 49.86 51.41 55.05 57.23 53.91 53.53 49.11 47.82 59.04 65.86 64.86 63.90 57.55 48.62 47.26 46.75 54.33 46.57 48.57 54.89 58.93 57.41 56.76 55.72 56.08 56.14 58.15 59.27 58.93 60.27 60.81
47.10 46.82 47.20 48.09 48.47 49.18 48.68 48.43 49.46 50.50 50.21 50.59 51.96 53.53 54.63 56.55 58.13 51.84 46.57 46.57 51.47 65.01 64.43 55.74 45.65 44.94 44.58 47.46 44.76 46.57 50.20 58.67 57.09 56.10 56.64 56.82 56.32 57.17 57.95 59.47 60.43 60.04 59.74
45.73 46.80 47.66 47.81 47.97 48.99 50.03 50.87 50.80 50.39 50.92 51.74 51.88 52.99 53.70 55.35 59.05 56.70 54.80 54.31 51.43 53.83 50.07 50.08 50.68 51.28 51.08 49.69 51.13 52.90 58.45 57.45 56.40 55.46 55.46 57.53 57.87 55.92 55.82 58.41 58.71 58.39 58.07
46.40 47.00 47.53 48.47 48.70 48.81 49.34 49.91 51.25 52.28 51.52 51.34 52.63 53.59 53.27 55.07 59.63 56.60 57.65 60.43 59.03 55.44 55.48 57.16 57.04 56.24 56.22 56.86 55.30 56.32 57.53 57.43 56.58 55.92 55.54 55.19 55.35 56.96 56.26 57.85 58.51 58.39 57.47
45.63 46.72 47.87 48.73 48.96 49.44 49.88 50.40 45.24 43.92 43.07 43.23 45.23 51.32 56.94 52.87 48.20 47.84 49.83 47.66 47.30 49.09 57.97 57.42 56.56 56.32 56.36 56.74 55.84 55.16 58.83 55.96 56.36 57.06 57.06 55.36 56.88 56.36 55.11 56.92 57.85 57.15 55.52
46.30 47.22 48.44 48.19 49.60 49.36 49.50 49.03 48.12 47.08 43.13 43.85 42.40 44.54 43.31 49.29 46.21 47.11 47.11 45.85 46.03 52.10 57.73 57.28 57.26 56.42 56.94 57.76 57.12 55.66 56.14 56.64 57.68 58.36 58.01 57.35 57.22 57.04 54.17 57.23 57.61 55.96 55.38
47.20 45.71 48.11 49.56 52.04 51.71 50.17 50.65 51.18 51.78 51.03 49.65 43.13 47.71 43.85 45.99 47.11 46.21 45.30 49.87 56.46 56.47 57.01 56.26 56.16 56.62 56.95 57.33 57.32 57.10 56.94 57.21 56.84 56.66 57.44 57.71 57.50 56.84 54.06 55.41 55.81 55.53 55.84
48.26 50.79 54.15 56.56 52.96 52.55 53.15 52.61 53.65 54.97 54.32 48.87 50.10 46.86 43.73 42.76 44.58 45.30 47.80 58.94 57.75 56.54 56.36 56.02 56.58 58.21 58.25 58.17 58.20 58.02 57.90 57.66 56.70 56.18 55.96 56.02 56.84 56.41 55.31 55.86 54.87 44.21 49.57
50.97 47.15 49.60 57.40 57.78 58.00 57.40 56.26 55.40 53.92 55.32 56.46 55.59 52.22 52.46 54.34 57.58 57.95 58.18 58.69 57.83 57.16 56.92 56.34 57.86 58.51 57.66 58.50 57.84 57.30 56.46 56.28 56.86 57.94 57.88 57.47 57.07 56.86 56.04 56.12 56.66 55.69 55.55
49.14 52.93 46.75 60.21 59.51 58.35 58.11 56.97 57.56 56.36 56.02 55.96 55.98 54.75 45.85 58.69 58.25 57.75 58.64 58.45 57.69 57.26 57.10 57.10 58.75 59.26 57.92 58.32 57.80 57.14 57.66 56.28 55.81 57.18 57.20 57.95 57.71 56.84 56.93 56.75 56.23 56.29 56.28
47.68 53.32 59.73 60.23 59.89 59.46 58.02 57.30 56.60 56.66 56.74 56.20 55.73 51.03 43.31 58.43 57.86 57.94 58.92 59.39 59.15 58.01 58.56 58.70 58.66 58.85 58.48 60.20 59.58 58.94 57.09 56.40 56.50 56.52 57.94 57.88 57.85 57.20 56.63 56.42 56.36 56.04 55.55
48.10 53.30 59.90 59.60 59.05 52.88 56.92 56.79 56.99 57.01 57.15 57.35 57.69 57.38 56.78 56.02 55.68 55.42 54.60 55.08 55.56 55.06 55.64 56.36 58.56 58.21 59.87 59.83 60.02 59.45 58.85 57.54 57.29 57.72 58.02 57.80 57.19 57.00 56.94 56.38 56.32 55.88 54.90
48.41 58.03 59.25 59.94 58.73 57.89 57.45 56.59 56.69 52.60 57.33 56.68 55.29 54.10 52.74 51.46 50.27 49.44 49.48 49.94 50.17 49.84 49.13 50.05 51.90 55.90 56.14 55.87 55.57 55.31 59.06 60.00 59.33 57.83 57.79 58.39 57.55 53.82 54.60 53.14 52.81 52.35 50.18
52.36 59.68 59.57 59.42 58.09 57.59 57.03 57.43 57.16 55.70 54.23 52.48 50.80 49.63 48.37 47.15 45.86 45.37 45.09 45.09 45.54 45.13 44.77 45.79 46.99 48.07 50.47 51.90 51.61 49.95 41.03 39.86 50.67 46.19 53.75 52.60 50.66 49.65 49.14 48.41 48.07 48.29 48.52
59.78 59.90 58.99 57.94 57.47 57.25 55.72 54.28 52.57 50.62 48.89 48.37 47.33 46.49 44.93 43.63 42.67 41.90 41.62 41.15 40.74 40.58 40.69 41.46 41.95 42.48 42.90 42.69 41.87 37.71 37.89 38.65 43.05 40.50 48.95 48.17 46.69 45.77 45.37 44.12 43.47 42.85 41.54

GFSGL_sfc_wetblb_084.txt.gz
Wetbulb
52.95 53.18 54.55 55.55 56.08 56.39 56.66 56.66 57.63 58.94 60.49 61.58 61.84 62.34 62.93 64.14 64.65 63.70 64.81 67.27 67.52 67.94 67.92 67.27 67.15 67.41 67.92 69.32 68.97 67.49 64.89 62.03 62.21 60.32 62.22 61.83 61.32 61.66 62.73 62.70 63.16 62.23 61.37
54.44 53.36 52.53 52.27 52.12 52.83 53.65 54.74 55.52 55.69 57.44 59.19 61.30 61.23 61.91 61.82 62.10 63.11 63.70 64.71 66.12 67.66 67.77 67.27 68.04 69.33 68.51 69.23 68.28 67.07 66.32 63.98 61.30 59.79 61.03 60.93 60.34 60.30 60.70 60.87 61.99 63.27 62.33
53.38 53.46 52.32 51.93 51.69 52.42 51.30 51.73 53.36 53.48 54.04 55.05 56.29 57.61 58.98 60.46 60.91 61.49 62.79 63.79 64.43 64.81 68.98 68.42 68.57 68.95 68.57 69.83 69.28 67.31 65.39 64.24 61.03 60.00 59.47 59.75 59.78 60.03 59.28 59.49 59.73 60.13 61.79
53.11 51.30 50.18 48.80 49.98 48.62 49.58 50.64 50.04 50.58 50.66 51.20 52.32 54.57 55.89 56.67 57.90 59.33 60.53 60.52 62.28 64.36 65.57 69.34 70.09 69.71 69.49 69.69 68.56 67.72 64.11 62.94 60.95 59.30 58.52 58.82 58.50 59.16 59.22 58.12 57.88 58.34 58.56
51.72 50.73 49.77 49.14 49.31 49.07 49.64 49.39 49.80 50.31 51.17 51.29 51.51 53.11 54.47 54.88 55.82 55.18 57.23 58.86 60.17 62.24 64.17 65.83 68.99 69.28 65.91 66.85 69.03 66.73 63.20 61.87 59.67 58.42 57.84 57.24 57.34 58.02 58.24 57.66 57.22 56.40 57.02
49.77 48.77 49.83 50.35 50.03 49.58 49.81 49.27 49.47 50.19 50.19 50.43 50.92 52.39 52.64 54.57 49.78 49.93 53.14 57.13 59.26 59.98 61.25 64.26 67.87 64.75 63.91 59.71 59.52 59.47 62.91 62.29 60.13 58.22 57.08 56.92 56.44 57.32 57.48 57.26 56.15 55.05 54.26
49.57 51.05 50.96 49.86 50.25 50.36 50.65 49.91 49.46 48.67 48.67 48.81 50.09 50.98 50.88 51.34 47.52 47.04 49.28 54.42 57.31 59.15 60.36 62.58 65.73 69.54 64.29 67.68 57.30 56.94 57.42 55.70 58.70 60.06 58.29 57.68 57.44 58.08 58.12 56.44 55.98 55.43 54.89
49.92 50.15 51.13 51.54 51.11 51.09 50.10 49.82 49.39 48.88 48.60 48.91 49.30 49.45 49.23 50.38 46.65 45.61 46.96 52.34 56.46 59.26 60.33 61.52 64.18 67.16 66.05 66.10 63.02 63.13 62.32 61.71 60.14 61.72 61.04 60.42 59.67 59.33 60.10 59.33 58.24 56.18 56.14
49.10 49.58 50.67 51.37 51.07 50.57 50.08 49.95 49.53 47.32 46.66 47.24 47.95 48.26 47.70 48.31 45.46 44.56 46.16 51.88 55.71 57.37 59.88 62.24 64.45 67.35 57.24 51.38 63.98 61.85 59.56 57.28 50.78 50.29 52.75 51.02 49.38 50.11 55.63 58.48 56.44 55.39 54.93
47.45 48.37 49.24 49.58 49.86 50.00 50.04 49.35 48.33 47.65 48.02 48.34 48.04 47.46 47.55 47.76 45.49 44.72 46.28 53.23 55.22 58.00 60.93 62.80 55.95 62.46 49.57 50.47 62.84 61.02 58.88 57.52 57.52 56.56 55.23 52.21 52.17 51.70 50.29 58.91 57.96 55.53 54.45
46.92 47.90 48.22 48.60 47.91 48.02 48.69 47.91 46.57 46.69 47.14 46.67 47.38 47.78 47.54 48.26 48.65 45.65 45.57 53.28 56.45 58.58 59.98 62.34 63.54 50.11 49.57 47.93 52.79 61.27 58.61 57.62 55.87 56.54 55.77 55.91 55.75 55.76 57.00 57.22 57.84 57.84 55.73
45.78 46.16 46.59 47.22 48.09 48.77 47.27 46.83 46.69 46.18 45.90 46.09 45.83 46.58 47.92 48.82 47.40 47.46 45.69 46.25 52.37 57.59 58.58 62.21 61.69 49.38 48.66 47.03 53.13 48.84 47.93 52.82 57.58 55.89 55.07 55.49 54.52 54.41 56.29 57.20 58.00 59.24 60.50
45.07 45.42 45.88 46.47 47.05 47.65 46.65 46.60 46.62 46.92 46.92 46.35 46.41 46.69 47.88 50.42 51.49 47.99 46.17 45.58 45.58 51.66 58.38 59.13 51.38 47.57 46.12 48.66 48.12 45.40 49.37 58.74 56.96 56.44 56.66 56.01 54.81 55.97 57.74 59.29 59.58 59.11 58.79
45.02 45.26 45.74 45.38 45.59 46.05 46.68 46.93 46.69 46.48 46.33 46.64 46.80 47.25 49.59 52.01 53.65 55.00 55.47 55.76 47.52 49.92 51.81 52.93 51.46 51.85 51.90 51.68 50.91 54.58 59.40 58.38 57.18 57.56 57.46 55.09 57.46 57.64 57.08 57.70 57.46 57.78 57.18
43.91 44.17 44.48 45.27 45.94 46.59 47.55 47.59 47.46 48.34 48.05 47.67 48.99 50.07 50.87 50.96 52.58 51.00 52.30 57.16 57.64 54.25 53.72 54.83 57.42 58.16 57.46 57.80 57.86 57.14 56.76 56.30 55.07 54.10 53.98 56.66 56.48 56.37 56.52 57.74 56.76 57.42 56.86
43.72 44.46 45.24 45.97 46.64 47.35 47.55 47.94 44.00 44.31 43.80 42.98 44.16 48.39 51.90 48.19 45.92 43.04 43.40 46.85 45.40 45.58 57.42 58.30 58.22 58.54 58.00 57.78 57.36 56.94 56.03 54.16 55.09 55.37 54.57 54.39 54.43 55.03 55.71 56.54 56.27 57.00 56.21
43.87 44.61 45.06 45.01 46.24 46.56 46.83 46.96 46.98 46.15 42.43 42.05 41.79 42.31 43.34 47.65 41.59 41.95 43.04 42.13 44.13 47.93 58.60 58.32 57.46 57.81 57.60 57.61 56.62 57.98 57.12 55.69 55.72 56.10 55.57 54.73 54.35 54.01 52.92 56.15 56.84 56.25 54.91
45.06 43.43 45.46 45.90 46.48 46.96 47.03 46.83 46.21 47.78 47.89 48.31 42.79 42.89 41.74 41.05 40.50 42.13 41.05 46.45 55.05 56.32 58.99 57.66 56.70 56.98 57.00 56.34 55.82 55.15 55.61 56.32 56.42 55.81 55.53 57.07 56.32 56.06 53.54 54.81 55.95 56.12 54.33
45.40 46.56 47.97 49.03 49.54 49.57 49.52 48.17 47.08 47.09 48.16 49.13 50.40 41.74 41.83 39.74 40.50 42.86 43.73 58.86 58.40 57.64 57.59 57.51 56.56 56.38 56.44 56.76 56.38 56.18 56.44 56.40 55.75 56.46 56.06 56.62 57.13 56.06 54.30 53.78 54.20 44.85 49.09
47.17 43.85 43.69 49.08 53.63 51.05 49.82 47.92 47.36 48.14 49.22 51.08 51.25 49.02 46.00 46.34 47.34 51.35 57.90 58.77 57.77 56.86 56.30 56.22 56.72 56.57 56.46 56.96 57.20 57.00 55.83 54.83 55.59 55.51 55.90 55.03 56.35 56.08 54.44 54.70 55.86 54.17 54.78
42.53 44.32 41.65 55.00 55.86 54.17 51.01 50.16 50.11 50.95 52.35 53.26 51.44 50.84 46.41 56.75 58.10 58.30 57.77 57.39 56.68 56.06 56.14 56.85 57.44 58.28 58.53 58.06 57.18 57.18 56.54 56.32 56.22 57.79 56.06 56.77 56.37 55.92 56.30 56.24 55.92 56.34 55.94
41.85 44.47 50.43 57.63 56.51 56.46 55.38 56.08 54.77 55.08 55.06 54.86 54.33 47.93 44.31 59.06 58.52 57.99 57.14 56.92 56.64 56.89 57.25 58.12 59.04 58.68 58.82 57.97 57.43 57.27 56.42 55.32 54.60 54.96 55.88 57.31 57.23 56.77 56.35 56.04 55.40 55.22 55.10
43.78 47.84 56.88 56.84 56.38 50.99 56.45 56.44 55.79 56.61 56.51 56.80 57.27 57.39 57.84 57.68 57.34 57.20 56.84 56.20 55.45 55.65 58.05 59.13 58.85 58.02 59.48 59.36 59.58 58.93 57.04 55.82 56.14 56.52 56.10 57.15 57.10 56.23 56.11 55.86 55.72 54.96 53.93
45.77 51.74 57.65 57.31 56.89 57.01 57.21 56.74 55.14 50.63 55.38 54.96 54.60 53.81 53.47 53.49 52.33 51.70 51.90 51.70 51.38 51.17 53.18 55.37 56.44 56.62 56.22 55.43 55.78 56.40 56.58 56.50 56.62 56.68 56.81 57.26 55.27 53.13 54.33 53.44 52.50 51.00 49.38
51.31 58.70 57.95 57.49 56.89 56.83 55.78 54.95 54.17 53.73 52.85 52.05 50.69 49.43 49.05 48.69 47.66 47.17 47.57 47.32 47.41 47.05 47.14 49.20 51.19 52.38 52.84 53.37 53.12 50.17 39.86 39.60 50.75 45.58 53.88 52.48 50.05 49.32 49.89 49.24 48.56 48.23 47.77
58.67 58.03 57.60 56.47 55.14 54.16 52.74 51.42 50.45 49.86 48.63 47.59 46.60 45.93 45.21 44.35 43.48 43.15 43.55 43.38 43.20 43.20 43.60 44.01 44.55 45.82 45.46 44.39 42.73 37.88 37.67 38.81 43.54 41.40 49.78 49.20 47.28 45.79 44.85 43.48 42.05 40.76 40.26

GFSGL_sfc_wetblb_087.txt.gz
Wetbulb
51.94 53.05 53.67 53.87 54.81 55.01 54.71 55.99 58.03 57.84 58.68 59.27 59.00 59.58 60.48 61.40 61.83 62.73 61.87 62.67 64.93 65.26 66.02 65.96 66.15 66.81 66.35 65.63 66.02 65.90 65.49 65.33 63.43 65.31 62.34 62.83 62.29 61.93 63.14 62.90 63.39 62.51 61.53
52.41 52.19 53.62 53.66 53.88 54.15 54.39 54.64 55.71 56.62 56.53 56.73 57.41 57.67 58.22 59.47 60.07 60.49 60.89 62.06 62.84 62.99 64.58 66.15 66.20 66.87 66.15 66.33 66.53 66.87 66.89 66.50 64.76 63.19 61.66 61.13 60.89 60.30 61.20 60.77 61.70 63.01 61.75
51.49 50.93 50.78 51.83 51.26 51.55 52.33 53.39 53.51 53.00 53.26 53.76 54.00 53.97 54.91 56.43 56.98 58.08 59.71 61.26 61.93 62.33 63.08 63.92 65.60 67.10 66.09 66.94 67.27 66.87 66.95 66.36 64.53 62.11 61.35 59.99 60.21 59.50 58.70 59.17 59.53 59.45 61.04
51.54 50.97 50.98 50.98 51.69 52.21 52.54 52.14 51.92 51.92 50.14 50.11 50.79 52.30 53.91 54.40 54.93 55.46 55.74 55.03 57.48 59.57 61.78 62.89 63.92 65.25 66.81 67.66 67.23 67.29 67.20 65.18 63.85 61.50 59.59 58.97 58.86 58.48 58.74 57.94 58.16 58.02 58.24
49.11 50.38 50.53 51.78 51.69 52.10 50.24 50.49 51.05 49.42 49.93 49.82 50.03 50.90 51.70 52.94 54.53 52.52 52.51 52.11 52.66 55.78 58.68 60.20 61.13 61.60 61.06 62.43 67.70 68.26 68.42 65.28 62.79 60.80 58.20 57.18 57.18 58.50 59.14 57.68 57.70 56.43 56.81
48.30 48.32 49.15 48.78 48.34 47.84 48.85 49.52 49.27 49.01 48.91 49.01 49.33 50.02 49.92 52.89 49.69 48.83 50.37 50.35 51.70 53.01 54.33 57.02 59.30 59.38 60.06 57.33 56.95 59.67 65.81 65.91 61.78 60.81 58.64 57.18 56.55 57.46 58.04 57.98 56.37 54.78 54.22
49.01 49.26 49.79 48.98 48.94 49.28 48.55 48.04 47.89 47.70 47.81 47.59 48.26 48.70 49.07 49.42 47.05 46.26 47.96 49.56 50.71 51.01 52.63 55.45 58.02 61.22 59.72 62.89 61.08 55.32 55.81 55.69 59.01 62.08 59.78 57.93 56.81 58.49 58.72 56.19 55.57 54.97 54.77
48.87 48.78 49.20 50.38 49.57 48.94 48.83 48.97 47.87 46.83 46.76 47.65 48.07 48.59 48.95 49.62 46.49 44.76 45.38 47.90 48.58 49.69 51.92 54.47 57.50 58.47 58.91 59.52 63.92 65.34 64.11 62.84 60.17 61.72 62.24 60.04 61.61 61.07 60.98 59.60 58.11 55.63 54.83
47.34 47.58 48.57 48.99 48.56 48.70 48.36 48.50 48.98 48.89 48.08 48.15 47.98 48.30 47.67 48.14 45.31 44.12 44.47 46.88 47.95 49.33 52.72 55.01 56.97 57.81 54.50 49.88 60.75 64.79 63.80 60.78 52.38 51.15 52.02 52.38 50.43 49.16 55.24 58.42 55.35 54.80 54.52
46.03 47.32 48.07 47.85 47.81 47.62 47.89 48.00 48.68 48.65 48.87 48.88 48.86 48.90 48.52 48.03 43.66 43.47 43.72 47.67 47.55 50.16 51.61 54.94 52.09 54.77 50.79 48.98 58.48 64.47 61.39 59.77 57.50 57.58 56.65 52.22 52.04 52.02 49.88 58.25 56.83 54.54 53.70
45.77 45.53 45.58 45.80 46.07 46.11 46.50 47.27 46.73 46.21 47.70 47.84 47.80 48.41 47.18 46.48 45.42 43.09 43.34 47.81 48.43 49.53 51.18 53.84 57.38 48.80 47.71 46.44 47.53 63.23 60.76 58.74 55.83 58.34 57.38 56.51 56.25 55.77 56.85 58.44 57.07 56.65 54.52
45.16 45.18 45.12 45.12 45.60 46.43 45.08 45.82 46.27 46.80 46.16 45.80 44.88 44.19 45.22 46.01 45.06 43.78 42.91 43.04 46.42 49.74 51.49 55.06 56.05 47.71 46.98 44.26 48.04 50.61 47.89 53.47 58.36 56.79 56.09 55.42 53.88 54.04 56.15 56.43 56.63 57.01 57.65
44.02 43.93 44.37 45.01 45.32 45.44 44.69 44.87 45.03 45.89 46.10 45.28 45.18 45.25 45.49 46.24 47.08 44.11 43.55 42.37 43.02 46.70 51.24 51.29 47.29 45.53 44.45 45.53 45.90 48.98 48.25 58.50 57.28 56.41 55.97 55.89 53.44 54.47 55.67 56.57 56.65 57.07 57.92
42.11 42.94 43.91 43.96 44.07 44.95 45.70 45.61 45.38 45.48 45.64 45.94 46.06 45.72 45.82 45.78 46.67 49.08 49.15 49.08 44.88 47.42 48.97 51.18 50.68 49.67 48.07 53.63 48.85 49.77 59.56 58.60 57.80 57.57 57.21 56.33 55.97 56.87 57.60 58.58 56.29 55.63 55.87
43.41 43.56 43.84 44.11 44.24 44.63 45.51 45.49 45.40 46.34 46.16 45.70 46.03 46.23 45.44 45.42 47.06 47.41 49.27 53.43 55.13 53.84 52.58 53.81 52.61 53.66 55.55 55.71 56.27 58.50 58.24 57.30 56.57 56.27 56.85 56.51 56.81 56.85 56.85 57.52 56.25 57.56 56.79
42.47 43.16 43.86 44.42 44.65 45.03 44.80 45.31 43.19 42.67 42.27 41.23 41.99 45.24 47.61 44.71 43.94 43.70 43.88 43.90 41.91 41.00 52.52 53.70 54.41 56.03 57.40 57.61 57.98 57.56 57.76 54.50 54.74 54.76 55.27 55.49 56.29 56.19 55.93 56.67 57.34 56.93 55.97
42.29 42.97 44.04 43.57 44.51 44.67 44.96 45.18 44.60 45.13 41.87 40.82 40.55 40.87 42.11 45.87 41.57 42.23 41.91 39.73 39.37 40.28 52.63 56.15 57.44 58.59 58.66 58.88 58.66 57.82 56.79 55.53 55.07 55.11 54.15 53.52 54.01 55.16 54.30 56.11 56.47 56.25 55.59
43.46 42.28 43.86 44.34 44.68 44.86 45.14 45.29 45.51 44.90 45.41 45.25 40.83 42.05 40.95 40.99 40.09 40.46 39.19 40.80 50.29 45.34 55.69 58.19 58.35 58.99 58.76 58.34 58.48 58.12 56.49 55.43 55.19 54.47 54.12 54.28 54.27 53.62 54.24 55.02 54.82 55.37 54.27
42.57 43.09 44.03 44.66 45.50 45.34 46.11 46.18 46.33 45.56 45.76 47.68 46.95 41.66 41.36 39.35 39.35 39.17 38.61 49.92 51.57 54.58 58.43 57.61 58.37 58.65 58.42 57.60 57.41 56.91 56.37 55.57 55.15 54.85 54.70 55.67 55.53 55.57 54.32 54.53 52.77 44.08 48.14
44.07 41.67 41.31 43.21 42.94 43.93 47.35 47.08 46.58 45.66 45.34 46.65 47.58 48.03 46.26 42.90 45.16 46.48 47.56 50.41 55.87 58.20 57.74 57.23 57.59 57.95 57.51 56.71 56.81 56.45 55.31 54.97 55.27 55.73 54.54 56.45 56.65 55.54 53.63 52.23 51.96 51.30 52.21
39.67 40.29 38.67 41.98 49.29 48.50 48.02 47.18 46.68 46.14 46.21 46.56 47.47 48.54 40.82 48.17 47.74 50.07 51.55 55.36 57.65 57.55 57.37 57.21 57.25 57.17 56.71 56.85 56.71 55.93 55.85 55.57 55.33 55.67 54.99 53.68 53.99 53.65 53.79 54.63 55.83 55.33 55.25
39.31 40.27 42.79 52.13 52.84 49.55 47.98 47.81 47.37 47.98 48.69 49.57 51.08 45.45 38.10 50.35 51.54 53.11 57.21 56.99 57.25 57.51 57.77 57.61 56.97 56.95 56.93 56.85 56.89 56.49 55.91 55.47 54.69 56.33 55.51 55.54 55.08 55.12 55.79 55.67 55.35 55.03 54.43
39.23 42.20 53.50 54.65 54.94 48.76 51.57 50.74 49.86 51.08 53.12 53.15 50.79 48.71 50.90 56.73 56.95 56.87 56.41 56.67 56.85 56.65 57.24 57.69 57.19 56.97 57.01 57.13 57.77 57.51 56.63 55.83 55.09 55.39 57.31 56.87 56.49 56.03 55.85 55.27 54.87 54.17 53.23
42.40 51.01 56.51 55.62 55.20 55.76 55.27 54.49 53.61 49.61 55.77 55.69 55.24 54.89 54.91 54.69 53.83 53.54 53.56 54.30 54.74 55.49 56.29 56.05 56.77 56.85 56.73 57.23 57.98 57.87 56.59 55.39 55.85 55.75 57.40 56.79 54.39 52.66 54.28 52.98 51.72 50.49 49.62
54.92 57.57 57.25 55.82 55.00 54.38 53.90 52.64 51.94 51.43 51.51 51.55 51.24 50.90 50.94 50.58 50.05 49.37 49.79 49.97 50.02 50.57 50.62 52.09 53.10 53.47 54.26 55.30 55.03 52.21 41.17 39.73 51.69 46.98 55.00 53.14 52.17 51.01 50.58 49.58 47.94 47.53 47.44
56.15 55.24 54.32 53.33 52.64 51.68 50.62 49.83 48.91 48.64 47.87 47.62 47.98 47.27 46.72 45.81 45.70 45.56 45.97 46.15 45.59 45.07 45.29 45.86 46.42 47.85 48.23 47.89 45.75 38.63 38.10 39.01 44.01 41.91 51.30 50.31 48.37 47.56 45.54 43.52 41.66 42.38 41.23

GFSGL_sfc_wetblb_090.txt.gz
Wetbulb
52.81 53.32 52.98 54.10 55.77 56.86 57.01 57.44 57.68 58.80 60.18 60.94 61.11 60.73 62.01 62.08 62.73 62.83 62.99 63.24 63.55 64.46 65.76 66.20 65.84 65.98 66.13 66.69 66.93 66.73 65.24 64.74 61.92 65.42 65.99 64.72 63.65 64.79 65.96 66.55 65.71 66.29 65.16
52.62 52.93 53.75 54.64 55.01 55.51 55.70 55.92 57.26 58.40 59.15 59.64 59.62 59.61 59.51 60.00 60.67 60.50 60.72 61.69 61.99 62.64 63.52 63.81 63.99 65.85 66.85 66.10 66.35 65.32 65.33 65.40 64.47 62.40 64.22 64.67 63.25 63.69 64.21 64.01 64.11 65.56 65.51
52.85 52.50 52.27 53.61 53.61 54.31 55.01 55.71 56.11 57.20 57.62 57.17 57.25 56.77 56.60 56.90 57.76 58.86 59.25 59.73 60.95 60.67 60.97 61.44 62.47 64.18 64.64 66.22 65.96 65.08 65.11 65.31 64.94 63.47 63.52 64.38 63.23 62.40 62.10 62.58 63.36 64.12 64.40
51.36 51.77 51.87 51.98 53.13 54.25 54.76 54.68 55.29 55.83 55.40 54.56 54.41 54.35 54.55 55.20 56.25 56.44 57.15 57.15 56.37 57.74 59.07 60.62 61.60 62.54 63.07 64.18 65.13 66.00 65.36 64.55 64.36 63.85 64.25 64.09 62.21 62.61 62.41 61.79 61.30 62.29 63.26
49.81 51.28 51.66 52.81 53.18 53.30 53.32 53.81 54.64 54.26 54.13 53.63 52.31 52.80 53.83 54.58 53.94 55.50 56.36 55.38 55.07 54.53 56.07 57.55 59.00 59.52 58.61 58.85 61.26 61.70 64.01 64.37 64.66 64.24 63.22 61.99 60.60 60.90 61.27 61.88 62.18 61.28 62.28
49.12 48.89 50.82 51.91 51.89 52.12 52.81 52.72 53.00 53.08 53.13 51.62 51.07 51.65 52.14 52.99 48.87 49.13 52.44 53.71 54.14 54.00 53.62 55.23 57.16 56.64 57.81 55.16 54.83 54.58 58.04 63.89 65.38 65.15 62.95 61.40 61.94 62.10 61.75 61.90 60.86 60.06 60.41
50.54 50.28 50.45 50.32 50.21 49.79 50.46 50.31 50.22 50.23 50.41 49.29 50.52 51.11 51.02 52.02 46.39 46.36 48.22 52.98 53.14 52.89 53.21 53.55 53.17 54.71 56.24 60.56 57.88 54.88 54.91 53.35 54.98 65.86 64.60 62.54 63.39 62.68 62.31 60.60 60.83 60.54 61.47
49.56 50.41 50.74 50.58 50.31 50.66 49.86 49.60 49.77 49.75 48.90 48.98 49.45 50.24 50.71 51.20 45.89 45.08 46.03 52.49 51.93 52.20 52.34 52.43 52.80 53.79 55.90 57.96 59.52 59.79 61.34 64.03 62.49 61.69 65.98 65.62 63.84 63.69 63.07 64.08 62.94 62.23 60.12
46.20 48.47 49.39 49.70 49.49 49.56 49.42 49.40 49.38 48.61 48.90 49.09 49.97 49.75 49.71 50.40 45.08 44.38 45.91 50.57 50.42 50.51 51.66 52.95 53.86 54.47 50.78 46.83 55.76 57.97 60.20 61.70 53.35 51.90 52.44 52.81 50.45 50.63 57.22 62.05 60.75 60.21 59.00
45.54 46.68 47.84 48.62 48.83 48.65 48.90 49.16 49.56 49.47 49.26 49.63 49.82 50.11 48.85 50.33 44.34 43.71 45.30 50.17 49.48 49.73 51.82 53.17 48.63 51.72 47.46 44.83 53.83 57.90 58.26 60.35 59.41 56.86 55.93 52.43 52.97 52.43 51.36 64.78 61.98 60.52 59.03
45.30 45.70 46.48 47.40 47.26 47.20 47.21 47.98 48.43 48.65 49.21 49.32 49.42 50.11 50.14 49.67 49.66 42.86 42.74 49.73 49.63 49.78 50.64 51.16 53.63 46.41 44.11 43.56 43.36 55.03 56.58 58.68 56.47 59.73 59.61 58.06 58.83 58.75 60.07 62.12 62.40 62.49 60.37
44.23 44.71 45.49 46.05 45.88 46.77 45.98 46.48 47.26 47.27 46.76 47.12 47.79 48.02 49.21 49.96 45.60 42.87 41.84 43.43 46.56 50.08 49.97 50.98 52.46 44.61 43.56 43.18 44.92 46.64 44.47 48.22 59.97 59.45 58.20 58.38 58.50 59.46 59.85 60.05 61.30 61.92 62.50
43.36 43.41 44.03 44.87 45.24 45.65 44.88 44.62 44.49 45.49 45.41 45.32 45.34 45.92 46.86 47.42 48.55 43.65 41.78 41.37 42.46 47.24 49.83 48.60 44.98 42.66 41.90 45.18 45.92 43.92 42.66 59.29 59.27 58.68 57.84 58.26 58.92 59.81 60.06 60.34 61.31 61.89 62.09
41.37 41.49 42.55 42.79 43.13 44.20 44.97 45.20 44.70 44.41 44.20 44.72 44.81 45.10 46.44 47.57 47.62 48.82 47.55 46.23 43.36 46.60 46.62 48.36 47.67 46.86 45.74 48.45 50.48 48.87 56.24 59.94 58.64 58.66 58.48 58.10 57.93 58.94 59.57 59.92 59.17 59.68 59.09
41.41 41.65 41.85 42.81 43.51 43.85 44.54 44.90 44.87 45.85 45.68 45.60 46.41 46.96 46.69 46.63 47.28 46.70 47.72 49.39 50.41 49.60 49.52 52.55 53.73 52.87 51.88 53.16 54.51 54.09 59.14 58.74 58.56 58.02 58.20 57.74 57.98 58.42 59.04 59.66 60.12 58.88 57.93
41.06 41.84 42.75 43.37 44.05 44.33 44.19 44.24 42.29 42.05 41.63 40.56 41.10 44.82 47.94 43.92 41.63 42.21 42.74 42.78 42.29 43.35 50.84 54.10 53.41 52.75 52.45 53.10 55.61 57.28 58.24 56.21 57.92 58.38 58.17 56.93 56.53 57.81 58.00 58.76 58.88 58.64 58.04
41.05 42.06 42.88 42.96 43.83 43.64 44.07 43.88 43.20 44.34 40.90 40.29 39.64 39.93 40.26 43.71 40.28 40.63 40.62 39.34 39.31 40.84 50.75 52.86 53.49 54.03 53.91 56.25 58.09 58.37 57.20 57.80 57.90 57.41 56.83 58.14 58.23 58.10 56.87 57.04 57.20 58.25 57.19
41.37 41.00 42.16 42.73 43.14 43.35 43.71 43.68 43.90 43.68 43.71 44.56 40.74 41.19 39.21 40.09 40.86 39.80 39.23 39.16 45.51 42.90 51.88 52.31 51.84 55.08 56.61 58.41 59.00 58.61 57.30 56.96 57.49 57.62 57.62 57.62 57.17 56.62 55.88 56.24 56.33 57.52 57.38
41.06 41.43 42.26 42.97 43.21 43.30 44.18 44.27 44.71 44.58 44.62 44.72 46.62 40.20 40.80 38.74 39.32 38.09 38.26 48.88 50.97 52.03 52.35 52.12 53.04 55.97 58.83 59.75 59.55 58.57 57.52 57.24 57.33 57.29 57.22 57.10 56.89 56.32 55.60 56.92 56.91 46.43 50.62
40.37 39.61 40.16 42.42 42.72 42.83 43.85 44.59 44.17 44.24 44.62 44.84 45.63 45.93 45.28 41.70 44.16 44.40 45.10 47.49 48.94 50.61 51.90 52.73 56.62 59.61 60.24 59.76 58.91 57.87 55.99 56.10 57.12 57.67 57.77 57.76 57.89 57.27 57.42 57.54 57.43 56.75 56.94
39.71 39.62 37.30 39.17 39.92 40.67 43.11 42.16 44.62 44.43 44.97 45.33 46.37 47.29 41.29 46.00 46.83 47.36 47.72 47.84 49.53 51.05 51.83 57.14 59.56 59.00 58.61 58.56 58.17 57.55 57.62 57.33 58.42 58.27 58.11 58.51 57.57 56.95 57.89 58.12 57.69 56.60 56.21
38.30 38.76 40.23 41.85 49.01 47.28 46.63 46.35 46.30 46.05 45.88 45.98 47.63 42.80 37.20 47.70 47.73 47.76 48.99 50.93 52.75 54.41 58.27 58.71 58.52 58.40 58.56 58.89 58.51 57.95 57.60 58.04 58.49 58.85 58.29 58.08 57.96 57.67 57.95 57.95 56.84 56.02 55.84
38.23 39.35 44.03 52.40 49.26 44.02 47.36 47.71 47.18 47.19 47.31 47.88 48.46 47.24 46.04 49.20 49.67 51.13 52.33 55.80 57.46 57.86 58.95 58.65 58.43 58.21 59.41 59.69 59.78 59.62 59.00 59.05 59.44 59.40 58.47 58.56 58.03 58.21 57.82 56.12 55.58 55.16 54.54
41.80 46.68 55.04 54.20 53.92 51.47 49.10 48.63 49.12 45.68 49.70 50.49 50.52 48.83 48.85 51.39 52.87 55.31 56.42 57.12 57.70 57.94 58.24 58.34 58.41 58.83 59.22 59.43 59.82 60.11 59.18 59.16 59.82 60.43 60.15 59.15 57.95 54.64 55.86 54.48 53.11 51.58 49.78
53.86 55.56 54.60 53.02 52.37 52.27 52.58 52.29 51.81 52.45 53.31 52.93 52.57 52.57 53.13 52.30 51.78 52.90 53.75 53.89 54.00 55.07 55.73 57.90 58.83 58.93 59.27 59.07 58.73 56.48 43.54 41.21 56.83 49.60 57.92 56.47 54.26 52.68 51.40 50.06 49.25 48.33 47.26
52.87 52.10 51.33 50.72 50.06 49.37 49.24 49.01 48.65 48.25 47.96 48.38 48.78 48.96 48.60 48.43 48.29 48.49 49.07 50.35 48.60 48.38 49.41 51.66 53.91 54.50 54.98 54.65 51.47 40.61 38.67 39.39 46.38 42.84 53.98 52.24 51.13 49.25 48.06 46.49 45.65 42.58 39.39

GFSGL_sfc_wetblb_093.txt.gz
Wetbulb
60.32 61.47 61.37 61.33 61.61 62.15 62.46 63.57 64.40 65.22 65.14 65.85 66.22 66.69 67.10 67.42 68.04 68.36 68.65 68.40 68.11 68.21 68.54 68.08 67.83 68.15 67.10 67.95 69.44 69.45 67.40 66.52 64.32 65.85 68.27 70.57 68.43 68.79 70.61 70.75 68.83 69.72 69.28
57.98 57.57 58.44 57.37 59.35 61.46 62.43 63.23 64.49 64.09 64.82 65.45 65.71 65.26 64.52 65.04 65.95 65.04 64.72 64.45 64.71 64.72 65.31 65.93 65.53 65.34 65.88 67.66 66.70 67.34 67.78 67.55 66.09 62.75 64.19 67.19 66.07 66.74 66.78 68.60 68.49 68.15 69.12
55.33 56.84 58.00 57.40 58.39 59.19 61.41 62.19 62.72 63.48 64.12 65.07 64.69 63.80 62.94 62.73 62.73 62.58 61.73 61.48 61.55 62.31 61.93 60.96 60.82 62.69 63.59 64.73 65.64 66.31 67.70 68.30 67.64 62.96 60.86 64.11 64.63 65.56 65.89 66.36 66.54 67.70 68.35
55.53 55.82 56.71 57.79 57.26 58.31 60.33 60.85 60.26 62.32 63.09 63.60 63.65 62.92 62.06 61.04 59.79 59.49 59.56 59.69 59.95 58.52 58.69 58.38 58.84 58.77 59.86 61.58 63.19 64.10 64.52 65.34 67.09 66.53 64.28 62.37 63.50 66.96 66.09 65.15 65.05 66.32 67.07
52.58 54.72 55.77 58.07 58.17 58.07 58.83 59.76 61.03 61.20 62.40 62.50 62.26 62.05 61.19 59.21 57.93 59.12 59.06 59.03 58.73 58.53 58.73 58.20 58.68 57.53 56.39 56.64 57.53 59.71 61.56 61.82 64.00 65.19 64.58 60.89 61.60 63.94 62.83 65.94 64.89 67.11 66.76
51.12 52.71 55.17 55.28 55.33 57.52 57.82 58.77 60.07 60.81 61.03 61.39 61.19 60.68 59.71 57.81 50.13 50.22 56.84 59.10 59.00 58.29 57.93 57.87 58.14 56.51 55.85 52.79 53.41 54.13 57.51 62.07 62.09 64.53 65.32 61.68 61.53 62.64 64.05 64.28 64.53 64.33 63.91
50.38 51.41 53.63 55.19 55.38 55.94 56.72 56.89 57.90 59.71 61.11 60.37 60.09 59.35 59.02 59.41 46.45 46.79 49.73 59.27 59.03 58.64 58.51 57.96 57.09 55.95 55.22 57.42 54.27 53.06 53.93 51.90 54.03 61.77 62.76 64.12 65.50 66.83 65.96 64.33 64.90 66.11 65.00
49.05 49.95 51.39 53.08 54.12 56.24 56.15 55.66 56.62 57.89 58.48 58.97 59.04 58.81 58.33 58.15 46.65 45.00 46.63 58.55 58.91 58.79 58.47 58.24 57.66 57.41 57.12 56.55 57.19 57.73 59.02 59.90 61.98 63.10 62.45 64.31 66.72 69.94 68.88 67.56 67.25 66.69 66.43
47.87 49.17 50.19 51.21 52.68 54.51 55.17 56.12 56.49 55.78 55.77 56.49 57.35 57.79 57.46 58.22 45.88 44.46 47.66 56.61 57.57 57.91 57.78 57.96 57.50 57.25 50.54 46.30 56.06 56.47 57.74 58.89 58.45 52.52 50.71 51.45 49.82 50.55 60.32 65.42 64.17 63.62 63.64
46.90 48.13 49.72 50.75 51.38 51.95 53.46 55.13 56.49 56.24 55.96 55.67 55.34 56.25 53.92 56.75 46.93 43.69 47.05 55.67 56.20 56.35 57.73 57.44 48.48 52.47 46.28 44.64 54.42 55.76 56.19 57.83 61.40 61.85 61.75 57.51 51.60 56.37 50.55 65.79 65.30 63.82 64.52
45.45 46.03 47.10 49.39 50.19 51.43 52.47 53.99 54.35 53.84 53.60 54.13 54.37 55.99 56.50 55.44 55.36 43.61 42.90 55.13 55.44 55.93 55.73 55.68 56.64 45.65 44.13 42.66 42.63 53.77 55.32 57.72 56.93 59.16 59.75 61.62 61.39 61.97 61.86 63.89 66.89 67.38 65.24
44.84 45.50 46.62 48.11 48.79 49.62 50.49 51.35 52.14 52.09 51.56 52.26 52.76 53.13 54.01 55.76 48.37 44.28 42.01 43.62 50.38 55.59 55.07 56.04 56.27 45.32 42.57 41.81 44.06 45.62 43.84 45.75 54.02 56.39 59.72 59.97 60.76 60.78 61.37 63.92 66.35 67.33 68.25
43.98 45.15 45.39 46.05 47.09 48.33 48.76 49.36 49.51 50.63 50.32 50.42 50.75 50.55 51.23 53.12 54.04 44.43 41.85 41.35 42.72 52.74 55.86 52.86 46.43 42.66 40.53 43.85 42.78 41.87 42.32 55.26 56.53 58.90 59.28 59.98 61.66 63.22 63.72 64.06 64.70 65.28 65.94
42.10 43.03 44.08 43.93 44.16 45.89 47.20 48.19 48.21 48.48 48.83 49.27 49.49 49.82 50.73 51.56 52.36 53.33 51.99 49.73 43.76 47.56 49.87 53.02 50.02 47.08 44.48 47.63 49.32 53.04 56.50 57.24 58.66 59.66 59.39 61.22 61.50 60.89 61.43 61.63 61.29 61.89 62.11
41.36 41.77 42.39 42.98 43.00 42.99 44.12 45.91 47.03 49.43 48.95 48.93 49.62 49.87 49.50 50.08 51.16 48.90 49.67 52.58 53.02 50.86 51.94 54.76 54.35 54.37 54.78 56.16 56.38 55.48 57.21 57.09 59.42 59.62 59.00 58.76 59.87 60.61 59.84 61.42 60.77 62.23 61.48
39.70 41.03 41.84 42.45 43.12 43.26 43.33 43.78 42.15 42.49 41.59 40.88 40.93 45.58 50.01 44.77 41.74 42.63 42.64 41.93 42.44 42.16 50.97 52.92 53.33 54.06 54.63 54.97 56.29 55.78 56.70 56.53 59.38 59.57 59.44 59.11 58.29 59.42 60.37 61.43 62.59 62.00 60.57
39.92 40.72 42.06 42.03 43.15 43.33 44.25 44.74 44.21 44.57 41.02 40.24 39.39 39.83 40.34 43.10 40.09 41.09 41.41 40.59 40.33 41.85 51.25 52.28 53.02 54.33 54.87 55.51 56.61 56.23 57.21 58.67 59.37 59.27 59.19 60.11 60.04 60.10 59.07 61.00 61.31 61.56 60.95
40.51 39.88 40.82 41.10 41.69 42.62 43.27 43.99 44.55 44.13 44.27 45.29 40.75 41.69 39.42 39.47 39.18 39.61 40.14 40.05 47.50 42.90 50.95 51.13 52.41 54.91 55.21 55.83 57.35 56.66 58.01 59.43 58.78 58.67 59.34 60.08 60.25 59.93 59.29 58.28 59.32 60.42 59.31
39.49 40.08 40.88 41.32 42.05 41.76 41.89 41.95 42.52 43.13 43.70 44.18 45.95 40.76 40.20 38.44 38.73 38.55 38.06 48.96 48.17 49.89 49.52 51.12 52.05 54.59 55.55 57.04 58.63 58.94 58.74 59.37 58.78 58.77 59.49 60.96 60.36 59.22 58.23 58.30 57.36 48.28 52.87
38.43 37.50 38.20 39.72 40.00 40.84 41.49 41.56 42.17 43.24 43.76 43.84 44.18 45.34 45.54 41.94 43.11 44.02 43.97 46.94 49.87 51.30 51.66 51.72 53.17 54.86 56.45 56.92 59.07 58.94 58.83 58.06 58.94 59.46 60.87 61.06 60.39 60.14 58.33 58.28 59.99 58.27 60.04
39.02 39.78 37.30 39.82 39.82 40.01 40.50 41.54 42.55 43.12 43.09 44.37 45.30 45.74 40.92 45.64 46.04 45.90 46.64 48.89 50.82 50.38 51.54 53.34 54.99 56.20 57.14 58.48 59.33 58.50 59.13 58.98 59.84 61.83 61.70 61.48 61.44 60.69 60.93 61.14 60.88 60.98 60.53
37.49 38.12 38.90 39.54 41.15 42.65 44.20 41.42 41.29 43.96 44.45 44.87 45.92 45.22 36.78 46.67 48.33 49.28 50.27 50.80 51.16 52.22 53.68 54.92 55.68 56.42 58.53 59.46 58.96 60.20 60.10 60.01 61.97 62.29 61.29 61.08 61.09 61.29 61.19 61.21 60.67 59.55 58.88
38.02 38.88 40.50 43.76 48.35 43.85 44.93 43.77 44.60 45.69 45.58 46.62 47.30 45.14 44.84 47.34 50.06 50.28 50.91 51.91 52.72 53.79 55.21 55.94 55.27 58.95 59.96 60.55 62.39 62.28 61.83 62.15 62.61 61.87 61.43 61.00 60.64 60.81 61.31 61.21 60.77 58.96 58.83
42.09 45.33 50.25 49.04 50.40 49.65 48.53 47.87 47.32 44.39 47.15 48.01 48.87 48.35 48.69 49.40 51.01 51.51 51.60 53.29 54.04 55.00 55.65 58.86 59.51 59.58 61.12 62.59 62.90 62.63 63.80 63.53 63.11 63.13 62.66 61.52 61.12 58.34 61.56 60.58 59.00 56.34 50.92
53.72 52.65 52.00 52.15 52.26 50.91 52.08 49.73 49.37 49.95 49.95 50.02 51.31 49.80 51.83 52.65 52.18 53.20 52.89 55.51 57.27 58.00 58.53 59.09 59.75 61.16 62.02 61.37 62.54 63.37 50.13 40.76 60.73 53.39 63.01 62.33 61.98 61.09 57.94 55.21 52.62 50.12 47.59
50.07 49.13 48.36 47.77 48.09 49.17 49.42 49.19 49.61 50.46 50.93 51.97 52.67 52.35 50.86 50.33 50.50 51.39 53.10 52.94 53.48 55.77 57.37 59.16 60.69 60.54 61.52 63.09 61.49 45.07 38.76 40.40 51.07 45.33 59.06 58.75 57.44 56.14 55.59 51.49 47.09 43.72 42.64

GFSGL_sfc_wetblb_096.txt.gz
Wetbulb
60.40 63.33 64.12 64.35 65.06 65.26 65.28 65.23 65.55 66.20 65.50 64.97 65.03 65.20 65.73 66.50 67.78 68.78 69.45 69.79 69.22 69.83 70.22 69.30 68.88 69.90 69.90 68.32 67.64 67.46 67.46 67.25 62.18 65.86 67.21 70.02 70.76 70.08 69.00 71.21 70.95 69.97 69.14
59.35 59.57 60.75 62.55 63.91 63.77 64.21 65.11 65.77 65.48 65.72 64.93 65.24 65.20 65.37 65.58 67.06 67.07 66.53 66.99 67.38 67.31 68.04 68.45 68.07 68.47 68.53 69.59 70.08 68.59 67.83 68.17 66.71 65.44 66.39 67.14 67.61 69.64 68.92 67.60 69.59 68.84 69.11
57.91 58.88 57.86 59.44 61.70 63.13 64.22 65.37 65.50 65.30 65.02 64.36 64.54 64.13 64.04 64.23 64.81 65.53 65.44 65.53 66.01 66.36 66.68 66.76 66.74 66.81 66.69 66.50 66.86 66.90 67.11 67.75 68.03 67.02 64.87 66.37 66.11 67.14 65.82 66.60 66.42 68.18 68.81
55.83 55.72 55.24 57.20 59.04 61.02 62.08 63.13 63.03 62.52 62.36 64.06 64.58 63.60 62.89 62.65 63.05 63.38 62.91 62.82 62.98 63.28 63.81 63.18 62.53 62.38 62.70 63.74 63.93 64.60 64.80 64.76 65.48 65.42 65.15 65.21 66.62 67.64 66.16 63.70 63.85 68.19 67.45
54.61 54.48 54.45 55.70 57.16 59.28 58.77 57.62 59.64 58.63 60.19 59.75 62.69 63.80 62.50 62.01 61.57 61.60 60.75 60.72 61.40 60.58 60.71 60.01 60.70 59.32 55.33 56.89 57.58 59.84 61.07 60.75 60.61 59.93 61.25 63.33 64.80 65.26 63.48 63.63 63.67 66.18 68.26
52.44 53.19 53.45 54.49 55.25 58.39 59.40 60.42 60.06 60.19 60.82 60.34 62.60 63.43 62.79 60.73 50.50 51.26 58.22 60.94 60.72 60.47 60.44 60.54 60.55 56.76 56.41 52.95 53.07 53.09 55.58 58.77 59.90 60.08 60.13 62.10 66.58 67.11 64.80 64.64 63.89 63.17 62.92
51.47 52.19 53.29 54.33 54.05 56.39 59.02 59.47 60.33 61.68 62.93 62.17 62.99 63.92 63.04 63.50 46.74 48.17 50.46 61.82 61.35 61.30 61.50 61.04 60.31 58.65 56.21 59.00 54.54 51.96 52.29 51.22 52.81 60.33 60.71 61.58 62.81 66.89 65.81 66.94 65.76 64.58 63.33
50.09 50.82 51.77 52.88 53.61 55.33 57.62 59.22 59.87 60.92 62.10 63.40 63.58 63.85 64.40 63.53 46.34 45.77 48.25 61.19 62.04 62.09 62.22 61.98 61.49 60.76 60.31 59.06 58.56 58.40 59.03 59.96 61.25 61.43 62.14 62.91 64.54 66.80 68.29 68.72 68.89 67.50 65.97
49.09 49.79 50.58 51.91 53.06 53.97 55.74 57.71 60.20 59.80 60.72 61.38 62.14 63.55 63.99 64.16 46.25 44.56 49.56 59.39 59.68 60.97 61.48 61.88 61.60 61.15 52.66 47.48 57.88 57.58 58.19 58.91 56.53 52.22 52.22 50.60 48.47 47.93 53.52 64.80 64.51 63.69 63.09
48.45 49.16 50.33 51.66 52.98 53.16 54.72 56.81 58.95 59.98 59.32 59.69 60.64 62.26 58.90 62.81 46.37 44.11 49.39 57.84 58.10 58.59 61.05 61.33 50.14 56.55 47.62 44.96 57.66 57.48 56.57 57.72 58.78 60.80 62.38 57.57 53.60 61.07 49.54 59.85 65.26 63.25 65.55
48.01 46.88 47.23 49.48 50.71 52.09 53.84 55.38 56.84 57.92 59.03 58.95 58.68 59.90 60.62 60.09 59.55 44.04 43.27 57.97 57.80 57.88 58.26 58.85 60.21 46.50 45.11 43.66 43.58 57.23 56.02 55.93 54.80 58.49 59.34 59.06 62.33 64.81 64.43 60.65 66.43 67.55 66.97
45.46 45.94 46.07 46.45 48.47 50.33 52.08 53.50 55.03 56.23 56.59 56.54 57.14 57.73 58.82 60.12 50.41 44.40 42.81 43.96 52.15 58.78 58.36 59.10 60.02 44.53 43.61 43.17 45.65 46.22 42.95 44.86 55.34 56.66 57.03 58.32 61.51 62.25 61.39 63.43 67.26 67.46 69.61
44.80 44.00 44.55 45.03 45.62 47.74 48.64 51.28 52.09 54.49 54.71 54.53 54.49 54.99 55.98 57.67 58.55 44.87 41.94 41.71 43.19 54.98 58.76 55.52 47.37 43.16 42.14 43.61 41.52 41.54 40.92 54.92 56.24 56.98 58.07 59.81 61.71 61.90 63.16 64.93 66.35 67.57 67.47
42.49 42.74 43.38 43.86 44.22 46.28 46.82 47.22 48.54 50.84 52.54 53.34 53.81 54.07 55.03 55.88 56.52 57.61 55.28 51.85 44.25 49.43 51.24 55.88 53.02 49.33 46.87 48.57 50.41 51.50 56.46 57.51 57.65 58.69 58.92 61.08 62.10 62.88 62.89 63.52 63.04 65.17 64.23
42.10 42.41 42.10 43.21 44.43 44.42 45.67 46.36 46.54 48.77 50.92 52.62 53.74 54.52 54.39 54.60 55.55 52.19 53.37 56.60 56.44 52.77 52.99 55.70 55.53 55.64 55.66 55.88 56.53 57.20 58.33 58.85 58.39 60.06 59.52 59.33 60.09 61.21 61.59 63.44 63.72 63.39 63.19
40.17 40.71 41.53 42.17 43.56 44.82 45.02 45.38 42.04 42.04 42.20 39.86 40.65 45.77 54.44 47.61 43.22 41.55 42.07 42.69 42.05 41.96 52.88 53.92 54.06 54.92 54.89 55.91 56.28 56.53 58.04 56.03 59.80 60.53 59.20 58.82 59.72 60.29 60.23 62.01 62.95 63.76 62.27
39.93 40.94 40.94 41.17 42.20 42.77 43.29 43.23 42.48 43.04 40.80 40.72 39.39 39.80 39.71 42.12 39.63 40.41 40.07 40.21 39.96 40.83 51.84 53.06 53.58 54.40 55.06 56.06 56.43 57.17 57.14 58.75 60.66 60.57 59.08 58.82 59.28 59.72 58.35 60.90 63.09 62.64 62.53
40.52 39.25 40.52 41.23 41.86 42.56 43.41 43.70 44.19 43.53 43.53 44.03 41.21 41.52 39.88 39.53 38.92 39.10 39.69 39.46 49.54 46.31 51.80 52.61 53.68 54.88 55.65 56.03 56.66 57.44 58.26 59.70 60.32 59.86 58.80 59.55 60.04 59.28 59.76 62.21 62.31 61.72 61.34
38.89 38.38 39.17 39.76 40.26 40.41 41.52 41.84 42.98 44.12 44.38 44.98 46.52 41.70 41.91 38.64 38.09 39.03 38.92 50.17 50.26 50.82 51.67 53.04 54.62 55.45 55.86 56.40 57.14 58.01 58.83 59.50 58.81 58.42 59.14 60.10 59.43 60.65 61.11 60.99 61.19 50.80 54.64
38.47 37.46 37.73 39.00 39.05 39.67 40.48 41.16 40.93 41.24 42.17 43.93 45.17 46.38 47.68 42.50 43.45 45.03 46.54 48.58 49.66 50.66 50.79 52.93 53.52 54.92 55.74 56.08 57.40 58.35 60.10 57.82 58.62 59.42 59.54 59.91 60.58 60.94 59.56 60.18 61.53 60.80 61.57
38.43 39.82 36.91 38.32 38.35 38.70 38.92 39.53 40.83 41.30 41.47 42.21 43.64 44.83 40.28 44.89 46.79 48.19 48.70 48.97 50.31 50.79 52.63 53.25 53.73 54.71 55.09 56.02 58.05 58.22 60.50 58.89 60.57 60.40 60.29 60.38 62.39 61.14 61.28 62.05 61.09 61.28 61.94
38.20 38.09 38.30 39.11 39.58 39.63 39.56 40.31 41.39 41.69 42.49 43.51 45.14 44.90 36.55 46.84 46.94 47.95 48.25 49.84 50.83 52.35 53.70 53.91 54.83 55.09 54.35 56.47 57.68 59.35 59.57 59.48 60.98 61.71 60.13 62.74 61.77 61.26 61.76 61.27 61.65 61.74 62.01
39.44 39.77 41.14 42.39 44.21 41.42 43.50 41.05 40.96 42.52 43.84 44.81 45.70 46.14 44.90 46.79 47.93 48.70 49.89 50.98 52.49 52.34 52.52 55.24 53.09 54.20 57.87 59.68 61.41 60.45 59.50 61.64 61.60 61.48 62.21 61.24 61.86 61.20 61.64 61.29 61.05 61.01 60.48
43.11 43.08 47.52 50.33 48.37 46.16 43.72 42.63 42.80 41.44 45.02 45.95 47.14 46.63 46.77 48.05 48.48 49.37 50.84 51.95 52.31 53.11 54.22 54.73 56.05 57.52 58.84 59.99 60.46 61.29 63.51 63.82 62.41 63.06 63.04 62.37 61.16 57.92 61.81 61.54 60.47 57.26 53.98
50.05 51.01 52.45 54.20 50.12 48.73 47.77 47.28 47.32 47.19 47.34 48.02 48.33 49.35 49.27 49.23 51.00 51.61 53.15 54.15 54.70 54.89 55.97 57.43 58.74 56.85 57.91 60.35 61.28 63.72 51.56 43.22 60.75 54.39 62.95 62.90 61.67 61.73 61.40 59.02 55.75 51.18 48.21
46.97 47.24 47.96 48.35 48.43 49.93 51.01 50.55 50.16 49.52 49.30 51.37 51.92 50.85 50.55 50.46 53.01 54.30 54.93 56.15 56.76 56.75 55.98 56.83 59.91 60.02 60.93 62.99 62.40 47.33 41.04 39.77 54.22 44.78 62.88 62.79 60.72 59.79 58.51 54.92 50.46 48.28 46.90

GFSGL_sfc_wetblb_099.txt.gz
Wetbulb
61.34 61.74 62.05 63.44 64.96 65.83 66.65 67.98 69.73 71.07 71.73 67.99 69.94 70.93 71.05 71.48 72.30 71.96 71.87 70.84 70.32 71.09 71.46 70.47 70.18 71.58 69.60 68.76 68.93 68.17 66.90 66.09 63.52 64.82 65.91 67.18 68.36 68.85 69.18 69.99 70.49 70.59 69.34
59.11 60.12 61.43 61.58 62.99 61.16 62.07 65.69 67.58 66.91 66.66 66.21 66.84 66.95 66.93 66.88 69.46 68.48 67.14 67.12 67.51 68.09 68.22 68.70 68.46 69.70 69.64 70.69 70.38 69.11 68.99 69.33 67.16 64.35 65.91 66.17 67.59 69.36 70.87 70.31 70.26 69.50 69.31
58.27 58.18 59.52 60.26 60.79 60.56 59.91 59.56 63.17 65.69 64.89 63.99 63.92 63.78 63.85 64.31 65.64 66.36 66.02 65.58 65.58 66.82 66.27 66.56 67.15 67.86 68.47 67.92 68.87 68.18 68.52 69.12 68.49 66.27 64.42 66.55 66.49 68.38 67.80 68.47 69.02 68.31 68.24
55.96 56.54 57.65 58.47 59.53 59.33 56.90 57.32 58.16 62.22 64.14 63.99 63.84 63.56 63.66 64.13 64.45 64.74 64.53 64.53 65.39 65.36 66.16 66.55 66.32 66.44 66.50 67.14 66.71 66.88 66.86 65.46 65.30 63.96 63.99 63.83 65.06 66.96 68.19 66.59 65.77 66.73 66.45
54.28 54.45 55.17 57.61 58.14 59.09 55.36 54.52 55.15 57.73 58.35 59.19 61.04 62.02 63.22 62.87 62.26 63.38 63.41 63.44 63.79 63.64 64.21 63.50 63.40 61.05 55.41 57.01 61.02 63.14 63.57 61.24 60.00 59.56 60.29 61.12 62.57 63.70 64.05 66.67 65.28 65.01 66.88
53.40 53.15 54.08 54.87 56.49 57.50 57.09 55.24 54.89 57.25 59.25 58.65 59.31 59.97 61.96 61.18 52.13 52.46 60.26 63.41 62.84 62.29 61.80 60.93 61.34 57.58 55.58 52.67 52.95 52.73 55.39 58.45 58.38 57.03 57.25 58.88 62.51 64.53 66.33 66.81 65.71 63.07 59.42
53.09 52.81 52.84 53.60 54.02 55.89 56.77 56.56 54.85 55.93 58.24 58.30 57.33 60.43 61.19 62.32 47.42 48.85 50.68 63.03 63.13 62.93 63.01 62.75 60.38 59.44 58.52 59.59 53.18 51.75 51.84 50.67 52.57 60.74 59.13 59.88 61.02 64.19 65.84 65.57 65.91 65.42 60.89
51.89 52.00 52.37 52.29 52.59 53.74 55.83 57.47 57.70 57.75 56.41 58.41 58.54 59.75 61.30 57.96 53.78 47.50 49.21 64.04 63.47 63.83 63.74 63.51 63.58 61.43 61.19 60.18 60.00 59.17 59.37 60.18 60.58 59.02 61.20 63.11 64.63 65.53 65.72 65.72 65.62 66.20 65.80
50.04 50.23 50.62 51.79 51.57 52.42 53.63 56.55 58.21 60.46 60.02 60.47 61.32 61.58 62.09 62.38 50.35 48.49 51.18 61.94 63.41 63.77 62.30 63.41 62.78 62.32 53.64 49.38 59.38 58.53 58.53 59.94 56.52 50.79 49.55 49.52 48.08 47.34 50.65 60.73 62.06 61.98 61.99
48.46 49.60 49.97 50.28 50.41 51.21 54.10 56.48 58.03 59.29 59.53 61.37 61.93 63.26 60.44 62.76 47.86 46.53 50.30 59.22 61.08 60.19 63.25 64.33 51.52 58.56 47.97 46.07 59.56 58.81 57.33 58.55 58.87 59.32 59.68 58.92 54.91 58.80 50.08 60.19 62.96 60.98 61.04
49.65 49.01 49.59 49.09 49.20 51.00 51.53 52.44 56.27 56.86 58.62 60.51 60.84 62.46 63.60 62.61 60.54 44.82 45.37 58.97 58.72 58.69 58.34 60.06 60.97 47.71 46.54 43.53 46.72 59.84 58.09 56.60 56.08 57.28 57.23 58.75 60.46 61.89 61.89 64.61 65.25 63.78 62.65
48.66 47.33 47.48 47.99 47.42 47.71 50.15 50.12 52.06 53.04 53.78 59.00 59.73 60.69 61.02 63.58 54.06 46.19 43.02 47.36 54.69 60.58 59.77 59.82 60.64 46.36 45.54 45.15 46.69 47.72 44.01 44.91 55.86 55.43 56.09 57.29 58.28 59.53 62.43 65.77 65.63 65.61 68.06
48.08 46.49 45.92 47.53 47.93 48.31 47.95 48.27 46.67 49.72 50.05 54.78 57.44 57.87 58.68 60.22 61.16 47.54 42.66 43.26 45.90 54.92 61.23 56.10 44.69 43.56 44.78 45.48 42.69 42.66 39.76 55.59 55.39 55.22 56.42 58.11 60.22 62.23 62.90 62.89 63.40 64.24 67.20
44.04 44.37 44.21 45.16 45.23 47.07 47.23 46.86 46.49 47.72 49.70 52.33 54.48 54.56 57.08 58.78 58.71 58.79 55.04 50.66 44.86 50.93 52.01 57.09 53.93 51.35 50.40 51.49 52.75 50.44 56.29 56.88 56.50 57.39 58.04 59.29 62.23 61.01 61.26 62.16 64.38 66.05 63.65
42.34 43.65 44.09 43.80 43.82 44.65 45.84 45.75 46.00 49.21 49.35 51.25 55.18 55.77 54.45 54.78 56.85 54.87 55.57 57.31 56.94 53.47 54.59 58.17 57.89 57.59 57.26 57.02 57.20 57.44 57.68 58.31 58.63 59.48 58.86 60.07 59.99 60.48 61.19 64.61 64.70 63.06 61.40
40.98 41.32 41.99 41.75 42.69 42.79 42.94 44.06 42.54 41.62 40.62 40.39 39.43 43.30 48.82 41.97 41.87 43.10 42.72 44.19 44.59 43.74 53.15 55.20 55.22 55.47 55.42 55.95 57.33 57.64 58.75 56.86 59.06 59.12 60.13 61.24 58.84 59.35 61.33 63.09 62.63 61.23 60.09
40.10 41.48 41.83 41.09 41.34 41.64 41.97 42.85 42.78 44.07 41.09 39.99 39.64 38.59 39.67 39.76 40.64 41.27 40.12 40.07 40.42 43.16 54.92 54.92 54.95 56.28 56.40 56.58 57.05 56.85 56.77 58.20 60.55 59.03 60.94 60.27 59.17 59.05 58.59 60.83 61.42 60.68 61.66
41.85 39.76 41.19 41.09 42.18 42.30 42.40 42.51 43.77 43.46 43.62 45.29 42.45 40.63 39.30 38.73 39.60 40.51 40.00 38.80 49.51 47.46 54.30 54.34 54.58 54.48 54.92 55.58 56.48 56.97 57.92 58.67 59.03 59.58 61.15 59.83 59.28 59.11 59.57 59.39 60.34 60.87 62.20
38.27 38.90 39.99 39.76 39.48 39.78 41.27 42.45 43.17 43.81 43.54 44.04 45.80 43.91 41.00 38.33 38.05 38.87 38.92 49.80 51.99 52.66 52.83 52.66 53.38 53.82 55.12 56.21 57.14 57.16 57.81 57.88 58.62 60.39 60.42 59.36 59.21 60.17 59.38 58.70 60.28 51.49 55.32
38.50 37.66 38.00 38.98 38.62 38.42 38.94 39.27 40.46 42.12 43.48 44.10 44.94 45.38 47.88 44.99 45.52 46.99 48.99 49.70 51.75 52.63 52.98 53.09 53.34 53.89 55.86 55.87 56.73 57.13 57.15 57.89 59.51 60.44 59.46 59.66 59.53 60.41 60.02 59.70 62.15 61.31 61.88
37.41 38.10 36.41 37.88 37.67 37.49 37.17 38.75 39.88 40.50 41.14 42.21 44.05 45.41 40.26 46.20 47.18 48.48 49.51 49.94 50.67 52.01 52.82 53.86 54.56 54.58 55.38 56.10 56.63 56.48 57.16 58.74 60.74 59.79 59.52 59.81 59.63 60.88 61.21 61.60 61.69 61.74 60.65
39.27 39.32 38.87 38.69 39.06 38.23 37.27 38.67 39.19 40.45 41.35 41.88 43.85 44.32 35.93 47.30 47.15 48.14 49.31 50.41 51.43 52.03 53.19 54.13 54.38 54.56 55.84 55.97 56.18 56.27 58.37 59.85 60.80 59.95 59.76 60.40 61.02 60.60 62.20 62.03 62.23 62.55 61.17
42.93 42.84 42.67 42.12 41.60 38.95 38.98 39.55 39.68 40.66 41.87 42.24 43.63 44.43 44.73 46.80 47.42 47.93 49.00 51.25 52.21 52.98 54.36 54.98 54.31 54.54 56.07 56.60 57.97 56.93 57.92 60.15 61.11 61.28 61.34 61.21 61.50 60.93 61.21 62.18 60.63 59.94 60.40
46.73 46.23 48.86 48.91 45.84 43.42 41.73 40.62 40.93 39.97 42.85 43.54 45.31 45.97 44.94 46.14 46.92 48.39 48.97 51.62 51.74 53.13 54.17 54.31 54.82 53.62 55.60 56.54 58.62 60.61 61.17 62.25 62.19 62.14 62.59 62.47 61.75 56.34 61.17 60.18 59.60 60.40 59.02
48.43 49.05 51.34 50.68 48.49 45.48 43.87 43.53 43.14 43.45 44.68 44.86 45.96 46.70 46.90 47.54 47.78 48.93 51.31 52.04 52.55 51.97 52.68 53.89 54.47 55.27 56.35 56.96 59.33 59.96 54.36 42.14 57.66 52.85 63.63 61.80 60.48 60.83 59.85 60.08 58.16 56.79 54.70
43.72 44.48 45.16 47.23 48.91 50.36 48.83 48.16 47.52 47.52 47.88 48.02 48.10 48.17 49.06 50.01 49.23 50.21 51.15 51.99 53.09 53.28 54.18 54.76 55.50 56.44 57.81 58.51 57.91 51.04 40.87 40.32 51.76 40.32 59.11 61.14 60.65 58.89 58.17 57.36 54.76 52.05 50.29

GFSGL_sfc_wetblb_102.txt.gz
Wetbulb
60.15 61.53 61.23 61.35 62.68 62.99 64.39 63.86 64.30 63.34 66.20 67.42 68.43 69.78 69.52 68.80 68.86 67.55 67.41 65.87 65.44 64.84 66.21 67.21 68.48 69.23 68.12 68.08 68.33 67.18 65.73 64.57 61.70 62.99 64.37 64.93 65.37 65.43 66.38 68.13 67.88 67.91 67.57
59.26 59.85 60.31 61.05 62.39 61.97 62.05 62.05 60.86 60.01 59.32 57.66 59.86 66.50 68.43 68.10 66.86 63.39 63.85 65.65 64.90 64.19 65.74 66.66 67.30 68.55 68.00 68.23 67.76 66.00 65.27 65.02 63.13 61.15 63.10 64.04 65.06 65.45 66.30 66.78 67.86 68.25 68.24
57.18 56.41 57.67 59.13 59.81 60.38 60.49 60.97 60.86 59.05 57.24 56.75 55.72 55.74 57.67 66.68 66.52 64.96 64.26 64.34 61.16 65.54 66.74 67.18 66.92 66.85 65.80 66.30 66.62 65.88 64.53 65.08 63.76 62.05 62.05 64.10 64.44 65.04 64.60 65.70 65.93 66.26 67.47
56.27 56.13 56.34 56.54 57.16 58.17 59.24 59.53 59.96 58.31 56.52 54.86 55.90 56.35 56.68 63.87 65.93 66.19 65.88 65.12 64.95 65.52 66.68 66.15 65.92 65.98 65.49 65.93 66.27 64.20 64.36 62.88 62.79 61.81 61.69 62.03 62.49 63.45 63.92 62.88 62.28 64.94 64.65
55.56 54.86 55.31 56.00 55.57 55.24 55.82 58.73 59.44 58.56 56.77 55.84 55.65 56.51 56.98 57.71 63.69 64.21 64.59 64.84 65.05 64.42 66.03 65.76 65.60 62.38 61.32 62.93 63.76 61.59 59.72 58.72 58.18 57.10 55.68 56.20 57.26 59.61 60.58 61.71 61.44 62.65 62.80
55.02 54.07 54.59 54.46 54.13 53.93 54.06 54.84 58.61 56.96 56.00 56.93 56.20 56.71 56.69 57.49 51.78 52.21 56.50 63.66 63.71 63.10 62.90 62.50 57.27 54.80 53.57 51.83 52.26 51.59 55.21 55.20 54.65 54.38 53.48 52.55 54.36 56.07 58.38 60.90 61.06 60.16 58.58
53.90 53.97 53.59 53.45 53.12 53.16 53.33 53.24 54.05 56.67 56.14 54.37 55.12 56.75 56.04 57.24 51.24 49.01 49.37 61.96 62.43 62.20 61.63 60.97 58.23 58.48 57.01 55.57 51.91 51.63 50.90 50.51 52.54 57.31 56.27 56.27 56.55 57.64 58.50 57.60 58.43 60.70 60.66
51.84 52.41 52.59 52.13 51.19 51.11 51.38 52.04 52.49 55.46 56.34 55.60 55.09 55.36 55.50 57.58 48.76 47.85 47.07 54.27 61.82 61.76 61.43 61.45 60.29 59.11 58.89 58.74 57.71 56.33 56.98 57.99 54.49 54.16 55.12 56.62 58.73 60.75 61.52 61.01 59.78 60.09 62.19
50.44 51.03 50.98 50.54 49.94 49.84 50.25 50.06 50.46 52.43 55.29 56.39 56.75 55.72 55.05 57.48 47.73 48.07 51.09 55.39 54.24 60.33 61.50 62.29 61.75 59.90 52.47 51.88 59.03 57.78 57.02 57.64 56.00 51.63 50.97 49.07 45.96 45.55 47.78 52.66 54.36 55.71 55.88
49.82 49.48 50.58 50.20 49.38 49.08 49.42 49.62 50.26 51.18 53.54 55.86 57.28 58.03 54.63 58.00 47.00 46.43 50.99 54.07 53.61 57.84 60.84 61.64 52.96 59.10 47.10 49.18 58.31 57.85 56.30 56.93 58.13 57.62 57.24 54.74 52.57 55.09 49.45 52.27 56.36 57.49 57.35
47.04 48.37 48.66 48.77 48.78 49.54 49.48 49.15 49.30 49.59 50.41 51.13 54.86 57.06 58.23 58.59 55.38 45.46 45.90 53.77 54.31 55.97 58.92 59.83 60.35 46.00 44.80 44.04 50.41 59.17 57.08 57.54 55.04 56.05 55.00 54.36 55.11 56.18 57.53 58.36 60.07 59.87 59.31
45.84 45.10 47.04 47.78 48.06 49.04 48.86 48.42 48.25 48.72 48.13 48.99 51.41 54.74 57.65 58.39 51.91 45.38 44.53 47.63 51.15 54.06 57.35 59.01 58.70 47.49 44.68 44.36 46.73 49.24 47.59 47.34 54.39 53.73 53.17 52.73 53.79 55.20 56.98 61.58 62.71 63.78 64.01
43.44 43.05 44.53 47.74 47.91 47.78 47.61 47.78 46.52 46.74 46.35 45.50 47.91 50.73 54.98 57.97 58.52 47.65 44.96 44.93 47.68 53.30 57.59 51.72 48.13 47.15 44.93 46.56 43.83 44.12 42.82 52.16 53.93 53.10 52.53 53.36 55.01 57.00 61.23 60.67 61.84 63.29 63.24
40.04 42.94 44.16 44.09 45.61 47.06 47.33 46.20 46.84 46.66 46.25 45.54 46.74 48.74 53.34 56.30 57.07 53.92 50.00 47.23 47.35 50.39 51.01 52.96 52.82 51.05 49.68 52.12 50.48 46.11 52.87 54.89 54.51 54.08 53.87 55.34 56.41 57.25 58.85 60.22 60.89 60.89 61.95
39.09 40.62 41.86 42.07 43.15 44.61 45.31 44.77 44.91 46.18 46.43 46.52 47.93 50.03 51.64 54.45 48.32 43.79 52.39 53.85 53.88 51.16 53.97 56.66 55.76 55.65 55.34 55.62 55.96 56.01 55.20 55.49 54.49 54.80 54.69 54.62 57.09 58.72 58.93 60.93 61.17 61.15 59.55
38.02 39.29 41.17 41.83 43.15 44.28 43.50 43.88 41.64 40.87 40.72 39.81 40.01 42.39 47.33 44.30 40.60 41.44 42.40 42.61 46.53 46.02 53.07 54.07 54.57 55.47 55.58 55.77 55.88 55.31 55.85 54.12 55.84 56.27 56.30 57.46 57.47 58.13 58.46 59.99 60.87 59.81 58.57
37.54 39.19 40.52 40.35 41.26 41.35 41.45 41.13 40.80 42.24 40.38 40.09 39.49 39.03 39.79 41.50 40.12 39.83 40.11 39.06 39.25 44.24 53.13 53.49 54.30 54.73 55.08 55.36 55.21 55.41 55.22 56.25 56.88 57.05 56.89 58.67 59.16 58.24 57.10 58.72 59.38 59.11 58.88
37.80 37.89 38.48 40.79 41.11 41.19 41.30 41.09 41.54 41.20 41.44 44.02 41.36 40.04 38.15 39.21 39.97 39.09 39.71 41.47 48.32 46.00 53.49 53.30 53.08 54.20 55.06 55.62 55.72 55.32 55.41 55.50 55.37 56.63 57.82 59.38 59.45 58.12 58.14 58.50 58.62 58.33 58.63
37.77 37.71 37.96 38.50 40.52 40.43 40.34 41.55 42.08 41.95 42.52 43.54 45.64 42.91 38.84 38.03 38.76 39.04 39.54 46.27 47.73 51.70 54.24 54.26 55.22 55.37 55.48 54.80 54.55 55.05 55.38 55.07 55.51 57.09 59.37 59.85 59.00 58.36 58.12 58.78 58.08 46.69 50.31
36.61 36.60 36.96 37.96 38.30 38.85 38.99 38.81 39.99 41.17 42.40 43.08 44.12 44.78 46.38 40.50 41.74 43.63 45.41 46.94 48.45 50.76 53.20 53.12 53.71 54.12 53.89 53.68 53.66 53.95 54.80 54.40 55.92 58.12 59.50 59.10 58.40 59.16 58.38 58.00 57.72 57.36 57.91
37.50 37.74 35.62 37.54 37.19 37.54 37.42 37.39 38.57 39.40 40.79 42.98 43.56 44.67 38.78 45.97 46.51 45.62 46.26 48.27 49.37 50.93 53.19 53.66 53.29 53.32 53.25 53.16 53.51 54.51 54.61 55.17 57.31 59.31 59.16 58.72 58.58 57.80 59.21 59.12 58.86 58.70 59.34
40.21 39.52 39.16 38.20 38.18 37.32 37.19 37.85 38.37 39.21 40.23 41.00 42.67 43.06 35.17 45.66 46.93 48.40 48.46 49.40 50.93 52.03 53.59 54.37 53.08 53.79 54.66 54.21 54.07 54.22 54.33 54.74 59.98 59.47 59.06 58.92 59.38 59.63 59.58 59.35 58.95 58.89 57.75
42.73 42.98 43.69 42.18 40.24 37.65 37.01 38.08 37.92 39.13 40.21 41.30 42.70 42.79 43.50 45.34 47.08 47.71 49.30 50.68 51.86 52.16 52.67 53.47 53.42 53.13 54.50 54.73 57.54 57.01 54.65 56.03 60.27 60.56 59.20 59.28 59.82 59.77 59.73 59.01 58.97 57.88 56.56
47.80 48.33 49.09 45.01 42.78 41.02 38.69 38.51 39.22 37.87 40.00 42.17 42.50 43.89 44.06 45.48 47.01 47.55 49.27 50.38 51.00 51.69 52.39 52.05 52.21 53.01 54.26 55.86 56.16 56.99 57.05 57.33 60.19 60.59 60.96 60.34 60.35 56.94 58.64 58.85 59.26 57.43 55.30
44.17 44.80 45.63 47.19 43.70 41.16 40.43 40.45 40.30 41.08 41.40 43.01 43.05 43.90 45.04 46.51 47.14 48.08 49.36 50.12 51.44 51.75 52.03 52.72 53.19 53.70 53.98 55.27 55.57 56.08 51.75 40.52 56.07 49.51 60.88 60.80 60.02 58.63 58.98 58.79 57.04 55.58 54.07
38.88 40.61 41.36 42.42 44.07 46.06 44.40 42.99 42.59 43.19 43.61 44.29 45.44 46.22 46.03 46.12 47.10 47.66 49.66 49.72 50.50 50.94 51.51 52.51 53.12 53.67 54.20 54.34 55.70 48.87 40.34 38.71 49.36 38.89 60.10 60.26 59.53 58.38 57.29 55.76 54.66 52.13 50.35

GFSGL_sfc_wetblb_105.txt.gz
Wetbulb
53.79 53.61 53.93 53.70 54.44 56.32 58.57 58.49 58.55 57.23 57.37 57.01 56.53 55.87 55.05 56.31 59.33 56.80 56.49 57.56 59.52 64.55 63.89 61.66 61.18 61.22 60.52 61.95 65.26 63.83 62.33 60.83 58.49 58.74 60.61 61.03 62.55 63.05 64.26 64.63 65.76 65.69 65.72
53.35 53.48 53.49 53.51 54.64 55.41 55.45 56.44 57.84 57.32 56.41 55.79 55.64 55.45 55.79 55.94 55.89 56.43 59.72 59.70 62.85 60.48 59.82 57.76 59.78 62.02 60.06 58.14 60.04 63.59 62.72 61.30 59.50 57.47 58.02 59.77 60.97 61.95 62.76 63.32 64.72 67.23 66.81
51.79 50.76 49.92 50.65 51.37 52.17 53.67 55.67 56.39 56.90 56.08 54.99 55.25 54.16 54.95 55.85 55.55 55.07 55.87 56.85 58.13 58.90 58.98 58.89 59.93 58.69 61.07 62.45 62.66 62.82 61.81 62.14 60.37 58.46 57.44 58.06 59.87 60.85 59.90 62.57 62.44 63.12 64.70
51.53 50.25 49.61 50.21 49.99 50.13 49.74 50.61 52.61 55.47 55.98 54.69 54.38 54.60 56.45 56.43 56.95 56.72 55.53 54.14 55.64 60.29 60.71 60.52 60.79 59.90 62.70 63.18 63.82 62.60 61.68 60.03 59.12 57.82 55.10 55.08 56.56 57.86 58.90 60.09 59.60 60.44 61.64
51.39 49.89 49.31 49.85 50.25 49.79 49.30 49.45 50.38 52.58 55.43 55.40 54.69 53.63 54.58 56.11 57.87 54.36 54.52 54.34 53.42 59.28 58.30 58.55 59.56 59.04 62.32 62.51 63.98 61.54 59.26 57.08 55.82 54.91 53.19 53.71 54.83 54.97 56.78 57.20 56.88 58.38 59.25
50.37 49.97 50.43 50.17 49.87 49.14 48.87 49.10 49.27 49.45 52.92 53.56 53.33 53.75 54.24 56.45 52.74 50.85 53.95 54.82 58.15 59.28 59.56 61.48 63.29 60.41 58.63 56.31 55.37 54.03 54.30 52.16 49.81 48.46 48.00 47.15 48.84 51.20 53.01 53.58 54.54 54.62 54.64
49.54 50.45 51.06 50.29 49.83 49.12 49.20 48.89 47.75 47.93 48.48 51.80 52.40 52.74 53.84 55.37 51.13 50.54 50.68 54.48 55.70 58.40 56.35 54.93 56.61 56.67 53.24 51.22 50.33 50.51 50.39 50.32 51.05 50.92 49.16 50.41 51.23 53.59 54.08 52.70 53.09 54.46 55.50
48.23 48.80 49.52 49.17 49.14 48.66 47.36 46.22 45.66 46.04 46.93 48.81 50.95 53.22 53.21 55.26 50.25 49.68 48.64 52.11 55.69 58.67 56.69 55.28 54.32 51.78 51.29 50.20 49.39 50.05 50.68 50.40 49.81 51.46 51.18 52.32 53.65 54.40 55.21 56.00 54.87 54.76 55.54
47.16 47.54 48.65 49.28 48.87 48.23 47.35 46.94 47.76 46.98 46.03 47.83 49.69 51.42 52.66 54.26 47.82 46.86 48.02 53.38 54.22 56.00 56.69 56.07 55.77 53.31 48.61 49.20 51.30 50.81 51.36 52.94 53.26 50.09 48.97 47.77 48.47 46.46 46.70 47.82 48.10 49.03 50.13
45.20 46.13 46.90 47.06 46.83 47.08 47.21 47.42 47.41 46.93 46.39 48.86 48.81 48.75 50.76 53.81 47.84 45.15 47.17 53.58 51.49 53.62 55.72 56.15 52.61 53.80 47.09 47.90 53.14 52.19 50.77 51.29 53.26 53.29 52.57 50.55 49.47 50.85 48.61 49.28 50.21 50.21 51.61
43.25 43.54 44.01 44.92 45.49 46.39 46.37 46.51 46.88 46.03 46.12 45.30 46.89 47.02 50.04 53.40 54.89 46.29 46.21 52.20 51.19 51.65 54.60 55.74 55.14 47.79 44.92 45.27 49.49 52.66 51.46 52.76 51.99 51.92 50.76 49.75 49.60 50.31 51.66 52.66 52.21 53.44 53.19
40.68 40.82 41.32 42.49 43.93 44.73 45.54 47.05 47.59 46.59 43.37 43.59 43.77 44.17 48.06 52.59 50.56 48.95 45.43 44.46 49.18 51.28 53.33 55.85 55.46 45.24 43.74 44.07 48.87 48.98 46.78 49.51 51.08 49.36 48.25 48.48 48.33 48.95 50.98 53.46 57.10 57.18 58.34
38.65 38.61 39.21 41.05 42.48 44.13 44.81 46.00 46.14 45.61 41.71 41.64 42.14 41.31 43.60 49.41 54.12 47.51 45.88 43.72 45.23 51.06 52.37 52.49 50.30 44.55 43.30 45.16 44.76 44.79 44.94 50.56 49.29 48.29 48.18 48.98 49.00 50.79 53.50 56.14 56.70 57.83 59.04
37.32 37.41 38.14 38.63 40.34 41.99 43.88 45.25 45.84 45.28 42.63 42.94 42.15 41.15 42.69 46.83 48.76 48.04 51.64 48.18 46.88 49.55 48.29 51.34 51.05 48.08 47.33 48.48 45.66 45.52 49.58 49.84 49.42 48.88 48.97 50.51 50.19 51.22 52.79 55.14 55.46 58.85 59.90
36.84 37.00 37.43 38.79 39.48 40.87 42.80 43.96 44.42 44.84 43.57 43.17 42.10 42.43 42.93 46.52 44.47 42.62 43.41 51.99 50.28 49.74 49.96 52.74 50.88 50.34 50.16 50.02 49.93 47.89 48.87 50.33 49.90 49.99 49.96 50.27 50.26 51.22 54.46 55.02 56.26 59.71 59.21
35.73 36.68 37.10 38.23 39.65 40.69 41.44 41.38 40.81 41.40 40.90 39.29 39.08 40.70 44.85 42.35 40.10 40.20 40.38 40.11 42.93 46.06 49.40 50.50 51.08 50.78 50.44 51.08 51.16 50.85 50.26 49.78 50.85 50.67 50.55 51.24 51.72 53.35 53.96 54.58 56.74 59.07 57.75
36.14 36.70 37.57 37.87 38.93 39.49 40.02 40.80 40.83 39.78 39.69 39.50 38.78 38.64 39.64 41.27 38.97 40.35 40.95 40.32 41.03 42.91 50.48 51.12 52.06 52.36 51.91 51.90 51.73 51.38 50.73 51.49 52.10 51.27 51.08 51.19 54.07 54.52 54.12 54.21 56.78 58.19 57.56
35.94 36.93 37.46 37.33 37.39 38.23 40.39 41.29 41.20 40.65 40.38 39.83 39.35 38.83 37.88 39.04 39.23 39.73 40.28 42.39 46.99 44.36 52.01 51.78 51.63 51.38 51.53 51.47 50.83 50.58 50.73 50.86 50.34 50.29 50.37 53.98 55.06 54.30 53.69 54.97 56.72 57.00 56.56
34.90 35.50 36.71 38.05 37.93 37.93 39.85 40.83 41.07 40.69 40.59 41.11 42.77 40.49 37.95 37.92 38.21 38.52 39.87 43.29 44.59 47.60 49.21 48.48 49.11 49.39 50.11 50.68 50.39 50.06 49.99 49.67 49.74 50.39 52.58 55.40 55.54 54.68 54.37 56.26 57.30 46.43 50.23
36.49 36.58 36.18 36.72 37.33 37.36 38.06 39.19 39.19 39.10 41.40 41.49 41.97 42.35 38.95 37.20 38.94 41.19 41.17 43.59 44.56 46.12 48.24 51.19 51.40 49.57 48.99 48.42 48.34 48.01 47.70 48.28 48.93 49.52 53.96 55.66 55.54 55.72 55.34 56.24 57.12 56.44 55.65
38.26 39.93 35.91 37.16 37.03 36.98 37.37 37.88 38.77 38.75 39.52 41.12 42.50 42.41 37.61 40.47 40.60 41.96 43.36 44.13 44.90 46.49 48.48 49.73 50.63 48.29 48.18 48.19 47.66 47.34 48.04 48.45 49.58 52.27 55.58 56.02 56.14 55.82 56.62 57.32 57.28 57.24 57.14
41.38 41.64 40.34 38.78 38.05 37.41 37.16 38.06 38.05 38.21 38.62 39.73 41.64 40.05 34.32 41.27 43.02 43.02 43.19 45.05 46.01 48.41 49.26 50.64 50.20 48.85 48.24 48.21 48.05 47.88 48.41 48.82 52.51 55.48 55.98 56.26 56.30 56.68 57.60 57.36 57.38 57.36 56.96
45.53 45.44 44.99 44.00 40.78 36.68 36.85 38.08 37.67 37.93 38.78 39.88 40.51 42.35 43.00 44.31 42.81 43.78 46.01 46.44 48.43 49.01 49.46 49.90 49.50 47.84 48.54 49.23 52.15 51.97 51.17 49.99 54.97 56.74 56.58 56.14 56.74 57.86 58.18 57.60 57.88 57.28 56.88
42.38 43.67 45.74 41.82 41.39 39.01 37.79 37.67 38.23 36.34 38.88 40.86 41.52 41.14 42.09 43.92 44.88 44.00 43.71 46.76 47.96 47.68 47.66 47.32 47.27 47.60 48.23 49.66 51.04 51.29 52.24 53.66 54.98 57.54 57.94 57.82 57.70 55.33 57.60 57.56 57.48 55.92 53.12
38.65 39.82 41.09 42.84 41.18 40.09 39.19 39.41 39.21 39.53 39.53 40.80 42.02 42.77 42.48 43.72 45.48 46.46 46.50 45.11 45.18 46.04 46.47 46.84 46.80 47.43 48.24 49.60 50.21 51.43 47.25 41.74 49.40 47.68 57.83 58.63 58.35 56.62 55.84 57.76 56.02 53.01 50.53
35.06 35.83 36.46 37.67 38.71 41.11 42.24 41.40 41.15 41.88 41.30 42.82 42.78 43.17 43.87 43.13 44.96 45.72 46.33 45.89 45.39 46.03 46.43 47.01 47.76 48.47 49.12 49.53 50.30 46.47 40.92 38.27 45.45 38.99 53.39 57.94 57.48 55.84 56.56 55.86 54.34 51.92 49.53

GFSGL_sfc_wetblb_108.txt.gz
Wetbulb
51.86 51.47 51.88 53.08 53.00 52.76 54.43 56.61 55.72 55.96 55.98 55.79 55.13 54.82 54.53 53.97 55.48 56.65 56.36 57.27 57.37 58.38 59.54 61.13 62.19 60.84 60.83 60.36 61.08 60.72 60.98 60.66 58.31 60.91 58.94 60.61 60.16 60.02 61.72 63.42 64.27 64.03 64.36
52.38 51.74 51.36 51.91 52.31 52.23 54.12 54.11 54.33 55.08 55.46 55.32 55.26 54.83 54.66 54.72 54.10 53.61 54.57 57.20 57.45 56.49 57.59 59.29 61.31 60.79 58.00 57.46 58.68 59.16 58.66 59.26 59.38 58.78 58.16 59.16 59.42 60.48 61.29 61.30 62.81 64.73 64.41
50.99 51.22 50.94 50.88 50.29 51.55 51.09 52.25 52.59 52.99 52.49 53.85 55.28 54.75 54.16 54.24 54.59 54.31 54.65 54.92 54.42 56.11 59.87 60.69 60.00 59.91 58.16 58.42 57.50 57.80 58.18 58.83 60.00 59.74 58.73 57.64 58.38 57.81 56.77 57.64 59.92 61.29 62.84
49.53 49.05 48.51 48.08 48.62 49.86 49.58 49.81 50.49 51.40 51.65 52.74 54.02 54.85 54.98 54.45 55.40 55.84 55.64 54.25 54.12 54.10 54.97 57.73 58.88 59.52 59.60 58.95 58.28 57.38 57.54 58.42 60.96 59.39 57.10 54.70 53.95 54.89 54.69 55.28 57.72 58.20 59.67
48.94 48.24 47.99 47.98 48.19 48.10 48.30 48.41 49.26 49.19 50.16 51.76 53.21 53.53 53.06 53.57 54.60 54.14 53.75 52.99 52.41 52.64 53.75 54.84 54.83 59.54 58.86 58.29 58.95 58.93 59.35 60.20 59.97 58.31 55.53 55.03 54.44 53.96 54.63 54.86 53.87 54.98 56.26
48.10 48.03 48.92 49.04 49.13 48.58 48.50 48.58 47.73 48.09 48.11 49.26 50.93 52.22 52.05 53.79 51.17 50.18 52.09 53.29 54.18 54.30 54.51 54.48 56.25 58.18 57.46 55.92 56.84 57.34 60.99 59.30 55.74 53.89 51.23 50.54 49.23 50.20 51.27 51.58 52.30 51.32 51.25
47.30 48.44 49.15 49.07 49.27 48.85 49.19 48.61 47.10 46.89 46.45 46.93 48.49 50.26 50.56 51.48 49.14 48.32 50.10 53.20 54.34 54.64 54.96 53.55 55.30 58.72 57.13 58.52 53.91 54.45 54.08 52.82 54.51 51.44 48.17 47.53 48.90 50.95 51.43 50.31 50.60 51.22 51.95
45.79 46.35 47.38 47.69 47.82 48.06 46.90 46.07 45.50 44.52 44.88 45.06 45.34 48.21 49.74 50.84 48.42 47.47 48.09 52.41 53.66 54.22 54.89 54.84 56.97 57.95 58.77 58.82 56.12 53.44 52.31 52.12 50.94 51.61 49.99 51.68 52.05 52.62 53.25 52.74 52.91 50.78 50.63
42.97 43.71 44.77 45.66 45.59 45.93 46.27 46.87 46.98 45.66 44.60 44.12 46.04 46.15 47.80 49.16 47.70 46.68 47.59 52.48 54.14 54.18 55.66 57.22 56.08 55.26 47.16 47.41 51.80 50.59 49.98 50.19 49.15 48.31 48.41 47.30 47.26 47.48 51.09 47.90 46.04 46.16 46.02
41.96 42.59 43.14 42.82 42.32 42.29 43.35 44.41 45.77 46.42 46.68 47.62 46.93 47.52 47.88 47.55 46.31 45.82 47.00 52.52 53.27 53.43 54.75 55.82 50.58 52.46 45.29 45.78 51.70 50.61 49.71 50.49 52.43 50.21 48.82 47.55 47.43 48.60 45.83 48.33 48.16 47.27 47.09
41.74 41.24 41.19 41.04 41.05 41.70 41.90 42.20 43.29 44.17 45.66 46.70 46.56 45.79 46.49 47.37 48.38 45.88 44.45 50.75 53.44 52.48 52.82 54.81 52.98 44.68 43.24 43.80 46.98 51.79 50.89 50.69 50.31 51.08 50.08 49.37 48.41 48.33 49.01 49.45 49.91 49.92 48.57
39.06 39.53 39.33 39.26 40.36 40.82 40.31 41.82 42.25 42.85 44.33 45.59 44.24 43.03 45.51 46.36 46.50 46.95 44.19 43.99 49.74 52.11 52.20 56.14 53.24 43.47 43.74 44.10 48.42 45.50 43.90 49.09 51.18 49.36 47.90 46.98 46.99 47.30 48.59 49.52 51.94 52.53 53.81
37.52 37.36 37.80 38.69 39.02 39.22 39.58 39.75 40.89 44.01 44.72 45.13 44.32 43.22 41.66 44.16 46.86 46.97 46.53 44.19 43.23 49.78 53.41 52.69 47.65 43.35 42.67 43.76 45.88 44.10 44.97 50.94 49.27 47.87 47.17 46.60 47.05 48.49 49.12 52.06 54.45 55.48 56.20
36.25 36.36 36.77 37.14 37.89 38.18 39.22 39.87 40.86 41.92 43.55 44.16 42.57 40.68 40.56 42.68 46.15 48.55 51.28 50.96 44.99 47.34 47.32 48.82 48.79 47.06 45.93 46.97 46.30 46.62 51.46 51.04 49.43 48.32 47.56 47.22 48.29 48.63 49.49 51.58 53.02 54.12 55.77
35.74 36.01 36.36 37.13 37.40 37.55 38.71 40.11 41.20 43.74 45.19 44.96 44.02 43.33 40.48 40.99 42.80 42.83 45.12 50.11 50.79 49.17 48.20 49.43 49.41 49.25 47.99 48.57 48.74 47.85 49.00 49.35 49.10 48.55 47.98 47.79 48.22 48.45 49.40 52.52 53.37 54.25 56.34
34.74 35.53 36.52 37.14 37.62 37.87 38.42 39.66 40.57 39.88 41.46 40.29 40.17 43.61 44.14 42.01 39.61 38.97 39.90 40.59 40.81 43.10 50.07 48.91 48.72 49.41 49.04 48.82 48.64 47.75 47.91 48.76 49.29 49.01 48.15 47.75 48.26 48.82 50.23 52.58 53.47 54.38 56.90
34.81 35.22 35.65 36.37 37.32 37.27 37.78 38.85 38.26 41.52 39.62 39.51 37.92 38.64 39.83 40.51 38.84 39.64 39.48 40.71 40.61 42.01 49.58 49.05 49.53 49.55 49.34 49.59 49.60 49.58 48.88 49.23 49.91 49.29 48.87 48.77 49.17 49.92 51.74 52.10 53.21 54.85 56.94
33.80 34.90 34.78 35.50 36.24 37.46 37.44 36.92 40.08 39.38 39.80 40.10 38.76 39.05 37.74 39.01 39.19 39.75 39.42 41.73 45.55 44.52 49.70 49.68 50.09 50.81 50.89 50.42 49.94 49.82 49.65 49.94 49.39 49.23 49.00 49.23 50.66 52.00 51.83 51.91 53.14 53.97 55.76
34.07 34.86 35.99 36.49 37.11 37.61 37.87 37.49 39.20 40.28 40.91 40.93 41.42 39.51 37.85 38.13 38.52 38.15 38.53 42.80 44.07 45.07 49.47 50.84 50.87 50.78 50.87 51.41 50.71 50.30 49.80 48.74 48.17 48.02 48.34 50.38 52.04 52.51 51.68 51.92 52.43 44.91 48.54
35.50 36.35 36.69 37.33 37.15 36.77 37.33 36.93 38.33 39.97 40.18 40.60 41.14 41.86 39.26 36.57 37.22 40.34 40.24 42.19 43.01 43.18 47.48 48.25 48.79 48.95 50.18 49.49 48.08 47.05 46.30 46.24 46.36 46.77 47.21 49.78 52.65 53.27 52.42 52.19 53.29 55.65 55.07
36.38 38.38 37.01 39.18 37.74 37.26 36.97 37.39 38.72 39.00 39.02 40.61 41.65 41.90 36.15 39.69 38.44 39.91 40.94 41.87 41.69 42.85 45.33 46.91 48.66 48.01 47.38 46.78 46.45 46.54 46.65 46.18 46.34 47.20 48.50 50.59 52.52 52.84 53.40 55.08 55.39 56.80 56.58
38.93 43.99 43.46 42.97 39.07 37.82 37.33 38.00 38.36 38.59 38.87 39.17 40.50 40.85 33.49 42.39 40.19 39.56 40.85 42.18 42.92 44.67 46.94 47.35 47.07 46.96 47.34 46.78 46.56 46.20 45.72 45.41 46.98 49.85 52.05 52.89 53.48 54.68 55.40 54.97 56.08 55.61 55.91
40.49 42.45 42.48 41.53 40.00 36.52 37.31 37.97 37.92 37.63 38.44 38.83 40.84 42.37 41.92 43.14 43.38 41.10 41.65 44.85 45.72 46.36 47.24 47.88 46.60 46.21 46.32 47.37 47.93 48.21 48.68 49.17 49.71 52.39 52.96 53.65 54.62 55.42 56.70 56.04 56.17 56.08 56.44
38.16 39.38 40.90 41.44 40.14 38.60 37.71 37.71 38.00 36.23 38.71 40.22 40.58 41.77 42.80 43.99 44.15 43.23 42.60 43.41 44.98 45.68 45.97 46.38 47.75 46.12 48.53 49.65 49.94 50.01 50.74 51.82 52.59 54.10 55.09 55.84 56.06 53.75 56.42 56.76 56.76 55.09 52.38
35.52 36.22 37.00 37.53 39.32 39.91 39.03 38.95 38.43 38.48 38.72 40.78 40.71 41.43 41.82 43.05 43.34 43.05 42.58 45.19 45.54 44.66 47.06 46.17 46.25 47.14 47.43 48.01 48.63 49.09 45.10 41.02 49.02 43.25 56.08 56.24 56.28 56.42 56.00 56.56 53.51 51.21 49.65
32.86 33.66 34.00 34.64 35.11 36.41 38.35 40.85 40.49 40.60 39.71 41.32 42.30 41.64 42.45 42.77 43.48 43.32 43.62 43.15 43.56 43.72 44.49 44.92 46.56 47.36 47.29 46.68 47.05 42.94 39.51 38.42 44.42 37.84 51.87 54.80 55.62 56.08 56.01 55.19 51.98 50.74 48.21

GFSGL_sfc_wetblb_114.txt.gz
Wetbulb
50.57 51.61 51.93 52.29 52.54 54.14 54.21 54.60 55.29 57.21 57.71 57.55 57.16 56.34 55.45 55.26 55.36 55.07 54.60 55.03 55.31 55.81 57.17 57.80 58.32 59.50 59.58 60.13 60.87 60.99 60.37 60.53 58.17 59.88 63.41 64.01 63.67 62.53 64.65 65.05 64.71 65.13 65.27
50.11 50.81 50.89 50.90 51.33 51.99 52.86 53.26 53.51 54.26 56.21 57.01 56.83 56.17 55.44 55.39 55.01 54.07 53.79 55.30 55.28 54.82 55.48 56.17 56.87 58.64 59.51 60.87 60.37 59.92 60.78 62.16 60.64 58.18 61.41 61.26 61.61 61.51 62.43 63.77 64.15 65.09 65.10
49.19 48.99 49.14 49.66 50.05 50.24 50.92 51.76 52.66 53.36 54.43 55.08 55.87 55.61 55.48 55.22 55.07 54.43 54.23 54.37 54.54 54.90 55.46 55.41 56.07 57.48 57.71 59.24 60.12 59.52 60.33 61.07 61.28 60.08 60.19 61.26 62.15 62.65 61.35 63.32 61.85 62.50 63.93
48.07 47.77 47.64 47.74 47.87 48.13 48.83 49.37 50.18 51.38 52.20 53.25 54.22 54.98 55.17 54.96 54.99 54.66 54.13 54.24 54.51 54.86 55.24 55.29 55.49 55.46 55.73 56.97 58.97 59.24 59.63 58.66 58.27 58.90 58.02 59.10 60.32 61.74 61.64 61.05 58.46 60.94 61.37
46.94 46.73 46.92 47.65 48.09 48.27 48.51 48.81 49.39 49.59 50.49 51.19 51.72 52.32 52.93 53.41 53.81 54.12 54.68 54.36 54.18 54.16 55.03 55.43 55.66 55.72 55.46 55.26 56.62 58.21 58.44 57.99 57.69 56.90 56.16 56.80 57.75 57.85 58.46 59.12 59.27 59.37 59.33
44.89 44.90 46.16 46.75 46.97 46.99 47.47 47.82 48.04 48.30 48.85 49.44 49.80 50.28 50.67 51.41 49.23 49.21 52.58 53.73 54.24 53.98 53.49 54.12 54.57 54.40 54.55 52.95 53.44 54.32 56.92 57.46 55.16 55.42 56.12 55.48 56.16 58.58 57.42 57.30 57.82 55.42 54.46
43.37 44.25 44.70 44.97 44.89 45.18 45.46 45.48 45.63 45.98 46.96 47.04 47.74 48.47 48.75 50.04 47.12 46.89 48.71 53.07 53.00 53.15 52.88 52.56 52.55 53.77 54.01 55.08 52.87 51.52 51.91 51.62 53.38 56.87 55.52 56.55 57.76 58.79 57.89 56.30 55.76 55.74 55.82
41.92 42.34 42.96 42.97 42.85 43.44 43.48 43.45 43.95 44.48 44.89 45.49 46.37 47.43 47.89 48.76 46.22 45.22 46.50 51.44 51.81 51.18 51.52 52.27 52.81 53.25 54.32 54.24 54.39 54.42 55.10 55.47 55.07 54.87 56.90 58.11 59.57 57.79 58.32 58.40 56.30 55.48 54.62
40.42 40.82 41.38 42.01 41.77 41.84 41.85 41.75 41.73 41.76 41.87 42.63 43.53 44.39 46.71 48.38 44.92 43.79 45.24 48.86 49.00 49.67 50.65 51.67 52.44 53.17 50.39 47.34 52.76 53.63 54.38 54.98 53.66 50.62 51.81 51.15 49.29 48.92 52.43 53.90 52.30 51.23 50.09
39.23 39.89 40.75 40.89 40.59 40.59 40.36 40.41 41.10 41.25 40.84 42.42 42.30 43.42 44.21 46.52 44.68 43.40 44.51 47.11 46.84 47.43 48.74 50.90 49.04 51.22 48.13 45.75 49.56 51.52 51.39 53.41 54.85 55.08 55.32 49.70 49.35 49.48 48.57 56.49 52.42 51.04 51.65
38.93 39.26 39.58 40.45 39.87 39.83 39.69 39.81 39.96 39.41 40.91 40.72 40.41 41.86 44.31 45.03 45.36 43.17 42.31 46.64 47.00 47.92 49.41 50.61 53.77 47.25 44.15 43.61 43.39 55.18 54.57 55.11 52.38 54.16 53.03 53.61 52.51 52.81 52.84 53.37 53.65 53.78 53.16
38.14 38.03 38.02 38.60 38.93 39.35 38.95 38.81 39.10 39.23 38.58 39.03 39.21 40.57 41.45 43.14 43.22 43.31 42.34 42.38 45.51 48.20 49.55 52.28 51.40 46.14 44.51 44.33 46.83 44.33 44.87 51.03 53.40 52.36 52.55 51.14 51.62 51.03 52.62 52.67 53.29 53.52 55.31
36.92 36.63 36.88 37.74 38.27 38.39 37.81 37.48 37.40 38.28 38.09 37.94 38.60 39.02 40.79 45.34 47.32 43.72 42.05 41.48 41.20 43.26 49.88 48.99 44.03 43.06 42.86 47.01 43.14 44.33 46.31 53.05 51.93 51.04 51.70 51.53 51.21 52.33 52.84 53.23 53.64 53.95 54.45
34.59 34.78 35.73 35.74 36.35 37.22 37.75 38.00 37.66 37.51 37.42 37.72 38.33 39.19 41.45 43.96 46.53 46.41 45.62 46.62 43.53 45.35 48.42 49.61 48.32 45.71 42.70 46.98 46.37 47.73 53.11 53.25 53.02 52.55 51.57 50.66 50.89 51.51 53.38 54.44 55.16 55.73 56.23
33.54 34.35 34.80 35.32 35.79 36.23 37.18 37.53 37.91 38.84 38.99 38.48 39.29 40.97 41.31 42.67 44.59 43.02 43.53 47.39 49.58 48.44 48.95 50.25 49.62 47.81 47.64 49.07 50.31 52.65 52.80 53.38 52.46 51.59 50.98 50.70 50.97 52.34 53.01 53.36 54.56 56.36 56.40
33.09 33.50 33.97 34.56 35.01 35.43 36.03 36.69 38.24 38.21 38.47 37.90 37.75 38.86 41.04 40.62 39.86 37.23 40.51 40.16 39.26 41.61 48.32 48.42 49.14 49.05 48.96 50.11 51.19 51.65 52.75 51.64 52.61 52.43 52.07 51.65 51.44 52.09 52.74 53.64 55.64 56.48 56.81
31.76 32.51 32.93 33.59 34.02 34.31 34.97 35.26 35.12 38.23 38.98 38.44 37.83 38.10 38.11 39.50 38.64 39.45 39.21 40.89 38.53 41.07 48.06 48.08 49.63 50.38 50.70 51.71 51.99 52.18 52.20 53.07 53.27 53.08 52.37 52.57 52.86 52.69 51.19 53.68 55.53 56.38 57.70
32.09 33.56 33.53 33.95 34.72 35.14 35.47 35.65 36.19 36.19 36.97 37.66 39.88 38.61 38.01 38.62 37.70 37.19 38.89 42.44 46.23 45.43 47.86 48.89 50.25 51.53 51.77 52.10 52.06 52.19 51.95 52.03 52.69 52.31 52.62 53.05 53.57 53.45 53.42 54.40 55.78 56.58 57.04
32.99 33.72 34.71 35.77 36.55 37.09 37.29 36.40 36.22 37.48 37.24 37.75 41.58 38.96 39.16 37.17 36.95 36.74 37.24 45.07 44.14 44.76 45.52 48.76 51.64 51.61 52.76 53.07 53.44 53.09 52.71 52.09 52.30 52.58 52.96 53.16 53.43 54.13 54.69 55.86 55.53 44.87 48.80
33.63 34.77 35.72 37.45 39.81 40.01 38.25 36.35 36.36 37.09 37.29 38.63 40.09 40.77 41.07 40.03 40.56 41.05 41.47 43.81 44.16 44.40 45.15 47.07 51.81 52.92 53.07 53.24 53.01 52.40 51.79 51.88 52.59 52.55 52.66 53.46 54.21 54.89 55.40 55.95 55.92 55.05 54.67
34.37 35.81 35.77 41.07 39.78 38.80 37.81 36.90 36.82 37.47 38.16 40.08 40.70 41.23 35.99 41.37 40.81 40.56 41.37 43.04 43.78 44.26 44.87 46.63 51.89 52.92 53.50 53.29 52.83 52.82 52.91 51.86 51.16 51.60 52.29 52.52 53.41 54.48 55.62 56.71 56.62 56.32 56.74
35.48 37.28 39.41 40.96 39.32 37.77 37.91 37.89 37.90 38.71 39.28 39.20 40.22 40.75 33.63 40.85 41.13 40.36 41.88 43.43 44.61 45.29 46.00 46.38 48.96 52.67 53.06 52.66 52.33 51.73 50.31 50.06 51.16 53.12 54.69 55.99 56.57 56.79 56.81 57.27 57.38 57.17 56.65
34.29 35.58 37.14 38.07 39.85 37.06 38.29 38.57 38.14 38.19 38.91 39.23 40.07 41.23 41.29 42.05 42.90 41.05 41.72 43.80 44.50 45.03 46.11 47.54 49.30 50.24 51.39 52.08 51.93 51.42 50.55 50.29 51.95 54.31 56.73 56.97 56.94 57.42 57.82 57.67 57.83 56.79 56.38
32.96 33.90 34.71 35.25 36.03 37.75 39.00 38.27 38.45 36.95 38.48 39.96 39.70 41.30 42.14 44.09 44.61 43.08 42.26 43.03 43.96 46.22 47.69 48.97 49.00 49.11 49.90 50.21 50.66 51.93 53.50 54.26 56.07 57.58 57.93 57.78 57.61 54.42 56.30 55.72 55.44 55.66 55.78
31.02 31.57 31.96 32.67 33.51 34.23 36.18 39.04 38.78 39.09 39.59 40.60 41.34 41.51 41.95 42.72 43.94 45.29 44.79 44.81 45.02 45.91 47.57 48.56 49.38 49.82 50.36 51.38 52.40 54.27 43.11 37.44 53.99 46.67 58.30 58.24 57.51 57.42 57.63 57.37 56.79 52.03 50.45
28.88 29.43 29.61 30.55 31.04 32.06 32.66 34.17 35.77 37.52 40.24 41.54 41.89 42.39 42.88 43.31 44.01 45.31 45.69 46.58 46.57 46.34 46.23 48.60 49.47 50.58 51.32 51.45 51.34 40.41 36.06 34.89 44.87 36.38 54.12 56.55 56.55 56.44 56.52 55.76 50.55 49.31 48.77

GFSGL_sfc_wetblb_117.txt.gz
Wetbulb
57.99 58.48 58.73 59.18 59.93 60.45 60.57 61.43 62.09 62.92 63.59 63.72 63.80 63.18 62.35 61.70 61.65 61.17 60.60 59.72 59.19 59.78 60.60 60.76 60.88 62.05 60.25 60.36 61.58 61.86 61.79 62.58 58.61 60.73 64.13 66.48 66.75 66.60 67.55 68.26 68.47 69.25 68.75
56.02 56.68 56.68 57.35 58.06 58.51 59.11 59.93 60.96 60.59 61.06 60.96 61.21 61.57 61.73 61.33 61.30 60.54 59.13 58.07 58.05 57.70 58.54 59.57 59.55 59.46 61.06 61.15 60.38 61.05 60.95 61.87 61.82 59.28 62.84 63.96 65.59 67.13 67.11 67.44 66.93 67.28 68.60
55.08 55.05 55.78 55.88 55.99 56.24 56.38 56.86 57.22 57.65 58.19 58.95 59.10 59.11 59.90 60.27 60.55 60.48 59.48 58.42 58.31 58.77 59.26 58.54 58.42 59.19 59.47 58.88 59.60 58.46 58.93 60.87 62.67 60.20 59.27 63.42 64.56 65.85 66.07 66.84 65.79 66.34 68.07
53.58 53.66 53.68 54.22 54.15 54.34 54.74 55.10 55.32 55.67 55.61 55.97 56.61 57.06 57.68 58.44 59.11 59.49 59.74 59.29 59.04 58.50 59.64 59.64 58.19 57.88 58.02 58.35 57.89 57.63 58.26 58.09 58.71 58.09 58.32 60.99 63.47 65.10 63.91 63.26 63.03 64.23 63.38
51.66 51.53 51.83 52.38 52.79 52.75 52.78 53.14 53.41 53.36 53.39 53.74 53.66 54.11 55.11 56.30 56.00 57.77 58.36 58.88 59.36 58.88 59.52 58.23 59.36 58.42 56.21 56.51 55.97 56.99 57.59 56.15 56.74 56.82 56.83 58.25 60.00 60.08 59.78 62.10 61.40 62.85 62.92
50.26 49.94 50.46 50.62 50.75 50.78 51.06 50.97 51.13 51.07 51.57 51.90 51.90 52.00 53.07 53.34 49.26 49.17 53.21 57.87 58.26 58.14 58.01 58.55 58.67 56.58 55.79 53.44 53.17 53.19 54.37 55.66 56.53 55.69 56.48 55.49 57.01 59.61 60.52 60.06 61.18 60.27 59.81
48.66 48.82 48.89 49.08 48.56 48.73 48.89 48.85 49.13 49.51 50.18 50.11 50.38 50.78 50.86 51.99 47.08 46.31 47.64 53.07 55.35 57.17 57.51 58.01 57.35 56.68 55.10 55.97 52.51 51.39 51.89 51.09 52.19 57.72 57.62 57.84 57.54 59.48 60.13 59.21 61.26 61.21 61.41
47.34 47.36 47.54 47.19 46.75 47.14 47.52 47.53 48.04 48.32 48.38 48.10 48.34 48.94 49.14 49.98 45.88 44.62 45.35 50.77 52.13 54.42 55.56 56.19 56.73 56.24 55.04 54.75 55.17 54.69 55.72 56.99 57.43 56.68 57.90 59.44 60.12 61.31 61.23 60.58 59.61 60.31 58.17
45.77 45.57 45.81 45.88 45.58 45.80 45.61 46.02 46.77 46.53 46.36 46.46 46.80 45.43 45.22 46.69 44.35 43.69 45.93 50.14 50.55 51.83 53.93 54.46 53.13 53.25 49.63 46.01 53.75 53.08 54.51 55.46 54.74 50.73 51.15 50.20 48.79 48.38 55.53 56.88 54.93 54.30 54.19
44.35 44.43 44.80 44.72 44.23 43.91 44.48 44.71 45.21 43.22 42.54 43.71 42.41 43.17 44.36 44.91 43.71 42.19 44.28 48.39 49.37 49.91 50.55 51.45 47.60 49.61 45.77 44.35 51.90 53.61 52.90 54.06 53.50 54.86 54.91 52.17 51.64 55.28 49.99 57.87 56.86 54.25 55.20
43.41 43.20 43.23 43.75 43.42 42.61 42.12 42.04 41.72 41.37 40.45 40.21 41.10 42.39 43.41 44.33 45.91 42.23 42.02 47.16 46.12 47.07 47.60 48.52 51.21 45.38 43.75 42.92 43.19 52.66 51.85 52.68 51.76 55.18 55.38 56.00 57.53 57.51 54.36 56.90 56.55 54.93 55.46
41.88 41.64 41.76 41.29 39.77 39.44 38.66 38.83 39.40 39.32 38.75 39.13 39.52 40.49 41.79 44.10 43.63 42.59 40.68 40.95 44.05 46.57 47.48 49.25 51.67 45.38 42.92 42.27 43.10 44.72 43.31 45.11 50.81 52.87 53.29 54.45 55.55 54.68 57.58 55.27 56.41 59.32 60.42
38.70 37.37 37.26 37.43 36.84 37.58 37.56 37.70 37.74 38.55 38.17 37.72 38.50 39.58 40.56 44.24 44.67 43.45 41.63 40.70 41.58 46.12 48.47 48.31 44.69 42.67 42.69 44.98 44.31 41.75 42.82 53.91 52.81 53.39 53.70 54.40 55.31 57.08 55.36 56.72 57.49 58.69 58.97
34.40 34.33 35.24 35.15 36.29 37.29 37.43 37.56 37.53 37.63 37.62 37.78 38.28 38.48 39.57 41.65 43.93 45.60 48.86 48.88 44.23 45.66 46.40 48.80 48.65 45.81 43.25 44.09 47.71 51.81 54.31 54.57 54.63 56.00 56.67 56.05 55.92 56.01 56.04 57.27 56.97 57.69 58.62
33.85 34.40 34.70 35.15 35.29 35.70 36.93 37.53 37.68 38.80 38.95 38.60 39.34 40.02 39.82 39.76 41.31 40.87 40.25 43.95 49.36 49.04 49.56 52.46 52.04 50.29 49.74 51.73 53.56 54.92 54.87 54.97 53.98 53.82 53.39 54.22 55.17 56.45 55.60 57.04 58.25 58.90 58.40
32.94 33.00 33.74 34.51 34.45 35.27 35.48 35.89 37.49 37.65 38.07 37.84 37.74 38.69 40.58 39.18 38.88 38.98 39.14 38.63 38.49 39.60 48.74 49.93 48.43 49.81 51.25 53.46 53.65 54.87 54.40 53.78 55.78 56.30 56.24 55.57 55.52 55.90 56.19 57.50 58.83 59.32 58.92
31.62 32.33 33.06 33.68 34.14 34.20 35.19 35.32 34.25 37.50 38.61 38.18 37.41 37.33 37.43 38.12 38.27 38.17 38.51 39.09 39.12 40.93 48.96 49.49 49.21 49.87 51.92 53.65 54.68 53.51 53.36 56.76 57.95 56.66 56.10 56.32 56.43 56.77 56.44 57.75 59.11 59.74 59.31
31.89 33.42 33.81 34.34 34.95 36.04 36.73 36.74 36.41 36.29 36.27 38.27 38.90 38.72 37.87 37.45 37.36 37.44 37.85 40.37 46.19 46.52 50.15 48.85 49.69 51.38 53.75 54.95 54.85 55.63 56.52 56.75 57.28 58.00 58.21 58.03 58.24 57.70 57.31 58.35 58.97 59.06 59.35
32.99 33.59 34.44 35.54 36.66 38.02 39.63 39.32 37.95 37.02 37.63 38.25 39.68 40.84 38.78 37.33 37.45 37.29 37.10 47.86 45.56 45.54 46.54 47.31 48.72 53.25 54.44 55.34 57.12 57.28 57.63 58.06 58.14 58.72 58.44 58.44 58.53 58.43 58.53 59.64 58.93 47.02 51.98
32.87 33.90 34.79 36.55 39.51 39.91 39.14 37.94 37.30 37.58 38.17 38.27 40.09 41.67 41.47 40.33 42.05 45.12 47.56 46.39 45.16 45.26 46.51 47.50 47.84 54.48 55.74 55.61 56.55 56.93 56.72 57.18 58.47 58.49 58.48 58.40 58.78 58.79 58.35 59.41 59.61 58.82 59.25
33.54 34.99 34.92 39.56 40.67 39.16 38.78 37.46 37.97 38.32 38.53 40.41 40.90 41.72 34.61 45.58 46.42 46.96 46.20 45.35 45.19 45.76 47.11 46.30 47.81 55.81 56.23 57.03 57.38 57.49 58.33 58.42 58.48 58.07 57.81 57.76 58.12 58.35 59.32 59.52 60.17 60.52 60.67
33.83 35.12 37.24 38.50 40.22 39.58 39.12 39.60 39.32 39.78 40.61 39.94 41.08 42.17 34.17 45.72 46.10 46.36 46.32 45.26 45.97 46.36 46.54 47.12 49.30 56.41 57.68 57.77 58.43 58.46 58.25 57.90 57.06 57.59 58.41 59.28 60.17 60.16 60.20 60.36 60.28 60.64 60.76
33.62 34.27 35.32 36.80 37.63 37.49 39.60 39.71 39.57 39.60 39.47 39.99 40.38 42.32 42.07 43.74 47.35 47.38 47.12 45.59 45.68 46.53 47.60 49.74 52.62 55.92 57.77 58.60 59.06 58.99 58.25 56.94 58.00 59.66 59.74 59.54 59.28 59.26 59.95 59.86 59.54 59.90 59.89
32.50 32.59 33.03 34.05 34.91 36.61 39.02 40.25 41.35 38.19 39.97 40.89 40.90 42.06 45.19 47.17 47.99 46.02 44.39 44.30 45.18 48.85 50.56 52.60 54.64 55.90 57.36 58.05 57.96 57.43 57.44 57.71 59.48 60.23 58.80 57.34 56.88 55.81 59.04 59.82 60.10 58.45 57.94
30.93 31.06 30.99 31.34 32.14 33.44 35.10 36.96 39.30 41.04 41.87 42.29 42.71 43.77 45.32 47.03 48.30 47.01 45.45 45.63 45.75 48.94 52.42 54.10 54.57 55.33 56.94 56.72 56.49 57.23 44.80 37.85 56.50 47.56 58.65 58.13 56.20 55.76 57.17 57.50 58.27 58.14 57.51
29.49 29.32 29.67 29.97 30.17 30.82 31.26 32.44 34.21 35.41 36.85 39.11 42.46 44.27 45.65 47.84 48.45 46.92 46.70 47.55 48.75 51.25 52.47 54.44 54.89 55.59 56.20 57.27 57.09 41.77 34.56 35.64 48.63 38.24 57.53 58.89 57.31 56.60 56.99 56.97 57.00 56.37 53.36

GFSGL_sfc_wetblb_120.txt.gz
Wetbulb
62.66 63.48 63.40 63.28 63.45 63.86 63.79 64.29 65.19 66.14 66.42 65.97 65.85 65.86 65.66 65.45 65.62 65.48 64.93 63.49 62.37 63.79 64.19 62.63 62.85 64.35 61.06 60.63 60.56 60.03 59.63 59.28 56.61 58.95 62.09 65.47 68.38 67.99 68.75 69.38 69.08 69.74 69.39
59.97 60.39 60.69 61.08 61.41 62.11 62.66 63.23 63.95 63.89 64.60 64.24 64.12 64.15 64.42 64.68 65.13 64.37 63.42 62.96 61.76 62.19 62.37 62.25 61.61 60.59 64.62 64.28 61.00 63.34 61.20 62.50 59.02 60.12 61.08 60.93 64.82 67.61 67.55 67.84 67.45 68.98 68.38
58.40 58.54 59.06 59.56 59.80 59.94 60.23 60.48 60.79 60.74 61.12 61.59 61.94 62.09 62.29 62.56 62.80 63.40 63.35 62.87 62.64 63.46 63.45 63.17 63.06 63.32 63.03 60.79 62.27 60.57 59.39 60.23 58.95 57.64 58.25 60.62 61.39 63.62 65.52 66.67 67.42 68.67 68.59
57.00 56.97 57.16 57.79 57.89 57.95 58.38 58.55 58.76 58.96 58.74 58.99 59.51 59.57 59.72 60.17 60.63 61.24 61.68 62.37 63.59 62.95 63.96 63.41 62.77 62.43 62.37 62.91 61.84 62.37 60.94 59.27 58.57 56.90 56.67 58.15 59.71 62.41 63.90 63.37 63.74 67.14 66.75
55.58 55.55 56.01 56.64 56.78 56.43 56.42 56.60 56.90 56.98 56.78 56.98 56.59 56.80 57.29 57.82 57.45 58.86 59.22 59.69 61.46 61.78 63.16 61.90 62.20 61.45 58.43 59.44 60.08 60.97 61.18 58.61 55.86 54.81 54.98 56.09 57.48 59.02 60.20 63.13 63.08 63.68 65.51
54.52 54.29 54.76 54.60 54.75 54.72 55.05 54.92 54.98 54.84 54.77 54.92 54.85 54.79 55.07 55.00 49.81 47.78 51.60 56.17 58.06 58.43 59.89 60.29 61.96 58.72 57.60 54.06 53.56 53.49 56.57 59.23 57.63 54.32 54.05 54.40 56.60 59.42 60.10 59.67 61.38 59.25 59.13
53.26 53.29 53.13 53.26 52.85 53.06 53.14 52.90 52.60 53.04 53.80 53.62 54.09 54.29 54.27 55.26 48.08 46.20 47.51 53.82 54.22 55.82 56.08 56.94 57.82 57.51 57.44 59.32 54.81 52.30 52.47 50.88 51.38 55.98 54.60 55.31 56.13 57.98 60.59 60.77 60.30 60.70 60.32
52.00 51.91 52.04 51.84 51.04 51.27 51.33 51.40 51.93 52.55 52.71 52.70 53.04 53.83 53.54 53.64 46.21 43.74 44.87 51.49 52.32 53.14 55.20 55.32 56.26 57.51 56.97 56.41 57.43 56.80 57.24 58.14 56.78 56.77 58.05 57.96 58.07 59.26 59.94 60.71 61.20 61.75 62.48
50.39 50.17 50.19 50.14 49.74 50.03 49.96 50.61 51.24 51.09 50.11 49.90 50.36 50.28 50.48 50.41 44.43 42.99 44.32 47.26 47.66 48.85 51.87 54.01 54.71 55.36 51.82 47.45 53.68 53.76 56.15 56.61 53.93 49.18 48.74 47.68 47.29 47.98 51.63 58.93 58.04 58.54 56.47
48.84 48.97 49.50 49.62 49.28 48.83 48.99 47.82 47.71 47.38 46.69 46.90 45.97 46.65 46.49 46.81 43.12 41.94 43.06 45.94 47.00 49.41 52.06 52.53 48.57 50.49 46.32 43.97 52.25 53.07 51.74 52.85 54.43 56.28 57.12 53.83 49.81 55.01 49.14 58.68 58.67 57.23 54.26
48.53 48.51 48.45 48.77 47.23 46.15 45.60 45.02 42.98 41.46 40.33 40.42 40.39 41.22 41.96 42.58 43.71 41.72 41.82 44.54 45.80 47.58 47.95 48.43 50.02 44.63 42.99 43.22 43.57 49.96 49.49 52.33 53.15 54.27 54.28 57.57 57.64 57.40 57.60 58.72 60.10 59.27 54.90
47.43 46.38 45.66 44.55 41.70 39.99 39.13 38.49 38.11 38.32 38.75 39.21 39.86 40.27 41.62 42.44 42.52 42.52 40.91 41.01 44.42 46.72 46.26 47.87 49.35 43.99 42.59 41.79 43.48 45.08 43.44 45.71 53.42 53.30 53.42 53.75 54.48 56.73 57.69 60.22 60.75 59.17 57.50
42.07 40.34 38.56 37.79 36.83 37.16 36.77 36.53 37.23 37.89 37.82 37.88 38.86 39.18 39.76 42.60 45.93 42.99 41.60 40.78 41.84 44.38 48.47 48.03 43.15 42.10 42.05 44.27 42.32 42.34 42.60 50.07 50.48 50.06 49.40 50.64 54.53 58.14 59.97 58.35 57.11 56.88 58.15
35.48 35.01 35.33 35.45 36.45 37.44 38.28 37.83 37.43 37.65 38.01 38.50 38.70 38.92 39.65 42.75 44.36 45.98 45.49 44.10 43.52 47.11 47.84 49.74 48.30 46.52 43.20 45.75 47.46 48.70 50.36 51.04 48.76 48.46 49.98 52.36 55.52 55.70 56.14 56.35 53.61 55.91 56.62
34.77 35.37 35.21 35.53 35.95 36.47 36.92 37.22 37.47 38.86 39.06 38.52 38.88 39.40 39.75 40.39 41.67 41.58 39.84 40.83 41.93 44.34 43.54 51.31 52.09 51.66 51.99 50.45 52.69 52.61 53.90 53.20 54.65 53.13 51.93 53.65 54.95 54.53 54.35 55.60 55.75 57.39 56.59
33.60 33.31 33.20 34.37 35.07 35.58 35.75 36.03 38.08 37.58 37.72 37.30 37.08 37.46 39.12 38.78 38.26 38.24 38.19 37.93 38.06 38.35 47.58 49.98 50.19 51.16 49.52 52.29 52.20 53.00 54.31 52.23 53.42 54.16 55.01 55.42 54.10 55.22 55.67 56.63 57.67 57.30 57.25
31.47 31.94 32.50 33.84 34.51 35.25 36.79 37.09 36.45 38.82 38.57 37.82 37.22 37.17 37.13 37.54 37.65 37.57 37.83 37.41 37.04 38.78 48.63 49.05 49.71 50.17 50.35 53.67 52.72 53.65 54.81 54.97 55.78 54.76 55.01 56.95 57.41 57.52 56.60 57.54 58.06 58.40 58.60
32.68 33.61 34.02 34.38 34.92 36.51 38.18 38.40 39.55 38.58 37.20 38.64 39.55 38.64 38.30 37.09 37.01 36.68 36.88 37.52 44.67 46.36 49.29 49.05 51.31 51.51 53.17 54.22 55.08 55.46 56.94 58.61 57.99 58.31 57.84 58.47 58.72 57.86 57.98 58.34 58.97 58.76 59.55
32.72 32.86 33.72 34.56 36.21 37.93 40.20 40.20 39.61 38.80 38.62 39.39 40.38 40.78 40.20 37.58 37.10 37.12 37.16 44.47 47.18 46.90 47.61 50.09 51.19 53.52 53.72 55.29 56.11 57.33 58.26 59.00 58.82 59.05 59.20 59.16 58.71 58.08 58.07 58.21 58.25 46.52 52.77
33.16 34.02 34.53 35.75 38.04 40.94 40.36 39.29 38.84 39.06 39.09 39.53 40.94 42.90 43.31 41.97 44.00 45.46 45.90 48.70 49.31 46.67 49.21 50.68 52.02 54.17 55.89 55.50 56.11 58.22 58.19 58.86 60.02 59.07 59.13 59.23 59.59 59.45 58.97 59.15 59.23 58.13 58.74
34.08 34.71 33.93 38.87 40.54 40.99 40.18 39.87 40.26 40.62 40.58 41.14 42.27 41.98 34.01 43.75 45.75 45.96 47.60 50.82 47.43 46.55 50.45 52.20 52.51 56.05 56.84 58.16 58.38 58.36 58.48 59.29 59.85 59.97 59.65 59.74 59.65 58.62 59.38 59.78 59.66 60.14 59.39
34.81 35.32 36.66 38.30 40.31 40.55 40.37 41.06 42.82 42.64 40.68 40.47 41.71 45.28 35.65 46.99 48.30 48.81 49.60 47.32 47.22 47.63 51.53 52.66 53.88 57.13 59.30 57.29 59.32 59.77 58.26 59.08 59.87 59.76 59.47 59.45 59.72 59.44 59.60 59.64 59.87 60.49 59.25
34.19 33.94 34.96 37.01 39.43 38.47 40.62 42.74 42.51 41.79 40.97 41.29 41.65 42.30 45.62 47.73 48.77 50.62 49.59 48.08 47.28 49.20 51.79 53.30 55.53 59.51 60.41 61.16 60.57 58.64 58.55 59.76 60.53 61.08 60.41 60.23 60.17 60.45 60.55 59.62 59.32 59.31 58.84
32.55 32.33 32.31 34.00 35.55 36.52 37.66 40.37 40.75 39.26 41.83 43.26 44.97 46.50 47.02 47.73 47.97 47.36 45.46 45.85 46.67 50.07 52.92 55.68 57.12 59.22 59.61 59.81 60.64 62.10 60.85 61.31 61.69 61.48 60.87 59.95 58.26 56.29 59.63 59.67 60.38 58.97 59.88
31.39 31.13 30.89 31.22 31.57 32.10 33.47 35.44 36.64 37.42 38.59 41.76 44.96 46.57 47.97 47.89 46.82 46.67 47.09 46.34 46.16 49.02 54.80 56.53 58.22 59.05 59.84 59.29 59.46 59.71 46.06 37.39 56.83 47.38 59.34 58.78 58.16 56.95 57.75 58.11 58.92 58.82 57.83
30.41 30.16 30.24 30.30 30.06 30.36 30.46 31.36 32.47 33.71 35.60 37.68 40.04 42.24 43.57 44.57 46.36 46.76 46.85 49.53 52.08 55.82 57.45 58.50 59.15 59.79 59.74 59.47 58.57 40.78 35.58 37.62 50.76 39.13 58.31 59.85 58.39 57.63 57.36 57.21 56.90 57.55 57.02

GFSGL_sfc_wetblb_123.txt.gz
Wetbulb
64.22 64.66 65.04 65.33 65.07 65.41 65.44 65.77 66.07 66.97 67.03 66.68 66.37 66.16 66.34 68.24 68.98 68.64 68.15 67.10 66.14 66.11 65.59 65.17 65.22 65.88 63.09 62.94 62.98 62.20 61.48 61.03 58.05 59.52 62.00 63.99 65.68 65.42 65.48 68.70 68.14 68.90 68.13
62.35 62.52 62.76 62.74 62.91 63.30 64.01 64.25 64.98 64.91 65.33 64.98 64.94 64.58 64.34 65.18 67.70 67.55 66.02 65.75 65.48 64.88 64.70 64.94 64.10 64.28 64.58 64.39 62.88 62.43 61.50 62.41 60.36 58.99 61.19 61.34 63.22 65.83 66.53 67.48 66.71 66.47 67.72
60.20 60.16 61.06 61.27 61.81 61.63 61.89 62.38 62.41 62.18 62.08 62.20 62.02 62.02 62.58 63.60 64.95 65.74 66.00 65.60 64.96 64.89 64.66 64.64 63.95 63.78 62.99 62.97 63.41 62.55 62.60 62.49 62.31 60.43 59.43 60.60 60.41 61.54 62.31 64.59 64.34 67.35 67.53
59.07 58.85 59.01 59.49 59.99 60.01 60.22 60.28 60.25 60.34 60.17 60.10 60.54 60.46 60.69 60.80 61.45 62.41 62.47 63.66 64.49 64.81 64.47 64.49 64.55 63.53 63.04 63.11 62.56 62.38 62.31 61.50 61.32 59.93 59.23 59.10 59.44 61.35 62.20 61.46 61.58 64.92 64.44
57.77 57.56 58.06 58.81 58.90 58.61 58.40 58.48 58.67 58.64 58.44 58.55 58.08 58.23 59.18 59.61 58.66 60.59 61.56 61.82 62.03 62.22 62.82 63.36 63.54 62.77 60.27 60.49 61.52 61.86 61.27 60.62 59.85 58.87 57.32 57.10 56.73 57.05 58.52 56.57 59.86 61.64 63.94
56.62 56.22 56.90 56.85 56.82 56.89 57.06 57.34 58.01 56.99 56.85 56.77 56.68 55.98 57.65 56.79 50.78 48.39 51.32 56.90 57.70 57.72 57.86 59.20 60.80 58.62 58.92 54.66 54.73 54.82 57.74 59.71 58.66 56.89 57.09 56.56 57.99 56.96 57.98 56.89 54.40 57.76 57.42
55.48 55.38 55.35 55.33 54.84 55.05 55.30 54.97 56.16 57.01 57.95 55.75 55.91 55.29 56.48 57.69 49.28 47.23 47.70 54.65 55.80 56.88 57.40 57.42 57.22 56.18 56.13 58.36 55.77 52.91 53.22 51.82 52.63 57.80 56.48 56.42 56.96 58.69 58.67 57.40 55.76 58.93 58.87
54.03 53.91 53.96 53.56 53.07 53.21 52.97 53.80 55.76 55.42 55.79 55.12 54.84 55.25 55.78 55.87 46.60 43.65 44.65 50.57 51.96 53.12 53.54 54.25 54.97 55.94 57.04 56.57 57.31 57.03 57.47 59.47 57.62 54.77 55.43 57.61 58.99 59.98 59.98 58.26 57.47 58.40 60.19
52.47 52.30 52.04 51.79 51.31 51.43 51.12 52.68 53.67 53.29 52.06 51.17 51.01 51.10 50.82 50.92 45.10 41.86 42.98 47.26 47.61 49.10 50.88 51.78 51.37 51.17 49.58 46.82 52.69 54.61 56.08 57.49 55.06 50.58 51.00 49.50 48.74 48.09 50.79 56.37 53.56 52.99 53.58
51.00 50.95 51.00 51.10 50.84 50.46 50.82 49.45 48.77 48.43 47.44 46.91 45.29 45.50 43.97 43.36 42.57 41.77 42.21 43.20 43.40 44.44 45.89 47.20 46.81 47.03 46.71 43.77 52.94 53.77 54.33 55.43 56.04 55.41 52.68 48.71 47.30 52.67 47.06 54.41 55.63 53.36 53.18
50.49 50.25 50.43 50.63 49.20 47.45 46.04 44.82 42.91 40.60 40.19 40.19 39.87 40.65 41.91 42.72 43.32 41.41 41.04 42.82 42.97 42.61 43.85 45.35 49.08 45.05 42.91 42.65 43.14 52.38 53.31 52.91 52.07 53.43 53.41 53.87 54.86 55.39 57.14 58.44 58.04 56.42 56.22
49.28 48.25 47.19 45.36 43.83 40.93 38.90 38.38 38.31 39.19 38.72 37.99 38.35 39.39 40.57 42.30 42.52 41.75 40.63 40.85 42.18 43.70 44.56 47.25 49.25 43.70 42.16 42.39 43.29 43.81 42.47 44.48 51.45 51.53 52.13 53.16 54.59 55.36 56.40 58.64 59.90 59.65 60.38
44.56 42.97 42.27 40.82 37.77 37.43 36.26 36.85 38.18 39.40 38.47 37.54 38.00 38.80 40.21 42.40 43.85 42.41 40.68 40.18 40.78 43.01 45.88 46.37 43.76 42.18 41.44 42.37 41.32 41.83 41.98 51.26 51.57 51.25 51.73 52.29 53.60 55.10 58.48 59.68 60.74 61.20 60.22
38.06 36.34 36.39 36.19 36.65 36.86 37.27 38.85 38.88 38.44 38.07 38.09 38.24 38.81 40.24 41.36 41.94 42.94 45.95 45.90 43.08 43.40 44.77 46.20 45.74 44.98 44.84 46.73 46.85 48.75 51.83 52.69 50.69 49.42 50.59 53.17 55.00 55.53 56.72 55.96 58.58 59.25 57.55
34.54 34.57 35.33 35.12 35.14 34.59 36.01 37.19 37.67 39.41 39.74 38.54 38.62 38.95 38.32 38.63 40.25 39.92 38.93 41.28 41.15 40.49 40.20 41.87 44.46 48.16 50.03 50.85 51.74 51.86 51.75 51.49 50.04 49.64 49.21 49.31 50.72 53.86 54.89 57.74 58.43 56.66 54.97
32.37 32.22 32.94 33.54 33.82 34.14 34.54 35.69 38.73 38.12 38.12 37.62 37.33 37.34 38.63 38.26 37.74 37.84 37.88 37.60 37.37 37.58 38.95 40.75 47.77 49.18 48.83 51.10 49.98 51.24 52.49 52.26 53.37 54.02 50.84 50.47 51.14 51.80 53.55 55.32 55.60 54.88 54.38
32.06 32.16 32.57 33.51 33.82 33.70 34.42 36.80 37.12 39.95 39.71 38.65 37.57 37.22 37.07 37.22 37.32 37.33 37.31 36.79 36.41 36.96 41.88 48.29 49.01 49.82 50.09 50.93 51.85 52.12 52.45 53.29 54.55 52.01 51.49 52.05 53.71 54.44 52.57 53.98 54.36 56.25 56.46
32.94 33.66 33.81 33.82 34.18 34.27 36.38 38.60 40.05 39.92 39.35 40.22 40.22 38.98 38.90 37.54 36.96 36.71 36.45 37.00 40.61 43.65 46.48 47.95 48.27 50.45 51.13 52.37 52.30 52.64 53.64 54.91 54.08 55.19 55.97 56.74 57.40 55.75 55.51 55.86 56.37 54.73 55.73
32.90 34.07 34.78 34.89 35.31 36.80 38.68 41.40 40.91 40.46 39.74 40.02 41.39 41.75 40.90 37.50 37.15 37.09 37.01 43.23 44.26 46.38 48.85 47.78 50.82 51.61 53.22 54.18 54.36 54.71 55.51 55.30 56.36 56.25 57.26 58.56 57.76 56.16 55.38 55.94 55.69 48.24 52.75
34.68 34.67 35.17 36.40 37.62 41.27 42.40 41.16 40.57 40.46 40.69 41.63 42.14 43.43 45.07 43.72 46.15 47.57 48.55 48.21 49.31 48.10 47.57 49.43 51.08 52.56 54.71 55.01 54.95 56.74 57.73 58.05 57.91 57.18 59.18 60.05 59.98 58.88 57.90 58.64 58.98 58.33 59.39
35.04 36.09 34.30 39.21 41.53 42.21 42.68 42.03 43.19 43.08 41.11 41.26 44.07 44.53 34.68 44.42 46.55 47.55 49.43 47.73 48.31 47.07 48.13 51.15 52.19 52.63 54.93 54.71 58.00 58.44 58.43 57.28 59.54 59.48 59.63 60.66 60.57 59.21 60.38 58.00 59.28 57.56 59.57
35.35 34.73 36.53 39.74 41.83 41.34 40.78 42.06 43.69 41.87 41.35 41.82 43.93 45.19 36.40 47.73 48.35 48.95 49.18 49.77 49.59 48.90 51.44 52.61 51.77 52.11 56.06 56.95 58.29 57.18 59.33 59.08 59.76 60.02 59.43 59.27 59.31 58.90 59.23 58.17 58.75 59.07 58.75
34.59 33.73 34.75 37.13 38.35 37.55 40.24 41.22 40.66 40.48 40.81 43.72 47.06 45.61 45.30 47.96 49.14 48.08 48.82 49.38 49.05 51.01 53.52 53.24 53.70 56.39 58.68 60.70 59.36 59.72 57.62 59.47 60.99 61.05 60.31 57.82 57.42 57.68 57.62 59.00 58.80 59.38 59.37
33.22 32.77 32.39 32.29 32.99 34.43 36.07 37.92 39.57 37.24 39.96 44.43 43.40 43.27 44.22 47.11 47.67 49.25 48.83 48.84 50.10 51.71 53.99 54.68 57.30 57.16 57.76 59.06 58.27 60.31 61.28 61.40 62.38 61.25 60.89 58.09 58.42 56.68 58.14 58.26 58.28 59.00 59.80
32.27 31.88 31.50 30.95 30.80 30.76 31.98 33.46 34.67 35.95 39.24 41.86 42.88 41.89 41.70 42.89 43.59 45.68 47.29 47.83 50.13 52.83 54.21 56.26 57.88 59.57 60.20 60.14 59.49 58.64 42.19 38.70 54.00 43.24 59.52 58.97 58.03 58.23 57.69 57.50 57.95 58.47 58.39
30.82 31.03 30.79 30.81 30.48 30.39 30.12 30.38 31.84 33.25 34.53 36.46 38.54 39.29 39.14 39.55 40.43 41.24 41.92 45.83 51.87 55.65 56.78 58.20 59.35 59.78 60.17 58.58 53.92 38.62 36.52 37.06 47.70 38.05 57.68 59.13 58.11 57.80 57.46 56.96 57.13 57.11 57.40

GFSGL_sfc_wetblb_126.txt.gz
Wetbulb
65.82 66.54 66.58 66.00 66.32 66.74 66.93 67.12 67.32 67.58 67.39 66.60 67.15 67.04 67.16 67.19 67.24 67.04 65.96 64.66 63.81 64.27 63.48 62.01 62.09 63.15 62.48 60.44 60.09 59.44 58.37 57.47 54.82 55.91 58.07 59.11 60.04 58.87 59.15 60.57 62.38 62.97 63.19
63.62 64.12 64.29 64.32 64.21 65.19 64.69 64.84 64.93 64.28 64.97 64.33 64.83 64.66 64.52 64.60 65.41 65.57 64.45 64.09 63.60 63.08 62.84 62.46 62.12 62.68 61.43 61.35 61.00 59.48 58.87 58.60 56.73 54.31 56.81 57.38 58.01 60.94 57.88 57.47 58.45 61.20 60.55
60.87 60.86 63.23 62.73 62.93 63.45 63.50 63.50 63.43 62.72 62.27 62.39 61.79 61.33 61.19 61.40 61.73 62.45 62.82 63.24 62.95 62.74 62.75 62.28 61.68 61.74 60.59 60.78 60.89 60.05 60.11 60.12 59.36 57.70 56.63 58.62 57.73 57.09 56.12 57.62 58.13 59.39 61.82
59.18 59.81 60.79 61.74 61.63 61.85 62.18 62.06 61.45 61.00 60.16 60.14 59.98 59.71 59.70 59.77 59.90 60.03 60.09 60.04 60.28 60.81 62.05 62.03 61.56 61.08 60.53 60.63 60.02 59.36 59.39 58.70 58.06 57.18 56.64 56.60 56.68 56.94 57.44 54.68 54.80 57.49 57.55
57.94 57.82 58.83 60.34 60.80 60.24 60.16 60.05 59.77 59.35 58.50 58.32 57.68 57.49 57.68 57.72 57.88 57.20 57.39 56.88 56.62 56.72 57.63 58.54 59.49 59.87 58.85 58.85 59.81 58.83 58.56 57.57 57.11 56.42 55.81 55.93 55.93 54.16 53.38 54.51 53.82 54.52 55.44
57.17 56.25 56.97 57.15 57.17 57.55 58.17 57.92 57.92 57.30 57.34 57.23 56.41 55.66 55.25 55.56 50.50 49.91 51.12 53.45 54.16 54.00 53.56 54.65 55.49 55.71 55.35 53.25 53.51 54.32 55.86 56.91 55.91 55.67 55.23 54.48 54.13 55.07 55.81 53.26 53.27 51.14 49.42
55.73 55.32 55.15 55.06 54.58 54.96 55.29 55.31 54.95 55.72 56.48 55.14 54.54 54.40 53.61 54.25 48.90 46.01 46.88 50.85 51.60 52.02 52.82 53.26 53.60 54.92 53.71 54.87 53.85 52.17 51.98 51.31 52.25 55.43 54.98 54.84 54.59 55.20 54.82 53.78 52.81 52.21 50.88
54.16 53.80 53.74 53.32 52.60 52.85 52.78 52.56 53.41 53.33 53.19 53.12 53.26 53.17 52.82 52.22 45.05 42.60 43.24 47.86 49.37 49.84 50.29 50.27 50.59 51.00 51.43 51.70 52.34 53.02 53.87 54.92 55.50 55.71 54.31 54.85 56.10 56.67 56.16 55.01 54.20 53.74 53.76
52.54 52.46 52.22 51.65 50.74 50.67 50.46 51.32 51.65 50.19 49.53 49.46 49.62 49.16 48.97 48.90 44.21 42.04 42.65 43.76 43.64 44.48 46.15 47.19 47.40 47.55 46.14 44.19 47.15 47.90 49.42 51.31 52.44 50.38 49.58 49.68 48.61 47.64 51.41 55.21 53.11 51.85 50.15
51.18 51.03 51.07 50.98 50.54 49.46 48.38 47.91 47.41 46.75 45.57 45.60 44.41 43.32 42.45 42.87 42.57 41.16 41.15 42.37 41.73 42.38 43.93 45.35 45.37 44.80 43.20 42.87 45.39 46.57 48.02 50.32 52.54 54.17 54.87 50.10 48.03 51.02 48.05 54.24 53.41 50.88 50.56
50.32 49.96 49.65 49.07 46.98 46.54 45.26 44.03 41.74 40.16 39.19 38.72 39.55 41.24 42.41 42.70 42.48 40.92 40.91 41.91 41.82 41.57 42.09 43.00 44.32 43.07 41.75 41.60 42.11 46.49 48.76 50.11 50.65 52.48 52.69 53.64 53.61 52.17 53.19 52.82 54.20 52.49 50.34
47.47 45.72 45.25 44.58 42.12 40.14 38.61 38.55 37.79 37.15 36.66 38.15 39.33 39.60 41.17 42.85 42.83 41.76 40.37 40.37 42.09 41.44 41.44 43.52 45.05 42.84 41.34 40.85 41.29 42.76 42.01 43.73 47.75 47.97 48.81 50.19 51.24 52.16 52.57 53.49 54.42 55.04 55.52
42.10 41.47 39.70 37.30 36.54 37.11 36.82 36.66 36.28 36.90 37.36 38.60 38.37 38.42 39.41 41.39 42.53 42.45 40.62 39.97 40.73 40.95 42.63 43.55 41.63 40.93 40.74 42.23 42.43 41.85 41.30 45.72 46.30 46.26 47.44 48.34 49.60 51.51 53.16 54.00 54.76 55.81 56.61
37.14 34.93 35.58 35.18 35.49 36.16 36.38 36.10 35.56 35.79 35.79 37.23 37.92 38.34 38.97 39.87 40.90 42.02 43.11 43.55 43.14 43.55 43.12 42.06 41.36 40.60 40.91 42.27 43.36 46.33 47.43 47.54 47.37 47.23 48.22 49.78 51.32 51.48 51.20 53.39 53.45 54.86 54.51
34.42 33.96 33.46 33.84 34.02 34.24 35.03 35.03 34.82 36.29 37.67 37.59 38.18 38.36 37.99 37.69 38.84 39.70 38.83 39.10 39.47 39.70 39.03 39.79 40.19 42.33 43.59 46.42 48.28 50.10 50.01 49.58 48.98 48.98 49.39 49.34 48.90 49.55 51.23 53.47 53.93 54.46 53.60
32.45 31.87 32.53 33.33 33.95 34.22 34.44 34.77 37.19 37.41 37.86 37.75 37.80 37.78 39.28 38.63 37.92 37.64 37.67 37.31 36.98 36.93 38.27 38.29 38.99 42.09 44.85 48.09 48.74 49.25 50.46 49.95 50.81 50.63 49.88 49.38 48.82 48.38 48.00 52.17 54.28 53.64 53.87
32.03 32.47 33.10 34.11 34.53 34.10 34.16 34.65 34.71 39.08 39.92 38.97 38.17 37.89 37.79 37.90 37.41 37.02 37.05 36.67 36.34 36.20 37.42 39.70 42.29 44.86 48.27 49.43 49.47 49.89 50.82 52.31 53.82 52.19 52.39 50.90 49.71 49.59 47.76 50.38 52.50 54.05 54.25
33.97 34.21 34.29 34.53 34.66 34.74 35.15 36.09 38.02 39.79 39.22 40.20 41.09 39.63 39.48 38.03 37.45 36.78 36.55 36.68 39.68 40.22 40.50 41.90 45.66 47.64 48.71 49.97 51.27 51.63 52.21 52.81 54.60 52.73 51.32 51.06 51.22 51.11 50.87 52.10 53.56 53.49 53.27
34.47 34.56 35.34 35.90 36.33 36.91 37.61 38.73 41.74 40.74 40.51 41.39 42.62 42.55 41.90 40.23 37.88 36.81 37.03 40.68 42.33 43.65 45.98 47.96 47.84 49.80 50.67 52.50 52.22 52.56 52.97 54.17 54.36 55.49 53.95 53.88 53.70 53.26 53.18 53.77 53.04 46.35 49.00
34.49 35.15 35.76 36.72 37.96 40.53 41.46 42.26 42.83 42.14 41.51 41.71 43.02 44.70 46.53 43.39 45.37 47.44 46.44 47.14 46.93 46.00 47.27 47.53 49.18 51.19 52.41 53.63 53.71 54.51 53.92 53.28 54.82 55.00 55.77 55.69 55.72 55.52 54.10 54.24 54.41 54.07 54.89
34.42 35.11 33.73 38.54 40.67 41.56 41.33 40.52 41.80 41.49 41.13 41.80 43.56 45.11 34.58 42.56 45.85 46.67 46.57 48.66 47.95 47.17 47.29 48.46 50.99 51.98 53.70 54.47 54.55 55.43 55.45 55.82 57.34 56.83 56.46 55.11 54.73 53.52 55.58 55.23 54.39 55.07 55.71
34.61 34.24 35.89 37.61 38.46 39.68 39.81 40.19 40.00 39.76 41.26 42.75 43.18 43.82 37.81 47.41 47.86 47.17 48.68 48.75 48.59 49.22 50.84 51.28 51.97 52.41 53.31 55.25 55.61 55.03 55.29 55.95 56.86 56.69 55.82 56.96 56.57 57.11 57.30 56.52 56.70 56.66 55.35
33.96 33.33 33.10 33.11 33.75 34.50 36.97 39.81 38.76 37.81 40.57 42.58 42.05 41.63 41.94 42.78 44.79 47.12 48.62 49.23 49.55 50.20 51.80 52.62 51.94 52.42 56.79 56.69 56.61 56.82 55.95 56.92 58.30 56.93 56.50 56.71 55.97 55.87 56.22 56.44 57.19 57.01 55.81
33.00 32.54 32.00 31.59 31.84 31.57 32.19 34.20 36.46 35.57 38.00 39.91 39.59 40.12 39.65 40.09 41.24 42.36 43.63 45.56 48.00 50.99 51.12 51.93 52.63 55.71 55.69 56.37 58.26 58.92 54.98 54.96 58.40 57.21 56.98 56.66 55.96 53.34 55.78 57.62 57.16 57.38 55.53
32.35 31.19 30.71 30.56 30.21 30.17 30.52 31.53 32.41 33.43 34.82 35.64 36.74 36.59 36.57 37.78 38.61 39.29 40.62 42.52 48.19 52.03 52.84 54.56 55.95 56.19 57.59 57.20 54.61 49.26 40.51 37.62 46.23 43.63 57.98 57.90 56.39 55.81 55.62 56.16 56.91 57.66 55.82
31.19 30.62 30.17 30.43 30.26 30.03 29.91 30.22 30.83 31.42 31.71 32.70 33.51 33.74 34.70 35.48 36.54 37.54 39.00 43.01 46.29 48.42 52.04 55.74 57.00 55.83 52.16 48.14 42.66 36.57 35.79 36.33 43.36 37.57 56.62 57.07 56.24 55.26 55.21 55.30 55.09 56.36 56.49